<?xml version="1.0" encoding="UTF-8" standalone="no" ?>
<gpx xmlns="http://www.topografix.com/GPX/1/1" xmlns:xsi="http://www.w3.org/2001/XMLSchema-instance" xsi:schemaLocation="http://www.topografix.com/GPX/1/1 http://www.topografix.com/GPX/1/1/gpx.xsd" version="1.1" creator="VisuGPX - https://www.visugpx.com">
  <metadata>
    <name>Trégueux : Téléthon 2013</name>
    <desc><![CDATA[Le circuit du Téléthon 2013 à Trégueux. Départ et arrivée à Bleu-Pluriel.
Aucune difficulté.]]></desc>
  </metadata>
  <trk>
    <name><![CDATA[Trégueux : Téléthon 2013_1]]></name>
    <trkseg>
      <trkpt lat="48.48761" lon="-2.74012">
        <ele>19</ele>
        <time>2013-12-07T08:37:06.1Z</time>
      </trkpt>
      <trkpt lat="48.48761" lon="-2.74012">
        <ele>19</ele>
        <time>2013-12-07T08:37:08.1Z</time>
      </trkpt>
      <trkpt lat="48.48763" lon="-2.74012">
        <ele>19</ele>
        <time>2013-12-07T08:37:10.1Z</time>
      </trkpt>
      <trkpt lat="48.48766" lon="-2.74011">
        <ele>19</ele>
        <time>2013-12-07T08:37:13.1Z</time>
      </trkpt>
      <trkpt lat="48.48769" lon="-2.74009">
        <ele>19</ele>
        <time>2013-12-07T08:37:16.1Z</time>
      </trkpt>
      <trkpt lat="48.48772" lon="-2.74007">
        <ele>19</ele>
        <time>2013-12-07T08:37:19.1Z</time>
      </trkpt>
      <trkpt lat="48.48775" lon="-2.74004">
        <ele>18</ele>
        <time>2013-12-07T08:37:22.1Z</time>
      </trkpt>
      <trkpt lat="48.48779" lon="-2.74002">
        <ele>18</ele>
        <time>2013-12-07T08:37:25.1Z</time>
      </trkpt>
      <trkpt lat="48.48782" lon="-2.73999">
        <ele>18</ele>
        <time>2013-12-07T08:37:28.1Z</time>
      </trkpt>
      <trkpt lat="48.48784" lon="-2.73997">
        <ele>18</ele>
        <time>2013-12-07T08:37:30.1Z</time>
      </trkpt>
      <trkpt lat="48.48787" lon="-2.73994">
        <ele>18</ele>
        <time>2013-12-07T08:37:33.1Z</time>
      </trkpt>
      <trkpt lat="48.4879" lon="-2.73992">
        <ele>18</ele>
        <time>2013-12-07T08:37:36.1Z</time>
      </trkpt>
      <trkpt lat="48.48793" lon="-2.73989">
        <ele>18</ele>
        <time>2013-12-07T08:37:39.1Z</time>
      </trkpt>
      <trkpt lat="48.48796" lon="-2.73987">
        <ele>17</ele>
        <time>2013-12-07T08:37:42.1Z</time>
      </trkpt>
      <trkpt lat="48.48798" lon="-2.73985">
        <ele>18</ele>
        <time>2013-12-07T08:37:44.1Z</time>
      </trkpt>
      <trkpt lat="48.48801" lon="-2.73982">
        <ele>17</ele>
        <time>2013-12-07T08:37:47.1Z</time>
      </trkpt>
      <trkpt lat="48.48803" lon="-2.7398">
        <ele>17</ele>
        <time>2013-12-07T08:37:49.1Z</time>
      </trkpt>
      <trkpt lat="48.48806" lon="-2.73977">
        <ele>17</ele>
        <time>2013-12-07T08:37:52.1Z</time>
      </trkpt>
      <trkpt lat="48.48809" lon="-2.73975">
        <ele>17</ele>
        <time>2013-12-07T08:37:55.1Z</time>
      </trkpt>
      <trkpt lat="48.48811" lon="-2.73973">
        <ele>17</ele>
        <time>2013-12-07T08:37:57.1Z</time>
      </trkpt>
      <trkpt lat="48.48814" lon="-2.73971">
        <ele>17</ele>
        <time>2013-12-07T08:37:59.1Z</time>
      </trkpt>
      <trkpt lat="48.48817" lon="-2.73968">
        <ele>17</ele>
        <time>2013-12-07T08:38:02.1Z</time>
      </trkpt>
      <trkpt lat="48.48818" lon="-2.73966">
        <ele>17</ele>
        <time>2013-12-07T08:38:04.1Z</time>
      </trkpt>
      <trkpt lat="48.4882" lon="-2.73964">
        <ele>17</ele>
        <time>2013-12-07T08:38:06.1Z</time>
      </trkpt>
      <trkpt lat="48.48823" lon="-2.7396">
        <ele>17</ele>
        <time>2013-12-07T08:38:09.1Z</time>
      </trkpt>
      <trkpt lat="48.48825" lon="-2.73958">
        <ele>17</ele>
        <time>2013-12-07T08:38:11.1Z</time>
      </trkpt>
      <trkpt lat="48.48827" lon="-2.73956">
        <ele>17</ele>
        <time>2013-12-07T08:38:13.1Z</time>
      </trkpt>
      <trkpt lat="48.48829" lon="-2.73952">
        <ele>17</ele>
        <time>2013-12-07T08:38:16.1Z</time>
      </trkpt>
      <trkpt lat="48.48831" lon="-2.73949">
        <ele>18</ele>
        <time>2013-12-07T08:38:18.1Z</time>
      </trkpt>
      <trkpt lat="48.48832" lon="-2.73945">
        <ele>18</ele>
        <time>2013-12-07T08:38:20.1Z</time>
      </trkpt>
      <trkpt lat="48.48834" lon="-2.73941">
        <ele>18</ele>
        <time>2013-12-07T08:38:23.1Z</time>
      </trkpt>
      <trkpt lat="48.48837" lon="-2.73937">
        <ele>17</ele>
        <time>2013-12-07T08:38:26.1Z</time>
      </trkpt>
      <trkpt lat="48.48838" lon="-2.73934">
        <ele>17</ele>
        <time>2013-12-07T08:38:28.1Z</time>
      </trkpt>
      <trkpt lat="48.4884" lon="-2.7393">
        <ele>17</ele>
        <time>2013-12-07T08:38:31.1Z</time>
      </trkpt>
      <trkpt lat="48.48842" lon="-2.73926">
        <ele>17</ele>
        <time>2013-12-07T08:38:34.1Z</time>
      </trkpt>
      <trkpt lat="48.48845" lon="-2.73921">
        <ele>17</ele>
        <time>2013-12-07T08:38:37.1Z</time>
      </trkpt>
      <trkpt lat="48.48847" lon="-2.73919">
        <ele>17</ele>
        <time>2013-12-07T08:38:39.1Z</time>
      </trkpt>
      <trkpt lat="48.48848" lon="-2.73916">
        <ele>17</ele>
        <time>2013-12-07T08:38:41.1Z</time>
      </trkpt>
      <trkpt lat="48.48851" lon="-2.73912">
        <ele>17</ele>
        <time>2013-12-07T08:38:44.1Z</time>
      </trkpt>
      <trkpt lat="48.48853" lon="-2.7391">
        <ele>17</ele>
        <time>2013-12-07T08:38:46.1Z</time>
      </trkpt>
      <trkpt lat="48.48854" lon="-2.73907">
        <ele>17</ele>
        <time>2013-12-07T08:38:48.1Z</time>
      </trkpt>
      <trkpt lat="48.48857" lon="-2.73903">
        <ele>17</ele>
        <time>2013-12-07T08:38:51.1Z</time>
      </trkpt>
      <trkpt lat="48.48858" lon="-2.73901">
        <ele>17</ele>
        <time>2013-12-07T08:38:53.1Z</time>
      </trkpt>
      <trkpt lat="48.48861" lon="-2.73897">
        <ele>17</ele>
        <time>2013-12-07T08:38:56.1Z</time>
      </trkpt>
      <trkpt lat="48.48863" lon="-2.73894">
        <ele>17</ele>
        <time>2013-12-07T08:38:58.1Z</time>
      </trkpt>
      <trkpt lat="48.48864" lon="-2.7389">
        <ele>17</ele>
        <time>2013-12-07T08:39:01.1Z</time>
      </trkpt>
      <trkpt lat="48.48867" lon="-2.73886">
        <ele>17</ele>
        <time>2013-12-07T08:39:04.1Z</time>
      </trkpt>
      <trkpt lat="48.48869" lon="-2.73883">
        <ele>17</ele>
        <time>2013-12-07T08:39:06.1Z</time>
      </trkpt>
      <trkpt lat="48.4887" lon="-2.7388">
        <ele>18</ele>
        <time>2013-12-07T08:39:09.1Z</time>
      </trkpt>
      <trkpt lat="48.48872" lon="-2.73877">
        <ele>17</ele>
        <time>2013-12-07T08:39:11.1Z</time>
      </trkpt>
      <trkpt lat="48.48875" lon="-2.73873">
        <ele>18</ele>
        <time>2013-12-07T08:39:14.1Z</time>
      </trkpt>
      <trkpt lat="48.48877" lon="-2.73869">
        <ele>17</ele>
        <time>2013-12-07T08:39:17.1Z</time>
      </trkpt>
      <trkpt lat="48.48878" lon="-2.73867">
        <ele>17</ele>
        <time>2013-12-07T08:39:19.1Z</time>
      </trkpt>
      <trkpt lat="48.4888" lon="-2.73863">
        <ele>18</ele>
        <time>2013-12-07T08:39:22.1Z</time>
      </trkpt>
      <trkpt lat="48.48883" lon="-2.73859">
        <ele>18</ele>
        <time>2013-12-07T08:39:25.1Z</time>
      </trkpt>
      <trkpt lat="48.48885" lon="-2.73856">
        <ele>18</ele>
        <time>2013-12-07T08:39:27.1Z</time>
      </trkpt>
      <trkpt lat="48.48886" lon="-2.73852">
        <ele>18</ele>
        <time>2013-12-07T08:39:30.1Z</time>
      </trkpt>
      <trkpt lat="48.48889" lon="-2.73848">
        <ele>18</ele>
        <time>2013-12-07T08:39:33.1Z</time>
      </trkpt>
      <trkpt lat="48.4889" lon="-2.73845">
        <ele>18</ele>
        <time>2013-12-07T08:39:35.1Z</time>
      </trkpt>
      <trkpt lat="48.48891" lon="-2.73843">
        <ele>18</ele>
        <time>2013-12-07T08:39:38.1Z</time>
      </trkpt>
      <trkpt lat="48.48893" lon="-2.73843">
        <ele>18</ele>
        <time>2013-12-07T08:39:41.1Z</time>
      </trkpt>
      <trkpt lat="48.48895" lon="-2.73845">
        <ele>18</ele>
        <time>2013-12-07T08:39:44.1Z</time>
      </trkpt>
      <trkpt lat="48.48897" lon="-2.73845">
        <ele>18</ele>
        <time>2013-12-07T08:39:47.1Z</time>
      </trkpt>
      <trkpt lat="48.489" lon="-2.73842">
        <ele>18</ele>
        <time>2013-12-07T08:39:50.1Z</time>
      </trkpt>
      <trkpt lat="48.48901" lon="-2.73839">
        <ele>17</ele>
        <time>2013-12-07T08:39:52.1Z</time>
      </trkpt>
      <trkpt lat="48.48903" lon="-2.73836">
        <ele>18</ele>
        <time>2013-12-07T08:39:54.1Z</time>
      </trkpt>
      <trkpt lat="48.48905" lon="-2.73831">
        <ele>18</ele>
        <time>2013-12-07T08:39:57.1Z</time>
      </trkpt>
      <trkpt lat="48.48907" lon="-2.73828">
        <ele>18</ele>
        <time>2013-12-07T08:40:00.1Z</time>
      </trkpt>
      <trkpt lat="48.48909" lon="-2.73823">
        <ele>18</ele>
        <time>2013-12-07T08:40:03.1Z</time>
      </trkpt>
      <trkpt lat="48.4891" lon="-2.73821">
        <ele>18</ele>
        <time>2013-12-07T08:40:05.1Z</time>
      </trkpt>
      <trkpt lat="48.48912" lon="-2.73818">
        <ele>18</ele>
        <time>2013-12-07T08:40:07.1Z</time>
      </trkpt>
      <trkpt lat="48.48914" lon="-2.73817">
        <ele>18</ele>
        <time>2013-12-07T08:40:10.1Z</time>
      </trkpt>
      <trkpt lat="48.48918" lon="-2.73816">
        <ele>18</ele>
        <time>2013-12-07T08:40:13.1Z</time>
      </trkpt>
      <trkpt lat="48.4892" lon="-2.73815">
        <ele>18</ele>
        <time>2013-12-07T08:40:15.1Z</time>
      </trkpt>
      <trkpt lat="48.48922" lon="-2.73812">
        <ele>18</ele>
        <time>2013-12-07T08:40:18.1Z</time>
      </trkpt>
      <trkpt lat="48.48925" lon="-2.73811">
        <ele>18</ele>
        <time>2013-12-07T08:40:20.1Z</time>
      </trkpt>
      <trkpt lat="48.48926" lon="-2.73809">
        <ele>18</ele>
        <time>2013-12-07T08:40:23.1Z</time>
      </trkpt>
      <trkpt lat="48.48928" lon="-2.73806">
        <ele>18</ele>
        <time>2013-12-07T08:40:26.1Z</time>
      </trkpt>
      <trkpt lat="48.4893" lon="-2.73805">
        <ele>18</ele>
        <time>2013-12-07T08:40:28.1Z</time>
      </trkpt>
      <trkpt lat="48.48934" lon="-2.73805">
        <ele>18</ele>
        <time>2013-12-07T08:40:31.1Z</time>
      </trkpt>
      <trkpt lat="48.48936" lon="-2.73802">
        <ele>18</ele>
        <time>2013-12-07T08:40:33.1Z</time>
      </trkpt>
      <trkpt lat="48.48937" lon="-2.73797">
        <ele>18</ele>
        <time>2013-12-07T08:40:36.1Z</time>
      </trkpt>
      <trkpt lat="48.48937" lon="-2.73794">
        <ele>18</ele>
        <time>2013-12-07T08:40:38.1Z</time>
      </trkpt>
      <trkpt lat="48.48939" lon="-2.7379">
        <ele>18</ele>
        <time>2013-12-07T08:40:41.1Z</time>
      </trkpt>
      <trkpt lat="48.4894" lon="-2.73787">
        <ele>18</ele>
        <time>2013-12-07T08:40:43.1Z</time>
      </trkpt>
      <trkpt lat="48.48941" lon="-2.73784">
        <ele>18</ele>
        <time>2013-12-07T08:40:45.1Z</time>
      </trkpt>
      <trkpt lat="48.48943" lon="-2.73779">
        <ele>18</ele>
        <time>2013-12-07T08:40:48.1Z</time>
      </trkpt>
      <trkpt lat="48.48945" lon="-2.73774">
        <ele>18</ele>
        <time>2013-12-07T08:40:51.1Z</time>
      </trkpt>
      <trkpt lat="48.48947" lon="-2.73769">
        <ele>18</ele>
        <time>2013-12-07T08:40:54.1Z</time>
      </trkpt>
      <trkpt lat="48.48949" lon="-2.73766">
        <ele>18</ele>
        <time>2013-12-07T08:40:56.1Z</time>
      </trkpt>
      <trkpt lat="48.4895" lon="-2.73763">
        <ele>18</ele>
        <time>2013-12-07T08:40:58.1Z</time>
      </trkpt>
      <trkpt lat="48.48952" lon="-2.73759">
        <ele>18</ele>
        <time>2013-12-07T08:41:01.1Z</time>
      </trkpt>
      <trkpt lat="48.48953" lon="-2.73754">
        <ele>17</ele>
        <time>2013-12-07T08:41:04.1Z</time>
      </trkpt>
      <trkpt lat="48.48954" lon="-2.7375">
        <ele>17</ele>
        <time>2013-12-07T08:41:06.1Z</time>
      </trkpt>
      <trkpt lat="48.48955" lon="-2.73746">
        <ele>17</ele>
        <time>2013-12-07T08:41:09.1Z</time>
      </trkpt>
      <trkpt lat="48.48956" lon="-2.73744">
        <ele>18</ele>
        <time>2013-12-07T08:41:11.1Z</time>
      </trkpt>
      <trkpt lat="48.48955" lon="-2.73744">
        <ele>18</ele>
        <time>2013-12-07T08:41:14.1Z</time>
      </trkpt>
      <trkpt lat="48.48955" lon="-2.73742">
        <ele>17</ele>
        <time>2013-12-07T08:41:16.1Z</time>
      </trkpt>
      <trkpt lat="48.48955" lon="-2.73741">
        <ele>18</ele>
        <time>2013-12-07T08:41:19.1Z</time>
      </trkpt>
      <trkpt lat="48.48956" lon="-2.73737">
        <ele>17</ele>
        <time>2013-12-07T08:41:22.1Z</time>
      </trkpt>
      <trkpt lat="48.48957" lon="-2.73734">
        <ele>17</ele>
        <time>2013-12-07T08:41:24.1Z</time>
      </trkpt>
      <trkpt lat="48.48961" lon="-2.73733">
        <ele>17</ele>
        <time>2013-12-07T08:41:27.1Z</time>
      </trkpt>
      <trkpt lat="48.48964" lon="-2.73732">
        <ele>17</ele>
        <time>2013-12-07T08:41:30.1Z</time>
      </trkpt>
      <trkpt lat="48.48967" lon="-2.73732">
        <ele>16</ele>
        <time>2013-12-07T08:41:32.1Z</time>
      </trkpt>
      <trkpt lat="48.4897" lon="-2.73731">
        <ele>17</ele>
        <time>2013-12-07T08:41:35.1Z</time>
      </trkpt>
      <trkpt lat="48.48972" lon="-2.73729">
        <ele>17</ele>
        <time>2013-12-07T08:41:37.1Z</time>
      </trkpt>
      <trkpt lat="48.48974" lon="-2.73725">
        <ele>17</ele>
        <time>2013-12-07T08:41:40.1Z</time>
      </trkpt>
      <trkpt lat="48.48975" lon="-2.73722">
        <ele>17</ele>
        <time>2013-12-07T08:41:42.1Z</time>
      </trkpt>
      <trkpt lat="48.48977" lon="-2.73718">
        <ele>17</ele>
        <time>2013-12-07T08:41:45.1Z</time>
      </trkpt>
      <trkpt lat="48.48978" lon="-2.73715">
        <ele>17</ele>
        <time>2013-12-07T08:41:47.1Z</time>
      </trkpt>
      <trkpt lat="48.48978" lon="-2.73711">
        <ele>16</ele>
        <time>2013-12-07T08:41:49.1Z</time>
      </trkpt>
      <trkpt lat="48.4898" lon="-2.73707">
        <ele>16</ele>
        <time>2013-12-07T08:41:52.1Z</time>
      </trkpt>
      <trkpt lat="48.48982" lon="-2.73702">
        <ele>16</ele>
        <time>2013-12-07T08:41:55.1Z</time>
      </trkpt>
      <trkpt lat="48.48983" lon="-2.73698">
        <ele>16</ele>
        <time>2013-12-07T08:41:57.1Z</time>
      </trkpt>
      <trkpt lat="48.48984" lon="-2.73694">
        <ele>15</ele>
        <time>2013-12-07T08:42:00.1Z</time>
      </trkpt>
      <trkpt lat="48.48985" lon="-2.73691">
        <ele>15</ele>
        <time>2013-12-07T08:42:02.1Z</time>
      </trkpt>
      <trkpt lat="48.48987" lon="-2.73686">
        <ele>15</ele>
        <time>2013-12-07T08:42:05.1Z</time>
      </trkpt>
      <trkpt lat="48.48988" lon="-2.73683">
        <ele>15</ele>
        <time>2013-12-07T08:42:07.1Z</time>
      </trkpt>
      <trkpt lat="48.48989" lon="-2.73678">
        <ele>15</ele>
        <time>2013-12-07T08:42:10.1Z</time>
      </trkpt>
      <trkpt lat="48.48991" lon="-2.73675">
        <ele>15</ele>
        <time>2013-12-07T08:42:12.1Z</time>
      </trkpt>
      <trkpt lat="48.48993" lon="-2.73671">
        <ele>15</ele>
        <time>2013-12-07T08:42:15.1Z</time>
      </trkpt>
      <trkpt lat="48.48993" lon="-2.73668">
        <ele>15</ele>
        <time>2013-12-07T08:42:17.1Z</time>
      </trkpt>
      <trkpt lat="48.48995" lon="-2.73663">
        <ele>15</ele>
        <time>2013-12-07T08:42:20.1Z</time>
      </trkpt>
      <trkpt lat="48.48997" lon="-2.73659">
        <ele>15</ele>
        <time>2013-12-07T08:42:23.1Z</time>
      </trkpt>
      <trkpt lat="48.48997" lon="-2.73656">
        <ele>15</ele>
        <time>2013-12-07T08:42:25.1Z</time>
      </trkpt>
      <trkpt lat="48.48999" lon="-2.73651">
        <ele>14</ele>
        <time>2013-12-07T08:42:28.1Z</time>
      </trkpt>
      <trkpt lat="48.49001" lon="-2.73648">
        <ele>14</ele>
        <time>2013-12-07T08:42:30.1Z</time>
      </trkpt>
      <trkpt lat="48.49002" lon="-2.73643">
        <ele>14</ele>
        <time>2013-12-07T08:42:33.1Z</time>
      </trkpt>
      <trkpt lat="48.49004" lon="-2.7364">
        <ele>14</ele>
        <time>2013-12-07T08:42:35.1Z</time>
      </trkpt>
      <trkpt lat="48.49006" lon="-2.73635">
        <ele>14</ele>
        <time>2013-12-07T08:42:38.1Z</time>
      </trkpt>
      <trkpt lat="48.49007" lon="-2.73632">
        <ele>14</ele>
        <time>2013-12-07T08:42:40.1Z</time>
      </trkpt>
      <trkpt lat="48.49009" lon="-2.73627">
        <ele>13</ele>
        <time>2013-12-07T08:42:43.1Z</time>
      </trkpt>
      <trkpt lat="48.49012" lon="-2.73623">
        <ele>13</ele>
        <time>2013-12-07T08:42:46.1Z</time>
      </trkpt>
      <trkpt lat="48.49014" lon="-2.73621">
        <ele>13</ele>
        <time>2013-12-07T08:42:49.1Z</time>
      </trkpt>
      <trkpt lat="48.49017" lon="-2.7362">
        <ele>13</ele>
        <time>2013-12-07T08:42:51.1Z</time>
      </trkpt>
      <trkpt lat="48.4902" lon="-2.7362">
        <ele>13</ele>
        <time>2013-12-07T08:42:54.1Z</time>
      </trkpt>
      <trkpt lat="48.49023" lon="-2.7362">
        <ele>13</ele>
        <time>2013-12-07T08:42:57.1Z</time>
      </trkpt>
      <trkpt lat="48.49026" lon="-2.73621">
        <ele>13</ele>
        <time>2013-12-07T08:43:00.1Z</time>
      </trkpt>
      <trkpt lat="48.49029" lon="-2.73621">
        <ele>13</ele>
        <time>2013-12-07T08:43:02.1Z</time>
      </trkpt>
      <trkpt lat="48.49031" lon="-2.73622">
        <ele>13</ele>
        <time>2013-12-07T08:43:05.1Z</time>
      </trkpt>
      <trkpt lat="48.49033" lon="-2.73621">
        <ele>13</ele>
        <time>2013-12-07T08:43:07.1Z</time>
      </trkpt>
      <trkpt lat="48.49035" lon="-2.73619">
        <ele>13</ele>
        <time>2013-12-07T08:43:09.1Z</time>
      </trkpt>
      <trkpt lat="48.49036" lon="-2.73614">
        <ele>13</ele>
        <time>2013-12-07T08:43:12.1Z</time>
      </trkpt>
      <trkpt lat="48.49037" lon="-2.73608">
        <ele>13</ele>
        <time>2013-12-07T08:43:15.1Z</time>
      </trkpt>
      <trkpt lat="48.49038" lon="-2.73602">
        <ele>12</ele>
        <time>2013-12-07T08:43:18.1Z</time>
      </trkpt>
      <trkpt lat="48.49038" lon="-2.73599">
        <ele>12</ele>
        <time>2013-12-07T08:43:20.1Z</time>
      </trkpt>
      <trkpt lat="48.49039" lon="-2.73594">
        <ele>12</ele>
        <time>2013-12-07T08:43:23.1Z</time>
      </trkpt>
      <trkpt lat="48.49041" lon="-2.73589">
        <ele>12</ele>
        <time>2013-12-07T08:43:26.1Z</time>
      </trkpt>
      <trkpt lat="48.49041" lon="-2.73585">
        <ele>12</ele>
        <time>2013-12-07T08:43:28.1Z</time>
      </trkpt>
      <trkpt lat="48.4904" lon="-2.73579">
        <ele>12</ele>
        <time>2013-12-07T08:43:32.1Z</time>
      </trkpt>
      <trkpt lat="48.49043" lon="-2.73575">
        <ele>11</ele>
        <time>2013-12-07T08:43:35.1Z</time>
      </trkpt>
      <trkpt lat="48.49046" lon="-2.73572">
        <ele>11</ele>
        <time>2013-12-07T08:43:39.1Z</time>
      </trkpt>
      <trkpt lat="48.49049" lon="-2.73572">
        <ele>11</ele>
        <time>2013-12-07T08:43:41.1Z</time>
      </trkpt>
      <trkpt lat="48.49051" lon="-2.7357">
        <ele>11</ele>
        <time>2013-12-07T08:43:43.1Z</time>
      </trkpt>
      <trkpt lat="48.49055" lon="-2.73569">
        <ele>11</ele>
        <time>2013-12-07T08:43:46.1Z</time>
      </trkpt>
      <trkpt lat="48.49057" lon="-2.73569">
        <ele>11</ele>
        <time>2013-12-07T08:43:48.1Z</time>
      </trkpt>
      <trkpt lat="48.4906" lon="-2.73569">
        <ele>11</ele>
        <time>2013-12-07T08:43:50.1Z</time>
      </trkpt>
      <trkpt lat="48.49063" lon="-2.73569">
        <ele>11</ele>
        <time>2013-12-07T08:43:53.1Z</time>
      </trkpt>
      <trkpt lat="48.49066" lon="-2.73569">
        <ele>11</ele>
        <time>2013-12-07T08:43:55.1Z</time>
      </trkpt>
      <trkpt lat="48.49069" lon="-2.73568">
        <ele>11</ele>
        <time>2013-12-07T08:43:58.1Z</time>
      </trkpt>
      <trkpt lat="48.49073" lon="-2.73566">
        <ele>10</ele>
        <time>2013-12-07T08:44:01.1Z</time>
      </trkpt>
      <trkpt lat="48.49076" lon="-2.73564">
        <ele>10</ele>
        <time>2013-12-07T08:44:04.1Z</time>
      </trkpt>
      <trkpt lat="48.49078" lon="-2.73563">
        <ele>10</ele>
        <time>2013-12-07T08:44:06.1Z</time>
      </trkpt>
      <trkpt lat="48.49081" lon="-2.7356">
        <ele>10</ele>
        <time>2013-12-07T08:44:09.1Z</time>
      </trkpt>
      <trkpt lat="48.49083" lon="-2.73559">
        <ele>11</ele>
        <time>2013-12-07T08:44:11.1Z</time>
      </trkpt>
      <trkpt lat="48.49084" lon="-2.73557">
        <ele>10</ele>
        <time>2013-12-07T08:44:13.1Z</time>
      </trkpt>
      <trkpt lat="48.49086" lon="-2.73555">
        <ele>10</ele>
        <time>2013-12-07T08:44:16.1Z</time>
      </trkpt>
      <trkpt lat="48.49089" lon="-2.73554">
        <ele>10</ele>
        <time>2013-12-07T08:44:18.1Z</time>
      </trkpt>
      <trkpt lat="48.49091" lon="-2.73554">
        <ele>10</ele>
        <time>2013-12-07T08:44:20.1Z</time>
      </trkpt>
      <trkpt lat="48.49094" lon="-2.73553">
        <ele>10</ele>
        <time>2013-12-07T08:44:23.1Z</time>
      </trkpt>
      <trkpt lat="48.49097" lon="-2.73553">
        <ele>10</ele>
        <time>2013-12-07T08:44:25.1Z</time>
      </trkpt>
      <trkpt lat="48.491" lon="-2.73553">
        <ele>10</ele>
        <time>2013-12-07T08:44:28.1Z</time>
      </trkpt>
      <trkpt lat="48.49103" lon="-2.73554">
        <ele>10</ele>
        <time>2013-12-07T08:44:30.1Z</time>
      </trkpt>
      <trkpt lat="48.49106" lon="-2.73554">
        <ele>10</ele>
        <time>2013-12-07T08:44:33.1Z</time>
      </trkpt>
      <trkpt lat="48.49109" lon="-2.73554">
        <ele>9</ele>
        <time>2013-12-07T08:44:36.1Z</time>
      </trkpt>
      <trkpt lat="48.49113" lon="-2.73554">
        <ele>9</ele>
        <time>2013-12-07T08:44:39.1Z</time>
      </trkpt>
      <trkpt lat="48.49116" lon="-2.73554">
        <ele>9</ele>
        <time>2013-12-07T08:44:42.1Z</time>
      </trkpt>
      <trkpt lat="48.4912" lon="-2.73554">
        <ele>9</ele>
        <time>2013-12-07T08:44:45.1Z</time>
      </trkpt>
      <trkpt lat="48.49122" lon="-2.73554">
        <ele>9</ele>
        <time>2013-12-07T08:44:47.1Z</time>
      </trkpt>
      <trkpt lat="48.49126" lon="-2.73553">
        <ele>9</ele>
        <time>2013-12-07T08:44:50.1Z</time>
      </trkpt>
      <trkpt lat="48.49128" lon="-2.73553">
        <ele>9</ele>
        <time>2013-12-07T08:44:52.1Z</time>
      </trkpt>
      <trkpt lat="48.4913" lon="-2.73552">
        <ele>9</ele>
        <time>2013-12-07T08:44:54.1Z</time>
      </trkpt>
      <trkpt lat="48.49134" lon="-2.7355">
        <ele>9</ele>
        <time>2013-12-07T08:44:57.1Z</time>
      </trkpt>
      <trkpt lat="48.49136" lon="-2.73549">
        <ele>9</ele>
        <time>2013-12-07T08:44:59.1Z</time>
      </trkpt>
      <trkpt lat="48.49141" lon="-2.73546">
        <ele>9</ele>
        <time>2013-12-07T08:45:02.1Z</time>
      </trkpt>
      <trkpt lat="48.49144" lon="-2.73543">
        <ele>9</ele>
        <time>2013-12-07T08:45:05.1Z</time>
      </trkpt>
      <trkpt lat="48.49146" lon="-2.7354">
        <ele>9</ele>
        <time>2013-12-07T08:45:07.1Z</time>
      </trkpt>
      <trkpt lat="48.49148" lon="-2.73538">
        <ele>9</ele>
        <time>2013-12-07T08:45:09.1Z</time>
      </trkpt>
      <trkpt lat="48.49151" lon="-2.73535">
        <ele>9</ele>
        <time>2013-12-07T08:45:12.1Z</time>
      </trkpt>
      <trkpt lat="48.49153" lon="-2.73533">
        <ele>8</ele>
        <time>2013-12-07T08:45:14.1Z</time>
      </trkpt>
      <trkpt lat="48.49155" lon="-2.73529">
        <ele>8</ele>
        <time>2013-12-07T08:45:17.1Z</time>
      </trkpt>
      <trkpt lat="48.49158" lon="-2.73526">
        <ele>8</ele>
        <time>2013-12-07T08:45:19.1Z</time>
      </trkpt>
      <trkpt lat="48.49161" lon="-2.73522">
        <ele>8</ele>
        <time>2013-12-07T08:45:22.1Z</time>
      </trkpt>
      <trkpt lat="48.49163" lon="-2.73519">
        <ele>8</ele>
        <time>2013-12-07T08:45:24.1Z</time>
      </trkpt>
      <trkpt lat="48.49166" lon="-2.73516">
        <ele>8</ele>
        <time>2013-12-07T08:45:27.1Z</time>
      </trkpt>
      <trkpt lat="48.49169" lon="-2.73511">
        <ele>8</ele>
        <time>2013-12-07T08:45:30.1Z</time>
      </trkpt>
      <trkpt lat="48.49172" lon="-2.73508">
        <ele>8</ele>
        <time>2013-12-07T08:45:33.1Z</time>
      </trkpt>
      <trkpt lat="48.49174" lon="-2.73505">
        <ele>8</ele>
        <time>2013-12-07T08:45:35.1Z</time>
      </trkpt>
      <trkpt lat="48.49176" lon="-2.73504">
        <ele>8</ele>
        <time>2013-12-07T08:45:37.1Z</time>
      </trkpt>
      <trkpt lat="48.49178" lon="-2.73502">
        <ele>8</ele>
        <time>2013-12-07T08:45:39.1Z</time>
      </trkpt>
      <trkpt lat="48.49181" lon="-2.735">
        <ele>8</ele>
        <time>2013-12-07T08:45:42.1Z</time>
      </trkpt>
      <trkpt lat="48.49185" lon="-2.73498">
        <ele>8</ele>
        <time>2013-12-07T08:45:45.1Z</time>
      </trkpt>
      <trkpt lat="48.49188" lon="-2.73496">
        <ele>8</ele>
        <time>2013-12-07T08:45:48.1Z</time>
      </trkpt>
      <trkpt lat="48.49192" lon="-2.73493">
        <ele>8</ele>
        <time>2013-12-07T08:45:51.1Z</time>
      </trkpt>
      <trkpt lat="48.49194" lon="-2.73492">
        <ele>8</ele>
        <time>2013-12-07T08:45:54.1Z</time>
      </trkpt>
      <trkpt lat="48.49197" lon="-2.7349">
        <ele>7</ele>
        <time>2013-12-07T08:45:56.1Z</time>
      </trkpt>
      <trkpt lat="48.492" lon="-2.73488">
        <ele>7</ele>
        <time>2013-12-07T08:45:59.1Z</time>
      </trkpt>
      <trkpt lat="48.49204" lon="-2.73487">
        <ele>7</ele>
        <time>2013-12-07T08:46:02.1Z</time>
      </trkpt>
      <trkpt lat="48.49206" lon="-2.73486">
        <ele>7</ele>
        <time>2013-12-07T08:46:04.1Z</time>
      </trkpt>
      <trkpt lat="48.49209" lon="-2.73485">
        <ele>7</ele>
        <time>2013-12-07T08:46:07.1Z</time>
      </trkpt>
      <trkpt lat="48.49212" lon="-2.73484">
        <ele>7</ele>
        <time>2013-12-07T08:46:09.1Z</time>
      </trkpt>
      <trkpt lat="48.49215" lon="-2.73481">
        <ele>7</ele>
        <time>2013-12-07T08:46:12.1Z</time>
      </trkpt>
      <trkpt lat="48.49217" lon="-2.73479">
        <ele>7</ele>
        <time>2013-12-07T08:46:14.1Z</time>
      </trkpt>
      <trkpt lat="48.49218" lon="-2.73476">
        <ele>7</ele>
        <time>2013-12-07T08:46:17.1Z</time>
      </trkpt>
      <trkpt lat="48.4922" lon="-2.73472">
        <ele>7</ele>
        <time>2013-12-07T08:46:19.1Z</time>
      </trkpt>
      <trkpt lat="48.49221" lon="-2.7347">
        <ele>7</ele>
        <time>2013-12-07T08:46:21.1Z</time>
      </trkpt>
      <trkpt lat="48.49222" lon="-2.73467">
        <ele>6</ele>
        <time>2013-12-07T08:46:23.1Z</time>
      </trkpt>
      <trkpt lat="48.49224" lon="-2.73463">
        <ele>6</ele>
        <time>2013-12-07T08:46:26.1Z</time>
      </trkpt>
      <trkpt lat="48.49226" lon="-2.7346">
        <ele>6</ele>
        <time>2013-12-07T08:46:28.1Z</time>
      </trkpt>
      <trkpt lat="48.49228" lon="-2.73455">
        <ele>6</ele>
        <time>2013-12-07T08:46:31.1Z</time>
      </trkpt>
      <trkpt lat="48.4923" lon="-2.73451">
        <ele>6</ele>
        <time>2013-12-07T08:46:34.1Z</time>
      </trkpt>
      <trkpt lat="48.49232" lon="-2.73447">
        <ele>6</ele>
        <time>2013-12-07T08:46:37.1Z</time>
      </trkpt>
      <trkpt lat="48.49235" lon="-2.73444">
        <ele>5</ele>
        <time>2013-12-07T08:46:40.1Z</time>
      </trkpt>
      <trkpt lat="48.49236" lon="-2.73442">
        <ele>5</ele>
        <time>2013-12-07T08:46:42.1Z</time>
      </trkpt>
      <trkpt lat="48.49238" lon="-2.73439">
        <ele>5</ele>
        <time>2013-12-07T08:46:44.1Z</time>
      </trkpt>
      <trkpt lat="48.49239" lon="-2.73437">
        <ele>5</ele>
        <time>2013-12-07T08:46:46.1Z</time>
      </trkpt>
      <trkpt lat="48.49241" lon="-2.73432">
        <ele>5</ele>
        <time>2013-12-07T08:46:49.1Z</time>
      </trkpt>
      <trkpt lat="48.49243" lon="-2.73429">
        <ele>5</ele>
        <time>2013-12-07T08:46:51.1Z</time>
      </trkpt>
      <trkpt lat="48.49244" lon="-2.73426">
        <ele>5</ele>
        <time>2013-12-07T08:46:53.1Z</time>
      </trkpt>
      <trkpt lat="48.49245" lon="-2.73421">
        <ele>5</ele>
        <time>2013-12-07T08:46:56.1Z</time>
      </trkpt>
      <trkpt lat="48.49247" lon="-2.73417">
        <ele>5</ele>
        <time>2013-12-07T08:46:59.1Z</time>
      </trkpt>
      <trkpt lat="48.49248" lon="-2.73413">
        <ele>4</ele>
        <time>2013-12-07T08:47:01.1Z</time>
      </trkpt>
      <trkpt lat="48.4925" lon="-2.73409">
        <ele>4</ele>
        <time>2013-12-07T08:47:04.1Z</time>
      </trkpt>
      <trkpt lat="48.49252" lon="-2.73404">
        <ele>4</ele>
        <time>2013-12-07T08:47:07.1Z</time>
      </trkpt>
      <trkpt lat="48.49254" lon="-2.73401">
        <ele>4</ele>
        <time>2013-12-07T08:47:09.1Z</time>
      </trkpt>
      <trkpt lat="48.49256" lon="-2.73398">
        <ele>4</ele>
        <time>2013-12-07T08:47:12.1Z</time>
      </trkpt>
      <trkpt lat="48.49258" lon="-2.73395">
        <ele>4</ele>
        <time>2013-12-07T08:47:14.1Z</time>
      </trkpt>
      <trkpt lat="48.4926" lon="-2.73392">
        <ele>4</ele>
        <time>2013-12-07T08:47:17.1Z</time>
      </trkpt>
      <trkpt lat="48.49262" lon="-2.7339">
        <ele>3</ele>
        <time>2013-12-07T08:47:19.1Z</time>
      </trkpt>
      <trkpt lat="48.49263" lon="-2.73387">
        <ele>3</ele>
        <time>2013-12-07T08:47:21.1Z</time>
      </trkpt>
      <trkpt lat="48.49266" lon="-2.73383">
        <ele>3</ele>
        <time>2013-12-07T08:47:24.1Z</time>
      </trkpt>
      <trkpt lat="48.49267" lon="-2.73381">
        <ele>3</ele>
        <time>2013-12-07T08:47:26.1Z</time>
      </trkpt>
      <trkpt lat="48.49269" lon="-2.73378">
        <ele>3</ele>
        <time>2013-12-07T08:47:28.1Z</time>
      </trkpt>
      <trkpt lat="48.49271" lon="-2.73374">
        <ele>3</ele>
        <time>2013-12-07T08:47:31.1Z</time>
      </trkpt>
      <trkpt lat="48.49273" lon="-2.73371">
        <ele>4</ele>
        <time>2013-12-07T08:47:33.1Z</time>
      </trkpt>
      <trkpt lat="48.49274" lon="-2.73367">
        <ele>3</ele>
        <time>2013-12-07T08:47:36.1Z</time>
      </trkpt>
      <trkpt lat="48.49276" lon="-2.73363">
        <ele>3</ele>
        <time>2013-12-07T08:47:39.1Z</time>
      </trkpt>
      <trkpt lat="48.49277" lon="-2.7336">
        <ele>3</ele>
        <time>2013-12-07T08:47:41.1Z</time>
      </trkpt>
      <trkpt lat="48.49279" lon="-2.73357">
        <ele>3</ele>
        <time>2013-12-07T08:47:43.1Z</time>
      </trkpt>
      <trkpt lat="48.4928" lon="-2.73354">
        <ele>3</ele>
        <time>2013-12-07T08:47:46.1Z</time>
      </trkpt>
      <trkpt lat="48.49282" lon="-2.73349">
        <ele>3</ele>
        <time>2013-12-07T08:47:49.1Z</time>
      </trkpt>
      <trkpt lat="48.49284" lon="-2.73346">
        <ele>3</ele>
        <time>2013-12-07T08:47:51.1Z</time>
      </trkpt>
      <trkpt lat="48.49286" lon="-2.73341">
        <ele>2</ele>
        <time>2013-12-07T08:47:54.1Z</time>
      </trkpt>
      <trkpt lat="48.49287" lon="-2.73338">
        <ele>2</ele>
        <time>2013-12-07T08:47:56.1Z</time>
      </trkpt>
      <trkpt lat="48.4929" lon="-2.73334">
        <ele>2</ele>
        <time>2013-12-07T08:47:59.1Z</time>
      </trkpt>
      <trkpt lat="48.49291" lon="-2.7333">
        <ele>2</ele>
        <time>2013-12-07T08:48:01.1Z</time>
      </trkpt>
      <trkpt lat="48.49293" lon="-2.73327">
        <ele>2</ele>
        <time>2013-12-07T08:48:04.1Z</time>
      </trkpt>
      <trkpt lat="48.49296" lon="-2.73322">
        <ele>1</ele>
        <time>2013-12-07T08:48:07.1Z</time>
      </trkpt>
      <trkpt lat="48.49297" lon="-2.73319">
        <ele>1</ele>
        <time>2013-12-07T08:48:09.1Z</time>
      </trkpt>
      <trkpt lat="48.493" lon="-2.73314">
        <ele>1</ele>
        <time>2013-12-07T08:48:12.1Z</time>
      </trkpt>
      <trkpt lat="48.49301" lon="-2.73311">
        <ele>1</ele>
        <time>2013-12-07T08:48:14.1Z</time>
      </trkpt>
      <trkpt lat="48.49304" lon="-2.73308">
        <ele>1</ele>
        <time>2013-12-07T08:48:17.1Z</time>
      </trkpt>
      <trkpt lat="48.49306" lon="-2.73304">
        <ele>1</ele>
        <time>2013-12-07T08:48:19.1Z</time>
      </trkpt>
      <trkpt lat="48.49308" lon="-2.733">
        <ele>105</ele>
        <time>2013-12-07T08:48:22.1Z</time>
      </trkpt>
      <trkpt lat="48.4931" lon="-2.73295">
        <ele>1</ele>
        <time>2013-12-07T08:48:25.1Z</time>
      </trkpt>
      <trkpt lat="48.49311" lon="-2.73291">
        <ele>104.9</ele>
        <time>2013-12-07T08:48:28.1Z</time>
      </trkpt>
      <trkpt lat="48.49312" lon="-2.73289">
        <ele>1</ele>
        <time>2013-12-07T08:48:30.1Z</time>
      </trkpt>
      <trkpt lat="48.49313" lon="-2.73286">
        <ele>1</ele>
        <time>2013-12-07T08:48:32.1Z</time>
      </trkpt>
      <trkpt lat="48.49315" lon="-2.73283">
        <ele>1</ele>
        <time>2013-12-07T08:48:35.1Z</time>
      </trkpt>
      <trkpt lat="48.49316" lon="-2.73281">
        <ele>1</ele>
        <time>2013-12-07T08:48:37.1Z</time>
      </trkpt>
      <trkpt lat="48.49317" lon="-2.73279">
        <ele>104.6</ele>
        <time>2013-12-07T08:48:40.1Z</time>
      </trkpt>
      <trkpt lat="48.49318" lon="-2.73278">
        <ele>104.6</ele>
        <time>2013-12-07T08:48:43.1Z</time>
      </trkpt>
      <trkpt lat="48.49318" lon="-2.73279">
        <ele>104.6</ele>
        <time>2013-12-07T08:48:46.1Z</time>
      </trkpt>
      <trkpt lat="48.49318" lon="-2.73279">
        <ele>1</ele>
        <time>2013-12-07T08:48:49.1Z</time>
      </trkpt>
      <trkpt lat="48.49318" lon="-2.7328">
        <ele>1</ele>
        <time>2013-12-07T08:48:52.1Z</time>
      </trkpt>
      <trkpt lat="48.49318" lon="-2.7328">
        <ele>1</ele>
        <time>2013-12-07T08:48:55.1Z</time>
      </trkpt>
      <trkpt lat="48.49319" lon="-2.7328">
        <ele>1</ele>
        <time>2013-12-07T08:48:57.1Z</time>
      </trkpt>
      <trkpt lat="48.49318" lon="-2.73279">
        <ele>1</ele>
        <time>2013-12-07T08:48:59.1Z</time>
      </trkpt>
      <trkpt lat="48.49318" lon="-2.73276">
        <ele>1</ele>
        <time>2013-12-07T08:49:01.1Z</time>
      </trkpt>
      <trkpt lat="48.49319" lon="-2.73275">
        <ele>104.5</ele>
        <time>2013-12-07T08:49:07.1Z</time>
      </trkpt>
      <trkpt lat="48.49321" lon="-2.73275">
        <ele>1</ele>
        <time>2013-12-07T08:49:09.1Z</time>
      </trkpt>
      <trkpt lat="48.49324" lon="-2.73274">
        <ele>1</ele>
        <time>2013-12-07T08:49:12.1Z</time>
      </trkpt>
      <trkpt lat="48.49327" lon="-2.73273">
        <ele>1</ele>
        <time>2013-12-07T08:49:14.1Z</time>
      </trkpt>
      <trkpt lat="48.4933" lon="-2.73273">
        <ele>104.1</ele>
        <time>2013-12-07T08:49:17.1Z</time>
      </trkpt>
      <trkpt lat="48.49332" lon="-2.7327">
        <ele>104</ele>
        <time>2013-12-07T08:49:20.1Z</time>
      </trkpt>
      <trkpt lat="48.49334" lon="-2.7327">
        <ele>104</ele>
        <time>2013-12-07T08:49:22.1Z</time>
      </trkpt>
      <trkpt lat="48.49337" lon="-2.73269">
        <ele>103.9</ele>
        <time>2013-12-07T08:49:25.1Z</time>
      </trkpt>
      <trkpt lat="48.49341" lon="-2.7327">
        <ele>103.7</ele>
        <time>2013-12-07T08:49:28.1Z</time>
      </trkpt>
      <trkpt lat="48.49345" lon="-2.73272">
        <ele>103.6</ele>
        <time>2013-12-07T08:49:31.1Z</time>
      </trkpt>
      <trkpt lat="48.49348" lon="-2.73273">
        <ele>103.5</ele>
        <time>2013-12-07T08:49:33.1Z</time>
      </trkpt>
      <trkpt lat="48.4935" lon="-2.73276">
        <ele>103.4</ele>
        <time>2013-12-07T08:49:36.1Z</time>
      </trkpt>
      <trkpt lat="48.49353" lon="-2.7328">
        <ele>103.4</ele>
        <time>2013-12-07T08:49:39.1Z</time>
      </trkpt>
      <trkpt lat="48.49355" lon="-2.73285">
        <ele>103.5</ele>
        <time>2013-12-07T08:49:42.1Z</time>
      </trkpt>
      <trkpt lat="48.49356" lon="-2.73288">
        <ele>103.5</ele>
        <time>2013-12-07T08:49:44.1Z</time>
      </trkpt>
      <trkpt lat="48.49357" lon="-2.73291">
        <ele>103.6</ele>
        <time>2013-12-07T08:49:46.1Z</time>
      </trkpt>
      <trkpt lat="48.49357" lon="-2.73297">
        <ele>103.8</ele>
        <time>2013-12-07T08:49:49.1Z</time>
      </trkpt>
      <trkpt lat="48.49358" lon="-2.73302">
        <ele>104</ele>
        <time>2013-12-07T08:49:52.1Z</time>
      </trkpt>
      <trkpt lat="48.4936" lon="-2.73306">
        <ele>104</ele>
        <time>2013-12-07T08:49:54.1Z</time>
      </trkpt>
      <trkpt lat="48.49362" lon="-2.73308">
        <ele>104</ele>
        <time>2013-12-07T08:49:56.1Z</time>
      </trkpt>
      <trkpt lat="48.49364" lon="-2.7331">
        <ele>103.9</ele>
        <time>2013-12-07T08:49:58.1Z</time>
      </trkpt>
      <trkpt lat="48.49368" lon="-2.73313">
        <ele>103.8</ele>
        <time>2013-12-07T08:50:01.1Z</time>
      </trkpt>
      <trkpt lat="48.49371" lon="-2.73316">
        <ele>103.6</ele>
        <time>2013-12-07T08:50:04.1Z</time>
      </trkpt>
      <trkpt lat="48.49373" lon="-2.73318">
        <ele>103.6</ele>
        <time>2013-12-07T08:50:06.1Z</time>
      </trkpt>
      <trkpt lat="48.49376" lon="-2.73322">
        <ele>103.5</ele>
        <time>2013-12-07T08:50:09.1Z</time>
      </trkpt>
      <trkpt lat="48.49377" lon="-2.73324">
        <ele>103.4</ele>
        <time>2013-12-07T08:50:11.1Z</time>
      </trkpt>
      <trkpt lat="48.49379" lon="-2.73327">
        <ele>103.4</ele>
        <time>2013-12-07T08:50:13.1Z</time>
      </trkpt>
      <trkpt lat="48.49381" lon="-2.73332">
        <ele>103.3</ele>
        <time>2013-12-07T08:50:16.1Z</time>
      </trkpt>
      <trkpt lat="48.49384" lon="-2.73336">
        <ele>103.3</ele>
        <time>2013-12-07T08:50:19.1Z</time>
      </trkpt>
      <trkpt lat="48.49385" lon="-2.73339">
        <ele>103.3</ele>
        <time>2013-12-07T08:50:21.1Z</time>
      </trkpt>
      <trkpt lat="48.49387" lon="-2.73342">
        <ele>-1</ele>
        <time>2013-12-07T08:50:23.1Z</time>
      </trkpt>
      <trkpt lat="48.49388" lon="-2.73345">
        <ele>-1</ele>
        <time>2013-12-07T08:50:25.1Z</time>
      </trkpt>
      <trkpt lat="48.4939" lon="-2.73349">
        <ele>-1</ele>
        <time>2013-12-07T08:50:28.1Z</time>
      </trkpt>
      <trkpt lat="48.49392" lon="-2.73352">
        <ele>103.6</ele>
        <time>2013-12-07T08:50:30.1Z</time>
      </trkpt>
      <trkpt lat="48.49393" lon="-2.73355">
        <ele>103.6</ele>
        <time>2013-12-07T08:50:32.1Z</time>
      </trkpt>
      <trkpt lat="48.49395" lon="-2.73359">
        <ele>103.7</ele>
        <time>2013-12-07T08:50:35.1Z</time>
      </trkpt>
      <trkpt lat="48.49397" lon="-2.73362">
        <ele>103.7</ele>
        <time>2013-12-07T08:50:37.1Z</time>
      </trkpt>
      <trkpt lat="48.49399" lon="-2.73364">
        <ele>103.6</ele>
        <time>2013-12-07T08:50:40.1Z</time>
      </trkpt>
      <trkpt lat="48.49401" lon="-2.73366">
        <ele>103.5</ele>
        <time>2013-12-07T08:50:42.1Z</time>
      </trkpt>
      <trkpt lat="48.49405" lon="-2.73368">
        <ele>103.4</ele>
        <time>2013-12-07T08:50:45.1Z</time>
      </trkpt>
      <trkpt lat="48.49408" lon="-2.7337">
        <ele>103.3</ele>
        <time>2013-12-07T08:50:48.1Z</time>
      </trkpt>
      <trkpt lat="48.4941" lon="-2.7337">
        <ele>103.2</ele>
        <time>2013-12-07T08:50:50.1Z</time>
      </trkpt>
      <trkpt lat="48.49413" lon="-2.73371">
        <ele>103.1</ele>
        <time>2013-12-07T08:50:52.1Z</time>
      </trkpt>
      <trkpt lat="48.49416" lon="-2.73371">
        <ele>103</ele>
        <time>2013-12-07T08:50:55.1Z</time>
      </trkpt>
      <trkpt lat="48.49419" lon="-2.73371">
        <ele>102.9</ele>
        <time>2013-12-07T08:50:58.1Z</time>
      </trkpt>
      <trkpt lat="48.49422" lon="-2.73373">
        <ele>-1</ele>
        <time>2013-12-07T08:51:01.1Z</time>
      </trkpt>
      <trkpt lat="48.49424" lon="-2.73374">
        <ele>-1</ele>
        <time>2013-12-07T08:51:03.1Z</time>
      </trkpt>
      <trkpt lat="48.49426" lon="-2.73375">
        <ele>-1</ele>
        <time>2013-12-07T08:51:05.1Z</time>
      </trkpt>
      <trkpt lat="48.49429" lon="-2.73377">
        <ele>-1</ele>
        <time>2013-12-07T08:51:08.1Z</time>
      </trkpt>
      <trkpt lat="48.49431" lon="-2.73379">
        <ele>-1</ele>
        <time>2013-12-07T08:51:10.1Z</time>
      </trkpt>
      <trkpt lat="48.49433" lon="-2.73381">
        <ele>-1</ele>
        <time>2013-12-07T08:51:12.1Z</time>
      </trkpt>
      <trkpt lat="48.49436" lon="-2.73385">
        <ele>-1</ele>
        <time>2013-12-07T08:51:15.1Z</time>
      </trkpt>
      <trkpt lat="48.49439" lon="-2.73389">
        <ele>-1</ele>
        <time>2013-12-07T08:51:18.1Z</time>
      </trkpt>
      <trkpt lat="48.49441" lon="-2.73394">
        <ele>-1</ele>
        <time>2013-12-07T08:51:21.1Z</time>
      </trkpt>
      <trkpt lat="48.49443" lon="-2.73398">
        <ele>-1</ele>
        <time>2013-12-07T08:51:24.1Z</time>
      </trkpt>
      <trkpt lat="48.49443" lon="-2.73401">
        <ele>-1</ele>
        <time>2013-12-07T08:51:26.1Z</time>
      </trkpt>
      <trkpt lat="48.49445" lon="-2.73406">
        <ele>-1</ele>
        <time>2013-12-07T08:51:29.1Z</time>
      </trkpt>
      <trkpt lat="48.49444" lon="-2.73411">
        <ele>-1</ele>
        <time>2013-12-07T08:51:32.1Z</time>
      </trkpt>
      <trkpt lat="48.49445" lon="-2.73416">
        <ele>-1</ele>
        <time>2013-12-07T08:51:35.1Z</time>
      </trkpt>
      <trkpt lat="48.49445" lon="-2.7342">
        <ele>-1</ele>
        <time>2013-12-07T08:51:37.1Z</time>
      </trkpt>
      <trkpt lat="48.49445" lon="-2.73425">
        <ele>-1</ele>
        <time>2013-12-07T08:51:40.1Z</time>
      </trkpt>
      <trkpt lat="48.49445" lon="-2.73429">
        <ele>-1</ele>
        <time>2013-12-07T08:51:42.1Z</time>
      </trkpt>
      <trkpt lat="48.49445" lon="-2.73432">
        <ele>-1</ele>
        <time>2013-12-07T08:51:44.1Z</time>
      </trkpt>
      <trkpt lat="48.49446" lon="-2.73435">
        <ele>-1</ele>
        <time>2013-12-07T08:51:46.1Z</time>
      </trkpt>
      <trkpt lat="48.49446" lon="-2.7344">
        <ele>-2</ele>
        <time>2013-12-07T08:51:49.1Z</time>
      </trkpt>
      <trkpt lat="48.49447" lon="-2.73444">
        <ele>-2</ele>
        <time>2013-12-07T08:51:52.1Z</time>
      </trkpt>
      <trkpt lat="48.49448" lon="-2.73447">
        <ele>-2</ele>
        <time>2013-12-07T08:51:54.1Z</time>
      </trkpt>
      <trkpt lat="48.49449" lon="-2.7345">
        <ele>-2</ele>
        <time>2013-12-07T08:51:56.1Z</time>
      </trkpt>
      <trkpt lat="48.49451" lon="-2.73454">
        <ele>-2</ele>
        <time>2013-12-07T08:51:59.1Z</time>
      </trkpt>
      <trkpt lat="48.49453" lon="-2.73457">
        <ele>-2</ele>
        <time>2013-12-07T08:52:01.1Z</time>
      </trkpt>
      <trkpt lat="48.49456" lon="-2.73461">
        <ele>-2</ele>
        <time>2013-12-07T08:52:04.1Z</time>
      </trkpt>
      <trkpt lat="48.49458" lon="-2.73465">
        <ele>-2</ele>
        <time>2013-12-07T08:52:07.1Z</time>
      </trkpt>
      <trkpt lat="48.49461" lon="-2.73468">
        <ele>-2</ele>
        <time>2013-12-07T08:52:09.1Z</time>
      </trkpt>
      <trkpt lat="48.49462" lon="-2.73471">
        <ele>-2</ele>
        <time>2013-12-07T08:52:11.1Z</time>
      </trkpt>
      <trkpt lat="48.49464" lon="-2.73474">
        <ele>-2</ele>
        <time>2013-12-07T08:52:13.1Z</time>
      </trkpt>
      <trkpt lat="48.49465" lon="-2.73477">
        <ele>-2</ele>
        <time>2013-12-07T08:52:15.1Z</time>
      </trkpt>
      <trkpt lat="48.49468" lon="-2.73482">
        <ele>-3</ele>
        <time>2013-12-07T08:52:18.1Z</time>
      </trkpt>
      <trkpt lat="48.49469" lon="-2.73484">
        <ele>-3</ele>
        <time>2013-12-07T08:52:20.1Z</time>
      </trkpt>
      <trkpt lat="48.49472" lon="-2.73489">
        <ele>-3</ele>
        <time>2013-12-07T08:52:23.1Z</time>
      </trkpt>
      <trkpt lat="48.49474" lon="-2.73493">
        <ele>-3</ele>
        <time>2013-12-07T08:52:26.1Z</time>
      </trkpt>
      <trkpt lat="48.49476" lon="-2.73496">
        <ele>-3</ele>
        <time>2013-12-07T08:52:28.1Z</time>
      </trkpt>
      <trkpt lat="48.49478" lon="-2.73501">
        <ele>-3</ele>
        <time>2013-12-07T08:52:31.1Z</time>
      </trkpt>
      <trkpt lat="48.49481" lon="-2.73504">
        <ele>-3</ele>
        <time>2013-12-07T08:52:34.1Z</time>
      </trkpt>
      <trkpt lat="48.49483" lon="-2.73507">
        <ele>-3</ele>
        <time>2013-12-07T08:52:36.1Z</time>
      </trkpt>
      <trkpt lat="48.49486" lon="-2.73511">
        <ele>-3</ele>
        <time>2013-12-07T08:52:39.1Z</time>
      </trkpt>
      <trkpt lat="48.49488" lon="-2.73515">
        <ele>-3</ele>
        <time>2013-12-07T08:52:41.1Z</time>
      </trkpt>
      <trkpt lat="48.49489" lon="-2.73517">
        <ele>-3</ele>
        <time>2013-12-07T08:52:43.1Z</time>
      </trkpt>
      <trkpt lat="48.49491" lon="-2.73523">
        <ele>-3</ele>
        <time>2013-12-07T08:52:46.1Z</time>
      </trkpt>
      <trkpt lat="48.49493" lon="-2.73527">
        <ele>-3</ele>
        <time>2013-12-07T08:52:49.1Z</time>
      </trkpt>
      <trkpt lat="48.49495" lon="-2.73531">
        <ele>-3</ele>
        <time>2013-12-07T08:52:52.1Z</time>
      </trkpt>
      <trkpt lat="48.49496" lon="-2.73534">
        <ele>-3</ele>
        <time>2013-12-07T08:52:54.1Z</time>
      </trkpt>
      <trkpt lat="48.49498" lon="-2.73538">
        <ele>-4</ele>
        <time>2013-12-07T08:52:57.1Z</time>
      </trkpt>
      <trkpt lat="48.49499" lon="-2.73541">
        <ele>-4</ele>
        <time>2013-12-07T08:52:59.1Z</time>
      </trkpt>
      <trkpt lat="48.49501" lon="-2.73545">
        <ele>-3</ele>
        <time>2013-12-07T08:53:02.1Z</time>
      </trkpt>
      <trkpt lat="48.49503" lon="-2.73549">
        <ele>-4</ele>
        <time>2013-12-07T08:53:05.1Z</time>
      </trkpt>
      <trkpt lat="48.49504" lon="-2.73552">
        <ele>-4</ele>
        <time>2013-12-07T08:53:07.1Z</time>
      </trkpt>
      <trkpt lat="48.49506" lon="-2.73556">
        <ele>-4</ele>
        <time>2013-12-07T08:53:10.1Z</time>
      </trkpt>
      <trkpt lat="48.49507" lon="-2.73559">
        <ele>-4</ele>
        <time>2013-12-07T08:53:12.1Z</time>
      </trkpt>
      <trkpt lat="48.4951" lon="-2.73564">
        <ele>-4</ele>
        <time>2013-12-07T08:53:15.1Z</time>
      </trkpt>
      <trkpt lat="48.49511" lon="-2.73572">
        <ele>-4</ele>
        <time>2013-12-07T08:53:18.1Z</time>
      </trkpt>
      <trkpt lat="48.49513" lon="-2.73575">
        <ele>-4</ele>
        <time>2013-12-07T08:53:20.1Z</time>
      </trkpt>
      <trkpt lat="48.49516" lon="-2.73579">
        <ele>-4</ele>
        <time>2013-12-07T08:53:23.1Z</time>
      </trkpt>
      <trkpt lat="48.49519" lon="-2.7358">
        <ele>-4</ele>
        <time>2013-12-07T08:53:26.1Z</time>
      </trkpt>
      <trkpt lat="48.49522" lon="-2.7358">
        <ele>-4</ele>
        <time>2013-12-07T08:53:28.1Z</time>
      </trkpt>
      <trkpt lat="48.49525" lon="-2.73582">
        <ele>-4</ele>
        <time>2013-12-07T08:53:31.1Z</time>
      </trkpt>
      <trkpt lat="48.49528" lon="-2.73583">
        <ele>-4</ele>
        <time>2013-12-07T08:53:34.1Z</time>
      </trkpt>
      <trkpt lat="48.49531" lon="-2.73584">
        <ele>-5</ele>
        <time>2013-12-07T08:53:37.1Z</time>
      </trkpt>
      <trkpt lat="48.49532" lon="-2.73585">
        <ele>-5</ele>
        <time>2013-12-07T08:53:39.1Z</time>
      </trkpt>
      <trkpt lat="48.49535" lon="-2.73587">
        <ele>-5</ele>
        <time>2013-12-07T08:53:42.1Z</time>
      </trkpt>
      <trkpt lat="48.49538" lon="-2.73588">
        <ele>-5</ele>
        <time>2013-12-07T08:53:44.1Z</time>
      </trkpt>
      <trkpt lat="48.49541" lon="-2.73589">
        <ele>-5</ele>
        <time>2013-12-07T08:53:47.1Z</time>
      </trkpt>
      <trkpt lat="48.49544" lon="-2.7359">
        <ele>-5</ele>
        <time>2013-12-07T08:53:50.1Z</time>
      </trkpt>
      <trkpt lat="48.49546" lon="-2.73591">
        <ele>-5</ele>
        <time>2013-12-07T08:53:52.1Z</time>
      </trkpt>
      <trkpt lat="48.4955" lon="-2.73592">
        <ele>-6</ele>
        <time>2013-12-07T08:53:55.1Z</time>
      </trkpt>
      <trkpt lat="48.49552" lon="-2.73594">
        <ele>-6</ele>
        <time>2013-12-07T08:53:58.1Z</time>
      </trkpt>
      <trkpt lat="48.49555" lon="-2.73595">
        <ele>-6</ele>
        <time>2013-12-07T08:54:00.1Z</time>
      </trkpt>
      <trkpt lat="48.49558" lon="-2.73597">
        <ele>-6</ele>
        <time>2013-12-07T08:54:03.1Z</time>
      </trkpt>
      <trkpt lat="48.49559" lon="-2.73599">
        <ele>-7</ele>
        <time>2013-12-07T08:54:05.1Z</time>
      </trkpt>
      <trkpt lat="48.49559" lon="-2.73604">
        <ele>-7</ele>
        <time>2013-12-07T08:54:08.1Z</time>
      </trkpt>
      <trkpt lat="48.49559" lon="-2.73607">
        <ele>-7</ele>
        <time>2013-12-07T08:54:11.1Z</time>
      </trkpt>
      <trkpt lat="48.49559" lon="-2.7361">
        <ele>-8</ele>
        <time>2013-12-07T08:54:13.1Z</time>
      </trkpt>
      <trkpt lat="48.49558" lon="-2.73615">
        <ele>-8</ele>
        <time>2013-12-07T08:54:16.1Z</time>
      </trkpt>
      <trkpt lat="48.49558" lon="-2.73618">
        <ele>-8</ele>
        <time>2013-12-07T08:54:18.1Z</time>
      </trkpt>
      <trkpt lat="48.49557" lon="-2.73622">
        <ele>-9</ele>
        <time>2013-12-07T08:54:21.1Z</time>
      </trkpt>
      <trkpt lat="48.49557" lon="-2.73624">
        <ele>-9</ele>
        <time>2013-12-07T08:54:23.1Z</time>
      </trkpt>
      <trkpt lat="48.49557" lon="-2.73626">
        <ele>-9</ele>
        <time>2013-12-07T08:54:25.1Z</time>
      </trkpt>
      <trkpt lat="48.49557" lon="-2.73627">
        <ele>-9</ele>
        <time>2013-12-07T08:54:28.1Z</time>
      </trkpt>
      <trkpt lat="48.49557" lon="-2.73627">
        <ele>-9</ele>
        <time>2013-12-07T08:54:31.1Z</time>
      </trkpt>
      <trkpt lat="48.49558" lon="-2.73629">
        <ele>-10</ele>
        <time>2013-12-07T08:54:33.1Z</time>
      </trkpt>
      <trkpt lat="48.4956" lon="-2.73633">
        <ele>-9</ele>
        <time>2013-12-07T08:54:36.1Z</time>
      </trkpt>
      <trkpt lat="48.49561" lon="-2.73635">
        <ele>-10</ele>
        <time>2013-12-07T08:54:38.1Z</time>
      </trkpt>
      <trkpt lat="48.49564" lon="-2.73637">
        <ele>-10</ele>
        <time>2013-12-07T08:54:40.1Z</time>
      </trkpt>
      <trkpt lat="48.49566" lon="-2.73637">
        <ele>-10</ele>
        <time>2013-12-07T08:54:42.1Z</time>
      </trkpt>
      <trkpt lat="48.49569" lon="-2.73636">
        <ele>-10</ele>
        <time>2013-12-07T08:54:45.1Z</time>
      </trkpt>
      <trkpt lat="48.49572" lon="-2.73634">
        <ele>-10</ele>
        <time>2013-12-07T08:54:48.1Z</time>
      </trkpt>
      <trkpt lat="48.49575" lon="-2.73632">
        <ele>-10</ele>
        <time>2013-12-07T08:54:51.1Z</time>
      </trkpt>
      <trkpt lat="48.49577" lon="-2.73631">
        <ele>-10</ele>
        <time>2013-12-07T08:54:53.1Z</time>
      </trkpt>
      <trkpt lat="48.49578" lon="-2.73629">
        <ele>-11</ele>
        <time>2013-12-07T08:54:55.1Z</time>
      </trkpt>
      <trkpt lat="48.49581" lon="-2.73627">
        <ele>-11</ele>
        <time>2013-12-07T08:54:58.1Z</time>
      </trkpt>
      <trkpt lat="48.49582" lon="-2.73625">
        <ele>-11</ele>
        <time>2013-12-07T08:55:00.1Z</time>
      </trkpt>
      <trkpt lat="48.49584" lon="-2.73623">
        <ele>-11</ele>
        <time>2013-12-07T08:55:03.1Z</time>
      </trkpt>
      <trkpt lat="48.49586" lon="-2.73621">
        <ele>-11</ele>
        <time>2013-12-07T08:55:05.1Z</time>
      </trkpt>
      <trkpt lat="48.49589" lon="-2.73618">
        <ele>-11</ele>
        <time>2013-12-07T08:55:08.1Z</time>
      </trkpt>
      <trkpt lat="48.49593" lon="-2.73618">
        <ele>-12</ele>
        <time>2013-12-07T08:55:11.1Z</time>
      </trkpt>
      <trkpt lat="48.49595" lon="-2.73618">
        <ele>-12</ele>
        <time>2013-12-07T08:55:13.1Z</time>
      </trkpt>
      <trkpt lat="48.49598" lon="-2.73618">
        <ele>-12</ele>
        <time>2013-12-07T08:55:16.1Z</time>
      </trkpt>
      <trkpt lat="48.49602" lon="-2.73617">
        <ele>-12</ele>
        <time>2013-12-07T08:55:19.1Z</time>
      </trkpt>
      <trkpt lat="48.49603" lon="-2.73618">
        <ele>-12</ele>
        <time>2013-12-07T08:55:21.1Z</time>
      </trkpt>
      <trkpt lat="48.49606" lon="-2.7362">
        <ele>-12</ele>
        <time>2013-12-07T08:55:24.1Z</time>
      </trkpt>
      <trkpt lat="48.49609" lon="-2.73622">
        <ele>-12</ele>
        <time>2013-12-07T08:55:27.1Z</time>
      </trkpt>
      <trkpt lat="48.49611" lon="-2.73625">
        <ele>-12</ele>
        <time>2013-12-07T08:55:30.1Z</time>
      </trkpt>
      <trkpt lat="48.49613" lon="-2.73627">
        <ele>-12</ele>
        <time>2013-12-07T08:55:32.1Z</time>
      </trkpt>
      <trkpt lat="48.49615" lon="-2.73631">
        <ele>-11</ele>
        <time>2013-12-07T08:55:35.1Z</time>
      </trkpt>
      <trkpt lat="48.49617" lon="-2.73634">
        <ele>-11</ele>
        <time>2013-12-07T08:55:37.1Z</time>
      </trkpt>
      <trkpt lat="48.49619" lon="-2.73637">
        <ele>-10</ele>
        <time>2013-12-07T08:55:40.1Z</time>
      </trkpt>
      <trkpt lat="48.49621" lon="-2.73639">
        <ele>-10</ele>
        <time>2013-12-07T08:55:42.1Z</time>
      </trkpt>
      <trkpt lat="48.49623" lon="-2.73642">
        <ele>-10</ele>
        <time>2013-12-07T08:55:45.1Z</time>
      </trkpt>
      <trkpt lat="48.49625" lon="-2.73646">
        <ele>-10</ele>
        <time>2013-12-07T08:55:48.1Z</time>
      </trkpt>
      <trkpt lat="48.49627" lon="-2.73649">
        <ele>-10</ele>
        <time>2013-12-07T08:55:51.1Z</time>
      </trkpt>
      <trkpt lat="48.49628" lon="-2.73652">
        <ele>-10</ele>
        <time>2013-12-07T08:55:53.1Z</time>
      </trkpt>
      <trkpt lat="48.4963" lon="-2.73656">
        <ele>-9</ele>
        <time>2013-12-07T08:55:56.1Z</time>
      </trkpt>
      <trkpt lat="48.49631" lon="-2.73659">
        <ele>-9</ele>
        <time>2013-12-07T08:55:58.1Z</time>
      </trkpt>
      <trkpt lat="48.49632" lon="-2.73663">
        <ele>-9</ele>
        <time>2013-12-07T08:56:01.1Z</time>
      </trkpt>
      <trkpt lat="48.49633" lon="-2.73668">
        <ele>-9</ele>
        <time>2013-12-07T08:56:04.1Z</time>
      </trkpt>
      <trkpt lat="48.49634" lon="-2.73673">
        <ele>-9</ele>
        <time>2013-12-07T08:56:07.1Z</time>
      </trkpt>
      <trkpt lat="48.49635" lon="-2.73678">
        <ele>-9</ele>
        <time>2013-12-07T08:56:10.1Z</time>
      </trkpt>
      <trkpt lat="48.49637" lon="-2.7368">
        <ele>-9</ele>
        <time>2013-12-07T08:56:12.1Z</time>
      </trkpt>
      <trkpt lat="48.49638" lon="-2.73684">
        <ele>-9</ele>
        <time>2013-12-07T08:56:15.1Z</time>
      </trkpt>
      <trkpt lat="48.4964" lon="-2.73688">
        <ele>-10</ele>
        <time>2013-12-07T08:56:17.1Z</time>
      </trkpt>
      <trkpt lat="48.49641" lon="-2.7369">
        <ele>-9</ele>
        <time>2013-12-07T08:56:19.1Z</time>
      </trkpt>
      <trkpt lat="48.49641" lon="-2.73696">
        <ele>-9</ele>
        <time>2013-12-07T08:56:22.1Z</time>
      </trkpt>
      <trkpt lat="48.49642" lon="-2.73699">
        <ele>-9</ele>
        <time>2013-12-07T08:56:24.1Z</time>
      </trkpt>
      <trkpt lat="48.49643" lon="-2.73703">
        <ele>-9</ele>
        <time>2013-12-07T08:56:27.1Z</time>
      </trkpt>
      <trkpt lat="48.49646" lon="-2.73708">
        <ele>-9</ele>
        <time>2013-12-07T08:56:30.1Z</time>
      </trkpt>
      <trkpt lat="48.49647" lon="-2.73709">
        <ele>-10</ele>
        <time>2013-12-07T08:56:32.1Z</time>
      </trkpt>
      <trkpt lat="48.4965" lon="-2.73712">
        <ele>-10</ele>
        <time>2013-12-07T08:56:35.1Z</time>
      </trkpt>
      <trkpt lat="48.49652" lon="-2.73713">
        <ele>-11</ele>
        <time>2013-12-07T08:56:37.1Z</time>
      </trkpt>
      <trkpt lat="48.49655" lon="-2.73715">
        <ele>-11</ele>
        <time>2013-12-07T08:56:40.1Z</time>
      </trkpt>
      <trkpt lat="48.49656" lon="-2.73717">
        <ele>-11</ele>
        <time>2013-12-07T08:56:42.1Z</time>
      </trkpt>
      <trkpt lat="48.49658" lon="-2.73722">
        <ele>-11</ele>
        <time>2013-12-07T08:56:45.1Z</time>
      </trkpt>
      <trkpt lat="48.49659" lon="-2.73724">
        <ele>-12</ele>
        <time>2013-12-07T08:56:48.1Z</time>
      </trkpt>
      <trkpt lat="48.49661" lon="-2.73727">
        <ele>-12</ele>
        <time>2013-12-07T08:56:50.1Z</time>
      </trkpt>
      <trkpt lat="48.49661" lon="-2.7373">
        <ele>-13</ele>
        <time>2013-12-07T08:56:53.1Z</time>
      </trkpt>
      <trkpt lat="48.49662" lon="-2.73735">
        <ele>-13</ele>
        <time>2013-12-07T08:56:56.1Z</time>
      </trkpt>
      <trkpt lat="48.49662" lon="-2.7374">
        <ele>-14</ele>
        <time>2013-12-07T08:56:59.1Z</time>
      </trkpt>
      <trkpt lat="48.49662" lon="-2.73745">
        <ele>-14</ele>
        <time>2013-12-07T08:57:02.1Z</time>
      </trkpt>
      <trkpt lat="48.49661" lon="-2.73748">
        <ele>-15</ele>
        <time>2013-12-07T08:57:04.1Z</time>
      </trkpt>
      <trkpt lat="48.49662" lon="-2.73752">
        <ele>-15</ele>
        <time>2013-12-07T08:57:07.1Z</time>
      </trkpt>
      <trkpt lat="48.49664" lon="-2.73756">
        <ele>-15</ele>
        <time>2013-12-07T08:57:09.1Z</time>
      </trkpt>
      <trkpt lat="48.49665" lon="-2.7376">
        <ele>-16</ele>
        <time>2013-12-07T08:57:12.1Z</time>
      </trkpt>
      <trkpt lat="48.49667" lon="-2.73762">
        <ele>-16</ele>
        <time>2013-12-07T08:57:14.1Z</time>
      </trkpt>
      <trkpt lat="48.49668" lon="-2.73765">
        <ele>-16</ele>
        <time>2013-12-07T08:57:17.1Z</time>
      </trkpt>
      <trkpt lat="48.49669" lon="-2.73767">
        <ele>-16</ele>
        <time>2013-12-07T08:57:20.1Z</time>
      </trkpt>
      <trkpt lat="48.4967" lon="-2.7377">
        <ele>-17</ele>
        <time>2013-12-07T08:57:22.1Z</time>
      </trkpt>
      <trkpt lat="48.49673" lon="-2.73775">
        <ele>-17</ele>
        <time>2013-12-07T08:57:25.1Z</time>
      </trkpt>
      <trkpt lat="48.49675" lon="-2.73777">
        <ele>-17</ele>
        <time>2013-12-07T08:57:27.1Z</time>
      </trkpt>
      <trkpt lat="48.49677" lon="-2.73782">
        <ele>-18</ele>
        <time>2013-12-07T08:57:30.1Z</time>
      </trkpt>
      <trkpt lat="48.4968" lon="-2.73786">
        <ele>-18</ele>
        <time>2013-12-07T08:57:33.1Z</time>
      </trkpt>
      <trkpt lat="48.49681" lon="-2.7379">
        <ele>-18</ele>
        <time>2013-12-07T08:57:35.1Z</time>
      </trkpt>
      <trkpt lat="48.49681" lon="-2.73795">
        <ele>-18</ele>
        <time>2013-12-07T08:57:38.1Z</time>
      </trkpt>
      <trkpt lat="48.49681" lon="-2.738">
        <ele>-18</ele>
        <time>2013-12-07T08:57:41.1Z</time>
      </trkpt>
      <trkpt lat="48.49682" lon="-2.73803">
        <ele>-18</ele>
        <time>2013-12-07T08:57:43.1Z</time>
      </trkpt>
      <trkpt lat="48.49681" lon="-2.73808">
        <ele>-18</ele>
        <time>2013-12-07T08:57:46.1Z</time>
      </trkpt>
      <trkpt lat="48.4968" lon="-2.73812">
        <ele>-18</ele>
        <time>2013-12-07T08:57:49.1Z</time>
      </trkpt>
      <trkpt lat="48.49679" lon="-2.73815">
        <ele>-18</ele>
        <time>2013-12-07T08:57:51.1Z</time>
      </trkpt>
      <trkpt lat="48.49678" lon="-2.73819">
        <ele>-18</ele>
        <time>2013-12-07T08:57:54.1Z</time>
      </trkpt>
      <trkpt lat="48.49678" lon="-2.73821">
        <ele>-18</ele>
        <time>2013-12-07T08:57:56.1Z</time>
      </trkpt>
      <trkpt lat="48.49678" lon="-2.73825">
        <ele>-18</ele>
        <time>2013-12-07T08:57:59.1Z</time>
      </trkpt>
      <trkpt lat="48.49677" lon="-2.73828">
        <ele>-18</ele>
        <time>2013-12-07T08:58:01.1Z</time>
      </trkpt>
      <trkpt lat="48.49675" lon="-2.73831">
        <ele>-18</ele>
        <time>2013-12-07T08:58:04.1Z</time>
      </trkpt>
      <trkpt lat="48.49675" lon="-2.73834">
        <ele>-18</ele>
        <time>2013-12-07T08:58:06.1Z</time>
      </trkpt>
      <trkpt lat="48.49674" lon="-2.73838">
        <ele>-18</ele>
        <time>2013-12-07T08:58:09.1Z</time>
      </trkpt>
      <trkpt lat="48.49673" lon="-2.73841">
        <ele>-18</ele>
        <time>2013-12-07T08:58:12.1Z</time>
      </trkpt>
      <trkpt lat="48.49672" lon="-2.73846">
        <ele>-17</ele>
        <time>2013-12-07T08:58:15.1Z</time>
      </trkpt>
      <trkpt lat="48.4967" lon="-2.7385">
        <ele>-17</ele>
        <time>2013-12-07T08:58:18.1Z</time>
      </trkpt>
      <trkpt lat="48.49669" lon="-2.73855">
        <ele>-17</ele>
        <time>2013-12-07T08:58:21.1Z</time>
      </trkpt>
      <trkpt lat="48.49667" lon="-2.73858">
        <ele>-17</ele>
        <time>2013-12-07T08:58:23.1Z</time>
      </trkpt>
      <trkpt lat="48.49666" lon="-2.73863">
        <ele>-17</ele>
        <time>2013-12-07T08:58:26.1Z</time>
      </trkpt>
      <trkpt lat="48.49664" lon="-2.73868">
        <ele>-17</ele>
        <time>2013-12-07T08:58:29.1Z</time>
      </trkpt>
      <trkpt lat="48.49664" lon="-2.73871">
        <ele>-17</ele>
        <time>2013-12-07T08:58:31.1Z</time>
      </trkpt>
      <trkpt lat="48.49664" lon="-2.73876">
        <ele>-17</ele>
        <time>2013-12-07T08:58:34.1Z</time>
      </trkpt>
      <trkpt lat="48.49663" lon="-2.73879">
        <ele>-17</ele>
        <time>2013-12-07T08:58:36.1Z</time>
      </trkpt>
      <trkpt lat="48.49662" lon="-2.73882">
        <ele>-17</ele>
        <time>2013-12-07T08:58:38.1Z</time>
      </trkpt>
      <trkpt lat="48.49661" lon="-2.73886">
        <ele>-17</ele>
        <time>2013-12-07T08:58:41.1Z</time>
      </trkpt>
      <trkpt lat="48.4966" lon="-2.73889">
        <ele>-17</ele>
        <time>2013-12-07T08:58:43.1Z</time>
      </trkpt>
      <trkpt lat="48.4966" lon="-2.73892">
        <ele>-17</ele>
        <time>2013-12-07T08:58:45.1Z</time>
      </trkpt>
      <trkpt lat="48.49659" lon="-2.73898">
        <ele>-16</ele>
        <time>2013-12-07T08:58:48.1Z</time>
      </trkpt>
      <trkpt lat="48.49657" lon="-2.73903">
        <ele>-16</ele>
        <time>2013-12-07T08:58:51.1Z</time>
      </trkpt>
      <trkpt lat="48.49655" lon="-2.73908">
        <ele>-16</ele>
        <time>2013-12-07T08:58:54.1Z</time>
      </trkpt>
      <trkpt lat="48.49654" lon="-2.73911">
        <ele>-16</ele>
        <time>2013-12-07T08:58:56.1Z</time>
      </trkpt>
      <trkpt lat="48.49653" lon="-2.73916">
        <ele>-16</ele>
        <time>2013-12-07T08:58:59.1Z</time>
      </trkpt>
      <trkpt lat="48.49652" lon="-2.73922">
        <ele>-16</ele>
        <time>2013-12-07T08:59:02.1Z</time>
      </trkpt>
      <trkpt lat="48.4965" lon="-2.73927">
        <ele>-16</ele>
        <time>2013-12-07T08:59:05.1Z</time>
      </trkpt>
      <trkpt lat="48.49648" lon="-2.73933">
        <ele>-15</ele>
        <time>2013-12-07T08:59:08.1Z</time>
      </trkpt>
      <trkpt lat="48.49647" lon="-2.73938">
        <ele>-15</ele>
        <time>2013-12-07T08:59:11.1Z</time>
      </trkpt>
      <trkpt lat="48.49646" lon="-2.73942">
        <ele>-15</ele>
        <time>2013-12-07T08:59:13.1Z</time>
      </trkpt>
      <trkpt lat="48.49647" lon="-2.73947">
        <ele>-15</ele>
        <time>2013-12-07T08:59:16.1Z</time>
      </trkpt>
      <trkpt lat="48.49647" lon="-2.73952">
        <ele>-15</ele>
        <time>2013-12-07T08:59:19.1Z</time>
      </trkpt>
      <trkpt lat="48.49646" lon="-2.73957">
        <ele>-15</ele>
        <time>2013-12-07T08:59:22.1Z</time>
      </trkpt>
      <trkpt lat="48.49646" lon="-2.73963">
        <ele>-15</ele>
        <time>2013-12-07T08:59:25.1Z</time>
      </trkpt>
      <trkpt lat="48.49646" lon="-2.73967">
        <ele>-15</ele>
        <time>2013-12-07T08:59:27.1Z</time>
      </trkpt>
      <trkpt lat="48.49646" lon="-2.73971">
        <ele>-15</ele>
        <time>2013-12-07T08:59:30.1Z</time>
      </trkpt>
      <trkpt lat="48.49646" lon="-2.73974">
        <ele>-15</ele>
        <time>2013-12-07T08:59:32.1Z</time>
      </trkpt>
      <trkpt lat="48.49645" lon="-2.73979">
        <ele>-15</ele>
        <time>2013-12-07T08:59:35.1Z</time>
      </trkpt>
      <trkpt lat="48.49644" lon="-2.73982">
        <ele>-15</ele>
        <time>2013-12-07T08:59:37.1Z</time>
      </trkpt>
      <trkpt lat="48.49643" lon="-2.73987">
        <ele>-15</ele>
        <time>2013-12-07T08:59:40.1Z</time>
      </trkpt>
      <trkpt lat="48.49642" lon="-2.73991">
        <ele>-15</ele>
        <time>2013-12-07T08:59:42.1Z</time>
      </trkpt>
      <trkpt lat="48.49641" lon="-2.73994">
        <ele>-15</ele>
        <time>2013-12-07T08:59:44.1Z</time>
      </trkpt>
      <trkpt lat="48.4964" lon="-2.73998">
        <ele>-15</ele>
        <time>2013-12-07T08:59:46.1Z</time>
      </trkpt>
      <trkpt lat="48.49639" lon="-2.74005">
        <ele>-15</ele>
        <time>2013-12-07T08:59:49.1Z</time>
      </trkpt>
      <trkpt lat="48.49638" lon="-2.74008">
        <ele>-14</ele>
        <time>2013-12-07T08:59:51.1Z</time>
      </trkpt>
      <trkpt lat="48.49636" lon="-2.74013">
        <ele>-14</ele>
        <time>2013-12-07T08:59:54.1Z</time>
      </trkpt>
      <trkpt lat="48.49634" lon="-2.74019">
        <ele>-14</ele>
        <time>2013-12-07T08:59:57.1Z</time>
      </trkpt>
      <trkpt lat="48.49633" lon="-2.74021">
        <ele>-14</ele>
        <time>2013-12-07T08:59:59.1Z</time>
      </trkpt>
      <trkpt lat="48.49631" lon="-2.74026">
        <ele>-14</ele>
        <time>2013-12-07T09:00:02.1Z</time>
      </trkpt>
      <trkpt lat="48.4963" lon="-2.74029">
        <ele>-14</ele>
        <time>2013-12-07T09:00:04.1Z</time>
      </trkpt>
      <trkpt lat="48.49628" lon="-2.74033">
        <ele>-14</ele>
        <time>2013-12-07T09:00:07.1Z</time>
      </trkpt>
      <trkpt lat="48.49626" lon="-2.74037">
        <ele>-13</ele>
        <time>2013-12-07T09:00:10.1Z</time>
      </trkpt>
      <trkpt lat="48.49624" lon="-2.74039">
        <ele>-13</ele>
        <time>2013-12-07T09:00:12.1Z</time>
      </trkpt>
      <trkpt lat="48.49622" lon="-2.74044">
        <ele>-13</ele>
        <time>2013-12-07T09:00:15.1Z</time>
      </trkpt>
      <trkpt lat="48.4962" lon="-2.74048">
        <ele>-13</ele>
        <time>2013-12-07T09:00:18.1Z</time>
      </trkpt>
      <trkpt lat="48.49619" lon="-2.74051">
        <ele>-13</ele>
        <time>2013-12-07T09:00:20.1Z</time>
      </trkpt>
      <trkpt lat="48.49618" lon="-2.74054">
        <ele>-13</ele>
        <time>2013-12-07T09:00:23.1Z</time>
      </trkpt>
      <trkpt lat="48.49617" lon="-2.74057">
        <ele>-13</ele>
        <time>2013-12-07T09:00:25.1Z</time>
      </trkpt>
      <trkpt lat="48.49614" lon="-2.74061">
        <ele>-13</ele>
        <time>2013-12-07T09:00:28.1Z</time>
      </trkpt>
      <trkpt lat="48.49612" lon="-2.74065">
        <ele>-13</ele>
        <time>2013-12-07T09:00:31.1Z</time>
      </trkpt>
      <trkpt lat="48.49611" lon="-2.74068">
        <ele>-13</ele>
        <time>2013-12-07T09:00:33.1Z</time>
      </trkpt>
      <trkpt lat="48.49608" lon="-2.74072">
        <ele>-13</ele>
        <time>2013-12-07T09:00:36.1Z</time>
      </trkpt>
      <trkpt lat="48.49606" lon="-2.74077">
        <ele>-13</ele>
        <time>2013-12-07T09:00:39.1Z</time>
      </trkpt>
      <trkpt lat="48.49604" lon="-2.74081">
        <ele>-13</ele>
        <time>2013-12-07T09:00:42.1Z</time>
      </trkpt>
      <trkpt lat="48.49602" lon="-2.74083">
        <ele>-13</ele>
        <time>2013-12-07T09:00:44.1Z</time>
      </trkpt>
      <trkpt lat="48.49599" lon="-2.74087">
        <ele>-13</ele>
        <time>2013-12-07T09:00:47.1Z</time>
      </trkpt>
      <trkpt lat="48.49598" lon="-2.7409">
        <ele>-13</ele>
        <time>2013-12-07T09:00:49.1Z</time>
      </trkpt>
      <trkpt lat="48.49595" lon="-2.74093">
        <ele>-13</ele>
        <time>2013-12-07T09:00:52.1Z</time>
      </trkpt>
      <trkpt lat="48.49592" lon="-2.74094">
        <ele>-12</ele>
        <time>2013-12-07T09:00:55.1Z</time>
      </trkpt>
      <trkpt lat="48.49588" lon="-2.74094">
        <ele>-12</ele>
        <time>2013-12-07T09:00:58.1Z</time>
      </trkpt>
      <trkpt lat="48.49586" lon="-2.74093">
        <ele>-11</ele>
        <time>2013-12-07T09:01:01.1Z</time>
      </trkpt>
      <trkpt lat="48.49585" lon="-2.74092">
        <ele>-11</ele>
        <time>2013-12-07T09:01:03.1Z</time>
      </trkpt>
      <trkpt lat="48.49585" lon="-2.7409">
        <ele>-11</ele>
        <time>2013-12-07T09:01:06.1Z</time>
      </trkpt>
      <trkpt lat="48.49583" lon="-2.74091">
        <ele>-11</ele>
        <time>2013-12-07T09:01:09.1Z</time>
      </trkpt>
      <trkpt lat="48.49581" lon="-2.74092">
        <ele>-10</ele>
        <time>2013-12-07T09:01:12.1Z</time>
      </trkpt>
      <trkpt lat="48.4958" lon="-2.74094">
        <ele>-10</ele>
        <time>2013-12-07T09:01:14.1Z</time>
      </trkpt>
      <trkpt lat="48.49578" lon="-2.74096">
        <ele>-10</ele>
        <time>2013-12-07T09:01:16.1Z</time>
      </trkpt>
      <trkpt lat="48.49577" lon="-2.74097">
        <ele>-10</ele>
        <time>2013-12-07T09:01:18.1Z</time>
      </trkpt>
      <trkpt lat="48.49574" lon="-2.74099">
        <ele>-10</ele>
        <time>2013-12-07T09:01:21.1Z</time>
      </trkpt>
      <trkpt lat="48.49571" lon="-2.74102">
        <ele>-11</ele>
        <time>2013-12-07T09:01:24.1Z</time>
      </trkpt>
      <trkpt lat="48.49569" lon="-2.74103">
        <ele>-10</ele>
        <time>2013-12-07T09:01:26.1Z</time>
      </trkpt>
      <trkpt lat="48.49568" lon="-2.74104">
        <ele>-10</ele>
        <time>2013-12-07T09:01:28.1Z</time>
      </trkpt>
      <trkpt lat="48.49564" lon="-2.74106">
        <ele>-10</ele>
        <time>2013-12-07T09:01:31.1Z</time>
      </trkpt>
      <trkpt lat="48.4956" lon="-2.74109">
        <ele>-10</ele>
        <time>2013-12-07T09:01:35.1Z</time>
      </trkpt>
      <trkpt lat="48.49557" lon="-2.74112">
        <ele>-10</ele>
        <time>2013-12-07T09:01:38.1Z</time>
      </trkpt>
      <trkpt lat="48.49554" lon="-2.74114">
        <ele>-11</ele>
        <time>2013-12-07T09:01:41.1Z</time>
      </trkpt>
      <trkpt lat="48.49552" lon="-2.74116">
        <ele>-11</ele>
        <time>2013-12-07T09:01:43.1Z</time>
      </trkpt>
      <trkpt lat="48.49549" lon="-2.74119">
        <ele>-10</ele>
        <time>2013-12-07T09:01:45.1Z</time>
      </trkpt>
      <trkpt lat="48.49546" lon="-2.74123">
        <ele>-10</ele>
        <time>2013-12-07T09:01:48.1Z</time>
      </trkpt>
      <trkpt lat="48.49542" lon="-2.74125">
        <ele>-10</ele>
        <time>2013-12-07T09:01:51.1Z</time>
      </trkpt>
      <trkpt lat="48.4954" lon="-2.74127">
        <ele>-11</ele>
        <time>2013-12-07T09:01:54.1Z</time>
      </trkpt>
      <trkpt lat="48.49537" lon="-2.74129">
        <ele>-10</ele>
        <time>2013-12-07T09:01:57.1Z</time>
      </trkpt>
      <trkpt lat="48.49534" lon="-2.74131">
        <ele>-10</ele>
        <time>2013-12-07T09:02:00.1Z</time>
      </trkpt>
      <trkpt lat="48.49532" lon="-2.74133">
        <ele>-10</ele>
        <time>2013-12-07T09:02:02.1Z</time>
      </trkpt>
      <trkpt lat="48.4953" lon="-2.74136">
        <ele>-9</ele>
        <time>2013-12-07T09:02:05.1Z</time>
      </trkpt>
      <trkpt lat="48.49529" lon="-2.74137">
        <ele>-9</ele>
        <time>2013-12-07T09:02:07.1Z</time>
      </trkpt>
      <trkpt lat="48.49527" lon="-2.74139">
        <ele>-9</ele>
        <time>2013-12-07T09:02:09.1Z</time>
      </trkpt>
      <trkpt lat="48.49524" lon="-2.74142">
        <ele>-9</ele>
        <time>2013-12-07T09:02:12.1Z</time>
      </trkpt>
      <trkpt lat="48.49522" lon="-2.74144">
        <ele>-9</ele>
        <time>2013-12-07T09:02:14.1Z</time>
      </trkpt>
      <trkpt lat="48.4952" lon="-2.74148">
        <ele>-9</ele>
        <time>2013-12-07T09:02:17.1Z</time>
      </trkpt>
      <trkpt lat="48.49518" lon="-2.7415">
        <ele>-9</ele>
        <time>2013-12-07T09:02:19.1Z</time>
      </trkpt>
      <trkpt lat="48.49516" lon="-2.74152">
        <ele>-9</ele>
        <time>2013-12-07T09:02:21.1Z</time>
      </trkpt>
      <trkpt lat="48.49514" lon="-2.74155">
        <ele>-9</ele>
        <time>2013-12-07T09:02:24.1Z</time>
      </trkpt>
      <trkpt lat="48.49511" lon="-2.74158">
        <ele>-9</ele>
        <time>2013-12-07T09:02:27.1Z</time>
      </trkpt>
      <trkpt lat="48.49509" lon="-2.7416">
        <ele>-8</ele>
        <time>2013-12-07T09:02:29.1Z</time>
      </trkpt>
      <trkpt lat="48.49506" lon="-2.74164">
        <ele>-9</ele>
        <time>2013-12-07T09:02:32.1Z</time>
      </trkpt>
      <trkpt lat="48.49504" lon="-2.74165">
        <ele>-8</ele>
        <time>2013-12-07T09:02:34.1Z</time>
      </trkpt>
      <trkpt lat="48.49501" lon="-2.74168">
        <ele>-8</ele>
        <time>2013-12-07T09:02:37.1Z</time>
      </trkpt>
      <trkpt lat="48.495" lon="-2.74169">
        <ele>-8</ele>
        <time>2013-12-07T09:02:39.1Z</time>
      </trkpt>
      <trkpt lat="48.49497" lon="-2.74172">
        <ele>-8</ele>
        <time>2013-12-07T09:02:42.1Z</time>
      </trkpt>
      <trkpt lat="48.49495" lon="-2.74174">
        <ele>-8</ele>
        <time>2013-12-07T09:02:44.1Z</time>
      </trkpt>
      <trkpt lat="48.49493" lon="-2.74177">
        <ele>-8</ele>
        <time>2013-12-07T09:02:47.1Z</time>
      </trkpt>
      <trkpt lat="48.49491" lon="-2.74179">
        <ele>-8</ele>
        <time>2013-12-07T09:02:50.1Z</time>
      </trkpt>
      <trkpt lat="48.49489" lon="-2.7418">
        <ele>-8</ele>
        <time>2013-12-07T09:02:52.1Z</time>
      </trkpt>
      <trkpt lat="48.49486" lon="-2.74183">
        <ele>-8</ele>
        <time>2013-12-07T09:02:55.1Z</time>
      </trkpt>
      <trkpt lat="48.49484" lon="-2.74184">
        <ele>-8</ele>
        <time>2013-12-07T09:02:57.1Z</time>
      </trkpt>
      <trkpt lat="48.49481" lon="-2.74186">
        <ele>-8</ele>
        <time>2013-12-07T09:03:00.1Z</time>
      </trkpt>
      <trkpt lat="48.49479" lon="-2.74188">
        <ele>-8</ele>
        <time>2013-12-07T09:03:03.1Z</time>
      </trkpt>
      <trkpt lat="48.49477" lon="-2.7419">
        <ele>-8</ele>
        <time>2013-12-07T09:03:05.1Z</time>
      </trkpt>
      <trkpt lat="48.49475" lon="-2.74192">
        <ele>-8</ele>
        <time>2013-12-07T09:03:07.1Z</time>
      </trkpt>
      <trkpt lat="48.49472" lon="-2.74195">
        <ele>-8</ele>
        <time>2013-12-07T09:03:10.1Z</time>
      </trkpt>
      <trkpt lat="48.49469" lon="-2.74197">
        <ele>-8</ele>
        <time>2013-12-07T09:03:13.1Z</time>
      </trkpt>
      <trkpt lat="48.49467" lon="-2.74199">
        <ele>-8</ele>
        <time>2013-12-07T09:03:15.1Z</time>
      </trkpt>
      <trkpt lat="48.49464" lon="-2.74201">
        <ele>-8</ele>
        <time>2013-12-07T09:03:18.1Z</time>
      </trkpt>
      <trkpt lat="48.49463" lon="-2.74203">
        <ele>-7</ele>
        <time>2013-12-07T09:03:20.1Z</time>
      </trkpt>
      <trkpt lat="48.4946" lon="-2.74206">
        <ele>-7</ele>
        <time>2013-12-07T09:03:23.1Z</time>
      </trkpt>
      <trkpt lat="48.49458" lon="-2.74208">
        <ele>-7</ele>
        <time>2013-12-07T09:03:25.1Z</time>
      </trkpt>
      <trkpt lat="48.49456" lon="-2.74211">
        <ele>-8</ele>
        <time>2013-12-07T09:03:28.1Z</time>
      </trkpt>
      <trkpt lat="48.49454" lon="-2.74213">
        <ele>-8</ele>
        <time>2013-12-07T09:03:30.1Z</time>
      </trkpt>
      <trkpt lat="48.49451" lon="-2.74216">
        <ele>-7</ele>
        <time>2013-12-07T09:03:33.1Z</time>
      </trkpt>
      <trkpt lat="48.49448" lon="-2.74219">
        <ele>-7</ele>
        <time>2013-12-07T09:03:36.1Z</time>
      </trkpt>
      <trkpt lat="48.49447" lon="-2.74221">
        <ele>-7</ele>
        <time>2013-12-07T09:03:38.1Z</time>
      </trkpt>
      <trkpt lat="48.49444" lon="-2.74224">
        <ele>-7</ele>
        <time>2013-12-07T09:03:41.1Z</time>
      </trkpt>
      <trkpt lat="48.49442" lon="-2.74226">
        <ele>-8</ele>
        <time>2013-12-07T09:03:43.1Z</time>
      </trkpt>
      <trkpt lat="48.4944" lon="-2.7423">
        <ele>-8</ele>
        <time>2013-12-07T09:03:46.1Z</time>
      </trkpt>
      <trkpt lat="48.49437" lon="-2.74232">
        <ele>-8</ele>
        <time>2013-12-07T09:03:49.1Z</time>
      </trkpt>
      <trkpt lat="48.49436" lon="-2.74234">
        <ele>-7</ele>
        <time>2013-12-07T09:03:51.1Z</time>
      </trkpt>
      <trkpt lat="48.49434" lon="-2.74236">
        <ele>-8</ele>
        <time>2013-12-07T09:03:54.1Z</time>
      </trkpt>
      <trkpt lat="48.49432" lon="-2.74238">
        <ele>-8</ele>
        <time>2013-12-07T09:03:56.1Z</time>
      </trkpt>
      <trkpt lat="48.49429" lon="-2.7424">
        <ele>-7</ele>
        <time>2013-12-07T09:03:59.1Z</time>
      </trkpt>
      <trkpt lat="48.49427" lon="-2.74242">
        <ele>-7</ele>
        <time>2013-12-07T09:04:01.1Z</time>
      </trkpt>
      <trkpt lat="48.49424" lon="-2.74247">
        <ele>-7</ele>
        <time>2013-12-07T09:04:04.1Z</time>
      </trkpt>
      <trkpt lat="48.49423" lon="-2.74251">
        <ele>-7</ele>
        <time>2013-12-07T09:04:07.1Z</time>
      </trkpt>
      <trkpt lat="48.49422" lon="-2.74256">
        <ele>-7</ele>
        <time>2013-12-07T09:04:10.1Z</time>
      </trkpt>
      <trkpt lat="48.49423" lon="-2.74261">
        <ele>-7</ele>
        <time>2013-12-07T09:04:13.1Z</time>
      </trkpt>
      <trkpt lat="48.49424" lon="-2.74265">
        <ele>-7</ele>
        <time>2013-12-07T09:04:15.1Z</time>
      </trkpt>
      <trkpt lat="48.49425" lon="-2.74269">
        <ele>-7</ele>
        <time>2013-12-07T09:04:18.1Z</time>
      </trkpt>
      <trkpt lat="48.49426" lon="-2.74272">
        <ele>-7</ele>
        <time>2013-12-07T09:04:20.1Z</time>
      </trkpt>
      <trkpt lat="48.49427" lon="-2.74277">
        <ele>-7</ele>
        <time>2013-12-07T09:04:23.1Z</time>
      </trkpt>
      <trkpt lat="48.49427" lon="-2.74281">
        <ele>-7</ele>
        <time>2013-12-07T09:04:25.1Z</time>
      </trkpt>
      <trkpt lat="48.49427" lon="-2.74286">
        <ele>-7</ele>
        <time>2013-12-07T09:04:28.1Z</time>
      </trkpt>
      <trkpt lat="48.49426" lon="-2.74288">
        <ele>-6</ele>
        <time>2013-12-07T09:04:30.1Z</time>
      </trkpt>
      <trkpt lat="48.49425" lon="-2.7429">
        <ele>-6</ele>
        <time>2013-12-07T09:04:33.1Z</time>
      </trkpt>
      <trkpt lat="48.49424" lon="-2.74291">
        <ele>-6</ele>
        <time>2013-12-07T09:04:36.1Z</time>
      </trkpt>
      <trkpt lat="48.49424" lon="-2.74292">
        <ele>-6</ele>
        <time>2013-12-07T09:04:39.1Z</time>
      </trkpt>
      <trkpt lat="48.49425" lon="-2.74292">
        <ele>-6</ele>
        <time>2013-12-07T09:04:42.1Z</time>
      </trkpt>
      <trkpt lat="48.49424" lon="-2.74293">
        <ele>-6</ele>
        <time>2013-12-07T09:04:45.1Z</time>
      </trkpt>
      <trkpt lat="48.49422" lon="-2.74294">
        <ele>-6</ele>
        <time>2013-12-07T09:04:47.1Z</time>
      </trkpt>
      <trkpt lat="48.49419" lon="-2.74295">
        <ele>-6</ele>
        <time>2013-12-07T09:04:50.1Z</time>
      </trkpt>
      <trkpt lat="48.49417" lon="-2.74296">
        <ele>-6</ele>
        <time>2013-12-07T09:04:52.1Z</time>
      </trkpt>
      <trkpt lat="48.49414" lon="-2.74297">
        <ele>-6</ele>
        <time>2013-12-07T09:04:55.1Z</time>
      </trkpt>
      <trkpt lat="48.49412" lon="-2.74299">
        <ele>-6</ele>
        <time>2013-12-07T09:04:58.1Z</time>
      </trkpt>
      <trkpt lat="48.4941" lon="-2.74301">
        <ele>-6</ele>
        <time>2013-12-07T09:05:00.1Z</time>
      </trkpt>
      <trkpt lat="48.49409" lon="-2.74302">
        <ele>-6</ele>
        <time>2013-12-07T09:05:02.1Z</time>
      </trkpt>
      <trkpt lat="48.49406" lon="-2.74304">
        <ele>-6</ele>
        <time>2013-12-07T09:05:05.1Z</time>
      </trkpt>
      <trkpt lat="48.49404" lon="-2.74306">
        <ele>-7</ele>
        <time>2013-12-07T09:05:08.1Z</time>
      </trkpt>
      <trkpt lat="48.49401" lon="-2.74306">
        <ele>-7</ele>
        <time>2013-12-07T09:05:11.1Z</time>
      </trkpt>
      <trkpt lat="48.49399" lon="-2.74306">
        <ele>-7</ele>
        <time>2013-12-07T09:05:13.1Z</time>
      </trkpt>
      <trkpt lat="48.49396" lon="-2.74307">
        <ele>-7</ele>
        <time>2013-12-07T09:05:15.1Z</time>
      </trkpt>
      <trkpt lat="48.49393" lon="-2.74308">
        <ele>-7</ele>
        <time>2013-12-07T09:05:18.1Z</time>
      </trkpt>
      <trkpt lat="48.4939" lon="-2.74309">
        <ele>-7</ele>
        <time>2013-12-07T09:05:21.1Z</time>
      </trkpt>
      <trkpt lat="48.49389" lon="-2.74311">
        <ele>-7</ele>
        <time>2013-12-07T09:05:23.1Z</time>
      </trkpt>
      <trkpt lat="48.49385" lon="-2.74312">
        <ele>-7</ele>
        <time>2013-12-07T09:05:26.1Z</time>
      </trkpt>
      <trkpt lat="48.49383" lon="-2.74313">
        <ele>-7</ele>
        <time>2013-12-07T09:05:28.1Z</time>
      </trkpt>
      <trkpt lat="48.4938" lon="-2.74315">
        <ele>-6</ele>
        <time>2013-12-07T09:05:31.1Z</time>
      </trkpt>
      <trkpt lat="48.49377" lon="-2.74318">
        <ele>-6</ele>
        <time>2013-12-07T09:05:34.1Z</time>
      </trkpt>
      <trkpt lat="48.49375" lon="-2.7432">
        <ele>-7</ele>
        <time>2013-12-07T09:05:36.1Z</time>
      </trkpt>
      <trkpt lat="48.49373" lon="-2.74321">
        <ele>-6</ele>
        <time>2013-12-07T09:05:38.1Z</time>
      </trkpt>
      <trkpt lat="48.49371" lon="-2.74324">
        <ele>-6</ele>
        <time>2013-12-07T09:05:41.1Z</time>
      </trkpt>
      <trkpt lat="48.49369" lon="-2.74327">
        <ele>-6</ele>
        <time>2013-12-07T09:05:44.1Z</time>
      </trkpt>
      <trkpt lat="48.49366" lon="-2.7433">
        <ele>-6</ele>
        <time>2013-12-07T09:05:47.1Z</time>
      </trkpt>
      <trkpt lat="48.49365" lon="-2.74334">
        <ele>-6</ele>
        <time>2013-12-07T09:05:50.1Z</time>
      </trkpt>
      <trkpt lat="48.49363" lon="-2.74336">
        <ele>-6</ele>
        <time>2013-12-07T09:05:52.1Z</time>
      </trkpt>
      <trkpt lat="48.49361" lon="-2.7434">
        <ele>-6</ele>
        <time>2013-12-07T09:05:55.1Z</time>
      </trkpt>
      <trkpt lat="48.4936" lon="-2.74344">
        <ele>-6</ele>
        <time>2013-12-07T09:05:58.1Z</time>
      </trkpt>
      <trkpt lat="48.49359" lon="-2.74347">
        <ele>-6</ele>
        <time>2013-12-07T09:06:00.1Z</time>
      </trkpt>
      <trkpt lat="48.49357" lon="-2.74352">
        <ele>-6</ele>
        <time>2013-12-07T09:06:03.1Z</time>
      </trkpt>
      <trkpt lat="48.49356" lon="-2.74357">
        <ele>-6</ele>
        <time>2013-12-07T09:06:06.1Z</time>
      </trkpt>
      <trkpt lat="48.49355" lon="-2.7436">
        <ele>-6</ele>
        <time>2013-12-07T09:06:08.1Z</time>
      </trkpt>
      <trkpt lat="48.49354" lon="-2.74364">
        <ele>-6</ele>
        <time>2013-12-07T09:06:11.1Z</time>
      </trkpt>
      <trkpt lat="48.49354" lon="-2.74367">
        <ele>-6</ele>
        <time>2013-12-07T09:06:13.1Z</time>
      </trkpt>
      <trkpt lat="48.49353" lon="-2.74371">
        <ele>-6</ele>
        <time>2013-12-07T09:06:16.1Z</time>
      </trkpt>
      <trkpt lat="48.49352" lon="-2.74374">
        <ele>-6</ele>
        <time>2013-12-07T09:06:18.1Z</time>
      </trkpt>
      <trkpt lat="48.4935" lon="-2.74378">
        <ele>-6</ele>
        <time>2013-12-07T09:06:21.1Z</time>
      </trkpt>
      <trkpt lat="48.49349" lon="-2.74382">
        <ele>-5</ele>
        <time>2013-12-07T09:06:23.1Z</time>
      </trkpt>
      <trkpt lat="48.49349" lon="-2.74386">
        <ele>-5</ele>
        <time>2013-12-07T09:06:26.1Z</time>
      </trkpt>
      <trkpt lat="48.49348" lon="-2.74389">
        <ele>-5</ele>
        <time>2013-12-07T09:06:28.1Z</time>
      </trkpt>
      <trkpt lat="48.49348" lon="-2.74393">
        <ele>-5</ele>
        <time>2013-12-07T09:06:31.1Z</time>
      </trkpt>
      <trkpt lat="48.49347" lon="-2.74395">
        <ele>-5</ele>
        <time>2013-12-07T09:06:33.1Z</time>
      </trkpt>
      <trkpt lat="48.49347" lon="-2.74398">
        <ele>-5</ele>
        <time>2013-12-07T09:06:35.1Z</time>
      </trkpt>
      <trkpt lat="48.49346" lon="-2.74401">
        <ele>-5</ele>
        <time>2013-12-07T09:06:38.1Z</time>
      </trkpt>
      <trkpt lat="48.49345" lon="-2.74405">
        <ele>-5</ele>
        <time>2013-12-07T09:06:41.1Z</time>
      </trkpt>
      <trkpt lat="48.49344" lon="-2.74407">
        <ele>-5</ele>
        <time>2013-12-07T09:06:43.1Z</time>
      </trkpt>
      <trkpt lat="48.49343" lon="-2.74409">
        <ele>-5</ele>
        <time>2013-12-07T09:06:45.1Z</time>
      </trkpt>
      <trkpt lat="48.49341" lon="-2.74412">
        <ele>-5</ele>
        <time>2013-12-07T09:06:48.1Z</time>
      </trkpt>
      <trkpt lat="48.4934" lon="-2.74416">
        <ele>-5</ele>
        <time>2013-12-07T09:06:51.1Z</time>
      </trkpt>
      <trkpt lat="48.49339" lon="-2.74419">
        <ele>-4</ele>
        <time>2013-12-07T09:06:54.1Z</time>
      </trkpt>
      <trkpt lat="48.49337" lon="-2.74422">
        <ele>-4</ele>
        <time>2013-12-07T09:06:56.1Z</time>
      </trkpt>
      <trkpt lat="48.49336" lon="-2.74424">
        <ele>-4</ele>
        <time>2013-12-07T09:06:59.1Z</time>
      </trkpt>
      <trkpt lat="48.49335" lon="-2.74426">
        <ele>-4</ele>
        <time>2013-12-07T09:07:01.1Z</time>
      </trkpt>
      <trkpt lat="48.49334" lon="-2.74429">
        <ele>-3</ele>
        <time>2013-12-07T09:07:04.1Z</time>
      </trkpt>
      <trkpt lat="48.49331" lon="-2.74431">
        <ele>-3</ele>
        <time>2013-12-07T09:07:07.1Z</time>
      </trkpt>
      <trkpt lat="48.49328" lon="-2.74434">
        <ele>-3</ele>
        <time>2013-12-07T09:07:10.1Z</time>
      </trkpt>
      <trkpt lat="48.49324" lon="-2.74437">
        <ele>-3</ele>
        <time>2013-12-07T09:07:13.1Z</time>
      </trkpt>
      <trkpt lat="48.49322" lon="-2.7444">
        <ele>-2</ele>
        <time>2013-12-07T09:07:15.1Z</time>
      </trkpt>
      <trkpt lat="48.49318" lon="-2.74444">
        <ele>-3</ele>
        <time>2013-12-07T09:07:18.1Z</time>
      </trkpt>
      <trkpt lat="48.49316" lon="-2.74446">
        <ele>-3</ele>
        <time>2013-12-07T09:07:20.1Z</time>
      </trkpt>
      <trkpt lat="48.49313" lon="-2.74449">
        <ele>-3</ele>
        <time>2013-12-07T09:07:23.1Z</time>
      </trkpt>
      <trkpt lat="48.49309" lon="-2.74453">
        <ele>-3</ele>
        <time>2013-12-07T09:07:26.1Z</time>
      </trkpt>
      <trkpt lat="48.49308" lon="-2.74455">
        <ele>-2</ele>
        <time>2013-12-07T09:07:28.1Z</time>
      </trkpt>
      <trkpt lat="48.49304" lon="-2.74458">
        <ele>-2</ele>
        <time>2013-12-07T09:07:31.1Z</time>
      </trkpt>
      <trkpt lat="48.49302" lon="-2.74459">
        <ele>-2</ele>
        <time>2013-12-07T09:07:33.1Z</time>
      </trkpt>
      <trkpt lat="48.49299" lon="-2.74461">
        <ele>-2</ele>
        <time>2013-12-07T09:07:35.1Z</time>
      </trkpt>
      <trkpt lat="48.49297" lon="-2.74464">
        <ele>-1</ele>
        <time>2013-12-07T09:07:38.1Z</time>
      </trkpt>
      <trkpt lat="48.49293" lon="-2.74467">
        <ele>-2</ele>
        <time>2013-12-07T09:07:41.1Z</time>
      </trkpt>
      <trkpt lat="48.4929" lon="-2.74471">
        <ele>-2</ele>
        <time>2013-12-07T09:07:44.1Z</time>
      </trkpt>
      <trkpt lat="48.49288" lon="-2.74475">
        <ele>-2</ele>
        <time>2013-12-07T09:07:47.1Z</time>
      </trkpt>
      <trkpt lat="48.49286" lon="-2.74478">
        <ele>-2</ele>
        <time>2013-12-07T09:07:49.1Z</time>
      </trkpt>
      <trkpt lat="48.49284" lon="-2.74482">
        <ele>-2</ele>
        <time>2013-12-07T09:07:52.1Z</time>
      </trkpt>
      <trkpt lat="48.49282" lon="-2.74486">
        <ele>-2</ele>
        <time>2013-12-07T09:07:55.1Z</time>
      </trkpt>
      <trkpt lat="48.49281" lon="-2.74489">
        <ele>-2</ele>
        <time>2013-12-07T09:07:57.1Z</time>
      </trkpt>
      <trkpt lat="48.49279" lon="-2.74494">
        <ele>-2</ele>
        <time>2013-12-07T09:08:00.1Z</time>
      </trkpt>
      <trkpt lat="48.49277" lon="-2.74497">
        <ele>-2</ele>
        <time>2013-12-07T09:08:02.1Z</time>
      </trkpt>
      <trkpt lat="48.49275" lon="-2.74501">
        <ele>-2</ele>
        <time>2013-12-07T09:08:05.1Z</time>
      </trkpt>
      <trkpt lat="48.49274" lon="-2.74504">
        <ele>-2</ele>
        <time>2013-12-07T09:08:07.1Z</time>
      </trkpt>
      <trkpt lat="48.49272" lon="-2.74508">
        <ele>-2</ele>
        <time>2013-12-07T09:08:10.1Z</time>
      </trkpt>
      <trkpt lat="48.49271" lon="-2.74511">
        <ele>-2</ele>
        <time>2013-12-07T09:08:12.1Z</time>
      </trkpt>
      <trkpt lat="48.49269" lon="-2.74515">
        <ele>-2</ele>
        <time>2013-12-07T09:08:15.1Z</time>
      </trkpt>
      <trkpt lat="48.49268" lon="-2.74517">
        <ele>-1</ele>
        <time>2013-12-07T09:08:17.1Z</time>
      </trkpt>
      <trkpt lat="48.49266" lon="-2.74522">
        <ele>-2</ele>
        <time>2013-12-07T09:08:20.1Z</time>
      </trkpt>
      <trkpt lat="48.49264" lon="-2.74527">
        <ele>-1</ele>
        <time>2013-12-07T09:08:23.1Z</time>
      </trkpt>
      <trkpt lat="48.49263" lon="-2.74529">
        <ele>-1</ele>
        <time>2013-12-07T09:08:25.1Z</time>
      </trkpt>
      <trkpt lat="48.49261" lon="-2.74534">
        <ele>-1</ele>
        <time>2013-12-07T09:08:28.1Z</time>
      </trkpt>
      <trkpt lat="48.4926" lon="-2.74536">
        <ele>-2</ele>
        <time>2013-12-07T09:08:30.1Z</time>
      </trkpt>
      <trkpt lat="48.49259" lon="-2.7454">
        <ele>-2</ele>
        <time>2013-12-07T09:08:33.1Z</time>
      </trkpt>
      <trkpt lat="48.49258" lon="-2.74543">
        <ele>-1</ele>
        <time>2013-12-07T09:08:35.1Z</time>
      </trkpt>
      <trkpt lat="48.49256" lon="-2.74545">
        <ele>-1</ele>
        <time>2013-12-07T09:08:38.1Z</time>
      </trkpt>
      <trkpt lat="48.49254" lon="-2.74545">
        <ele>-2</ele>
        <time>2013-12-07T09:08:41.1Z</time>
      </trkpt>
      <trkpt lat="48.49252" lon="-2.74547">
        <ele>-1</ele>
        <time>2013-12-07T09:08:43.1Z</time>
      </trkpt>
      <trkpt lat="48.4925" lon="-2.74549">
        <ele>-1</ele>
        <time>2013-12-07T09:08:45.1Z</time>
      </trkpt>
      <trkpt lat="48.49248" lon="-2.74552">
        <ele>-1</ele>
        <time>2013-12-07T09:08:48.1Z</time>
      </trkpt>
      <trkpt lat="48.49245" lon="-2.74554">
        <ele>-1</ele>
        <time>2013-12-07T09:08:51.1Z</time>
      </trkpt>
      <trkpt lat="48.49243" lon="-2.74556">
        <ele>-2</ele>
        <time>2013-12-07T09:08:53.1Z</time>
      </trkpt>
      <trkpt lat="48.49242" lon="-2.74558">
        <ele>-2</ele>
        <time>2013-12-07T09:08:55.1Z</time>
      </trkpt>
      <trkpt lat="48.49239" lon="-2.7456">
        <ele>-2</ele>
        <time>2013-12-07T09:08:58.1Z</time>
      </trkpt>
      <trkpt lat="48.49237" lon="-2.74562">
        <ele>-2</ele>
        <time>2013-12-07T09:09:00.1Z</time>
      </trkpt>
      <trkpt lat="48.49235" lon="-2.74564">
        <ele>-2</ele>
        <time>2013-12-07T09:09:03.1Z</time>
      </trkpt>
      <trkpt lat="48.49232" lon="-2.74564">
        <ele>-2</ele>
        <time>2013-12-07T09:09:06.1Z</time>
      </trkpt>
      <trkpt lat="48.4923" lon="-2.74565">
        <ele>-2</ele>
        <time>2013-12-07T09:09:08.1Z</time>
      </trkpt>
      <trkpt lat="48.49229" lon="-2.74565">
        <ele>-2</ele>
        <time>2013-12-07T09:09:10.1Z</time>
      </trkpt>
      <trkpt lat="48.49226" lon="-2.74564">
        <ele>-2</ele>
        <time>2013-12-07T09:09:13.1Z</time>
      </trkpt>
      <trkpt lat="48.49224" lon="-2.74564">
        <ele>-2</ele>
        <time>2013-12-07T09:09:15.1Z</time>
      </trkpt>
      <trkpt lat="48.49221" lon="-2.74564">
        <ele>-2</ele>
        <time>2013-12-07T09:09:18.1Z</time>
      </trkpt>
      <trkpt lat="48.49219" lon="-2.74564">
        <ele>-2</ele>
        <time>2013-12-07T09:09:20.1Z</time>
      </trkpt>
      <trkpt lat="48.49217" lon="-2.74564">
        <ele>-1</ele>
        <time>2013-12-07T09:09:22.1Z</time>
      </trkpt>
      <trkpt lat="48.49214" lon="-2.74562">
        <ele>-1</ele>
        <time>2013-12-07T09:09:25.1Z</time>
      </trkpt>
      <trkpt lat="48.49212" lon="-2.7456">
        <ele>-1</ele>
        <time>2013-12-07T09:09:27.1Z</time>
      </trkpt>
      <trkpt lat="48.49211" lon="-2.7456">
        <ele>-1</ele>
        <time>2013-12-07T09:09:29.1Z</time>
      </trkpt>
      <trkpt lat="48.49208" lon="-2.74558">
        <ele>-1</ele>
        <time>2013-12-07T09:09:32.1Z</time>
      </trkpt>
      <trkpt lat="48.49206" lon="-2.74556">
        <ele>102.6</ele>
        <time>2013-12-07T09:09:34.1Z</time>
      </trkpt>
      <trkpt lat="48.49203" lon="-2.74555">
        <ele>102.7</ele>
        <time>2013-12-07T09:09:37.1Z</time>
      </trkpt>
      <trkpt lat="48.49199" lon="-2.74552">
        <ele>102.9</ele>
        <time>2013-12-07T09:09:40.1Z</time>
      </trkpt>
      <trkpt lat="48.49197" lon="-2.74548">
        <ele>103.1</ele>
        <time>2013-12-07T09:09:43.1Z</time>
      </trkpt>
      <trkpt lat="48.49196" lon="-2.74546">
        <ele>103.3</ele>
        <time>2013-12-07T09:09:45.1Z</time>
      </trkpt>
      <trkpt lat="48.49194" lon="-2.74543">
        <ele>103.5</ele>
        <time>2013-12-07T09:09:48.1Z</time>
      </trkpt>
      <trkpt lat="48.49192" lon="-2.74541">
        <ele>103.6</ele>
        <time>2013-12-07T09:09:50.1Z</time>
      </trkpt>
      <trkpt lat="48.49189" lon="-2.74538">
        <ele>103.8</ele>
        <time>2013-12-07T09:09:53.1Z</time>
      </trkpt>
      <trkpt lat="48.49186" lon="-2.74535">
        <ele>104</ele>
        <time>2013-12-07T09:09:56.1Z</time>
      </trkpt>
      <trkpt lat="48.49184" lon="-2.74534">
        <ele>104.2</ele>
        <time>2013-12-07T09:09:58.1Z</time>
      </trkpt>
      <trkpt lat="48.49181" lon="-2.74531">
        <ele>104.4</ele>
        <time>2013-12-07T09:10:01.1Z</time>
      </trkpt>
      <trkpt lat="48.49178" lon="-2.74528">
        <ele>104.6</ele>
        <time>2013-12-07T09:10:04.1Z</time>
      </trkpt>
      <trkpt lat="48.49176" lon="-2.74527">
        <ele>104.7</ele>
        <time>2013-12-07T09:10:07.1Z</time>
      </trkpt>
      <trkpt lat="48.49173" lon="-2.74526">
        <ele>1</ele>
        <time>2013-12-07T09:10:10.1Z</time>
      </trkpt>
      <trkpt lat="48.49171" lon="-2.74526">
        <ele>1</ele>
        <time>2013-12-07T09:10:12.1Z</time>
      </trkpt>
      <trkpt lat="48.49168" lon="-2.74527">
        <ele>2</ele>
        <time>2013-12-07T09:10:15.1Z</time>
      </trkpt>
      <trkpt lat="48.49165" lon="-2.74529">
        <ele>1</ele>
        <time>2013-12-07T09:10:18.1Z</time>
      </trkpt>
      <trkpt lat="48.49163" lon="-2.7453">
        <ele>1</ele>
        <time>2013-12-07T09:10:20.1Z</time>
      </trkpt>
      <trkpt lat="48.4916" lon="-2.74533">
        <ele>1</ele>
        <time>2013-12-07T09:10:23.1Z</time>
      </trkpt>
      <trkpt lat="48.49158" lon="-2.74535">
        <ele>1</ele>
        <time>2013-12-07T09:10:25.1Z</time>
      </trkpt>
      <trkpt lat="48.49155" lon="-2.74538">
        <ele>1</ele>
        <time>2013-12-07T09:10:28.1Z</time>
      </trkpt>
      <trkpt lat="48.49154" lon="-2.7454">
        <ele>105</ele>
        <time>2013-12-07T09:10:30.1Z</time>
      </trkpt>
      <trkpt lat="48.49152" lon="-2.74543">
        <ele>105</ele>
        <time>2013-12-07T09:10:32.1Z</time>
      </trkpt>
      <trkpt lat="48.4915" lon="-2.74547">
        <ele>1</ele>
        <time>2013-12-07T09:10:35.1Z</time>
      </trkpt>
      <trkpt lat="48.49147" lon="-2.74551">
        <ele>104.9</ele>
        <time>2013-12-07T09:10:38.1Z</time>
      </trkpt>
      <trkpt lat="48.49146" lon="-2.74553">
        <ele>104.8</ele>
        <time>2013-12-07T09:10:40.1Z</time>
      </trkpt>
      <trkpt lat="48.49144" lon="-2.74557">
        <ele>104.7</ele>
        <time>2013-12-07T09:10:43.1Z</time>
      </trkpt>
      <trkpt lat="48.49144" lon="-2.74559">
        <ele>104.7</ele>
        <time>2013-12-07T09:10:45.1Z</time>
      </trkpt>
      <trkpt lat="48.49141" lon="-2.74564">
        <ele>104.7</ele>
        <time>2013-12-07T09:10:48.1Z</time>
      </trkpt>
      <trkpt lat="48.49139" lon="-2.74566">
        <ele>104.6</ele>
        <time>2013-12-07T09:10:51.1Z</time>
      </trkpt>
      <trkpt lat="48.49137" lon="-2.74569">
        <ele>104.6</ele>
        <time>2013-12-07T09:10:54.1Z</time>
      </trkpt>
      <trkpt lat="48.49135" lon="-2.74572">
        <ele>104.6</ele>
        <time>2013-12-07T09:10:57.1Z</time>
      </trkpt>
      <trkpt lat="48.49134" lon="-2.74573">
        <ele>104.6</ele>
        <time>2013-12-07T09:10:59.1Z</time>
      </trkpt>
      <trkpt lat="48.49132" lon="-2.74575">
        <ele>104.5</ele>
        <time>2013-12-07T09:11:01.1Z</time>
      </trkpt>
      <trkpt lat="48.49128" lon="-2.7458">
        <ele>104.5</ele>
        <time>2013-12-07T09:11:04.1Z</time>
      </trkpt>
      <trkpt lat="48.49126" lon="-2.74583">
        <ele>104.5</ele>
        <time>2013-12-07T09:11:07.1Z</time>
      </trkpt>
      <trkpt lat="48.49124" lon="-2.74586">
        <ele>104.4</ele>
        <time>2013-12-07T09:11:09.1Z</time>
      </trkpt>
      <trkpt lat="48.49122" lon="-2.74589">
        <ele>104.4</ele>
        <time>2013-12-07T09:11:12.1Z</time>
      </trkpt>
      <trkpt lat="48.4912" lon="-2.74592">
        <ele>104.4</ele>
        <time>2013-12-07T09:11:14.1Z</time>
      </trkpt>
      <trkpt lat="48.49117" lon="-2.74594">
        <ele>104.4</ele>
        <time>2013-12-07T09:11:17.1Z</time>
      </trkpt>
      <trkpt lat="48.49115" lon="-2.74596">
        <ele>104.4</ele>
        <time>2013-12-07T09:11:19.1Z</time>
      </trkpt>
      <trkpt lat="48.49113" lon="-2.74599">
        <ele>104.4</ele>
        <time>2013-12-07T09:11:22.1Z</time>
      </trkpt>
      <trkpt lat="48.49111" lon="-2.74603">
        <ele>104.3</ele>
        <time>2013-12-07T09:11:25.1Z</time>
      </trkpt>
      <trkpt lat="48.49108" lon="-2.74606">
        <ele>104.3</ele>
        <time>2013-12-07T09:11:28.1Z</time>
      </trkpt>
      <trkpt lat="48.49105" lon="-2.74608">
        <ele>104.3</ele>
        <time>2013-12-07T09:11:31.1Z</time>
      </trkpt>
      <trkpt lat="48.49104" lon="-2.7461">
        <ele>104.3</ele>
        <time>2013-12-07T09:11:33.1Z</time>
      </trkpt>
      <trkpt lat="48.49102" lon="-2.74614">
        <ele>104.3</ele>
        <time>2013-12-07T09:11:36.1Z</time>
      </trkpt>
      <trkpt lat="48.49099" lon="-2.74618">
        <ele>104.4</ele>
        <time>2013-12-07T09:11:39.1Z</time>
      </trkpt>
      <trkpt lat="48.49097" lon="-2.7462">
        <ele>104.5</ele>
        <time>2013-12-07T09:11:41.1Z</time>
      </trkpt>
      <trkpt lat="48.49095" lon="-2.74624">
        <ele>104.6</ele>
        <time>2013-12-07T09:11:44.1Z</time>
      </trkpt>
      <trkpt lat="48.49094" lon="-2.74628">
        <ele>104.6</ele>
        <time>2013-12-07T09:11:47.1Z</time>
      </trkpt>
      <trkpt lat="48.49092" lon="-2.7463">
        <ele>104.7</ele>
        <time>2013-12-07T09:11:49.1Z</time>
      </trkpt>
      <trkpt lat="48.4909" lon="-2.74632">
        <ele>104.8</ele>
        <time>2013-12-07T09:11:52.1Z</time>
      </trkpt>
      <trkpt lat="48.49087" lon="-2.74633">
        <ele>104.9</ele>
        <time>2013-12-07T09:11:55.1Z</time>
      </trkpt>
      <trkpt lat="48.49085" lon="-2.74634">
        <ele>104.9</ele>
        <time>2013-12-07T09:11:57.1Z</time>
      </trkpt>
      <trkpt lat="48.49082" lon="-2.74635">
        <ele>105</ele>
        <time>2013-12-07T09:12:00.1Z</time>
      </trkpt>
      <trkpt lat="48.4908" lon="-2.74636">
        <ele>105.1</ele>
        <time>2013-12-07T09:12:02.1Z</time>
      </trkpt>
      <trkpt lat="48.49076" lon="-2.74637">
        <ele>105.2</ele>
        <time>2013-12-07T09:12:05.1Z</time>
      </trkpt>
      <trkpt lat="48.49074" lon="-2.74637">
        <ele>105.3</ele>
        <time>2013-12-07T09:12:07.1Z</time>
      </trkpt>
      <trkpt lat="48.49071" lon="-2.74637">
        <ele>105.4</ele>
        <time>2013-12-07T09:12:10.1Z</time>
      </trkpt>
      <trkpt lat="48.49069" lon="-2.74636">
        <ele>105.5</ele>
        <time>2013-12-07T09:12:12.1Z</time>
      </trkpt>
      <trkpt lat="48.49067" lon="-2.74636">
        <ele>105.6</ele>
        <time>2013-12-07T09:12:14.1Z</time>
      </trkpt>
      <trkpt lat="48.49063" lon="-2.74636">
        <ele>105.7</ele>
        <time>2013-12-07T09:12:17.1Z</time>
      </trkpt>
      <trkpt lat="48.4906" lon="-2.74636">
        <ele>105.9</ele>
        <time>2013-12-07T09:12:20.1Z</time>
      </trkpt>
      <trkpt lat="48.49059" lon="-2.74636">
        <ele>105.9</ele>
        <time>2013-12-07T09:12:22.1Z</time>
      </trkpt>
      <trkpt lat="48.49056" lon="-2.74636">
        <ele>106</ele>
        <time>2013-12-07T09:12:25.1Z</time>
      </trkpt>
      <trkpt lat="48.49053" lon="-2.74636">
        <ele>1</ele>
        <time>2013-12-07T09:12:28.1Z</time>
      </trkpt>
      <trkpt lat="48.49049" lon="-2.74637">
        <ele>1</ele>
        <time>2013-12-07T09:12:31.1Z</time>
      </trkpt>
      <trkpt lat="48.49047" lon="-2.74636">
        <ele>1</ele>
        <time>2013-12-07T09:12:34.1Z</time>
      </trkpt>
      <trkpt lat="48.49046" lon="-2.74636">
        <ele>1</ele>
        <time>2013-12-07T09:12:36.1Z</time>
      </trkpt>
      <trkpt lat="48.49043" lon="-2.74636">
        <ele>2</ele>
        <time>2013-12-07T09:12:39.1Z</time>
      </trkpt>
      <trkpt lat="48.49041" lon="-2.74637">
        <ele>2</ele>
        <time>2013-12-07T09:12:41.1Z</time>
      </trkpt>
      <trkpt lat="48.49038" lon="-2.74638">
        <ele>2</ele>
        <time>2013-12-07T09:12:44.1Z</time>
      </trkpt>
      <trkpt lat="48.49035" lon="-2.74638">
        <ele>2</ele>
        <time>2013-12-07T09:12:47.1Z</time>
      </trkpt>
      <trkpt lat="48.49033" lon="-2.74638">
        <ele>2</ele>
        <time>2013-12-07T09:12:49.1Z</time>
      </trkpt>
      <trkpt lat="48.4903" lon="-2.74638">
        <ele>2</ele>
        <time>2013-12-07T09:12:52.1Z</time>
      </trkpt>
      <trkpt lat="48.49027" lon="-2.74638">
        <ele>2</ele>
        <time>2013-12-07T09:12:54.1Z</time>
      </trkpt>
      <trkpt lat="48.49024" lon="-2.74638">
        <ele>2</ele>
        <time>2013-12-07T09:12:57.1Z</time>
      </trkpt>
      <trkpt lat="48.49022" lon="-2.74639">
        <ele>2</ele>
        <time>2013-12-07T09:12:59.1Z</time>
      </trkpt>
      <trkpt lat="48.49019" lon="-2.7464">
        <ele>3</ele>
        <time>2013-12-07T09:13:02.1Z</time>
      </trkpt>
      <trkpt lat="48.49016" lon="-2.74641">
        <ele>2</ele>
        <time>2013-12-07T09:13:05.1Z</time>
      </trkpt>
      <trkpt lat="48.49013" lon="-2.74641">
        <ele>2</ele>
        <time>2013-12-07T09:13:07.1Z</time>
      </trkpt>
      <trkpt lat="48.49009" lon="-2.74641">
        <ele>1</ele>
        <time>2013-12-07T09:13:10.1Z</time>
      </trkpt>
      <trkpt lat="48.49007" lon="-2.74642">
        <ele>1</ele>
        <time>2013-12-07T09:13:12.1Z</time>
      </trkpt>
      <trkpt lat="48.49004" lon="-2.74643">
        <ele>2</ele>
        <time>2013-12-07T09:13:15.1Z</time>
      </trkpt>
      <trkpt lat="48.49" lon="-2.74644">
        <ele>2</ele>
        <time>2013-12-07T09:13:18.1Z</time>
      </trkpt>
      <trkpt lat="48.48996" lon="-2.74645">
        <ele>3</ele>
        <time>2013-12-07T09:13:21.1Z</time>
      </trkpt>
      <trkpt lat="48.48993" lon="-2.74646">
        <ele>3</ele>
        <time>2013-12-07T09:13:24.1Z</time>
      </trkpt>
      <trkpt lat="48.4899" lon="-2.74646">
        <ele>3</ele>
        <time>2013-12-07T09:13:26.1Z</time>
      </trkpt>
      <trkpt lat="48.48986" lon="-2.74647">
        <ele>2</ele>
        <time>2013-12-07T09:13:29.1Z</time>
      </trkpt>
      <trkpt lat="48.48983" lon="-2.74647">
        <ele>2</ele>
        <time>2013-12-07T09:13:32.1Z</time>
      </trkpt>
      <trkpt lat="48.4898" lon="-2.74646">
        <ele>2</ele>
        <time>2013-12-07T09:13:34.1Z</time>
      </trkpt>
      <trkpt lat="48.48978" lon="-2.74646">
        <ele>2</ele>
        <time>2013-12-07T09:13:36.1Z</time>
      </trkpt>
      <trkpt lat="48.48974" lon="-2.74647">
        <ele>3</ele>
        <time>2013-12-07T09:13:39.1Z</time>
      </trkpt>
      <trkpt lat="48.48971" lon="-2.74648">
        <ele>3</ele>
        <time>2013-12-07T09:13:42.1Z</time>
      </trkpt>
      <trkpt lat="48.48968" lon="-2.74649">
        <ele>3</ele>
        <time>2013-12-07T09:13:45.1Z</time>
      </trkpt>
      <trkpt lat="48.48967" lon="-2.74648">
        <ele>3</ele>
        <time>2013-12-07T09:13:47.1Z</time>
      </trkpt>
      <trkpt lat="48.48964" lon="-2.74648">
        <ele>3</ele>
        <time>2013-12-07T09:13:49.1Z</time>
      </trkpt>
      <trkpt lat="48.48962" lon="-2.74648">
        <ele>3</ele>
        <time>2013-12-07T09:13:52.1Z</time>
      </trkpt>
      <trkpt lat="48.48959" lon="-2.74649">
        <ele>3</ele>
        <time>2013-12-07T09:13:55.1Z</time>
      </trkpt>
      <trkpt lat="48.48958" lon="-2.74649">
        <ele>3</ele>
        <time>2013-12-07T09:13:57.1Z</time>
      </trkpt>
      <trkpt lat="48.48956" lon="-2.74651">
        <ele>3</ele>
        <time>2013-12-07T09:14:00.1Z</time>
      </trkpt>
      <trkpt lat="48.48954" lon="-2.74652">
        <ele>4</ele>
        <time>2013-12-07T09:14:02.1Z</time>
      </trkpt>
      <trkpt lat="48.48951" lon="-2.74654">
        <ele>4</ele>
        <time>2013-12-07T09:14:05.1Z</time>
      </trkpt>
      <trkpt lat="48.48949" lon="-2.74654">
        <ele>4</ele>
        <time>2013-12-07T09:14:07.1Z</time>
      </trkpt>
      <trkpt lat="48.48945" lon="-2.74653">
        <ele>4</ele>
        <time>2013-12-07T09:14:10.1Z</time>
      </trkpt>
      <trkpt lat="48.48943" lon="-2.74652">
        <ele>4</ele>
        <time>2013-12-07T09:14:12.1Z</time>
      </trkpt>
      <trkpt lat="48.4894" lon="-2.7465">
        <ele>4</ele>
        <time>2013-12-07T09:14:15.1Z</time>
      </trkpt>
      <trkpt lat="48.48937" lon="-2.74652">
        <ele>5</ele>
        <time>2013-12-07T09:14:18.1Z</time>
      </trkpt>
      <trkpt lat="48.48935" lon="-2.74655">
        <ele>5</ele>
        <time>2013-12-07T09:14:20.1Z</time>
      </trkpt>
      <trkpt lat="48.48933" lon="-2.74659">
        <ele>6</ele>
        <time>2013-12-07T09:14:23.1Z</time>
      </trkpt>
      <trkpt lat="48.48931" lon="-2.74663">
        <ele>6</ele>
        <time>2013-12-07T09:14:26.1Z</time>
      </trkpt>
      <trkpt lat="48.48931" lon="-2.74667">
        <ele>7</ele>
        <time>2013-12-07T09:14:29.1Z</time>
      </trkpt>
      <trkpt lat="48.48931" lon="-2.7467">
        <ele>6</ele>
        <time>2013-12-07T09:14:31.1Z</time>
      </trkpt>
      <trkpt lat="48.48931" lon="-2.74672">
        <ele>5</ele>
        <time>2013-12-07T09:14:34.1Z</time>
      </trkpt>
      <trkpt lat="48.48932" lon="-2.74674">
        <ele>4</ele>
        <time>2013-12-07T09:14:36.1Z</time>
      </trkpt>
      <trkpt lat="48.48933" lon="-2.74676">
        <ele>4</ele>
        <time>2013-12-07T09:14:38.1Z</time>
      </trkpt>
      <trkpt lat="48.48936" lon="-2.74678">
        <ele>4</ele>
        <time>2013-12-07T09:14:41.1Z</time>
      </trkpt>
      <trkpt lat="48.48937" lon="-2.7468">
        <ele>4</ele>
        <time>2013-12-07T09:14:43.1Z</time>
      </trkpt>
      <trkpt lat="48.48938" lon="-2.74683">
        <ele>4</ele>
        <time>2013-12-07T09:14:46.1Z</time>
      </trkpt>
      <trkpt lat="48.4894" lon="-2.74685">
        <ele>4</ele>
        <time>2013-12-07T09:14:48.1Z</time>
      </trkpt>
      <trkpt lat="48.48942" lon="-2.74688">
        <ele>4</ele>
        <time>2013-12-07T09:14:51.1Z</time>
      </trkpt>
      <trkpt lat="48.48944" lon="-2.74692">
        <ele>4</ele>
        <time>2013-12-07T09:14:54.1Z</time>
      </trkpt>
      <trkpt lat="48.48944" lon="-2.74695">
        <ele>4</ele>
        <time>2013-12-07T09:14:56.1Z</time>
      </trkpt>
      <trkpt lat="48.48944" lon="-2.74699">
        <ele>4</ele>
        <time>2013-12-07T09:14:59.1Z</time>
      </trkpt>
      <trkpt lat="48.48944" lon="-2.74702">
        <ele>4</ele>
        <time>2013-12-07T09:15:01.1Z</time>
      </trkpt>
      <trkpt lat="48.48944" lon="-2.74706">
        <ele>4</ele>
        <time>2013-12-07T09:15:03.1Z</time>
      </trkpt>
      <trkpt lat="48.48943" lon="-2.74709">
        <ele>4</ele>
        <time>2013-12-07T09:15:05.1Z</time>
      </trkpt>
      <trkpt lat="48.48942" lon="-2.74713">
        <ele>4</ele>
        <time>2013-12-07T09:15:08.1Z</time>
      </trkpt>
      <trkpt lat="48.48941" lon="-2.74718">
        <ele>4</ele>
        <time>2013-12-07T09:15:11.1Z</time>
      </trkpt>
      <trkpt lat="48.48939" lon="-2.74723">
        <ele>4</ele>
        <time>2013-12-07T09:15:14.1Z</time>
      </trkpt>
      <trkpt lat="48.48938" lon="-2.74726">
        <ele>4</ele>
        <time>2013-12-07T09:15:16.1Z</time>
      </trkpt>
      <trkpt lat="48.48937" lon="-2.74728">
        <ele>4</ele>
        <time>2013-12-07T09:15:18.1Z</time>
      </trkpt>
      <trkpt lat="48.48936" lon="-2.74733">
        <ele>4</ele>
        <time>2013-12-07T09:15:21.1Z</time>
      </trkpt>
      <trkpt lat="48.48935" lon="-2.74736">
        <ele>4</ele>
        <time>2013-12-07T09:15:23.1Z</time>
      </trkpt>
      <trkpt lat="48.48933" lon="-2.74741">
        <ele>4</ele>
        <time>2013-12-07T09:15:26.1Z</time>
      </trkpt>
      <trkpt lat="48.48932" lon="-2.74744">
        <ele>4</ele>
        <time>2013-12-07T09:15:28.1Z</time>
      </trkpt>
      <trkpt lat="48.4893" lon="-2.74748">
        <ele>5</ele>
        <time>2013-12-07T09:15:31.1Z</time>
      </trkpt>
      <trkpt lat="48.48929" lon="-2.74752">
        <ele>5</ele>
        <time>2013-12-07T09:15:34.1Z</time>
      </trkpt>
      <trkpt lat="48.48927" lon="-2.74758">
        <ele>5</ele>
        <time>2013-12-07T09:15:37.1Z</time>
      </trkpt>
      <trkpt lat="48.48926" lon="-2.74762">
        <ele>5</ele>
        <time>2013-12-07T09:15:40.1Z</time>
      </trkpt>
      <trkpt lat="48.48924" lon="-2.74766">
        <ele>6</ele>
        <time>2013-12-07T09:15:43.1Z</time>
      </trkpt>
      <trkpt lat="48.48923" lon="-2.74768">
        <ele>6</ele>
        <time>2013-12-07T09:15:45.1Z</time>
      </trkpt>
      <trkpt lat="48.48921" lon="-2.74773">
        <ele>6</ele>
        <time>2013-12-07T09:15:48.1Z</time>
      </trkpt>
      <trkpt lat="48.4892" lon="-2.74775">
        <ele>6</ele>
        <time>2013-12-07T09:15:50.1Z</time>
      </trkpt>
      <trkpt lat="48.48919" lon="-2.74778">
        <ele>6</ele>
        <time>2013-12-07T09:15:52.1Z</time>
      </trkpt>
      <trkpt lat="48.48917" lon="-2.74782">
        <ele>6</ele>
        <time>2013-12-07T09:15:55.1Z</time>
      </trkpt>
      <trkpt lat="48.48916" lon="-2.74785">
        <ele>6</ele>
        <time>2013-12-07T09:15:57.1Z</time>
      </trkpt>
      <trkpt lat="48.48914" lon="-2.74788">
        <ele>6</ele>
        <time>2013-12-07T09:16:00.1Z</time>
      </trkpt>
      <trkpt lat="48.48911" lon="-2.74792">
        <ele>6</ele>
        <time>2013-12-07T09:16:03.1Z</time>
      </trkpt>
      <trkpt lat="48.48909" lon="-2.74795">
        <ele>6</ele>
        <time>2013-12-07T09:16:06.1Z</time>
      </trkpt>
      <trkpt lat="48.48907" lon="-2.74798">
        <ele>6</ele>
        <time>2013-12-07T09:16:08.1Z</time>
      </trkpt>
      <trkpt lat="48.48905" lon="-2.74801">
        <ele>6</ele>
        <time>2013-12-07T09:16:11.1Z</time>
      </trkpt>
      <trkpt lat="48.48903" lon="-2.74803">
        <ele>6</ele>
        <time>2013-12-07T09:16:14.1Z</time>
      </trkpt>
      <trkpt lat="48.48901" lon="-2.74805">
        <ele>7</ele>
        <time>2013-12-07T09:16:16.1Z</time>
      </trkpt>
      <trkpt lat="48.489" lon="-2.74806">
        <ele>7</ele>
        <time>2013-12-07T09:16:18.1Z</time>
      </trkpt>
      <trkpt lat="48.48898" lon="-2.74808">
        <ele>7</ele>
        <time>2013-12-07T09:16:21.1Z</time>
      </trkpt>
      <trkpt lat="48.48897" lon="-2.7481">
        <ele>6</ele>
        <time>2013-12-07T09:16:23.1Z</time>
      </trkpt>
      <trkpt lat="48.48895" lon="-2.74812">
        <ele>6</ele>
        <time>2013-12-07T09:16:26.1Z</time>
      </trkpt>
      <trkpt lat="48.48894" lon="-2.74814">
        <ele>6</ele>
        <time>2013-12-07T09:16:29.1Z</time>
      </trkpt>
      <trkpt lat="48.48892" lon="-2.74815">
        <ele>6</ele>
        <time>2013-12-07T09:16:32.1Z</time>
      </trkpt>
      <trkpt lat="48.48891" lon="-2.74816">
        <ele>6</ele>
        <time>2013-12-07T09:16:34.1Z</time>
      </trkpt>
      <trkpt lat="48.48889" lon="-2.74817">
        <ele>6</ele>
        <time>2013-12-07T09:16:37.1Z</time>
      </trkpt>
      <trkpt lat="48.48887" lon="-2.74818">
        <ele>6</ele>
        <time>2013-12-07T09:16:40.1Z</time>
      </trkpt>
      <trkpt lat="48.48885" lon="-2.74819">
        <ele>7</ele>
        <time>2013-12-07T09:16:42.1Z</time>
      </trkpt>
      <trkpt lat="48.48883" lon="-2.7482">
        <ele>7</ele>
        <time>2013-12-07T09:16:44.1Z</time>
      </trkpt>
      <trkpt lat="48.48879" lon="-2.74822">
        <ele>7</ele>
        <time>2013-12-07T09:16:47.1Z</time>
      </trkpt>
      <trkpt lat="48.48876" lon="-2.74823">
        <ele>7</ele>
        <time>2013-12-07T09:16:49.1Z</time>
      </trkpt>
      <trkpt lat="48.48872" lon="-2.74826">
        <ele>6</ele>
        <time>2013-12-07T09:16:52.1Z</time>
      </trkpt>
      <trkpt lat="48.48869" lon="-2.74827">
        <ele>6</ele>
        <time>2013-12-07T09:16:54.1Z</time>
      </trkpt>
      <trkpt lat="48.48866" lon="-2.74831">
        <ele>6</ele>
        <time>2013-12-07T09:16:57.1Z</time>
      </trkpt>
      <trkpt lat="48.48862" lon="-2.74834">
        <ele>7</ele>
        <time>2013-12-07T09:17:00.1Z</time>
      </trkpt>
      <trkpt lat="48.48859" lon="-2.74837">
        <ele>7</ele>
        <time>2013-12-07T09:17:03.1Z</time>
      </trkpt>
      <trkpt lat="48.48856" lon="-2.74841">
        <ele>6</ele>
        <time>2013-12-07T09:17:06.1Z</time>
      </trkpt>
      <trkpt lat="48.48854" lon="-2.74843">
        <ele>6</ele>
        <time>2013-12-07T09:17:08.1Z</time>
      </trkpt>
      <trkpt lat="48.48852" lon="-2.74847">
        <ele>6</ele>
        <time>2013-12-07T09:17:11.1Z</time>
      </trkpt>
      <trkpt lat="48.4885" lon="-2.7485">
        <ele>6</ele>
        <time>2013-12-07T09:17:13.1Z</time>
      </trkpt>
      <trkpt lat="48.48848" lon="-2.74854">
        <ele>6</ele>
        <time>2013-12-07T09:17:16.1Z</time>
      </trkpt>
      <trkpt lat="48.48848" lon="-2.74858">
        <ele>6</ele>
        <time>2013-12-07T09:17:18.1Z</time>
      </trkpt>
      <trkpt lat="48.48846" lon="-2.74864">
        <ele>6</ele>
        <time>2013-12-07T09:17:21.1Z</time>
      </trkpt>
      <trkpt lat="48.48846" lon="-2.74868">
        <ele>6</ele>
        <time>2013-12-07T09:17:24.1Z</time>
      </trkpt>
      <trkpt lat="48.48845" lon="-2.74872">
        <ele>6</ele>
        <time>2013-12-07T09:17:26.1Z</time>
      </trkpt>
      <trkpt lat="48.48844" lon="-2.74877">
        <ele>6</ele>
        <time>2013-12-07T09:17:29.1Z</time>
      </trkpt>
      <trkpt lat="48.48844" lon="-2.74883">
        <ele>6</ele>
        <time>2013-12-07T09:17:32.1Z</time>
      </trkpt>
      <trkpt lat="48.48844" lon="-2.74887">
        <ele>6</ele>
        <time>2013-12-07T09:17:35.1Z</time>
      </trkpt>
      <trkpt lat="48.48844" lon="-2.74891">
        <ele>6</ele>
        <time>2013-12-07T09:17:37.1Z</time>
      </trkpt>
      <trkpt lat="48.48844" lon="-2.74894">
        <ele>6</ele>
        <time>2013-12-07T09:17:39.1Z</time>
      </trkpt>
      <trkpt lat="48.48845" lon="-2.749">
        <ele>7</ele>
        <time>2013-12-07T09:17:42.1Z</time>
      </trkpt>
      <trkpt lat="48.48846" lon="-2.74904">
        <ele>7</ele>
        <time>2013-12-07T09:17:45.1Z</time>
      </trkpt>
      <trkpt lat="48.48846" lon="-2.74909">
        <ele>7</ele>
        <time>2013-12-07T09:17:48.1Z</time>
      </trkpt>
      <trkpt lat="48.48847" lon="-2.74912">
        <ele>7</ele>
        <time>2013-12-07T09:17:50.1Z</time>
      </trkpt>
      <trkpt lat="48.48848" lon="-2.74916">
        <ele>6</ele>
        <time>2013-12-07T09:17:53.1Z</time>
      </trkpt>
      <trkpt lat="48.4885" lon="-2.7492">
        <ele>6</ele>
        <time>2013-12-07T09:17:56.1Z</time>
      </trkpt>
      <trkpt lat="48.48851" lon="-2.74924">
        <ele>6</ele>
        <time>2013-12-07T09:17:59.1Z</time>
      </trkpt>
      <trkpt lat="48.48853" lon="-2.74928">
        <ele>6</ele>
        <time>2013-12-07T09:18:02.1Z</time>
      </trkpt>
      <trkpt lat="48.48854" lon="-2.74932">
        <ele>6</ele>
        <time>2013-12-07T09:18:05.1Z</time>
      </trkpt>
      <trkpt lat="48.48856" lon="-2.74937">
        <ele>5</ele>
        <time>2013-12-07T09:18:08.1Z</time>
      </trkpt>
      <trkpt lat="48.48857" lon="-2.74942">
        <ele>5</ele>
        <time>2013-12-07T09:18:11.1Z</time>
      </trkpt>
      <trkpt lat="48.48858" lon="-2.74948">
        <ele>5</ele>
        <time>2013-12-07T09:18:14.1Z</time>
      </trkpt>
      <trkpt lat="48.48859" lon="-2.74952">
        <ele>5</ele>
        <time>2013-12-07T09:18:16.1Z</time>
      </trkpt>
      <trkpt lat="48.4886" lon="-2.74956">
        <ele>5</ele>
        <time>2013-12-07T09:18:19.1Z</time>
      </trkpt>
      <trkpt lat="48.48861" lon="-2.74961">
        <ele>5</ele>
        <time>2013-12-07T09:18:22.1Z</time>
      </trkpt>
      <trkpt lat="48.48863" lon="-2.74966">
        <ele>5</ele>
        <time>2013-12-07T09:18:25.1Z</time>
      </trkpt>
      <trkpt lat="48.48864" lon="-2.74968">
        <ele>5</ele>
        <time>2013-12-07T09:18:27.1Z</time>
      </trkpt>
      <trkpt lat="48.48866" lon="-2.74973">
        <ele>5</ele>
        <time>2013-12-07T09:18:30.1Z</time>
      </trkpt>
      <trkpt lat="48.48866" lon="-2.74977">
        <ele>5</ele>
        <time>2013-12-07T09:18:33.1Z</time>
      </trkpt>
      <trkpt lat="48.48867" lon="-2.74981">
        <ele>5</ele>
        <time>2013-12-07T09:18:35.1Z</time>
      </trkpt>
      <trkpt lat="48.48867" lon="-2.74986">
        <ele>5</ele>
        <time>2013-12-07T09:18:38.1Z</time>
      </trkpt>
      <trkpt lat="48.48866" lon="-2.7499">
        <ele>5</ele>
        <time>2013-12-07T09:18:40.1Z</time>
      </trkpt>
      <trkpt lat="48.48866" lon="-2.74993">
        <ele>5</ele>
        <time>2013-12-07T09:18:42.1Z</time>
      </trkpt>
      <trkpt lat="48.48865" lon="-2.74999">
        <ele>5</ele>
        <time>2013-12-07T09:18:45.1Z</time>
      </trkpt>
      <trkpt lat="48.48864" lon="-2.75004">
        <ele>6</ele>
        <time>2013-12-07T09:18:48.1Z</time>
      </trkpt>
      <trkpt lat="48.48863" lon="-2.75007">
        <ele>6</ele>
        <time>2013-12-07T09:18:50.1Z</time>
      </trkpt>
      <trkpt lat="48.48862" lon="-2.75012">
        <ele>6</ele>
        <time>2013-12-07T09:18:53.1Z</time>
      </trkpt>
      <trkpt lat="48.48861" lon="-2.75015">
        <ele>5</ele>
        <time>2013-12-07T09:18:55.1Z</time>
      </trkpt>
      <trkpt lat="48.48859" lon="-2.75021">
        <ele>5</ele>
        <time>2013-12-07T09:18:58.1Z</time>
      </trkpt>
      <trkpt lat="48.48859" lon="-2.75024">
        <ele>5</ele>
        <time>2013-12-07T09:19:00.1Z</time>
      </trkpt>
      <trkpt lat="48.48857" lon="-2.75028">
        <ele>5</ele>
        <time>2013-12-07T09:19:03.1Z</time>
      </trkpt>
      <trkpt lat="48.48856" lon="-2.75033">
        <ele>4</ele>
        <time>2013-12-07T09:19:06.1Z</time>
      </trkpt>
      <trkpt lat="48.48855" lon="-2.75036">
        <ele>4</ele>
        <time>2013-12-07T09:19:08.1Z</time>
      </trkpt>
      <trkpt lat="48.48854" lon="-2.7504">
        <ele>5</ele>
        <time>2013-12-07T09:19:11.1Z</time>
      </trkpt>
      <trkpt lat="48.48853" lon="-2.75043">
        <ele>5</ele>
        <time>2013-12-07T09:19:13.1Z</time>
      </trkpt>
      <trkpt lat="48.48851" lon="-2.75047">
        <ele>5</ele>
        <time>2013-12-07T09:19:16.1Z</time>
      </trkpt>
      <trkpt lat="48.4885" lon="-2.7505">
        <ele>4</ele>
        <time>2013-12-07T09:19:18.1Z</time>
      </trkpt>
      <trkpt lat="48.48849" lon="-2.75055">
        <ele>4</ele>
        <time>2013-12-07T09:19:21.1Z</time>
      </trkpt>
      <trkpt lat="48.48848" lon="-2.7506">
        <ele>4</ele>
        <time>2013-12-07T09:19:24.1Z</time>
      </trkpt>
      <trkpt lat="48.48846" lon="-2.75065">
        <ele>4</ele>
        <time>2013-12-07T09:19:27.1Z</time>
      </trkpt>
      <trkpt lat="48.48846" lon="-2.75068">
        <ele>4</ele>
        <time>2013-12-07T09:19:29.1Z</time>
      </trkpt>
      <trkpt lat="48.48845" lon="-2.75073">
        <ele>3</ele>
        <time>2013-12-07T09:19:32.1Z</time>
      </trkpt>
      <trkpt lat="48.48843" lon="-2.75078">
        <ele>3</ele>
        <time>2013-12-07T09:19:35.1Z</time>
      </trkpt>
      <trkpt lat="48.48843" lon="-2.75082">
        <ele>3</ele>
        <time>2013-12-07T09:19:37.1Z</time>
      </trkpt>
      <trkpt lat="48.48842" lon="-2.75086">
        <ele>3</ele>
        <time>2013-12-07T09:19:40.1Z</time>
      </trkpt>
      <trkpt lat="48.48841" lon="-2.7509">
        <ele>3</ele>
        <time>2013-12-07T09:19:42.1Z</time>
      </trkpt>
      <trkpt lat="48.48839" lon="-2.75094">
        <ele>3</ele>
        <time>2013-12-07T09:19:45.1Z</time>
      </trkpt>
      <trkpt lat="48.48838" lon="-2.75098">
        <ele>4</ele>
        <time>2013-12-07T09:19:47.1Z</time>
      </trkpt>
      <trkpt lat="48.48837" lon="-2.75103">
        <ele>3</ele>
        <time>2013-12-07T09:19:50.1Z</time>
      </trkpt>
      <trkpt lat="48.48837" lon="-2.75106">
        <ele>3</ele>
        <time>2013-12-07T09:19:52.1Z</time>
      </trkpt>
      <trkpt lat="48.48835" lon="-2.75111">
        <ele>3</ele>
        <time>2013-12-07T09:19:55.1Z</time>
      </trkpt>
      <trkpt lat="48.48834" lon="-2.75116">
        <ele>3</ele>
        <time>2013-12-07T09:19:58.1Z</time>
      </trkpt>
      <trkpt lat="48.48833" lon="-2.75119">
        <ele>3</ele>
        <time>2013-12-07T09:20:00.1Z</time>
      </trkpt>
      <trkpt lat="48.48832" lon="-2.75123">
        <ele>3</ele>
        <time>2013-12-07T09:20:02.1Z</time>
      </trkpt>
      <trkpt lat="48.48832" lon="-2.75129">
        <ele>3</ele>
        <time>2013-12-07T09:20:04.1Z</time>
      </trkpt>
      <trkpt lat="48.48832" lon="-2.75132">
        <ele>4</ele>
        <time>2013-12-07T09:20:07.1Z</time>
      </trkpt>
      <trkpt lat="48.48833" lon="-2.75138">
        <ele>3</ele>
        <time>2013-12-07T09:20:10.1Z</time>
      </trkpt>
      <trkpt lat="48.48833" lon="-2.75141">
        <ele>3</ele>
        <time>2013-12-07T09:20:12.1Z</time>
      </trkpt>
      <trkpt lat="48.48833" lon="-2.75145">
        <ele>3</ele>
        <time>2013-12-07T09:20:14.1Z</time>
      </trkpt>
      <trkpt lat="48.48833" lon="-2.75149">
        <ele>2</ele>
        <time>2013-12-07T09:20:16.1Z</time>
      </trkpt>
      <trkpt lat="48.48831" lon="-2.75154">
        <ele>3</ele>
        <time>2013-12-07T09:20:19.1Z</time>
      </trkpt>
      <trkpt lat="48.4883" lon="-2.75157">
        <ele>3</ele>
        <time>2013-12-07T09:20:22.1Z</time>
      </trkpt>
      <trkpt lat="48.48828" lon="-2.75161">
        <ele>3</ele>
        <time>2013-12-07T09:20:25.1Z</time>
      </trkpt>
      <trkpt lat="48.48827" lon="-2.75166">
        <ele>2</ele>
        <time>2013-12-07T09:20:28.1Z</time>
      </trkpt>
      <trkpt lat="48.48826" lon="-2.7517">
        <ele>2</ele>
        <time>2013-12-07T09:20:31.1Z</time>
      </trkpt>
      <trkpt lat="48.48824" lon="-2.75174">
        <ele>2</ele>
        <time>2013-12-07T09:20:34.1Z</time>
      </trkpt>
      <trkpt lat="48.48823" lon="-2.75179">
        <ele>2</ele>
        <time>2013-12-07T09:20:37.1Z</time>
      </trkpt>
      <trkpt lat="48.48822" lon="-2.75182">
        <ele>2</ele>
        <time>2013-12-07T09:20:39.1Z</time>
      </trkpt>
      <trkpt lat="48.48822" lon="-2.75187">
        <ele>2</ele>
        <time>2013-12-07T09:20:42.1Z</time>
      </trkpt>
      <trkpt lat="48.48821" lon="-2.75192">
        <ele>2</ele>
        <time>2013-12-07T09:20:45.1Z</time>
      </trkpt>
      <trkpt lat="48.48821" lon="-2.75198">
        <ele>2</ele>
        <time>2013-12-07T09:20:48.1Z</time>
      </trkpt>
      <trkpt lat="48.48821" lon="-2.75203">
        <ele>2</ele>
        <time>2013-12-07T09:20:50.1Z</time>
      </trkpt>
      <trkpt lat="48.48821" lon="-2.75206">
        <ele>1</ele>
        <time>2013-12-07T09:20:53.1Z</time>
      </trkpt>
      <trkpt lat="48.48823" lon="-2.75215">
        <ele>1</ele>
        <time>2013-12-07T09:20:56.1Z</time>
      </trkpt>
      <trkpt lat="48.48824" lon="-2.75216">
        <ele>1</ele>
        <time>2013-12-07T09:20:59.1Z</time>
      </trkpt>
      <trkpt lat="48.48826" lon="-2.75219">
        <ele>1</ele>
        <time>2013-12-07T09:21:02.1Z</time>
      </trkpt>
      <trkpt lat="48.48827" lon="-2.75224">
        <ele>1</ele>
        <time>2013-12-07T09:21:05.1Z</time>
      </trkpt>
      <trkpt lat="48.48828" lon="-2.75227">
        <ele>1</ele>
        <time>2013-12-07T09:21:07.1Z</time>
      </trkpt>
      <trkpt lat="48.4883" lon="-2.75233">
        <ele>1</ele>
        <time>2013-12-07T09:21:10.1Z</time>
      </trkpt>
      <trkpt lat="48.4883" lon="-2.75236">
        <ele>1</ele>
        <time>2013-12-07T09:21:12.1Z</time>
      </trkpt>
      <trkpt lat="48.48831" lon="-2.75241">
        <ele>106</ele>
        <time>2013-12-07T09:21:15.1Z</time>
      </trkpt>
      <trkpt lat="48.48832" lon="-2.75245">
        <ele>106</ele>
        <time>2013-12-07T09:21:18.1Z</time>
      </trkpt>
      <trkpt lat="48.48834" lon="-2.7525">
        <ele>1</ele>
        <time>2013-12-07T09:21:20.1Z</time>
      </trkpt>
      <trkpt lat="48.48836" lon="-2.75253">
        <ele>1</ele>
        <time>2013-12-07T09:21:23.1Z</time>
      </trkpt>
      <trkpt lat="48.48838" lon="-2.75256">
        <ele>105.8</ele>
        <time>2013-12-07T09:21:25.1Z</time>
      </trkpt>
      <trkpt lat="48.48841" lon="-2.75258">
        <ele>105.7</ele>
        <time>2013-12-07T09:21:29.1Z</time>
      </trkpt>
      <trkpt lat="48.48845" lon="-2.7526">
        <ele>105.6</ele>
        <time>2013-12-07T09:21:31.1Z</time>
      </trkpt>
      <trkpt lat="48.48847" lon="-2.75261">
        <ele>105.5</ele>
        <time>2013-12-07T09:21:34.1Z</time>
      </trkpt>
      <trkpt lat="48.48849" lon="-2.75261">
        <ele>105.4</ele>
        <time>2013-12-07T09:21:36.1Z</time>
      </trkpt>
      <trkpt lat="48.48854" lon="-2.75262">
        <ele>105.3</ele>
        <time>2013-12-07T09:21:38.1Z</time>
      </trkpt>
      <trkpt lat="48.48856" lon="-2.75263">
        <ele>105.2</ele>
        <time>2013-12-07T09:21:40.1Z</time>
      </trkpt>
      <trkpt lat="48.48859" lon="-2.75264">
        <ele>105.1</ele>
        <time>2013-12-07T09:21:44.1Z</time>
      </trkpt>
      <trkpt lat="48.48863" lon="-2.75266">
        <ele>105</ele>
        <time>2013-12-07T09:21:47.1Z</time>
      </trkpt>
      <trkpt lat="48.48866" lon="-2.75267">
        <ele>105.1</ele>
        <time>2013-12-07T09:21:49.1Z</time>
      </trkpt>
      <trkpt lat="48.48869" lon="-2.75268">
        <ele>105.1</ele>
        <time>2013-12-07T09:21:53.1Z</time>
      </trkpt>
      <trkpt lat="48.48873" lon="-2.75268">
        <ele>105.1</ele>
        <time>2013-12-07T09:21:55.1Z</time>
      </trkpt>
      <trkpt lat="48.48874" lon="-2.75269">
        <ele>105.2</ele>
        <time>2013-12-07T09:21:58.1Z</time>
      </trkpt>
      <trkpt lat="48.48875" lon="-2.7527">
        <ele>105.1</ele>
        <time>2013-12-07T09:22:00.1Z</time>
      </trkpt>
      <trkpt lat="48.48874" lon="-2.7527">
        <ele>105.1</ele>
        <time>2013-12-07T09:22:04.1Z</time>
      </trkpt>
      <trkpt lat="48.48874" lon="-2.75271">
        <ele>105.1</ele>
        <time>2013-12-07T09:22:06.1Z</time>
      </trkpt>
      <trkpt lat="48.48873" lon="-2.75275">
        <ele>105</ele>
        <time>2013-12-07T09:22:10.1Z</time>
      </trkpt>
      <trkpt lat="48.48872" lon="-2.75279">
        <ele>105.1</ele>
        <time>2013-12-07T09:22:12.1Z</time>
      </trkpt>
      <trkpt lat="48.4887" lon="-2.7528">
        <ele>1</ele>
        <time>2013-12-07T09:22:14.1Z</time>
      </trkpt>
      <trkpt lat="48.48868" lon="-2.75281">
        <ele>1</ele>
        <time>2013-12-07T09:22:16.1Z</time>
      </trkpt>
      <trkpt lat="48.48866" lon="-2.7528">
        <ele>1</ele>
        <time>2013-12-07T09:22:18.1Z</time>
      </trkpt>
      <trkpt lat="48.48864" lon="-2.7528">
        <ele>1</ele>
        <time>2013-12-07T09:22:21.1Z</time>
      </trkpt>
      <trkpt lat="48.48861" lon="-2.75279">
        <ele>1</ele>
        <time>2013-12-07T09:22:23.1Z</time>
      </trkpt>
      <trkpt lat="48.48859" lon="-2.75278">
        <ele>1</ele>
        <time>2013-12-07T09:22:25.1Z</time>
      </trkpt>
      <trkpt lat="48.48855" lon="-2.75279">
        <ele>2</ele>
        <time>2013-12-07T09:22:29.1Z</time>
      </trkpt>
      <trkpt lat="48.48853" lon="-2.75283">
        <ele>2</ele>
        <time>2013-12-07T09:22:32.1Z</time>
      </trkpt>
      <trkpt lat="48.48852" lon="-2.75287">
        <ele>2</ele>
        <time>2013-12-07T09:22:34.1Z</time>
      </trkpt>
      <trkpt lat="48.48852" lon="-2.7529">
        <ele>1</ele>
        <time>2013-12-07T09:22:36.1Z</time>
      </trkpt>
      <trkpt lat="48.48851" lon="-2.75294">
        <ele>1</ele>
        <time>2013-12-07T09:22:40.1Z</time>
      </trkpt>
      <trkpt lat="48.4885" lon="-2.75299">
        <ele>1</ele>
        <time>2013-12-07T09:22:43.1Z</time>
      </trkpt>
      <trkpt lat="48.48849" lon="-2.75304">
        <ele>1</ele>
        <time>2013-12-07T09:22:46.1Z</time>
      </trkpt>
      <trkpt lat="48.48848" lon="-2.75309">
        <ele>2</ele>
        <time>2013-12-07T09:22:48.1Z</time>
      </trkpt>
      <trkpt lat="48.48847" lon="-2.75312">
        <ele>2</ele>
        <time>2013-12-07T09:22:51.1Z</time>
      </trkpt>
      <trkpt lat="48.48847" lon="-2.75317">
        <ele>2</ele>
        <time>2013-12-07T09:22:53.1Z</time>
      </trkpt>
      <trkpt lat="48.48846" lon="-2.7532">
        <ele>2</ele>
        <time>2013-12-07T09:22:55.1Z</time>
      </trkpt>
      <trkpt lat="48.48845" lon="-2.75324">
        <ele>2</ele>
        <time>2013-12-07T09:22:59.1Z</time>
      </trkpt>
      <trkpt lat="48.48843" lon="-2.75329">
        <ele>2</ele>
        <time>2013-12-07T09:23:01.1Z</time>
      </trkpt>
      <trkpt lat="48.48842" lon="-2.75332">
        <ele>2</ele>
        <time>2013-12-07T09:23:04.1Z</time>
      </trkpt>
      <trkpt lat="48.48841" lon="-2.75338">
        <ele>2</ele>
        <time>2013-12-07T09:23:06.1Z</time>
      </trkpt>
      <trkpt lat="48.4884" lon="-2.75341">
        <ele>2</ele>
        <time>2013-12-07T09:23:09.1Z</time>
      </trkpt>
      <trkpt lat="48.48839" lon="-2.75346">
        <ele>1</ele>
        <time>2013-12-07T09:23:11.1Z</time>
      </trkpt>
      <trkpt lat="48.48838" lon="-2.75349">
        <ele>1</ele>
        <time>2013-12-07T09:23:14.1Z</time>
      </trkpt>
      <trkpt lat="48.48837" lon="-2.75352">
        <ele>1</ele>
        <time>2013-12-07T09:23:16.1Z</time>
      </trkpt>
      <trkpt lat="48.48835" lon="-2.75357">
        <ele>1</ele>
        <time>2013-12-07T09:23:18.1Z</time>
      </trkpt>
      <trkpt lat="48.48834" lon="-2.7536">
        <ele>1</ele>
        <time>2013-12-07T09:23:21.1Z</time>
      </trkpt>
      <trkpt lat="48.48832" lon="-2.75363">
        <ele>1</ele>
        <time>2013-12-07T09:23:23.1Z</time>
      </trkpt>
      <trkpt lat="48.48831" lon="-2.75367">
        <ele>1</ele>
        <time>2013-12-07T09:23:25.1Z</time>
      </trkpt>
      <trkpt lat="48.4883" lon="-2.7537">
        <ele>1</ele>
        <time>2013-12-07T09:23:28.1Z</time>
      </trkpt>
      <trkpt lat="48.48828" lon="-2.75374">
        <ele>1</ele>
        <time>2013-12-07T09:23:30.1Z</time>
      </trkpt>
      <trkpt lat="48.48826" lon="-2.75377">
        <ele>1</ele>
        <time>2013-12-07T09:23:33.1Z</time>
      </trkpt>
      <trkpt lat="48.48825" lon="-2.75379">
        <ele>1</ele>
        <time>2013-12-07T09:23:35.1Z</time>
      </trkpt>
      <trkpt lat="48.48823" lon="-2.75384">
        <ele>1</ele>
        <time>2013-12-07T09:23:37.1Z</time>
      </trkpt>
      <trkpt lat="48.48821" lon="-2.75388">
        <ele>1</ele>
        <time>2013-12-07T09:23:40.1Z</time>
      </trkpt>
      <trkpt lat="48.48819" lon="-2.75391">
        <ele>1</ele>
        <time>2013-12-07T09:23:42.1Z</time>
      </trkpt>
      <trkpt lat="48.48818" lon="-2.75393">
        <ele>105.9</ele>
        <time>2013-12-07T09:23:45.1Z</time>
      </trkpt>
      <trkpt lat="48.48817" lon="-2.75398">
        <ele>105.9</ele>
        <time>2013-12-07T09:23:47.1Z</time>
      </trkpt>
      <trkpt lat="48.48816" lon="-2.75402">
        <ele>105.8</ele>
        <time>2013-12-07T09:23:50.1Z</time>
      </trkpt>
      <trkpt lat="48.48817" lon="-2.75406">
        <ele>105.7</ele>
        <time>2013-12-07T09:23:52.1Z</time>
      </trkpt>
      <trkpt lat="48.48819" lon="-2.75409">
        <ele>105.7</ele>
        <time>2013-12-07T09:23:55.1Z</time>
      </trkpt>
      <trkpt lat="48.4882" lon="-2.75411">
        <ele>105.6</ele>
        <time>2013-12-07T09:23:57.1Z</time>
      </trkpt>
      <trkpt lat="48.48823" lon="-2.75413">
        <ele>105.5</ele>
        <time>2013-12-07T09:23:59.1Z</time>
      </trkpt>
      <trkpt lat="48.48825" lon="-2.75416">
        <ele>105.3</ele>
        <time>2013-12-07T09:24:02.1Z</time>
      </trkpt>
      <trkpt lat="48.48828" lon="-2.75417">
        <ele>105.2</ele>
        <time>2013-12-07T09:24:04.1Z</time>
      </trkpt>
      <trkpt lat="48.4883" lon="-2.75418">
        <ele>105.1</ele>
        <time>2013-12-07T09:24:06.1Z</time>
      </trkpt>
      <trkpt lat="48.48832" lon="-2.7542">
        <ele>105.1</ele>
        <time>2013-12-07T09:24:09.1Z</time>
      </trkpt>
      <trkpt lat="48.48836" lon="-2.75423">
        <ele>105</ele>
        <time>2013-12-07T09:24:11.1Z</time>
      </trkpt>
      <trkpt lat="48.48839" lon="-2.75423">
        <ele>105</ele>
        <time>2013-12-07T09:24:15.1Z</time>
      </trkpt>
      <trkpt lat="48.4884" lon="-2.75424">
        <ele>105</ele>
        <time>2013-12-07T09:24:17.1Z</time>
      </trkpt>
      <trkpt lat="48.48843" lon="-2.75426">
        <ele>105</ele>
        <time>2013-12-07T09:24:19.1Z</time>
      </trkpt>
      <trkpt lat="48.48845" lon="-2.75427">
        <ele>-1</ele>
        <time>2013-12-07T09:24:22.1Z</time>
      </trkpt>
      <trkpt lat="48.48848" lon="-2.75428">
        <ele>-1</ele>
        <time>2013-12-07T09:24:24.1Z</time>
      </trkpt>
      <trkpt lat="48.48849" lon="-2.7543">
        <ele>-1</ele>
        <time>2013-12-07T09:24:27.1Z</time>
      </trkpt>
      <trkpt lat="48.48851" lon="-2.75432">
        <ele>-1</ele>
        <time>2013-12-07T09:24:30.1Z</time>
      </trkpt>
      <trkpt lat="48.48852" lon="-2.75433">
        <ele>-1</ele>
        <time>2013-12-07T09:24:33.1Z</time>
      </trkpt>
      <trkpt lat="48.48852" lon="-2.75436">
        <ele>-1</ele>
        <time>2013-12-07T09:24:36.1Z</time>
      </trkpt>
      <trkpt lat="48.48853" lon="-2.75439">
        <ele>-1</ele>
        <time>2013-12-07T09:24:38.1Z</time>
      </trkpt>
      <trkpt lat="48.48851" lon="-2.75444">
        <ele>105</ele>
        <time>2013-12-07T09:24:41.1Z</time>
      </trkpt>
      <trkpt lat="48.4885" lon="-2.75447">
        <ele>105</ele>
        <time>2013-12-07T09:24:44.1Z</time>
      </trkpt>
      <trkpt lat="48.48849" lon="-2.75451">
        <ele>105</ele>
        <time>2013-12-07T09:24:46.1Z</time>
      </trkpt>
      <trkpt lat="48.48847" lon="-2.75455">
        <ele>105</ele>
        <time>2013-12-07T09:24:49.1Z</time>
      </trkpt>
      <trkpt lat="48.48846" lon="-2.75458">
        <ele>105</ele>
        <time>2013-12-07T09:24:52.1Z</time>
      </trkpt>
      <trkpt lat="48.48844" lon="-2.75462">
        <ele>105</ele>
        <time>2013-12-07T09:24:54.1Z</time>
      </trkpt>
      <trkpt lat="48.48844" lon="-2.75467">
        <ele>105</ele>
        <time>2013-12-07T09:24:57.1Z</time>
      </trkpt>
      <trkpt lat="48.48844" lon="-2.75471">
        <ele>105</ele>
        <time>2013-12-07T09:24:59.1Z</time>
      </trkpt>
      <trkpt lat="48.48845" lon="-2.75474">
        <ele>105</ele>
        <time>2013-12-07T09:25:02.1Z</time>
      </trkpt>
      <trkpt lat="48.48846" lon="-2.75479">
        <ele>105.1</ele>
        <time>2013-12-07T09:25:04.1Z</time>
      </trkpt>
      <trkpt lat="48.48847" lon="-2.75482">
        <ele>105.2</ele>
        <time>2013-12-07T09:25:07.1Z</time>
      </trkpt>
      <trkpt lat="48.48849" lon="-2.75485">
        <ele>105.2</ele>
        <time>2013-12-07T09:25:10.1Z</time>
      </trkpt>
      <trkpt lat="48.48852" lon="-2.75489">
        <ele>1</ele>
        <time>2013-12-07T09:25:12.1Z</time>
      </trkpt>
      <trkpt lat="48.48854" lon="-2.75493">
        <ele>105.2</ele>
        <time>2013-12-07T09:25:16.1Z</time>
      </trkpt>
      <trkpt lat="48.48857" lon="-2.75496">
        <ele>105.1</ele>
        <time>2013-12-07T09:25:18.1Z</time>
      </trkpt>
      <trkpt lat="48.48859" lon="-2.755">
        <ele>1</ele>
        <time>2013-12-07T09:25:21.1Z</time>
      </trkpt>
      <trkpt lat="48.48861" lon="-2.75504">
        <ele>1</ele>
        <time>2013-12-07T09:25:24.1Z</time>
      </trkpt>
      <trkpt lat="48.48861" lon="-2.75508">
        <ele>1</ele>
        <time>2013-12-07T09:25:27.1Z</time>
      </trkpt>
      <trkpt lat="48.48863" lon="-2.75513">
        <ele>1</ele>
        <time>2013-12-07T09:25:29.1Z</time>
      </trkpt>
      <trkpt lat="48.48864" lon="-2.75517">
        <ele>1</ele>
        <time>2013-12-07T09:25:33.1Z</time>
      </trkpt>
      <trkpt lat="48.48865" lon="-2.75522">
        <ele>1</ele>
        <time>2013-12-07T09:25:35.1Z</time>
      </trkpt>
      <trkpt lat="48.48867" lon="-2.75528">
        <ele>105.8</ele>
        <time>2013-12-07T09:25:38.1Z</time>
      </trkpt>
      <trkpt lat="48.48868" lon="-2.75532">
        <ele>105.8</ele>
        <time>2013-12-07T09:25:42.1Z</time>
      </trkpt>
      <trkpt lat="48.48869" lon="-2.75537">
        <ele>105.8</ele>
        <time>2013-12-07T09:25:44.1Z</time>
      </trkpt>
      <trkpt lat="48.48871" lon="-2.75539">
        <ele>105.8</ele>
        <time>2013-12-07T09:25:46.1Z</time>
      </trkpt>
      <trkpt lat="48.48871" lon="-2.7554">
        <ele>105.8</ele>
        <time>2013-12-07T09:25:49.1Z</time>
      </trkpt>
      <trkpt lat="48.48872" lon="-2.75542">
        <ele>105.8</ele>
        <time>2013-12-07T09:25:51.1Z</time>
      </trkpt>
      <trkpt lat="48.48872" lon="-2.75541">
        <ele>105.8</ele>
        <time>2013-12-07T09:25:54.1Z</time>
      </trkpt>
      <trkpt lat="48.48872" lon="-2.75541">
        <ele>105.8</ele>
        <time>2013-12-07T09:25:56.1Z</time>
      </trkpt>
      <trkpt lat="48.48869" lon="-2.75544">
        <ele>105.9</ele>
        <time>2013-12-07T09:25:59.1Z</time>
      </trkpt>
      <trkpt lat="48.48869" lon="-2.75547">
        <ele>105.9</ele>
        <time>2013-12-07T09:26:01.1Z</time>
      </trkpt>
      <trkpt lat="48.4887" lon="-2.7555">
        <ele>105.9</ele>
        <time>2013-12-07T09:26:03.1Z</time>
      </trkpt>
      <trkpt lat="48.4887" lon="-2.75555">
        <ele>1</ele>
        <time>2013-12-07T09:26:06.1Z</time>
      </trkpt>
      <trkpt lat="48.48871" lon="-2.7556">
        <ele>1</ele>
        <time>2013-12-07T09:26:09.1Z</time>
      </trkpt>
      <trkpt lat="48.48872" lon="-2.75565">
        <ele>1</ele>
        <time>2013-12-07T09:26:12.1Z</time>
      </trkpt>
      <trkpt lat="48.48872" lon="-2.75568">
        <ele>106.3</ele>
        <time>2013-12-07T09:26:14.1Z</time>
      </trkpt>
      <trkpt lat="48.48873" lon="-2.75572">
        <ele>106.3</ele>
        <time>2013-12-07T09:26:17.1Z</time>
      </trkpt>
      <trkpt lat="48.48874" lon="-2.75576">
        <ele>106.4</ele>
        <time>2013-12-07T09:26:19.1Z</time>
      </trkpt>
      <trkpt lat="48.48874" lon="-2.75579">
        <ele>106.4</ele>
        <time>2013-12-07T09:26:21.1Z</time>
      </trkpt>
      <trkpt lat="48.48875" lon="-2.75584">
        <ele>106.5</ele>
        <time>2013-12-07T09:26:24.1Z</time>
      </trkpt>
      <trkpt lat="48.48877" lon="-2.75589">
        <ele>106.4</ele>
        <time>2013-12-07T09:26:27.1Z</time>
      </trkpt>
      <trkpt lat="48.48879" lon="-2.75593">
        <ele>106.4</ele>
        <time>2013-12-07T09:26:30.1Z</time>
      </trkpt>
      <trkpt lat="48.4888" lon="-2.75597">
        <ele>106.3</ele>
        <time>2013-12-07T09:26:32.1Z</time>
      </trkpt>
      <trkpt lat="48.48881" lon="-2.75601">
        <ele>1</ele>
        <time>2013-12-07T09:26:35.1Z</time>
      </trkpt>
      <trkpt lat="48.48883" lon="-2.75606">
        <ele>1</ele>
        <time>2013-12-07T09:26:38.1Z</time>
      </trkpt>
      <trkpt lat="48.48883" lon="-2.75609">
        <ele>1</ele>
        <time>2013-12-07T09:26:41.1Z</time>
      </trkpt>
      <trkpt lat="48.48885" lon="-2.75615">
        <ele>1</ele>
        <time>2013-12-07T09:26:43.1Z</time>
      </trkpt>
      <trkpt lat="48.48885" lon="-2.7562">
        <ele>1</ele>
        <time>2013-12-07T09:26:46.1Z</time>
      </trkpt>
      <trkpt lat="48.48886" lon="-2.75623">
        <ele>1</ele>
        <time>2013-12-07T09:26:48.1Z</time>
      </trkpt>
      <trkpt lat="48.48886" lon="-2.75628">
        <ele>1</ele>
        <time>2013-12-07T09:26:51.1Z</time>
      </trkpt>
      <trkpt lat="48.48887" lon="-2.75632">
        <ele>106.1</ele>
        <time>2013-12-07T09:26:53.1Z</time>
      </trkpt>
      <trkpt lat="48.48888" lon="-2.75637">
        <ele>106.1</ele>
        <time>2013-12-07T09:26:56.1Z</time>
      </trkpt>
      <trkpt lat="48.48888" lon="-2.75642">
        <ele>106</ele>
        <time>2013-12-07T09:26:59.1Z</time>
      </trkpt>
      <trkpt lat="48.48889" lon="-2.75647">
        <ele>106</ele>
        <time>2013-12-07T09:27:02.1Z</time>
      </trkpt>
      <trkpt lat="48.48891" lon="-2.7565">
        <ele>105.9</ele>
        <time>2013-12-07T09:27:04.1Z</time>
      </trkpt>
      <trkpt lat="48.48893" lon="-2.75654">
        <ele>105.9</ele>
        <time>2013-12-07T09:27:07.1Z</time>
      </trkpt>
      <trkpt lat="48.48895" lon="-2.75658">
        <ele>105.8</ele>
        <time>2013-12-07T09:27:09.1Z</time>
      </trkpt>
      <trkpt lat="48.48898" lon="-2.75661">
        <ele>105.7</ele>
        <time>2013-12-07T09:27:12.1Z</time>
      </trkpt>
      <trkpt lat="48.48902" lon="-2.75663">
        <ele>105.5</ele>
        <time>2013-12-07T09:27:15.1Z</time>
      </trkpt>
      <trkpt lat="48.48904" lon="-2.75664">
        <ele>105.5</ele>
        <time>2013-12-07T09:27:17.1Z</time>
      </trkpt>
      <trkpt lat="48.48906" lon="-2.75665">
        <ele>105.4</ele>
        <time>2013-12-07T09:27:19.1Z</time>
      </trkpt>
      <trkpt lat="48.48908" lon="-2.75669">
        <ele>105.3</ele>
        <time>2013-12-07T09:27:22.1Z</time>
      </trkpt>
      <trkpt lat="48.4891" lon="-2.75672">
        <ele>105.3</ele>
        <time>2013-12-07T09:27:25.1Z</time>
      </trkpt>
      <trkpt lat="48.48911" lon="-2.75674">
        <ele>105.3</ele>
        <time>2013-12-07T09:27:27.1Z</time>
      </trkpt>
      <trkpt lat="48.48911" lon="-2.75679">
        <ele>105.4</ele>
        <time>2013-12-07T09:27:30.1Z</time>
      </trkpt>
      <trkpt lat="48.48911" lon="-2.75682">
        <ele>105.4</ele>
        <time>2013-12-07T09:27:32.1Z</time>
      </trkpt>
      <trkpt lat="48.4891" lon="-2.75686">
        <ele>105.6</ele>
        <time>2013-12-07T09:27:35.1Z</time>
      </trkpt>
      <trkpt lat="48.4891" lon="-2.7569">
        <ele>105.6</ele>
        <time>2013-12-07T09:27:37.1Z</time>
      </trkpt>
      <trkpt lat="48.48909" lon="-2.75694">
        <ele>105.9</ele>
        <time>2013-12-07T09:27:40.1Z</time>
      </trkpt>
      <trkpt lat="48.48908" lon="-2.75697">
        <ele>106</ele>
        <time>2013-12-07T09:27:42.1Z</time>
      </trkpt>
      <trkpt lat="48.48907" lon="-2.75701">
        <ele>106.3</ele>
        <time>2013-12-07T09:27:45.1Z</time>
      </trkpt>
      <trkpt lat="48.48906" lon="-2.75704">
        <ele>106.5</ele>
        <time>2013-12-07T09:27:47.1Z</time>
      </trkpt>
      <trkpt lat="48.48906" lon="-2.7571">
        <ele>106.7</ele>
        <time>2013-12-07T09:27:50.1Z</time>
      </trkpt>
      <trkpt lat="48.48905" lon="-2.75712">
        <ele>106.9</ele>
        <time>2013-12-07T09:27:52.1Z</time>
      </trkpt>
      <trkpt lat="48.48904" lon="-2.75717">
        <ele>1</ele>
        <time>2013-12-07T09:27:55.1Z</time>
      </trkpt>
      <trkpt lat="48.48903" lon="-2.7572">
        <ele>1</ele>
        <time>2013-12-07T09:27:58.1Z</time>
      </trkpt>
      <trkpt lat="48.48902" lon="-2.75726">
        <ele>1</ele>
        <time>2013-12-07T09:28:00.1Z</time>
      </trkpt>
      <trkpt lat="48.48902" lon="-2.75729">
        <ele>1</ele>
        <time>2013-12-07T09:28:02.1Z</time>
      </trkpt>
      <trkpt lat="48.48901" lon="-2.75733">
        <ele>1</ele>
        <time>2013-12-07T09:28:05.1Z</time>
      </trkpt>
      <trkpt lat="48.489" lon="-2.75738">
        <ele>1</ele>
        <time>2013-12-07T09:28:08.1Z</time>
      </trkpt>
      <trkpt lat="48.48899" lon="-2.75742">
        <ele>1</ele>
        <time>2013-12-07T09:28:11.1Z</time>
      </trkpt>
      <trkpt lat="48.48898" lon="-2.75746">
        <ele>1</ele>
        <time>2013-12-07T09:28:13.1Z</time>
      </trkpt>
      <trkpt lat="48.48897" lon="-2.7575">
        <ele>2</ele>
        <time>2013-12-07T09:28:15.1Z</time>
      </trkpt>
      <trkpt lat="48.48896" lon="-2.75755">
        <ele>2</ele>
        <time>2013-12-07T09:28:18.1Z</time>
      </trkpt>
      <trkpt lat="48.48895" lon="-2.75759">
        <ele>2</ele>
        <time>2013-12-07T09:28:21.1Z</time>
      </trkpt>
      <trkpt lat="48.48895" lon="-2.75763">
        <ele>1</ele>
        <time>2013-12-07T09:28:24.1Z</time>
      </trkpt>
      <trkpt lat="48.48894" lon="-2.75768">
        <ele>1</ele>
        <time>2013-12-07T09:28:26.1Z</time>
      </trkpt>
      <trkpt lat="48.48893" lon="-2.75773">
        <ele>2</ele>
        <time>2013-12-07T09:28:29.1Z</time>
      </trkpt>
      <trkpt lat="48.48892" lon="-2.75776">
        <ele>2</ele>
        <time>2013-12-07T09:28:31.1Z</time>
      </trkpt>
      <trkpt lat="48.48891" lon="-2.75781">
        <ele>2</ele>
        <time>2013-12-07T09:28:34.1Z</time>
      </trkpt>
      <trkpt lat="48.4889" lon="-2.75785">
        <ele>2</ele>
        <time>2013-12-07T09:28:36.1Z</time>
      </trkpt>
      <trkpt lat="48.48889" lon="-2.7579">
        <ele>2</ele>
        <time>2013-12-07T09:28:39.1Z</time>
      </trkpt>
      <trkpt lat="48.48888" lon="-2.75793">
        <ele>2</ele>
        <time>2013-12-07T09:28:41.1Z</time>
      </trkpt>
      <trkpt lat="48.48887" lon="-2.75798">
        <ele>1</ele>
        <time>2013-12-07T09:28:44.1Z</time>
      </trkpt>
      <trkpt lat="48.48886" lon="-2.75801">
        <ele>2</ele>
        <time>2013-12-07T09:28:46.1Z</time>
      </trkpt>
      <trkpt lat="48.48885" lon="-2.75805">
        <ele>2</ele>
        <time>2013-12-07T09:28:49.1Z</time>
      </trkpt>
      <trkpt lat="48.48884" lon="-2.75809">
        <ele>1</ele>
        <time>2013-12-07T09:28:52.1Z</time>
      </trkpt>
      <trkpt lat="48.48883" lon="-2.75812">
        <ele>1</ele>
        <time>2013-12-07T09:28:54.1Z</time>
      </trkpt>
      <trkpt lat="48.48883" lon="-2.75817">
        <ele>1</ele>
        <time>2013-12-07T09:28:57.1Z</time>
      </trkpt>
      <trkpt lat="48.48882" lon="-2.7582">
        <ele>1</ele>
        <time>2013-12-07T09:28:59.1Z</time>
      </trkpt>
      <trkpt lat="48.4888" lon="-2.75825">
        <ele>2</ele>
        <time>2013-12-07T09:29:02.1Z</time>
      </trkpt>
      <trkpt lat="48.4888" lon="-2.75828">
        <ele>2</ele>
        <time>2013-12-07T09:29:05.1Z</time>
      </trkpt>
      <trkpt lat="48.48878" lon="-2.75833">
        <ele>2</ele>
        <time>2013-12-07T09:29:07.1Z</time>
      </trkpt>
      <trkpt lat="48.48877" lon="-2.75837">
        <ele>2</ele>
        <time>2013-12-07T09:29:10.1Z</time>
      </trkpt>
      <trkpt lat="48.48877" lon="-2.7584">
        <ele>2</ele>
        <time>2013-12-07T09:29:12.1Z</time>
      </trkpt>
      <trkpt lat="48.48876" lon="-2.75844">
        <ele>1</ele>
        <time>2013-12-07T09:29:15.1Z</time>
      </trkpt>
      <trkpt lat="48.48875" lon="-2.75847">
        <ele>2</ele>
        <time>2013-12-07T09:29:17.1Z</time>
      </trkpt>
      <trkpt lat="48.48875" lon="-2.75852">
        <ele>2</ele>
        <time>2013-12-07T09:29:20.1Z</time>
      </trkpt>
      <trkpt lat="48.48874" lon="-2.75856">
        <ele>2</ele>
        <time>2013-12-07T09:29:22.1Z</time>
      </trkpt>
      <trkpt lat="48.48873" lon="-2.7586">
        <ele>1</ele>
        <time>2013-12-07T09:29:25.1Z</time>
      </trkpt>
      <trkpt lat="48.48873" lon="-2.75864">
        <ele>1</ele>
        <time>2013-12-07T09:29:27.1Z</time>
      </trkpt>
      <trkpt lat="48.48872" lon="-2.75869">
        <ele>1</ele>
        <time>2013-12-07T09:29:30.1Z</time>
      </trkpt>
      <trkpt lat="48.48872" lon="-2.75872">
        <ele>1</ele>
        <time>2013-12-07T09:29:33.1Z</time>
      </trkpt>
      <trkpt lat="48.4887" lon="-2.75876">
        <ele>1</ele>
        <time>2013-12-07T09:29:35.1Z</time>
      </trkpt>
      <trkpt lat="48.4887" lon="-2.7588">
        <ele>1</ele>
        <time>2013-12-07T09:29:37.1Z</time>
      </trkpt>
      <trkpt lat="48.48869" lon="-2.75885">
        <ele>1</ele>
        <time>2013-12-07T09:29:40.1Z</time>
      </trkpt>
      <trkpt lat="48.48867" lon="-2.75889">
        <ele>2</ele>
        <time>2013-12-07T09:29:43.1Z</time>
      </trkpt>
      <trkpt lat="48.48867" lon="-2.75891">
        <ele>2</ele>
        <time>2013-12-07T09:29:45.1Z</time>
      </trkpt>
      <trkpt lat="48.48865" lon="-2.75896">
        <ele>3</ele>
        <time>2013-12-07T09:29:48.1Z</time>
      </trkpt>
      <trkpt lat="48.48864" lon="-2.759">
        <ele>3</ele>
        <time>2013-12-07T09:29:51.1Z</time>
      </trkpt>
      <trkpt lat="48.48864" lon="-2.75902">
        <ele>2</ele>
        <time>2013-12-07T09:29:53.1Z</time>
      </trkpt>
      <trkpt lat="48.48862" lon="-2.75906">
        <ele>2</ele>
        <time>2013-12-07T09:29:56.1Z</time>
      </trkpt>
      <trkpt lat="48.48861" lon="-2.75909">
        <ele>1</ele>
        <time>2013-12-07T09:29:58.1Z</time>
      </trkpt>
      <trkpt lat="48.48861" lon="-2.75914">
        <ele>1</ele>
        <time>2013-12-07T09:30:01.1Z</time>
      </trkpt>
      <trkpt lat="48.48859" lon="-2.75919">
        <ele>1</ele>
        <time>2013-12-07T09:30:04.1Z</time>
      </trkpt>
      <trkpt lat="48.48859" lon="-2.75922">
        <ele>1</ele>
        <time>2013-12-07T09:30:06.1Z</time>
      </trkpt>
      <trkpt lat="48.48857" lon="-2.75927">
        <ele>104.9</ele>
        <time>2013-12-07T09:30:09.1Z</time>
      </trkpt>
      <trkpt lat="48.48856" lon="-2.7593">
        <ele>104.8</ele>
        <time>2013-12-07T09:30:11.1Z</time>
      </trkpt>
      <trkpt lat="48.48856" lon="-2.75934">
        <ele>104.7</ele>
        <time>2013-12-07T09:30:13.1Z</time>
      </trkpt>
      <trkpt lat="48.48854" lon="-2.75938">
        <ele>104.5</ele>
        <time>2013-12-07T09:30:16.1Z</time>
      </trkpt>
      <trkpt lat="48.48853" lon="-2.75943">
        <ele>104.4</ele>
        <time>2013-12-07T09:30:19.1Z</time>
      </trkpt>
      <trkpt lat="48.48853" lon="-2.75946">
        <ele>104.2</ele>
        <time>2013-12-07T09:30:21.1Z</time>
      </trkpt>
      <trkpt lat="48.48851" lon="-2.75951">
        <ele>103.9</ele>
        <time>2013-12-07T09:30:24.1Z</time>
      </trkpt>
      <trkpt lat="48.48851" lon="-2.75955">
        <ele>-1</ele>
        <time>2013-12-07T09:30:27.1Z</time>
      </trkpt>
      <trkpt lat="48.4885" lon="-2.7596">
        <ele>-1</ele>
        <time>2013-12-07T09:30:29.1Z</time>
      </trkpt>
      <trkpt lat="48.48849" lon="-2.75963">
        <ele>-1</ele>
        <time>2013-12-07T09:30:31.1Z</time>
      </trkpt>
      <trkpt lat="48.48849" lon="-2.75968">
        <ele>-1</ele>
        <time>2013-12-07T09:30:34.1Z</time>
      </trkpt>
      <trkpt lat="48.48849" lon="-2.75974">
        <ele>-1</ele>
        <time>2013-12-07T09:30:37.1Z</time>
      </trkpt>
      <trkpt lat="48.48849" lon="-2.75977">
        <ele>-2</ele>
        <time>2013-12-07T09:30:40.1Z</time>
      </trkpt>
      <trkpt lat="48.48849" lon="-2.75982">
        <ele>-2</ele>
        <time>2013-12-07T09:30:42.1Z</time>
      </trkpt>
      <trkpt lat="48.48849" lon="-2.75986">
        <ele>-2</ele>
        <time>2013-12-07T09:30:45.1Z</time>
      </trkpt>
      <trkpt lat="48.4885" lon="-2.75989">
        <ele>-2</ele>
        <time>2013-12-07T09:30:47.1Z</time>
      </trkpt>
      <trkpt lat="48.48849" lon="-2.75993">
        <ele>-2</ele>
        <time>2013-12-07T09:30:50.1Z</time>
      </trkpt>
      <trkpt lat="48.48849" lon="-2.75996">
        <ele>-2</ele>
        <time>2013-12-07T09:30:53.1Z</time>
      </trkpt>
      <trkpt lat="48.48849" lon="-2.75997">
        <ele>-2</ele>
        <time>2013-12-07T09:30:56.1Z</time>
      </trkpt>
      <trkpt lat="48.48849" lon="-2.76">
        <ele>-2</ele>
        <time>2013-12-07T09:30:58.1Z</time>
      </trkpt>
      <trkpt lat="48.48848" lon="-2.76006">
        <ele>-3</ele>
        <time>2013-12-07T09:31:01.1Z</time>
      </trkpt>
      <trkpt lat="48.48848" lon="-2.76009">
        <ele>-3</ele>
        <time>2013-12-07T09:31:03.1Z</time>
      </trkpt>
      <trkpt lat="48.48848" lon="-2.76013">
        <ele>-3</ele>
        <time>2013-12-07T09:31:05.1Z</time>
      </trkpt>
      <trkpt lat="48.48847" lon="-2.76018">
        <ele>-3</ele>
        <time>2013-12-07T09:31:08.1Z</time>
      </trkpt>
      <trkpt lat="48.48847" lon="-2.76025">
        <ele>-3</ele>
        <time>2013-12-07T09:31:11.1Z</time>
      </trkpt>
      <trkpt lat="48.48847" lon="-2.76028">
        <ele>-4</ele>
        <time>2013-12-07T09:31:13.1Z</time>
      </trkpt>
      <trkpt lat="48.48847" lon="-2.76034">
        <ele>-4</ele>
        <time>2013-12-07T09:31:16.1Z</time>
      </trkpt>
      <trkpt lat="48.48847" lon="-2.76037">
        <ele>-4</ele>
        <time>2013-12-07T09:31:19.1Z</time>
      </trkpt>
      <trkpt lat="48.48847" lon="-2.76042">
        <ele>-4</ele>
        <time>2013-12-07T09:31:21.1Z</time>
      </trkpt>
      <trkpt lat="48.48847" lon="-2.76048">
        <ele>-4</ele>
        <time>2013-12-07T09:31:24.1Z</time>
      </trkpt>
      <trkpt lat="48.48847" lon="-2.76052">
        <ele>-4</ele>
        <time>2013-12-07T09:31:26.1Z</time>
      </trkpt>
      <trkpt lat="48.48846" lon="-2.76056">
        <ele>-4</ele>
        <time>2013-12-07T09:31:29.1Z</time>
      </trkpt>
      <trkpt lat="48.48847" lon="-2.7606">
        <ele>-4</ele>
        <time>2013-12-07T09:31:31.1Z</time>
      </trkpt>
      <trkpt lat="48.48847" lon="-2.76063">
        <ele>-4</ele>
        <time>2013-12-07T09:31:34.1Z</time>
      </trkpt>
      <trkpt lat="48.48846" lon="-2.76068">
        <ele>-4</ele>
        <time>2013-12-07T09:31:36.1Z</time>
      </trkpt>
      <trkpt lat="48.48847" lon="-2.76074">
        <ele>-5</ele>
        <time>2013-12-07T09:31:39.1Z</time>
      </trkpt>
      <trkpt lat="48.48847" lon="-2.76078">
        <ele>-5</ele>
        <time>2013-12-07T09:31:41.1Z</time>
      </trkpt>
      <trkpt lat="48.48848" lon="-2.76083">
        <ele>-5</ele>
        <time>2013-12-07T09:31:44.1Z</time>
      </trkpt>
      <trkpt lat="48.48847" lon="-2.76087">
        <ele>-4</ele>
        <time>2013-12-07T09:31:46.1Z</time>
      </trkpt>
      <trkpt lat="48.48847" lon="-2.76093">
        <ele>-5</ele>
        <time>2013-12-07T09:31:49.1Z</time>
      </trkpt>
      <trkpt lat="48.48847" lon="-2.76097">
        <ele>-5</ele>
        <time>2013-12-07T09:31:51.1Z</time>
      </trkpt>
      <trkpt lat="48.48848" lon="-2.76102">
        <ele>-6</ele>
        <time>2013-12-07T09:31:54.1Z</time>
      </trkpt>
      <trkpt lat="48.48848" lon="-2.76108">
        <ele>-6</ele>
        <time>2013-12-07T09:31:57.1Z</time>
      </trkpt>
      <trkpt lat="48.48849" lon="-2.76111">
        <ele>-6</ele>
        <time>2013-12-07T09:32:00.1Z</time>
      </trkpt>
      <trkpt lat="48.48849" lon="-2.76118">
        <ele>-6</ele>
        <time>2013-12-07T09:32:03.1Z</time>
      </trkpt>
      <trkpt lat="48.4885" lon="-2.76123">
        <ele>-6</ele>
        <time>2013-12-07T09:32:06.1Z</time>
      </trkpt>
      <trkpt lat="48.48849" lon="-2.76126">
        <ele>-6</ele>
        <time>2013-12-07T09:32:08.1Z</time>
      </trkpt>
      <trkpt lat="48.4885" lon="-2.76131">
        <ele>-6</ele>
        <time>2013-12-07T09:32:11.1Z</time>
      </trkpt>
      <trkpt lat="48.4885" lon="-2.76134">
        <ele>-6</ele>
        <time>2013-12-07T09:32:13.1Z</time>
      </trkpt>
      <trkpt lat="48.4885" lon="-2.76138">
        <ele>-6</ele>
        <time>2013-12-07T09:32:15.1Z</time>
      </trkpt>
      <trkpt lat="48.48851" lon="-2.76144">
        <ele>-6</ele>
        <time>2013-12-07T09:32:18.1Z</time>
      </trkpt>
      <trkpt lat="48.48851" lon="-2.76148">
        <ele>-6</ele>
        <time>2013-12-07T09:32:20.1Z</time>
      </trkpt>
      <trkpt lat="48.48851" lon="-2.76153">
        <ele>-6</ele>
        <time>2013-12-07T09:32:23.1Z</time>
      </trkpt>
      <trkpt lat="48.48852" lon="-2.76159">
        <ele>-6</ele>
        <time>2013-12-07T09:32:26.1Z</time>
      </trkpt>
      <trkpt lat="48.48852" lon="-2.76163">
        <ele>-6</ele>
        <time>2013-12-07T09:32:29.1Z</time>
      </trkpt>
      <trkpt lat="48.48853" lon="-2.76167">
        <ele>-7</ele>
        <time>2013-12-07T09:32:31.1Z</time>
      </trkpt>
      <trkpt lat="48.48854" lon="-2.76172">
        <ele>-7</ele>
        <time>2013-12-07T09:32:34.1Z</time>
      </trkpt>
      <trkpt lat="48.48854" lon="-2.76178">
        <ele>-7</ele>
        <time>2013-12-07T09:32:37.1Z</time>
      </trkpt>
      <trkpt lat="48.48854" lon="-2.76182">
        <ele>-7</ele>
        <time>2013-12-07T09:32:39.1Z</time>
      </trkpt>
      <trkpt lat="48.48855" lon="-2.76186">
        <ele>-7</ele>
        <time>2013-12-07T09:32:42.1Z</time>
      </trkpt>
      <trkpt lat="48.48855" lon="-2.76192">
        <ele>-7</ele>
        <time>2013-12-07T09:32:45.1Z</time>
      </trkpt>
      <trkpt lat="48.48856" lon="-2.76195">
        <ele>-7</ele>
        <time>2013-12-07T09:32:47.1Z</time>
      </trkpt>
      <trkpt lat="48.48856" lon="-2.762">
        <ele>-7</ele>
        <time>2013-12-07T09:32:50.1Z</time>
      </trkpt>
      <trkpt lat="48.48856" lon="-2.76205">
        <ele>-7</ele>
        <time>2013-12-07T09:32:53.1Z</time>
      </trkpt>
      <trkpt lat="48.48857" lon="-2.76209">
        <ele>-7</ele>
        <time>2013-12-07T09:32:55.1Z</time>
      </trkpt>
      <trkpt lat="48.48857" lon="-2.76214">
        <ele>-8</ele>
        <time>2013-12-07T09:32:58.1Z</time>
      </trkpt>
      <trkpt lat="48.48857" lon="-2.76217">
        <ele>-8</ele>
        <time>2013-12-07T09:33:00.1Z</time>
      </trkpt>
      <trkpt lat="48.48857" lon="-2.76222">
        <ele>-8</ele>
        <time>2013-12-07T09:33:03.1Z</time>
      </trkpt>
      <trkpt lat="48.48857" lon="-2.76225">
        <ele>-8</ele>
        <time>2013-12-07T09:33:05.1Z</time>
      </trkpt>
      <trkpt lat="48.48857" lon="-2.7623">
        <ele>-8</ele>
        <time>2013-12-07T09:33:08.1Z</time>
      </trkpt>
      <trkpt lat="48.48857" lon="-2.76233">
        <ele>-8</ele>
        <time>2013-12-07T09:33:10.1Z</time>
      </trkpt>
      <trkpt lat="48.48857" lon="-2.76237">
        <ele>-8</ele>
        <time>2013-12-07T09:33:13.1Z</time>
      </trkpt>
      <trkpt lat="48.48857" lon="-2.7624">
        <ele>-8</ele>
        <time>2013-12-07T09:33:15.1Z</time>
      </trkpt>
      <trkpt lat="48.48857" lon="-2.76245">
        <ele>-8</ele>
        <time>2013-12-07T09:33:18.1Z</time>
      </trkpt>
      <trkpt lat="48.48857" lon="-2.76249">
        <ele>-9</ele>
        <time>2013-12-07T09:33:20.1Z</time>
      </trkpt>
      <trkpt lat="48.48856" lon="-2.76253">
        <ele>-8</ele>
        <time>2013-12-07T09:33:23.1Z</time>
      </trkpt>
      <trkpt lat="48.48856" lon="-2.76258">
        <ele>-8</ele>
        <time>2013-12-07T09:33:26.1Z</time>
      </trkpt>
      <trkpt lat="48.48856" lon="-2.76263">
        <ele>-8</ele>
        <time>2013-12-07T09:33:29.1Z</time>
      </trkpt>
      <trkpt lat="48.48855" lon="-2.76267">
        <ele>-9</ele>
        <time>2013-12-07T09:33:31.1Z</time>
      </trkpt>
      <trkpt lat="48.48854" lon="-2.76272">
        <ele>-8</ele>
        <time>2013-12-07T09:33:34.1Z</time>
      </trkpt>
      <trkpt lat="48.48853" lon="-2.76276">
        <ele>-9</ele>
        <time>2013-12-07T09:33:37.1Z</time>
      </trkpt>
      <trkpt lat="48.48851" lon="-2.7628">
        <ele>-9</ele>
        <time>2013-12-07T09:33:40.1Z</time>
      </trkpt>
      <trkpt lat="48.48849" lon="-2.76284">
        <ele>-9</ele>
        <time>2013-12-07T09:33:43.1Z</time>
      </trkpt>
      <trkpt lat="48.48848" lon="-2.7629">
        <ele>-10</ele>
        <time>2013-12-07T09:33:46.1Z</time>
      </trkpt>
      <trkpt lat="48.48848" lon="-2.76292">
        <ele>-10</ele>
        <time>2013-12-07T09:33:48.1Z</time>
      </trkpt>
      <trkpt lat="48.48848" lon="-2.76298">
        <ele>-10</ele>
        <time>2013-12-07T09:33:51.1Z</time>
      </trkpt>
      <trkpt lat="48.48848" lon="-2.76303">
        <ele>-9</ele>
        <time>2013-12-07T09:33:54.1Z</time>
      </trkpt>
      <trkpt lat="48.48848" lon="-2.76308">
        <ele>-10</ele>
        <time>2013-12-07T09:33:57.1Z</time>
      </trkpt>
      <trkpt lat="48.4885" lon="-2.76311">
        <ele>-10</ele>
        <time>2013-12-07T09:33:59.1Z</time>
      </trkpt>
      <trkpt lat="48.48851" lon="-2.76314">
        <ele>-9</ele>
        <time>2013-12-07T09:34:01.1Z</time>
      </trkpt>
      <trkpt lat="48.48852" lon="-2.76317">
        <ele>-9</ele>
        <time>2013-12-07T09:34:03.1Z</time>
      </trkpt>
      <trkpt lat="48.48853" lon="-2.7632">
        <ele>-9</ele>
        <time>2013-12-07T09:34:05.1Z</time>
      </trkpt>
      <trkpt lat="48.48855" lon="-2.76324">
        <ele>-10</ele>
        <time>2013-12-07T09:34:08.1Z</time>
      </trkpt>
      <trkpt lat="48.48857" lon="-2.76326">
        <ele>-10</ele>
        <time>2013-12-07T09:34:10.1Z</time>
      </trkpt>
      <trkpt lat="48.48858" lon="-2.76328">
        <ele>-10</ele>
        <time>2013-12-07T09:34:12.1Z</time>
      </trkpt>
      <trkpt lat="48.48859" lon="-2.7633">
        <ele>-10</ele>
        <time>2013-12-07T09:34:14.1Z</time>
      </trkpt>
      <trkpt lat="48.48861" lon="-2.76334">
        <ele>-10</ele>
        <time>2013-12-07T09:34:16.1Z</time>
      </trkpt>
      <trkpt lat="48.48862" lon="-2.76338">
        <ele>-10</ele>
        <time>2013-12-07T09:34:19.1Z</time>
      </trkpt>
      <trkpt lat="48.48863" lon="-2.76343">
        <ele>-10</ele>
        <time>2013-12-07T09:34:22.1Z</time>
      </trkpt>
      <trkpt lat="48.48863" lon="-2.76348">
        <ele>-11</ele>
        <time>2013-12-07T09:34:25.1Z</time>
      </trkpt>
      <trkpt lat="48.48863" lon="-2.76353">
        <ele>-11</ele>
        <time>2013-12-07T09:34:28.1Z</time>
      </trkpt>
      <trkpt lat="48.48863" lon="-2.76358">
        <ele>-11</ele>
        <time>2013-12-07T09:34:31.1Z</time>
      </trkpt>
      <trkpt lat="48.48863" lon="-2.76361">
        <ele>-11</ele>
        <time>2013-12-07T09:34:34.1Z</time>
      </trkpt>
      <trkpt lat="48.48863" lon="-2.76366">
        <ele>-10</ele>
        <time>2013-12-07T09:34:37.1Z</time>
      </trkpt>
      <trkpt lat="48.48864" lon="-2.7637">
        <ele>-10</ele>
        <time>2013-12-07T09:34:39.1Z</time>
      </trkpt>
      <trkpt lat="48.48866" lon="-2.76375">
        <ele>-10</ele>
        <time>2013-12-07T09:34:42.1Z</time>
      </trkpt>
      <trkpt lat="48.48867" lon="-2.76379">
        <ele>-10</ele>
        <time>2013-12-07T09:34:44.1Z</time>
      </trkpt>
      <trkpt lat="48.48867" lon="-2.76386">
        <ele>-10</ele>
        <time>2013-12-07T09:34:47.1Z</time>
      </trkpt>
      <trkpt lat="48.48867" lon="-2.7639">
        <ele>-11</ele>
        <time>2013-12-07T09:34:50.1Z</time>
      </trkpt>
      <trkpt lat="48.48869" lon="-2.76395">
        <ele>-11</ele>
        <time>2013-12-07T09:34:53.1Z</time>
      </trkpt>
      <trkpt lat="48.4887" lon="-2.76402">
        <ele>-11</ele>
        <time>2013-12-07T09:34:56.1Z</time>
      </trkpt>
      <trkpt lat="48.48871" lon="-2.7641">
        <ele>-11</ele>
        <time>2013-12-07T09:34:59.1Z</time>
      </trkpt>
      <trkpt lat="48.48871" lon="-2.76413">
        <ele>-11</ele>
        <time>2013-12-07T09:35:01.1Z</time>
      </trkpt>
      <trkpt lat="48.48871" lon="-2.76417">
        <ele>-10</ele>
        <time>2013-12-07T09:35:03.1Z</time>
      </trkpt>
      <trkpt lat="48.48871" lon="-2.76421">
        <ele>-10</ele>
        <time>2013-12-07T09:35:06.1Z</time>
      </trkpt>
      <trkpt lat="48.48871" lon="-2.76424">
        <ele>-10</ele>
        <time>2013-12-07T09:35:08.1Z</time>
      </trkpt>
      <trkpt lat="48.4887" lon="-2.76429">
        <ele>-10</ele>
        <time>2013-12-07T09:35:11.1Z</time>
      </trkpt>
      <trkpt lat="48.4887" lon="-2.76433">
        <ele>-10</ele>
        <time>2013-12-07T09:35:14.1Z</time>
      </trkpt>
      <trkpt lat="48.4887" lon="-2.76437">
        <ele>-10</ele>
        <time>2013-12-07T09:35:16.1Z</time>
      </trkpt>
      <trkpt lat="48.48869" lon="-2.76441">
        <ele>-10</ele>
        <time>2013-12-07T09:35:19.1Z</time>
      </trkpt>
      <trkpt lat="48.48868" lon="-2.76445">
        <ele>-10</ele>
        <time>2013-12-07T09:35:21.1Z</time>
      </trkpt>
      <trkpt lat="48.48867" lon="-2.76447">
        <ele>-10</ele>
        <time>2013-12-07T09:35:23.1Z</time>
      </trkpt>
      <trkpt lat="48.48866" lon="-2.7645">
        <ele>-10</ele>
        <time>2013-12-07T09:35:25.1Z</time>
      </trkpt>
      <trkpt lat="48.48865" lon="-2.76453">
        <ele>-10</ele>
        <time>2013-12-07T09:35:27.1Z</time>
      </trkpt>
      <trkpt lat="48.48863" lon="-2.76457">
        <ele>-10</ele>
        <time>2013-12-07T09:35:30.1Z</time>
      </trkpt>
      <trkpt lat="48.48862" lon="-2.7646">
        <ele>-9</ele>
        <time>2013-12-07T09:35:32.1Z</time>
      </trkpt>
      <trkpt lat="48.48861" lon="-2.76464">
        <ele>-9</ele>
        <time>2013-12-07T09:35:35.1Z</time>
      </trkpt>
      <trkpt lat="48.4886" lon="-2.76467">
        <ele>-9</ele>
        <time>2013-12-07T09:35:37.1Z</time>
      </trkpt>
      <trkpt lat="48.4886" lon="-2.7647">
        <ele>-9</ele>
        <time>2013-12-07T09:35:39.1Z</time>
      </trkpt>
      <trkpt lat="48.48859" lon="-2.76474">
        <ele>-9</ele>
        <time>2013-12-07T09:35:42.1Z</time>
      </trkpt>
      <trkpt lat="48.48859" lon="-2.76477">
        <ele>-9</ele>
        <time>2013-12-07T09:35:44.1Z</time>
      </trkpt>
      <trkpt lat="48.4886" lon="-2.76481">
        <ele>-9</ele>
        <time>2013-12-07T09:35:47.1Z</time>
      </trkpt>
      <trkpt lat="48.48861" lon="-2.76485">
        <ele>-9</ele>
        <time>2013-12-07T09:35:50.1Z</time>
      </trkpt>
      <trkpt lat="48.48863" lon="-2.76488">
        <ele>-9</ele>
        <time>2013-12-07T09:35:53.1Z</time>
      </trkpt>
      <trkpt lat="48.48864" lon="-2.76491">
        <ele>-9</ele>
        <time>2013-12-07T09:35:55.1Z</time>
      </trkpt>
      <trkpt lat="48.48864" lon="-2.76494">
        <ele>-9</ele>
        <time>2013-12-07T09:35:57.1Z</time>
      </trkpt>
      <trkpt lat="48.48864" lon="-2.765">
        <ele>-9</ele>
        <time>2013-12-07T09:36:00.1Z</time>
      </trkpt>
      <trkpt lat="48.48862" lon="-2.76504">
        <ele>-8</ele>
        <time>2013-12-07T09:36:03.1Z</time>
      </trkpt>
      <trkpt lat="48.48862" lon="-2.76506">
        <ele>-8</ele>
        <time>2013-12-07T09:36:05.1Z</time>
      </trkpt>
      <trkpt lat="48.48861" lon="-2.76508">
        <ele>-8</ele>
        <time>2013-12-07T09:36:08.1Z</time>
      </trkpt>
      <trkpt lat="48.48861" lon="-2.76511">
        <ele>-8</ele>
        <time>2013-12-07T09:36:11.1Z</time>
      </trkpt>
      <trkpt lat="48.4886" lon="-2.76514">
        <ele>-8</ele>
        <time>2013-12-07T09:36:14.1Z</time>
      </trkpt>
      <trkpt lat="48.48859" lon="-2.76515">
        <ele>-8</ele>
        <time>2013-12-07T09:36:16.1Z</time>
      </trkpt>
      <trkpt lat="48.48857" lon="-2.76516">
        <ele>-8</ele>
        <time>2013-12-07T09:36:18.1Z</time>
      </trkpt>
      <trkpt lat="48.48856" lon="-2.76518">
        <ele>-8</ele>
        <time>2013-12-07T09:36:20.1Z</time>
      </trkpt>
      <trkpt lat="48.48855" lon="-2.76518">
        <ele>-8</ele>
        <time>2013-12-07T09:36:22.1Z</time>
      </trkpt>
      <trkpt lat="48.48853" lon="-2.76519">
        <ele>-8</ele>
        <time>2013-12-07T09:36:25.1Z</time>
      </trkpt>
      <trkpt lat="48.4885" lon="-2.7652">
        <ele>-8</ele>
        <time>2013-12-07T09:36:28.1Z</time>
      </trkpt>
      <trkpt lat="48.48848" lon="-2.76521">
        <ele>-8</ele>
        <time>2013-12-07T09:36:30.1Z</time>
      </trkpt>
      <trkpt lat="48.48846" lon="-2.76522">
        <ele>-8</ele>
        <time>2013-12-07T09:36:33.1Z</time>
      </trkpt>
      <trkpt lat="48.48843" lon="-2.76524">
        <ele>-8</ele>
        <time>2013-12-07T09:36:35.1Z</time>
      </trkpt>
      <trkpt lat="48.48841" lon="-2.76526">
        <ele>-8</ele>
        <time>2013-12-07T09:36:38.1Z</time>
      </trkpt>
      <trkpt lat="48.4884" lon="-2.76527">
        <ele>-8</ele>
        <time>2013-12-07T09:36:41.1Z</time>
      </trkpt>
      <trkpt lat="48.48837" lon="-2.7653">
        <ele>-8</ele>
        <time>2013-12-07T09:36:44.1Z</time>
      </trkpt>
      <trkpt lat="48.48835" lon="-2.76532">
        <ele>-8</ele>
        <time>2013-12-07T09:36:46.1Z</time>
      </trkpt>
      <trkpt lat="48.48834" lon="-2.76534">
        <ele>-7</ele>
        <time>2013-12-07T09:36:48.1Z</time>
      </trkpt>
      <trkpt lat="48.48831" lon="-2.76537">
        <ele>-7</ele>
        <time>2013-12-07T09:36:51.1Z</time>
      </trkpt>
      <trkpt lat="48.4883" lon="-2.76539">
        <ele>-7</ele>
        <time>2013-12-07T09:36:53.1Z</time>
      </trkpt>
      <trkpt lat="48.48827" lon="-2.76542">
        <ele>-7</ele>
        <time>2013-12-07T09:36:56.1Z</time>
      </trkpt>
      <trkpt lat="48.48825" lon="-2.76546">
        <ele>-7</ele>
        <time>2013-12-07T09:36:59.1Z</time>
      </trkpt>
      <trkpt lat="48.48824" lon="-2.76548">
        <ele>-7</ele>
        <time>2013-12-07T09:37:01.1Z</time>
      </trkpt>
      <trkpt lat="48.48823" lon="-2.7655">
        <ele>-8</ele>
        <time>2013-12-07T09:37:03.1Z</time>
      </trkpt>
      <trkpt lat="48.4882" lon="-2.76554">
        <ele>-7</ele>
        <time>2013-12-07T09:37:06.1Z</time>
      </trkpt>
      <trkpt lat="48.48819" lon="-2.76556">
        <ele>-8</ele>
        <time>2013-12-07T09:37:08.1Z</time>
      </trkpt>
      <trkpt lat="48.48818" lon="-2.76559">
        <ele>-7</ele>
        <time>2013-12-07T09:37:11.1Z</time>
      </trkpt>
      <trkpt lat="48.48815" lon="-2.76561">
        <ele>-8</ele>
        <time>2013-12-07T09:37:13.1Z</time>
      </trkpt>
      <trkpt lat="48.48813" lon="-2.76565">
        <ele>-7</ele>
        <time>2013-12-07T09:37:16.1Z</time>
      </trkpt>
      <trkpt lat="48.48811" lon="-2.76568">
        <ele>-7</ele>
        <time>2013-12-07T09:37:18.1Z</time>
      </trkpt>
      <trkpt lat="48.48809" lon="-2.7657">
        <ele>-7</ele>
        <time>2013-12-07T09:37:21.1Z</time>
      </trkpt>
      <trkpt lat="48.48806" lon="-2.76572">
        <ele>-7</ele>
        <time>2013-12-07T09:37:23.1Z</time>
      </trkpt>
      <trkpt lat="48.48804" lon="-2.76576">
        <ele>-7</ele>
        <time>2013-12-07T09:37:26.1Z</time>
      </trkpt>
      <trkpt lat="48.48803" lon="-2.76578">
        <ele>-7</ele>
        <time>2013-12-07T09:37:28.1Z</time>
      </trkpt>
      <trkpt lat="48.48801" lon="-2.76583">
        <ele>-6</ele>
        <time>2013-12-07T09:37:31.1Z</time>
      </trkpt>
      <trkpt lat="48.48799" lon="-2.76586">
        <ele>-7</ele>
        <time>2013-12-07T09:37:33.1Z</time>
      </trkpt>
      <trkpt lat="48.48796" lon="-2.76589">
        <ele>-7</ele>
        <time>2013-12-07T09:37:36.1Z</time>
      </trkpt>
      <trkpt lat="48.48795" lon="-2.76592">
        <ele>-7</ele>
        <time>2013-12-07T09:37:38.1Z</time>
      </trkpt>
      <trkpt lat="48.48793" lon="-2.76594">
        <ele>-7</ele>
        <time>2013-12-07T09:37:40.1Z</time>
      </trkpt>
      <trkpt lat="48.48791" lon="-2.76598">
        <ele>-7</ele>
        <time>2013-12-07T09:37:43.1Z</time>
      </trkpt>
      <trkpt lat="48.48789" lon="-2.76602">
        <ele>-7</ele>
        <time>2013-12-07T09:37:46.1Z</time>
      </trkpt>
      <trkpt lat="48.48787" lon="-2.76604">
        <ele>-7</ele>
        <time>2013-12-07T09:37:48.1Z</time>
      </trkpt>
      <trkpt lat="48.48784" lon="-2.76608">
        <ele>-7</ele>
        <time>2013-12-07T09:37:51.1Z</time>
      </trkpt>
      <trkpt lat="48.48782" lon="-2.76611">
        <ele>-7</ele>
        <time>2013-12-07T09:37:54.1Z</time>
      </trkpt>
      <trkpt lat="48.4878" lon="-2.76615">
        <ele>-7</ele>
        <time>2013-12-07T09:37:57.1Z</time>
      </trkpt>
      <trkpt lat="48.48777" lon="-2.76618">
        <ele>-7</ele>
        <time>2013-12-07T09:38:00.1Z</time>
      </trkpt>
      <trkpt lat="48.48775" lon="-2.76622">
        <ele>-7</ele>
        <time>2013-12-07T09:38:03.1Z</time>
      </trkpt>
      <trkpt lat="48.48774" lon="-2.76625">
        <ele>-7</ele>
        <time>2013-12-07T09:38:05.1Z</time>
      </trkpt>
      <trkpt lat="48.48771" lon="-2.76628">
        <ele>-7</ele>
        <time>2013-12-07T09:38:08.1Z</time>
      </trkpt>
      <trkpt lat="48.48769" lon="-2.76632">
        <ele>-7</ele>
        <time>2013-12-07T09:38:11.1Z</time>
      </trkpt>
      <trkpt lat="48.48768" lon="-2.76635">
        <ele>-7</ele>
        <time>2013-12-07T09:38:13.1Z</time>
      </trkpt>
      <trkpt lat="48.48766" lon="-2.76638">
        <ele>-7</ele>
        <time>2013-12-07T09:38:16.1Z</time>
      </trkpt>
      <trkpt lat="48.48764" lon="-2.7664">
        <ele>-7</ele>
        <time>2013-12-07T09:38:18.1Z</time>
      </trkpt>
      <trkpt lat="48.48762" lon="-2.76641">
        <ele>-7</ele>
        <time>2013-12-07T09:38:20.1Z</time>
      </trkpt>
      <trkpt lat="48.4876" lon="-2.76641">
        <ele>-7</ele>
        <time>2013-12-07T09:38:23.1Z</time>
      </trkpt>
      <trkpt lat="48.48758" lon="-2.7664">
        <ele>-7</ele>
        <time>2013-12-07T09:38:26.1Z</time>
      </trkpt>
      <trkpt lat="48.48756" lon="-2.76639">
        <ele>-6</ele>
        <time>2013-12-07T09:38:28.1Z</time>
      </trkpt>
      <trkpt lat="48.48755" lon="-2.76638">
        <ele>-6</ele>
        <time>2013-12-07T09:38:30.1Z</time>
      </trkpt>
      <trkpt lat="48.48751" lon="-2.76638">
        <ele>-6</ele>
        <time>2013-12-07T09:38:33.1Z</time>
      </trkpt>
      <trkpt lat="48.48749" lon="-2.76637">
        <ele>-6</ele>
        <time>2013-12-07T09:38:36.1Z</time>
      </trkpt>
      <trkpt lat="48.48747" lon="-2.76636">
        <ele>-6</ele>
        <time>2013-12-07T09:38:38.1Z</time>
      </trkpt>
      <trkpt lat="48.48745" lon="-2.76635">
        <ele>-6</ele>
        <time>2013-12-07T09:38:41.1Z</time>
      </trkpt>
      <trkpt lat="48.48743" lon="-2.76634">
        <ele>-6</ele>
        <time>2013-12-07T09:38:43.1Z</time>
      </trkpt>
      <trkpt lat="48.4874" lon="-2.76634">
        <ele>-6</ele>
        <time>2013-12-07T09:38:46.1Z</time>
      </trkpt>
      <trkpt lat="48.48737" lon="-2.76633">
        <ele>-6</ele>
        <time>2013-12-07T09:38:48.1Z</time>
      </trkpt>
      <trkpt lat="48.48734" lon="-2.7663">
        <ele>-6</ele>
        <time>2013-12-07T09:38:51.1Z</time>
      </trkpt>
      <trkpt lat="48.48732" lon="-2.7663">
        <ele>-5</ele>
        <time>2013-12-07T09:38:53.1Z</time>
      </trkpt>
      <trkpt lat="48.48728" lon="-2.76629">
        <ele>-5</ele>
        <time>2013-12-07T09:38:56.1Z</time>
      </trkpt>
      <trkpt lat="48.48726" lon="-2.76628">
        <ele>-5</ele>
        <time>2013-12-07T09:38:58.1Z</time>
      </trkpt>
      <trkpt lat="48.48723" lon="-2.76627">
        <ele>-4</ele>
        <time>2013-12-07T09:39:01.1Z</time>
      </trkpt>
      <trkpt lat="48.48719" lon="-2.76626">
        <ele>-4</ele>
        <time>2013-12-07T09:39:04.1Z</time>
      </trkpt>
      <trkpt lat="48.48717" lon="-2.76626">
        <ele>-4</ele>
        <time>2013-12-07T09:39:06.1Z</time>
      </trkpt>
      <trkpt lat="48.48714" lon="-2.76625">
        <ele>-4</ele>
        <time>2013-12-07T09:39:09.1Z</time>
      </trkpt>
      <trkpt lat="48.48712" lon="-2.76625">
        <ele>-4</ele>
        <time>2013-12-07T09:39:11.1Z</time>
      </trkpt>
      <trkpt lat="48.48708" lon="-2.76625">
        <ele>-4</ele>
        <time>2013-12-07T09:39:14.1Z</time>
      </trkpt>
      <trkpt lat="48.48705" lon="-2.76627">
        <ele>-3</ele>
        <time>2013-12-07T09:39:17.1Z</time>
      </trkpt>
      <trkpt lat="48.48703" lon="-2.76628">
        <ele>-3</ele>
        <time>2013-12-07T09:39:19.1Z</time>
      </trkpt>
      <trkpt lat="48.48702" lon="-2.7663">
        <ele>-3</ele>
        <time>2013-12-07T09:39:21.1Z</time>
      </trkpt>
      <trkpt lat="48.48699" lon="-2.76631">
        <ele>-2</ele>
        <time>2013-12-07T09:39:24.1Z</time>
      </trkpt>
      <trkpt lat="48.48695" lon="-2.76633">
        <ele>-2</ele>
        <time>2013-12-07T09:39:27.1Z</time>
      </trkpt>
      <trkpt lat="48.48692" lon="-2.76635">
        <ele>-2</ele>
        <time>2013-12-07T09:39:30.1Z</time>
      </trkpt>
      <trkpt lat="48.4869" lon="-2.76636">
        <ele>-2</ele>
        <time>2013-12-07T09:39:32.1Z</time>
      </trkpt>
      <trkpt lat="48.48688" lon="-2.76637">
        <ele>-2</ele>
        <time>2013-12-07T09:39:34.1Z</time>
      </trkpt>
      <trkpt lat="48.48685" lon="-2.76639">
        <ele>-2</ele>
        <time>2013-12-07T09:39:37.1Z</time>
      </trkpt>
      <trkpt lat="48.48683" lon="-2.76642">
        <ele>-1</ele>
        <time>2013-12-07T09:39:40.1Z</time>
      </trkpt>
      <trkpt lat="48.48681" lon="-2.76644">
        <ele>-1</ele>
        <time>2013-12-07T09:39:42.1Z</time>
      </trkpt>
      <trkpt lat="48.48678" lon="-2.76647">
        <ele>-1</ele>
        <time>2013-12-07T09:39:45.1Z</time>
      </trkpt>
      <trkpt lat="48.48677" lon="-2.76648">
        <ele>-1</ele>
        <time>2013-12-07T09:39:47.1Z</time>
      </trkpt>
      <trkpt lat="48.48674" lon="-2.76652">
        <ele>-1</ele>
        <time>2013-12-07T09:39:50.1Z</time>
      </trkpt>
      <trkpt lat="48.48672" lon="-2.76655">
        <ele>105.4</ele>
        <time>2013-12-07T09:39:53.1Z</time>
      </trkpt>
      <trkpt lat="48.4867" lon="-2.76658">
        <ele>105.6</ele>
        <time>2013-12-07T09:39:56.1Z</time>
      </trkpt>
      <trkpt lat="48.48667" lon="-2.76661">
        <ele>105.8</ele>
        <time>2013-12-07T09:39:59.1Z</time>
      </trkpt>
      <trkpt lat="48.48664" lon="-2.76664">
        <ele>106</ele>
        <time>2013-12-07T09:40:02.1Z</time>
      </trkpt>
      <trkpt lat="48.48663" lon="-2.76666">
        <ele>106.1</ele>
        <time>2013-12-07T09:40:04.1Z</time>
      </trkpt>
      <trkpt lat="48.4866" lon="-2.76668">
        <ele>106.2</ele>
        <time>2013-12-07T09:40:07.1Z</time>
      </trkpt>
      <trkpt lat="48.48657" lon="-2.76669">
        <ele>106.4</ele>
        <time>2013-12-07T09:40:10.1Z</time>
      </trkpt>
      <trkpt lat="48.48655" lon="-2.7667">
        <ele>106.4</ele>
        <time>2013-12-07T09:40:12.1Z</time>
      </trkpt>
      <trkpt lat="48.48652" lon="-2.76671">
        <ele>106.5</ele>
        <time>2013-12-07T09:40:15.1Z</time>
      </trkpt>
      <trkpt lat="48.48649" lon="-2.76672">
        <ele>106.6</ele>
        <time>2013-12-07T09:40:17.1Z</time>
      </trkpt>
      <trkpt lat="48.48646" lon="-2.76672">
        <ele>106.8</ele>
        <time>2013-12-07T09:40:20.1Z</time>
      </trkpt>
      <trkpt lat="48.48643" lon="-2.76674">
        <ele>106.9</ele>
        <time>2013-12-07T09:40:23.1Z</time>
      </trkpt>
      <trkpt lat="48.4864" lon="-2.76676">
        <ele>107</ele>
        <time>2013-12-07T09:40:26.1Z</time>
      </trkpt>
      <trkpt lat="48.48637" lon="-2.76678">
        <ele>107</ele>
        <time>2013-12-07T09:40:29.1Z</time>
      </trkpt>
      <trkpt lat="48.48635" lon="-2.76679">
        <ele>107.1</ele>
        <time>2013-12-07T09:40:31.1Z</time>
      </trkpt>
      <trkpt lat="48.48633" lon="-2.76682">
        <ele>107.1</ele>
        <time>2013-12-07T09:40:34.1Z</time>
      </trkpt>
      <trkpt lat="48.4863" lon="-2.76682">
        <ele>107.2</ele>
        <time>2013-12-07T09:40:36.1Z</time>
      </trkpt>
      <trkpt lat="48.48629" lon="-2.76683">
        <ele>107.2</ele>
        <time>2013-12-07T09:40:38.1Z</time>
      </trkpt>
      <trkpt lat="48.48625" lon="-2.76686">
        <ele>107.3</ele>
        <time>2013-12-07T09:40:41.1Z</time>
      </trkpt>
      <trkpt lat="48.48624" lon="-2.76687">
        <ele>1</ele>
        <time>2013-12-07T09:40:43.1Z</time>
      </trkpt>
      <trkpt lat="48.48621" lon="-2.7669">
        <ele>1</ele>
        <time>2013-12-07T09:40:46.1Z</time>
      </trkpt>
      <trkpt lat="48.48619" lon="-2.76691">
        <ele>1</ele>
        <time>2013-12-07T09:40:48.1Z</time>
      </trkpt>
      <trkpt lat="48.48616" lon="-2.76694">
        <ele>1</ele>
        <time>2013-12-07T09:40:51.1Z</time>
      </trkpt>
      <trkpt lat="48.48615" lon="-2.76695">
        <ele>1</ele>
        <time>2013-12-07T09:40:53.1Z</time>
      </trkpt>
      <trkpt lat="48.48612" lon="-2.76697">
        <ele>1</ele>
        <time>2013-12-07T09:40:56.1Z</time>
      </trkpt>
      <trkpt lat="48.4861" lon="-2.76699">
        <ele>1</ele>
        <time>2013-12-07T09:40:58.1Z</time>
      </trkpt>
      <trkpt lat="48.48607" lon="-2.76702">
        <ele>2</ele>
        <time>2013-12-07T09:41:01.1Z</time>
      </trkpt>
      <trkpt lat="48.48606" lon="-2.76703">
        <ele>2</ele>
        <time>2013-12-07T09:41:03.1Z</time>
      </trkpt>
      <trkpt lat="48.48603" lon="-2.76706">
        <ele>2</ele>
        <time>2013-12-07T09:41:06.1Z</time>
      </trkpt>
      <trkpt lat="48.48602" lon="-2.76708">
        <ele>2</ele>
        <time>2013-12-07T09:41:08.1Z</time>
      </trkpt>
      <trkpt lat="48.48599" lon="-2.7671">
        <ele>2</ele>
        <time>2013-12-07T09:41:11.1Z</time>
      </trkpt>
      <trkpt lat="48.48597" lon="-2.76711">
        <ele>2</ele>
        <time>2013-12-07T09:41:13.1Z</time>
      </trkpt>
      <trkpt lat="48.48595" lon="-2.76714">
        <ele>2</ele>
        <time>2013-12-07T09:41:16.1Z</time>
      </trkpt>
      <trkpt lat="48.48592" lon="-2.76716">
        <ele>2</ele>
        <time>2013-12-07T09:41:18.1Z</time>
      </trkpt>
      <trkpt lat="48.48589" lon="-2.76718">
        <ele>3</ele>
        <time>2013-12-07T09:41:21.1Z</time>
      </trkpt>
      <trkpt lat="48.48585" lon="-2.7672">
        <ele>4</ele>
        <time>2013-12-07T09:41:24.1Z</time>
      </trkpt>
      <trkpt lat="48.48583" lon="-2.76721">
        <ele>4</ele>
        <time>2013-12-07T09:41:26.1Z</time>
      </trkpt>
      <trkpt lat="48.4858" lon="-2.76723">
        <ele>4</ele>
        <time>2013-12-07T09:41:29.1Z</time>
      </trkpt>
      <trkpt lat="48.48577" lon="-2.76724">
        <ele>4</ele>
        <time>2013-12-07T09:41:31.1Z</time>
      </trkpt>
      <trkpt lat="48.48574" lon="-2.76726">
        <ele>3</ele>
        <time>2013-12-07T09:41:34.1Z</time>
      </trkpt>
      <trkpt lat="48.48571" lon="-2.76728">
        <ele>4</ele>
        <time>2013-12-07T09:41:37.1Z</time>
      </trkpt>
      <trkpt lat="48.48569" lon="-2.76729">
        <ele>4</ele>
        <time>2013-12-07T09:41:39.1Z</time>
      </trkpt>
      <trkpt lat="48.48565" lon="-2.76731">
        <ele>4</ele>
        <time>2013-12-07T09:41:42.1Z</time>
      </trkpt>
      <trkpt lat="48.48562" lon="-2.76733">
        <ele>4</ele>
        <time>2013-12-07T09:41:45.1Z</time>
      </trkpt>
      <trkpt lat="48.4856" lon="-2.76734">
        <ele>4</ele>
        <time>2013-12-07T09:41:47.1Z</time>
      </trkpt>
      <trkpt lat="48.48557" lon="-2.76736">
        <ele>4</ele>
        <time>2013-12-07T09:41:50.1Z</time>
      </trkpt>
      <trkpt lat="48.48554" lon="-2.76737">
        <ele>4</ele>
        <time>2013-12-07T09:41:53.1Z</time>
      </trkpt>
      <trkpt lat="48.48552" lon="-2.76739">
        <ele>4</ele>
        <time>2013-12-07T09:41:55.1Z</time>
      </trkpt>
      <trkpt lat="48.48549" lon="-2.7674">
        <ele>4</ele>
        <time>2013-12-07T09:41:58.1Z</time>
      </trkpt>
      <trkpt lat="48.48545" lon="-2.76742">
        <ele>5</ele>
        <time>2013-12-07T09:42:01.1Z</time>
      </trkpt>
      <trkpt lat="48.48543" lon="-2.76743">
        <ele>4</ele>
        <time>2013-12-07T09:42:03.1Z</time>
      </trkpt>
      <trkpt lat="48.4854" lon="-2.76744">
        <ele>4</ele>
        <time>2013-12-07T09:42:06.1Z</time>
      </trkpt>
      <trkpt lat="48.48537" lon="-2.76746">
        <ele>5</ele>
        <time>2013-12-07T09:42:09.1Z</time>
      </trkpt>
      <trkpt lat="48.48534" lon="-2.76747">
        <ele>5</ele>
        <time>2013-12-07T09:42:12.1Z</time>
      </trkpt>
      <trkpt lat="48.48531" lon="-2.76748">
        <ele>5</ele>
        <time>2013-12-07T09:42:15.1Z</time>
      </trkpt>
      <trkpt lat="48.48527" lon="-2.7675">
        <ele>5</ele>
        <time>2013-12-07T09:42:18.1Z</time>
      </trkpt>
      <trkpt lat="48.48524" lon="-2.76751">
        <ele>5</ele>
        <time>2013-12-07T09:42:21.1Z</time>
      </trkpt>
      <trkpt lat="48.48521" lon="-2.76753">
        <ele>5</ele>
        <time>2013-12-07T09:42:24.1Z</time>
      </trkpt>
      <trkpt lat="48.48518" lon="-2.76754">
        <ele>6</ele>
        <time>2013-12-07T09:42:27.1Z</time>
      </trkpt>
      <trkpt lat="48.48516" lon="-2.76755">
        <ele>6</ele>
        <time>2013-12-07T09:42:29.1Z</time>
      </trkpt>
      <trkpt lat="48.48512" lon="-2.76757">
        <ele>6</ele>
        <time>2013-12-07T09:42:32.1Z</time>
      </trkpt>
      <trkpt lat="48.48509" lon="-2.76758">
        <ele>6</ele>
        <time>2013-12-07T09:42:35.1Z</time>
      </trkpt>
      <trkpt lat="48.48506" lon="-2.76759">
        <ele>7</ele>
        <time>2013-12-07T09:42:38.1Z</time>
      </trkpt>
      <trkpt lat="48.48502" lon="-2.7676">
        <ele>7</ele>
        <time>2013-12-07T09:42:41.1Z</time>
      </trkpt>
      <trkpt lat="48.48499" lon="-2.76761">
        <ele>7</ele>
        <time>2013-12-07T09:42:43.1Z</time>
      </trkpt>
      <trkpt lat="48.48494" lon="-2.76762">
        <ele>7</ele>
        <time>2013-12-07T09:42:46.1Z</time>
      </trkpt>
      <trkpt lat="48.48487" lon="-2.76765">
        <ele>8</ele>
        <time>2013-12-07T09:42:49.1Z</time>
      </trkpt>
      <trkpt lat="48.48482" lon="-2.76767">
        <ele>8</ele>
        <time>2013-12-07T09:42:51.1Z</time>
      </trkpt>
      <trkpt lat="48.48474" lon="-2.7677">
        <ele>9</ele>
        <time>2013-12-07T09:42:54.1Z</time>
      </trkpt>
      <trkpt lat="48.48467" lon="-2.76772">
        <ele>9</ele>
        <time>2013-12-07T09:42:57.1Z</time>
      </trkpt>
      <trkpt lat="48.48462" lon="-2.76774">
        <ele>9</ele>
        <time>2013-12-07T09:42:59.1Z</time>
      </trkpt>
      <trkpt lat="48.48457" lon="-2.76776">
        <ele>9</ele>
        <time>2013-12-07T09:43:01.1Z</time>
      </trkpt>
      <trkpt lat="48.48451" lon="-2.76779">
        <ele>9</ele>
        <time>2013-12-07T09:43:04.1Z</time>
      </trkpt>
      <trkpt lat="48.48444" lon="-2.7678">
        <ele>10</ele>
        <time>2013-12-07T09:43:07.1Z</time>
      </trkpt>
      <trkpt lat="48.48438" lon="-2.76782">
        <ele>11</ele>
        <time>2013-12-07T09:43:10.1Z</time>
      </trkpt>
      <trkpt lat="48.48434" lon="-2.76783">
        <ele>11</ele>
        <time>2013-12-07T09:43:12.1Z</time>
      </trkpt>
      <trkpt lat="48.48429" lon="-2.76784">
        <ele>11</ele>
        <time>2013-12-07T09:43:14.1Z</time>
      </trkpt>
      <trkpt lat="48.48425" lon="-2.76784">
        <ele>11</ele>
        <time>2013-12-07T09:43:16.1Z</time>
      </trkpt>
      <trkpt lat="48.48418" lon="-2.76784">
        <ele>12</ele>
        <time>2013-12-07T09:43:19.1Z</time>
      </trkpt>
      <trkpt lat="48.48414" lon="-2.76785">
        <ele>12</ele>
        <time>2013-12-07T09:43:21.1Z</time>
      </trkpt>
      <trkpt lat="48.4841" lon="-2.76785">
        <ele>12</ele>
        <time>2013-12-07T09:43:23.1Z</time>
      </trkpt>
      <trkpt lat="48.48404" lon="-2.76785">
        <ele>13</ele>
        <time>2013-12-07T09:43:26.1Z</time>
      </trkpt>
      <trkpt lat="48.48401" lon="-2.76786">
        <ele>13</ele>
        <time>2013-12-07T09:43:28.1Z</time>
      </trkpt>
      <trkpt lat="48.48397" lon="-2.76786">
        <ele>13</ele>
        <time>2013-12-07T09:43:31.1Z</time>
      </trkpt>
      <trkpt lat="48.48393" lon="-2.76785">
        <ele>14</ele>
        <time>2013-12-07T09:43:34.1Z</time>
      </trkpt>
      <trkpt lat="48.4839" lon="-2.76786">
        <ele>14</ele>
        <time>2013-12-07T09:43:36.1Z</time>
      </trkpt>
      <trkpt lat="48.48388" lon="-2.76785">
        <ele>14</ele>
        <time>2013-12-07T09:43:38.1Z</time>
      </trkpt>
      <trkpt lat="48.48386" lon="-2.76783">
        <ele>14</ele>
        <time>2013-12-07T09:43:41.1Z</time>
      </trkpt>
      <trkpt lat="48.48385" lon="-2.76781">
        <ele>14</ele>
        <time>2013-12-07T09:43:44.1Z</time>
      </trkpt>
      <trkpt lat="48.48385" lon="-2.76781">
        <ele>14</ele>
        <time>2013-12-07T09:43:46.1Z</time>
      </trkpt>
      <trkpt lat="48.48385" lon="-2.76782">
        <ele>14</ele>
        <time>2013-12-07T09:43:49.1Z</time>
      </trkpt>
      <trkpt lat="48.48384" lon="-2.76781">
        <ele>14</ele>
        <time>2013-12-07T09:43:52.1Z</time>
      </trkpt>
      <trkpt lat="48.48383" lon="-2.7678">
        <ele>14</ele>
        <time>2013-12-07T09:43:55.1Z</time>
      </trkpt>
      <trkpt lat="48.48383" lon="-2.76779">
        <ele>14</ele>
        <time>2013-12-07T09:43:57.1Z</time>
      </trkpt>
      <trkpt lat="48.48382" lon="-2.76779">
        <ele>14</ele>
        <time>2013-12-07T09:44:00.1Z</time>
      </trkpt>
      <trkpt lat="48.48381" lon="-2.76781">
        <ele>14</ele>
        <time>2013-12-07T09:44:02.1Z</time>
      </trkpt>
      <trkpt lat="48.4838" lon="-2.76783">
        <ele>14</ele>
        <time>2013-12-07T09:44:04.1Z</time>
      </trkpt>
      <trkpt lat="48.48381" lon="-2.76786">
        <ele>14</ele>
        <time>2013-12-07T09:44:07.1Z</time>
      </trkpt>
      <trkpt lat="48.48381" lon="-2.76787">
        <ele>14</ele>
        <time>2013-12-07T09:44:09.1Z</time>
      </trkpt>
      <trkpt lat="48.48381" lon="-2.76787">
        <ele>14</ele>
        <time>2013-12-07T09:44:12.1Z</time>
      </trkpt>
      <trkpt lat="48.4838" lon="-2.76787">
        <ele>14</ele>
        <time>2013-12-07T09:44:16.1Z</time>
      </trkpt>
      <trkpt lat="48.4838" lon="-2.76786">
        <ele>14</ele>
        <time>2013-12-07T09:44:18.1Z</time>
      </trkpt>
      <trkpt lat="48.48379" lon="-2.76785">
        <ele>14</ele>
        <time>2013-12-07T09:44:20.1Z</time>
      </trkpt>
      <trkpt lat="48.48377" lon="-2.76784">
        <ele>14</ele>
        <time>2013-12-07T09:44:22.1Z</time>
      </trkpt>
      <trkpt lat="48.48378" lon="-2.76784">
        <ele>14</ele>
        <time>2013-12-07T09:44:24.1Z</time>
      </trkpt>
      <trkpt lat="48.48378" lon="-2.76784">
        <ele>14</ele>
        <time>2013-12-07T09:44:26.1Z</time>
      </trkpt>
      <trkpt lat="48.48378" lon="-2.76783">
        <ele>14</ele>
        <time>2013-12-07T09:44:29.1Z</time>
      </trkpt>
      <trkpt lat="48.48376" lon="-2.76783">
        <ele>14</ele>
        <time>2013-12-07T09:44:31.1Z</time>
      </trkpt>
      <trkpt lat="48.48374" lon="-2.76783">
        <ele>14</ele>
        <time>2013-12-07T09:44:34.1Z</time>
      </trkpt>
      <trkpt lat="48.48372" lon="-2.76783">
        <ele>14</ele>
        <time>2013-12-07T09:44:36.1Z</time>
      </trkpt>
      <trkpt lat="48.48371" lon="-2.76783">
        <ele>14</ele>
        <time>2013-12-07T09:44:38.1Z</time>
      </trkpt>
      <trkpt lat="48.48368" lon="-2.76783">
        <ele>14</ele>
        <time>2013-12-07T09:44:41.1Z</time>
      </trkpt>
      <trkpt lat="48.48365" lon="-2.76783">
        <ele>14</ele>
        <time>2013-12-07T09:44:44.1Z</time>
      </trkpt>
      <trkpt lat="48.48362" lon="-2.76783">
        <ele>15</ele>
        <time>2013-12-07T09:44:47.1Z</time>
      </trkpt>
      <trkpt lat="48.4836" lon="-2.76783">
        <ele>15</ele>
        <time>2013-12-07T09:44:49.1Z</time>
      </trkpt>
      <trkpt lat="48.48359" lon="-2.76782">
        <ele>15</ele>
        <time>2013-12-07T09:44:51.1Z</time>
      </trkpt>
      <trkpt lat="48.48355" lon="-2.76782">
        <ele>15</ele>
        <time>2013-12-07T09:44:54.1Z</time>
      </trkpt>
      <trkpt lat="48.48353" lon="-2.76782">
        <ele>15</ele>
        <time>2013-12-07T09:44:56.1Z</time>
      </trkpt>
      <trkpt lat="48.4835" lon="-2.76782">
        <ele>15</ele>
        <time>2013-12-07T09:44:59.1Z</time>
      </trkpt>
      <trkpt lat="48.48348" lon="-2.76783">
        <ele>16</ele>
        <time>2013-12-07T09:45:01.1Z</time>
      </trkpt>
      <trkpt lat="48.48345" lon="-2.76783">
        <ele>16</ele>
        <time>2013-12-07T09:45:04.1Z</time>
      </trkpt>
      <trkpt lat="48.48342" lon="-2.76782">
        <ele>16</ele>
        <time>2013-12-07T09:45:07.1Z</time>
      </trkpt>
      <trkpt lat="48.48339" lon="-2.7678">
        <ele>16</ele>
        <time>2013-12-07T09:45:10.1Z</time>
      </trkpt>
      <trkpt lat="48.48337" lon="-2.76779">
        <ele>16</ele>
        <time>2013-12-07T09:45:12.1Z</time>
      </trkpt>
      <trkpt lat="48.48336" lon="-2.76777">
        <ele>16</ele>
        <time>2013-12-07T09:45:14.1Z</time>
      </trkpt>
      <trkpt lat="48.48334" lon="-2.76775">
        <ele>16</ele>
        <time>2013-12-07T09:45:16.1Z</time>
      </trkpt>
      <trkpt lat="48.48332" lon="-2.76773">
        <ele>16</ele>
        <time>2013-12-07T09:45:18.1Z</time>
      </trkpt>
      <trkpt lat="48.4833" lon="-2.76771">
        <ele>16</ele>
        <time>2013-12-07T09:45:20.1Z</time>
      </trkpt>
      <trkpt lat="48.48328" lon="-2.76769">
        <ele>16</ele>
        <time>2013-12-07T09:45:23.1Z</time>
      </trkpt>
      <trkpt lat="48.48325" lon="-2.76765">
        <ele>16</ele>
        <time>2013-12-07T09:45:26.1Z</time>
      </trkpt>
      <trkpt lat="48.48322" lon="-2.76764">
        <ele>16</ele>
        <time>2013-12-07T09:45:29.1Z</time>
      </trkpt>
      <trkpt lat="48.4832" lon="-2.76763">
        <ele>16</ele>
        <time>2013-12-07T09:45:31.1Z</time>
      </trkpt>
      <trkpt lat="48.48318" lon="-2.76761">
        <ele>16</ele>
        <time>2013-12-07T09:45:34.1Z</time>
      </trkpt>
      <trkpt lat="48.48316" lon="-2.76759">
        <ele>15</ele>
        <time>2013-12-07T09:45:37.1Z</time>
      </trkpt>
      <trkpt lat="48.48313" lon="-2.76757">
        <ele>15</ele>
        <time>2013-12-07T09:45:40.1Z</time>
      </trkpt>
      <trkpt lat="48.48311" lon="-2.76756">
        <ele>16</ele>
        <time>2013-12-07T09:45:42.1Z</time>
      </trkpt>
      <trkpt lat="48.48308" lon="-2.76754">
        <ele>15</ele>
        <time>2013-12-07T09:45:45.1Z</time>
      </trkpt>
      <trkpt lat="48.48304" lon="-2.76752">
        <ele>16</ele>
        <time>2013-12-07T09:45:48.1Z</time>
      </trkpt>
      <trkpt lat="48.48301" lon="-2.76749">
        <ele>16</ele>
        <time>2013-12-07T09:45:51.1Z</time>
      </trkpt>
      <trkpt lat="48.48299" lon="-2.76748">
        <ele>16</ele>
        <time>2013-12-07T09:45:53.1Z</time>
      </trkpt>
      <trkpt lat="48.48296" lon="-2.76747">
        <ele>16</ele>
        <time>2013-12-07T09:45:56.1Z</time>
      </trkpt>
      <trkpt lat="48.48293" lon="-2.76745">
        <ele>15</ele>
        <time>2013-12-07T09:45:59.1Z</time>
      </trkpt>
      <trkpt lat="48.48291" lon="-2.76744">
        <ele>15</ele>
        <time>2013-12-07T09:46:01.1Z</time>
      </trkpt>
      <trkpt lat="48.48288" lon="-2.76742">
        <ele>15</ele>
        <time>2013-12-07T09:46:04.1Z</time>
      </trkpt>
      <trkpt lat="48.48286" lon="-2.76741">
        <ele>15</ele>
        <time>2013-12-07T09:46:06.1Z</time>
      </trkpt>
      <trkpt lat="48.48283" lon="-2.76738">
        <ele>15</ele>
        <time>2013-12-07T09:46:09.1Z</time>
      </trkpt>
      <trkpt lat="48.48279" lon="-2.76737">
        <ele>15</ele>
        <time>2013-12-07T09:46:12.1Z</time>
      </trkpt>
      <trkpt lat="48.48276" lon="-2.76735">
        <ele>15</ele>
        <time>2013-12-07T09:46:15.1Z</time>
      </trkpt>
      <trkpt lat="48.48273" lon="-2.76735">
        <ele>15</ele>
        <time>2013-12-07T09:46:17.1Z</time>
      </trkpt>
      <trkpt lat="48.48269" lon="-2.76734">
        <ele>15</ele>
        <time>2013-12-07T09:46:20.1Z</time>
      </trkpt>
      <trkpt lat="48.48267" lon="-2.76733">
        <ele>15</ele>
        <time>2013-12-07T09:46:22.1Z</time>
      </trkpt>
      <trkpt lat="48.48263" lon="-2.76731">
        <ele>15</ele>
        <time>2013-12-07T09:46:25.1Z</time>
      </trkpt>
      <trkpt lat="48.4826" lon="-2.7673">
        <ele>15</ele>
        <time>2013-12-07T09:46:28.1Z</time>
      </trkpt>
      <trkpt lat="48.48258" lon="-2.76729">
        <ele>15</ele>
        <time>2013-12-07T09:46:30.1Z</time>
      </trkpt>
      <trkpt lat="48.48254" lon="-2.76727">
        <ele>15</ele>
        <time>2013-12-07T09:46:33.1Z</time>
      </trkpt>
      <trkpt lat="48.48252" lon="-2.76726">
        <ele>15</ele>
        <time>2013-12-07T09:46:35.1Z</time>
      </trkpt>
      <trkpt lat="48.48251" lon="-2.76725">
        <ele>15</ele>
        <time>2013-12-07T09:46:37.1Z</time>
      </trkpt>
      <trkpt lat="48.48248" lon="-2.76724">
        <ele>15</ele>
        <time>2013-12-07T09:46:40.1Z</time>
      </trkpt>
      <trkpt lat="48.48248" lon="-2.76722">
        <ele>15</ele>
        <time>2013-12-07T09:46:43.1Z</time>
      </trkpt>
      <trkpt lat="48.48247" lon="-2.76722">
        <ele>15</ele>
        <time>2013-12-07T09:46:46.1Z</time>
      </trkpt>
      <trkpt lat="48.48246" lon="-2.76723">
        <ele>15</ele>
        <time>2013-12-07T09:46:48.1Z</time>
      </trkpt>
      <trkpt lat="48.48247" lon="-2.76724">
        <ele>15</ele>
        <time>2013-12-07T09:46:51.1Z</time>
      </trkpt>
      <trkpt lat="48.48247" lon="-2.76726">
        <ele>15</ele>
        <time>2013-12-07T09:46:54.1Z</time>
      </trkpt>
      <trkpt lat="48.48246" lon="-2.76727">
        <ele>15</ele>
        <time>2013-12-07T09:46:56.1Z</time>
      </trkpt>
      <trkpt lat="48.48245" lon="-2.76726">
        <ele>15</ele>
        <time>2013-12-07T09:46:59.1Z</time>
      </trkpt>
      <trkpt lat="48.48244" lon="-2.76727">
        <ele>15</ele>
        <time>2013-12-07T09:47:02.1Z</time>
      </trkpt>
      <trkpt lat="48.48244" lon="-2.76728">
        <ele>15</ele>
        <time>2013-12-07T09:47:04.1Z</time>
      </trkpt>
      <trkpt lat="48.48243" lon="-2.76728">
        <ele>15</ele>
        <time>2013-12-07T09:47:07.1Z</time>
      </trkpt>
      <trkpt lat="48.48243" lon="-2.76728">
        <ele>15</ele>
        <time>2013-12-07T09:47:09.1Z</time>
      </trkpt>
      <trkpt lat="48.48243" lon="-2.76729">
        <ele>15</ele>
        <time>2013-12-07T09:47:12.1Z</time>
      </trkpt>
      <trkpt lat="48.48242" lon="-2.76729">
        <ele>15</ele>
        <time>2013-12-07T09:47:14.1Z</time>
      </trkpt>
      <trkpt lat="48.48242" lon="-2.7673">
        <ele>15</ele>
        <time>2013-12-07T09:47:19.1Z</time>
      </trkpt>
      <trkpt lat="48.48243" lon="-2.7673">
        <ele>15</ele>
        <time>2013-12-07T09:47:22.1Z</time>
      </trkpt>
      <trkpt lat="48.48243" lon="-2.76731">
        <ele>15</ele>
        <time>2013-12-07T09:47:24.1Z</time>
      </trkpt>
      <trkpt lat="48.48242" lon="-2.76731">
        <ele>15</ele>
        <time>2013-12-07T09:47:27.1Z</time>
      </trkpt>
      <trkpt lat="48.48243" lon="-2.76731">
        <ele>15</ele>
        <time>2013-12-07T09:47:29.1Z</time>
      </trkpt>
      <trkpt lat="48.48243" lon="-2.76731">
        <ele>15</ele>
        <time>2013-12-07T09:47:32.1Z</time>
      </trkpt>
      <trkpt lat="48.48242" lon="-2.7673">
        <ele>15</ele>
        <time>2013-12-07T09:47:35.1Z</time>
      </trkpt>
      <trkpt lat="48.48243" lon="-2.7673">
        <ele>15</ele>
        <time>2013-12-07T09:47:37.1Z</time>
      </trkpt>
      <trkpt lat="48.48243" lon="-2.76729">
        <ele>15</ele>
        <time>2013-12-07T09:47:40.1Z</time>
      </trkpt>
      <trkpt lat="48.48242" lon="-2.76729">
        <ele>15</ele>
        <time>2013-12-07T09:47:42.1Z</time>
      </trkpt>
      <trkpt lat="48.48242" lon="-2.76728">
        <ele>15</ele>
        <time>2013-12-07T09:47:45.1Z</time>
      </trkpt>
      <trkpt lat="48.48242" lon="-2.76728">
        <ele>15</ele>
        <time>2013-12-07T09:47:47.1Z</time>
      </trkpt>
      <trkpt lat="48.48241" lon="-2.76728">
        <ele>15</ele>
        <time>2013-12-07T09:47:50.1Z</time>
      </trkpt>
      <trkpt lat="48.48241" lon="-2.76728">
        <ele>15</ele>
        <time>2013-12-07T09:47:52.1Z</time>
      </trkpt>
      <trkpt lat="48.48241" lon="-2.76727">
        <ele>15</ele>
        <time>2013-12-07T09:47:55.1Z</time>
      </trkpt>
      <trkpt lat="48.4824" lon="-2.76728">
        <ele>15</ele>
        <time>2013-12-07T09:47:57.1Z</time>
      </trkpt>
      <trkpt lat="48.4824" lon="-2.76729">
        <ele>15</ele>
        <time>2013-12-07T09:48:00.1Z</time>
      </trkpt>
      <trkpt lat="48.48241" lon="-2.7673">
        <ele>15</ele>
        <time>2013-12-07T09:48:03.1Z</time>
      </trkpt>
      <trkpt lat="48.48242" lon="-2.7673">
        <ele>15</ele>
        <time>2013-12-07T09:48:06.1Z</time>
      </trkpt>
      <trkpt lat="48.48243" lon="-2.76729">
        <ele>15</ele>
        <time>2013-12-07T09:48:09.1Z</time>
      </trkpt>
      <trkpt lat="48.48243" lon="-2.76729">
        <ele>15</ele>
        <time>2013-12-07T09:48:12.1Z</time>
      </trkpt>
      <trkpt lat="48.48243" lon="-2.76729">
        <ele>15</ele>
        <time>2013-12-07T09:48:15.1Z</time>
      </trkpt>
      <trkpt lat="48.48243" lon="-2.7673">
        <ele>15</ele>
        <time>2013-12-07T09:48:18.1Z</time>
      </trkpt>
      <trkpt lat="48.48243" lon="-2.7673">
        <ele>14</ele>
        <time>2013-12-07T09:48:21.1Z</time>
      </trkpt>
      <trkpt lat="48.48243" lon="-2.76729">
        <ele>15</ele>
        <time>2013-12-07T09:48:24.1Z</time>
      </trkpt>
      <trkpt lat="48.48243" lon="-2.76729">
        <ele>15</ele>
        <time>2013-12-07T09:48:27.1Z</time>
      </trkpt>
      <trkpt lat="48.48242" lon="-2.7673">
        <ele>15</ele>
        <time>2013-12-07T09:48:30.1Z</time>
      </trkpt>
      <trkpt lat="48.48242" lon="-2.76731">
        <ele>15</ele>
        <time>2013-12-07T09:48:33.1Z</time>
      </trkpt>
      <trkpt lat="48.48241" lon="-2.76731">
        <ele>15</ele>
        <time>2013-12-07T09:48:36.1Z</time>
      </trkpt>
      <trkpt lat="48.48241" lon="-2.76732">
        <ele>15</ele>
        <time>2013-12-07T09:48:38.1Z</time>
      </trkpt>
      <trkpt lat="48.48241" lon="-2.76732">
        <ele>15</ele>
        <time>2013-12-07T09:48:41.1Z</time>
      </trkpt>
      <trkpt lat="48.48241" lon="-2.76732">
        <ele>15</ele>
        <time>2013-12-07T09:48:43.1Z</time>
      </trkpt>
      <trkpt lat="48.48242" lon="-2.76731">
        <ele>15</ele>
        <time>2013-12-07T09:48:46.1Z</time>
      </trkpt>
      <trkpt lat="48.48243" lon="-2.76731">
        <ele>15</ele>
        <time>2013-12-07T09:48:49.1Z</time>
      </trkpt>
      <trkpt lat="48.48242" lon="-2.76731">
        <ele>15</ele>
        <time>2013-12-07T09:48:53.1Z</time>
      </trkpt>
      <trkpt lat="48.48242" lon="-2.76731">
        <ele>15</ele>
        <time>2013-12-07T09:48:55.1Z</time>
      </trkpt>
      <trkpt lat="48.48242" lon="-2.76731">
        <ele>15</ele>
        <time>2013-12-07T09:48:58.1Z</time>
      </trkpt>
      <trkpt lat="48.48242" lon="-2.76731">
        <ele>15</ele>
        <time>2013-12-07T09:49:00.1Z</time>
      </trkpt>
      <trkpt lat="48.48242" lon="-2.7673">
        <ele>15</ele>
        <time>2013-12-07T09:49:02.1Z</time>
      </trkpt>
      <trkpt lat="48.48241" lon="-2.7673">
        <ele>15</ele>
        <time>2013-12-07T09:49:05.1Z</time>
      </trkpt>
      <trkpt lat="48.48241" lon="-2.7673">
        <ele>15</ele>
        <time>2013-12-07T09:49:08.1Z</time>
      </trkpt>
      <trkpt lat="48.48241" lon="-2.76729">
        <ele>15</ele>
        <time>2013-12-07T09:49:10.1Z</time>
      </trkpt>
      <trkpt lat="48.4824" lon="-2.76729">
        <ele>15</ele>
        <time>2013-12-07T09:49:13.1Z</time>
      </trkpt>
      <trkpt lat="48.4824" lon="-2.76729">
        <ele>15</ele>
        <time>2013-12-07T09:49:16.1Z</time>
      </trkpt>
      <trkpt lat="48.4824" lon="-2.76729">
        <ele>15</ele>
        <time>2013-12-07T09:49:18.1Z</time>
      </trkpt>
      <trkpt lat="48.4824" lon="-2.76729">
        <ele>15</ele>
        <time>2013-12-07T09:49:21.1Z</time>
      </trkpt>
      <trkpt lat="48.4824" lon="-2.76729">
        <ele>15</ele>
        <time>2013-12-07T09:49:24.1Z</time>
      </trkpt>
      <trkpt lat="48.4824" lon="-2.76729">
        <ele>15</ele>
        <time>2013-12-07T09:49:28.1Z</time>
      </trkpt>
      <trkpt lat="48.4824" lon="-2.7673">
        <ele>15</ele>
        <time>2013-12-07T09:49:30.1Z</time>
      </trkpt>
      <trkpt lat="48.4824" lon="-2.76729">
        <ele>14</ele>
        <time>2013-12-07T09:49:33.1Z</time>
      </trkpt>
      <trkpt lat="48.4824" lon="-2.7673">
        <ele>15</ele>
        <time>2013-12-07T09:49:36.1Z</time>
      </trkpt>
      <trkpt lat="48.48239" lon="-2.76729">
        <ele>15</ele>
        <time>2013-12-07T09:49:40.1Z</time>
      </trkpt>
      <trkpt lat="48.48238" lon="-2.76729">
        <ele>15</ele>
        <time>2013-12-07T09:49:43.1Z</time>
      </trkpt>
      <trkpt lat="48.48238" lon="-2.76729">
        <ele>15</ele>
        <time>2013-12-07T09:49:46.1Z</time>
      </trkpt>
      <trkpt lat="48.48238" lon="-2.76729">
        <ele>15</ele>
        <time>2013-12-07T09:49:48.1Z</time>
      </trkpt>
      <trkpt lat="48.48238" lon="-2.7673">
        <ele>15</ele>
        <time>2013-12-07T09:49:51.1Z</time>
      </trkpt>
      <trkpt lat="48.48238" lon="-2.7673">
        <ele>15</ele>
        <time>2013-12-07T09:49:53.1Z</time>
      </trkpt>
      <trkpt lat="48.48238" lon="-2.76729">
        <ele>15</ele>
        <time>2013-12-07T09:49:57.1Z</time>
      </trkpt>
      <trkpt lat="48.48238" lon="-2.76729">
        <ele>15</ele>
        <time>2013-12-07T09:50:01.1Z</time>
      </trkpt>
      <trkpt lat="48.48238" lon="-2.76729">
        <ele>15</ele>
        <time>2013-12-07T09:50:03.1Z</time>
      </trkpt>
      <trkpt lat="48.48238" lon="-2.76729">
        <ele>15</ele>
        <time>2013-12-07T09:50:06.1Z</time>
      </trkpt>
      <trkpt lat="48.48238" lon="-2.76729">
        <ele>15</ele>
        <time>2013-12-07T09:50:09.1Z</time>
      </trkpt>
      <trkpt lat="48.48238" lon="-2.76729">
        <ele>15</ele>
        <time>2013-12-07T09:50:11.1Z</time>
      </trkpt>
      <trkpt lat="48.48238" lon="-2.76729">
        <ele>15</ele>
        <time>2013-12-07T09:50:14.1Z</time>
      </trkpt>
      <trkpt lat="48.48238" lon="-2.76729">
        <ele>15</ele>
        <time>2013-12-07T09:50:16.1Z</time>
      </trkpt>
      <trkpt lat="48.48238" lon="-2.76729">
        <ele>15</ele>
        <time>2013-12-07T09:50:19.1Z</time>
      </trkpt>
      <trkpt lat="48.48238" lon="-2.76728">
        <ele>15</ele>
        <time>2013-12-07T09:50:22.1Z</time>
      </trkpt>
      <trkpt lat="48.48238" lon="-2.76728">
        <ele>15</ele>
        <time>2013-12-07T09:50:24.1Z</time>
      </trkpt>
      <trkpt lat="48.48238" lon="-2.76728">
        <ele>14</ele>
        <time>2013-12-07T09:50:26.1Z</time>
      </trkpt>
      <trkpt lat="48.48238" lon="-2.76727">
        <ele>14</ele>
        <time>2013-12-07T09:50:29.1Z</time>
      </trkpt>
      <trkpt lat="48.48238" lon="-2.76727">
        <ele>14</ele>
        <time>2013-12-07T09:50:31.1Z</time>
      </trkpt>
      <trkpt lat="48.48238" lon="-2.76725">
        <ele>15</ele>
        <time>2013-12-07T09:50:34.1Z</time>
      </trkpt>
      <trkpt lat="48.48238" lon="-2.76725">
        <ele>15</ele>
        <time>2013-12-07T09:50:36.1Z</time>
      </trkpt>
      <trkpt lat="48.48238" lon="-2.76725">
        <ele>15</ele>
        <time>2013-12-07T09:50:39.1Z</time>
      </trkpt>
      <trkpt lat="48.48236" lon="-2.76726">
        <ele>15</ele>
        <time>2013-12-07T09:50:42.1Z</time>
      </trkpt>
      <trkpt lat="48.48236" lon="-2.76726">
        <ele>15</ele>
        <time>2013-12-07T09:50:44.1Z</time>
      </trkpt>
      <trkpt lat="48.48236" lon="-2.76725">
        <ele>15</ele>
        <time>2013-12-07T09:50:47.1Z</time>
      </trkpt>
      <trkpt lat="48.48236" lon="-2.76725">
        <ele>15</ele>
        <time>2013-12-07T09:50:50.1Z</time>
      </trkpt>
      <trkpt lat="48.48234" lon="-2.76726">
        <ele>15</ele>
        <time>2013-12-07T09:50:52.1Z</time>
      </trkpt>
      <trkpt lat="48.48234" lon="-2.76725">
        <ele>15</ele>
        <time>2013-12-07T09:50:54.1Z</time>
      </trkpt>
      <trkpt lat="48.48231" lon="-2.76724">
        <ele>15</ele>
        <time>2013-12-07T09:50:57.1Z</time>
      </trkpt>
      <trkpt lat="48.4823" lon="-2.76724">
        <ele>16</ele>
        <time>2013-12-07T09:50:59.1Z</time>
      </trkpt>
      <trkpt lat="48.48228" lon="-2.76724">
        <ele>15</ele>
        <time>2013-12-07T09:51:02.1Z</time>
      </trkpt>
      <trkpt lat="48.48226" lon="-2.76724">
        <ele>15</ele>
        <time>2013-12-07T09:51:04.1Z</time>
      </trkpt>
      <trkpt lat="48.48224" lon="-2.76723">
        <ele>15</ele>
        <time>2013-12-07T09:51:07.1Z</time>
      </trkpt>
      <trkpt lat="48.48222" lon="-2.76721">
        <ele>15</ele>
        <time>2013-12-07T09:51:10.1Z</time>
      </trkpt>
      <trkpt lat="48.4822" lon="-2.76721">
        <ele>15</ele>
        <time>2013-12-07T09:51:12.1Z</time>
      </trkpt>
      <trkpt lat="48.48217" lon="-2.7672">
        <ele>16</ele>
        <time>2013-12-07T09:51:15.1Z</time>
      </trkpt>
      <trkpt lat="48.48216" lon="-2.76721">
        <ele>16</ele>
        <time>2013-12-07T09:51:17.1Z</time>
      </trkpt>
      <trkpt lat="48.48213" lon="-2.76722">
        <ele>15</ele>
        <time>2013-12-07T09:51:20.1Z</time>
      </trkpt>
      <trkpt lat="48.48211" lon="-2.76721">
        <ele>15</ele>
        <time>2013-12-07T09:51:23.1Z</time>
      </trkpt>
      <trkpt lat="48.4821" lon="-2.76721">
        <ele>15</ele>
        <time>2013-12-07T09:51:26.1Z</time>
      </trkpt>
      <trkpt lat="48.48208" lon="-2.76723">
        <ele>16</ele>
        <time>2013-12-07T09:51:28.1Z</time>
      </trkpt>
      <trkpt lat="48.48206" lon="-2.76724">
        <ele>16</ele>
        <time>2013-12-07T09:51:30.1Z</time>
      </trkpt>
      <trkpt lat="48.48204" lon="-2.76727">
        <ele>16</ele>
        <time>2013-12-07T09:51:33.1Z</time>
      </trkpt>
      <trkpt lat="48.48202" lon="-2.76731">
        <ele>16</ele>
        <time>2013-12-07T09:51:36.1Z</time>
      </trkpt>
      <trkpt lat="48.482" lon="-2.76737">
        <ele>15</ele>
        <time>2013-12-07T09:51:39.1Z</time>
      </trkpt>
      <trkpt lat="48.48199" lon="-2.7674">
        <ele>14</ele>
        <time>2013-12-07T09:51:41.1Z</time>
      </trkpt>
      <trkpt lat="48.48197" lon="-2.76745">
        <ele>14</ele>
        <time>2013-12-07T09:51:44.1Z</time>
      </trkpt>
      <trkpt lat="48.48195" lon="-2.76748">
        <ele>15</ele>
        <time>2013-12-07T09:51:46.1Z</time>
      </trkpt>
      <trkpt lat="48.48194" lon="-2.76751">
        <ele>15</ele>
        <time>2013-12-07T09:51:48.1Z</time>
      </trkpt>
      <trkpt lat="48.48192" lon="-2.76756">
        <ele>15</ele>
        <time>2013-12-07T09:51:51.1Z</time>
      </trkpt>
      <trkpt lat="48.4819" lon="-2.7676">
        <ele>14</ele>
        <time>2013-12-07T09:51:54.1Z</time>
      </trkpt>
      <trkpt lat="48.48188" lon="-2.76766">
        <ele>14</ele>
        <time>2013-12-07T09:51:57.1Z</time>
      </trkpt>
      <trkpt lat="48.48187" lon="-2.7677">
        <ele>14</ele>
        <time>2013-12-07T09:51:59.1Z</time>
      </trkpt>
      <trkpt lat="48.48186" lon="-2.76774">
        <ele>14</ele>
        <time>2013-12-07T09:52:02.1Z</time>
      </trkpt>
      <trkpt lat="48.48186" lon="-2.76778">
        <ele>14</ele>
        <time>2013-12-07T09:52:04.1Z</time>
      </trkpt>
      <trkpt lat="48.48186" lon="-2.76783">
        <ele>14</ele>
        <time>2013-12-07T09:52:07.1Z</time>
      </trkpt>
      <trkpt lat="48.48185" lon="-2.76786">
        <ele>14</ele>
        <time>2013-12-07T09:52:09.1Z</time>
      </trkpt>
      <trkpt lat="48.48186" lon="-2.76792">
        <ele>14</ele>
        <time>2013-12-07T09:52:12.1Z</time>
      </trkpt>
      <trkpt lat="48.48186" lon="-2.76795">
        <ele>14</ele>
        <time>2013-12-07T09:52:14.1Z</time>
      </trkpt>
      <trkpt lat="48.48187" lon="-2.76799">
        <ele>14</ele>
        <time>2013-12-07T09:52:17.1Z</time>
      </trkpt>
      <trkpt lat="48.48187" lon="-2.76804">
        <ele>14</ele>
        <time>2013-12-07T09:52:20.1Z</time>
      </trkpt>
      <trkpt lat="48.48187" lon="-2.76808">
        <ele>13</ele>
        <time>2013-12-07T09:52:23.1Z</time>
      </trkpt>
      <trkpt lat="48.48187" lon="-2.76812">
        <ele>13</ele>
        <time>2013-12-07T09:52:26.1Z</time>
      </trkpt>
      <trkpt lat="48.48187" lon="-2.76815">
        <ele>13</ele>
        <time>2013-12-07T09:52:28.1Z</time>
      </trkpt>
      <trkpt lat="48.48188" lon="-2.7682">
        <ele>13</ele>
        <time>2013-12-07T09:52:31.1Z</time>
      </trkpt>
      <trkpt lat="48.48189" lon="-2.76826">
        <ele>13</ele>
        <time>2013-12-07T09:52:34.1Z</time>
      </trkpt>
      <trkpt lat="48.4819" lon="-2.76829">
        <ele>13</ele>
        <time>2013-12-07T09:52:36.1Z</time>
      </trkpt>
      <trkpt lat="48.48192" lon="-2.76834">
        <ele>13</ele>
        <time>2013-12-07T09:52:39.1Z</time>
      </trkpt>
      <trkpt lat="48.48193" lon="-2.76839">
        <ele>13</ele>
        <time>2013-12-07T09:52:42.1Z</time>
      </trkpt>
      <trkpt lat="48.48195" lon="-2.76843">
        <ele>13</ele>
        <time>2013-12-07T09:52:44.1Z</time>
      </trkpt>
      <trkpt lat="48.48196" lon="-2.76849">
        <ele>13</ele>
        <time>2013-12-07T09:52:47.1Z</time>
      </trkpt>
      <trkpt lat="48.48197" lon="-2.76853">
        <ele>13</ele>
        <time>2013-12-07T09:52:50.1Z</time>
      </trkpt>
      <trkpt lat="48.48198" lon="-2.76857">
        <ele>13</ele>
        <time>2013-12-07T09:52:52.1Z</time>
      </trkpt>
      <trkpt lat="48.48199" lon="-2.76862">
        <ele>13</ele>
        <time>2013-12-07T09:52:55.1Z</time>
      </trkpt>
      <trkpt lat="48.482" lon="-2.76865">
        <ele>14</ele>
        <time>2013-12-07T09:52:57.1Z</time>
      </trkpt>
      <trkpt lat="48.48201" lon="-2.76869">
        <ele>13</ele>
        <time>2013-12-07T09:53:00.1Z</time>
      </trkpt>
      <trkpt lat="48.48202" lon="-2.76872">
        <ele>13</ele>
        <time>2013-12-07T09:53:02.1Z</time>
      </trkpt>
      <trkpt lat="48.48203" lon="-2.76876">
        <ele>13</ele>
        <time>2013-12-07T09:53:04.1Z</time>
      </trkpt>
      <trkpt lat="48.48203" lon="-2.76882">
        <ele>12</ele>
        <time>2013-12-07T09:53:07.1Z</time>
      </trkpt>
      <trkpt lat="48.48204" lon="-2.76887">
        <ele>13</ele>
        <time>2013-12-07T09:53:10.1Z</time>
      </trkpt>
      <trkpt lat="48.48204" lon="-2.7689">
        <ele>12</ele>
        <time>2013-12-07T09:53:12.1Z</time>
      </trkpt>
      <trkpt lat="48.48206" lon="-2.76895">
        <ele>12</ele>
        <time>2013-12-07T09:53:15.1Z</time>
      </trkpt>
      <trkpt lat="48.48206" lon="-2.769">
        <ele>12</ele>
        <time>2013-12-07T09:53:18.1Z</time>
      </trkpt>
      <trkpt lat="48.48207" lon="-2.76906">
        <ele>13</ele>
        <time>2013-12-07T09:53:21.1Z</time>
      </trkpt>
      <trkpt lat="48.48208" lon="-2.76911">
        <ele>13</ele>
        <time>2013-12-07T09:53:24.1Z</time>
      </trkpt>
      <trkpt lat="48.48208" lon="-2.76916">
        <ele>12</ele>
        <time>2013-12-07T09:53:27.1Z</time>
      </trkpt>
      <trkpt lat="48.48208" lon="-2.76919">
        <ele>12</ele>
        <time>2013-12-07T09:53:29.1Z</time>
      </trkpt>
      <trkpt lat="48.48209" lon="-2.76923">
        <ele>12</ele>
        <time>2013-12-07T09:53:31.1Z</time>
      </trkpt>
      <trkpt lat="48.48209" lon="-2.76927">
        <ele>12</ele>
        <time>2013-12-07T09:53:33.1Z</time>
      </trkpt>
      <trkpt lat="48.48209" lon="-2.76933">
        <ele>12</ele>
        <time>2013-12-07T09:53:36.1Z</time>
      </trkpt>
      <trkpt lat="48.4821" lon="-2.76938">
        <ele>12</ele>
        <time>2013-12-07T09:53:39.1Z</time>
      </trkpt>
      <trkpt lat="48.48211" lon="-2.76941">
        <ele>12</ele>
        <time>2013-12-07T09:53:41.1Z</time>
      </trkpt>
      <trkpt lat="48.48212" lon="-2.76947">
        <ele>11</ele>
        <time>2013-12-07T09:53:44.1Z</time>
      </trkpt>
      <trkpt lat="48.48212" lon="-2.76951">
        <ele>11</ele>
        <time>2013-12-07T09:53:46.1Z</time>
      </trkpt>
      <trkpt lat="48.48213" lon="-2.76954">
        <ele>11</ele>
        <time>2013-12-07T09:53:48.1Z</time>
      </trkpt>
      <trkpt lat="48.48214" lon="-2.76958">
        <ele>10</ele>
        <time>2013-12-07T09:53:50.1Z</time>
      </trkpt>
      <trkpt lat="48.48215" lon="-2.76964">
        <ele>10</ele>
        <time>2013-12-07T09:53:53.1Z</time>
      </trkpt>
      <trkpt lat="48.48216" lon="-2.76968">
        <ele>10</ele>
        <time>2013-12-07T09:53:55.1Z</time>
      </trkpt>
      <trkpt lat="48.48217" lon="-2.76973">
        <ele>10</ele>
        <time>2013-12-07T09:53:58.1Z</time>
      </trkpt>
      <trkpt lat="48.48218" lon="-2.76976">
        <ele>10</ele>
        <time>2013-12-07T09:54:00.1Z</time>
      </trkpt>
      <trkpt lat="48.48219" lon="-2.7698">
        <ele>10</ele>
        <time>2013-12-07T09:54:02.1Z</time>
      </trkpt>
      <trkpt lat="48.48221" lon="-2.76985">
        <ele>10</ele>
        <time>2013-12-07T09:54:05.1Z</time>
      </trkpt>
      <trkpt lat="48.48222" lon="-2.76991">
        <ele>9</ele>
        <time>2013-12-07T09:54:08.1Z</time>
      </trkpt>
      <trkpt lat="48.48224" lon="-2.76993">
        <ele>9</ele>
        <time>2013-12-07T09:54:10.1Z</time>
      </trkpt>
      <trkpt lat="48.48225" lon="-2.76996">
        <ele>9</ele>
        <time>2013-12-07T09:54:12.1Z</time>
      </trkpt>
      <trkpt lat="48.48227" lon="-2.77">
        <ele>9</ele>
        <time>2013-12-07T09:54:15.1Z</time>
      </trkpt>
      <trkpt lat="48.4823" lon="-2.77004">
        <ele>9</ele>
        <time>2013-12-07T09:54:18.1Z</time>
      </trkpt>
      <trkpt lat="48.48232" lon="-2.77006">
        <ele>9</ele>
        <time>2013-12-07T09:54:20.1Z</time>
      </trkpt>
      <trkpt lat="48.48235" lon="-2.77009">
        <ele>8</ele>
        <time>2013-12-07T09:54:23.1Z</time>
      </trkpt>
      <trkpt lat="48.48236" lon="-2.77011">
        <ele>8</ele>
        <time>2013-12-07T09:54:25.1Z</time>
      </trkpt>
      <trkpt lat="48.48239" lon="-2.77013">
        <ele>8</ele>
        <time>2013-12-07T09:54:28.1Z</time>
      </trkpt>
      <trkpt lat="48.48241" lon="-2.77016">
        <ele>8</ele>
        <time>2013-12-07T09:54:31.1Z</time>
      </trkpt>
      <trkpt lat="48.48243" lon="-2.77018">
        <ele>8</ele>
        <time>2013-12-07T09:54:33.1Z</time>
      </trkpt>
      <trkpt lat="48.48246" lon="-2.77021">
        <ele>8</ele>
        <time>2013-12-07T09:54:36.1Z</time>
      </trkpt>
      <trkpt lat="48.48247" lon="-2.77023">
        <ele>8</ele>
        <time>2013-12-07T09:54:38.1Z</time>
      </trkpt>
      <trkpt lat="48.4825" lon="-2.77025">
        <ele>8</ele>
        <time>2013-12-07T09:54:41.1Z</time>
      </trkpt>
      <trkpt lat="48.48252" lon="-2.77028">
        <ele>8</ele>
        <time>2013-12-07T09:54:44.1Z</time>
      </trkpt>
      <trkpt lat="48.48253" lon="-2.77031">
        <ele>8</ele>
        <time>2013-12-07T09:54:46.1Z</time>
      </trkpt>
      <trkpt lat="48.48255" lon="-2.77033">
        <ele>8</ele>
        <time>2013-12-07T09:54:48.1Z</time>
      </trkpt>
      <trkpt lat="48.48257" lon="-2.77037">
        <ele>8</ele>
        <time>2013-12-07T09:54:51.1Z</time>
      </trkpt>
      <trkpt lat="48.48259" lon="-2.7704">
        <ele>7</ele>
        <time>2013-12-07T09:54:53.1Z</time>
      </trkpt>
      <trkpt lat="48.48261" lon="-2.77042">
        <ele>7</ele>
        <time>2013-12-07T09:54:55.1Z</time>
      </trkpt>
      <trkpt lat="48.48264" lon="-2.77046">
        <ele>7</ele>
        <time>2013-12-07T09:54:58.1Z</time>
      </trkpt>
      <trkpt lat="48.48265" lon="-2.7705">
        <ele>8</ele>
        <time>2013-12-07T09:55:01.1Z</time>
      </trkpt>
      <trkpt lat="48.48267" lon="-2.77053">
        <ele>8</ele>
        <time>2013-12-07T09:55:03.1Z</time>
      </trkpt>
      <trkpt lat="48.48269" lon="-2.77059">
        <ele>8</ele>
        <time>2013-12-07T09:55:06.1Z</time>
      </trkpt>
      <trkpt lat="48.48271" lon="-2.77062">
        <ele>8</ele>
        <time>2013-12-07T09:55:09.1Z</time>
      </trkpt>
      <trkpt lat="48.48273" lon="-2.77066">
        <ele>8</ele>
        <time>2013-12-07T09:55:12.1Z</time>
      </trkpt>
      <trkpt lat="48.48273" lon="-2.7707">
        <ele>8</ele>
        <time>2013-12-07T09:55:15.1Z</time>
      </trkpt>
      <trkpt lat="48.48273" lon="-2.77075">
        <ele>8</ele>
        <time>2013-12-07T09:55:18.1Z</time>
      </trkpt>
      <trkpt lat="48.48274" lon="-2.7708">
        <ele>8</ele>
        <time>2013-12-07T09:55:21.1Z</time>
      </trkpt>
      <trkpt lat="48.48274" lon="-2.77085">
        <ele>8</ele>
        <time>2013-12-07T09:55:24.1Z</time>
      </trkpt>
      <trkpt lat="48.48274" lon="-2.77088">
        <ele>8</ele>
        <time>2013-12-07T09:55:26.1Z</time>
      </trkpt>
      <trkpt lat="48.48274" lon="-2.77091">
        <ele>8</ele>
        <time>2013-12-07T09:55:28.1Z</time>
      </trkpt>
      <trkpt lat="48.48273" lon="-2.77096">
        <ele>9</ele>
        <time>2013-12-07T09:55:31.1Z</time>
      </trkpt>
      <trkpt lat="48.48272" lon="-2.77101">
        <ele>9</ele>
        <time>2013-12-07T09:55:34.1Z</time>
      </trkpt>
      <trkpt lat="48.48272" lon="-2.77104">
        <ele>9</ele>
        <time>2013-12-07T09:55:36.1Z</time>
      </trkpt>
      <trkpt lat="48.48272" lon="-2.77108">
        <ele>9</ele>
        <time>2013-12-07T09:55:38.1Z</time>
      </trkpt>
      <trkpt lat="48.48272" lon="-2.77113">
        <ele>9</ele>
        <time>2013-12-07T09:55:41.1Z</time>
      </trkpt>
      <trkpt lat="48.48272" lon="-2.77118">
        <ele>9</ele>
        <time>2013-12-07T09:55:44.1Z</time>
      </trkpt>
      <trkpt lat="48.48272" lon="-2.77122">
        <ele>9</ele>
        <time>2013-12-07T09:55:46.1Z</time>
      </trkpt>
      <trkpt lat="48.48271" lon="-2.77125">
        <ele>9</ele>
        <time>2013-12-07T09:55:48.1Z</time>
      </trkpt>
      <trkpt lat="48.4827" lon="-2.77132">
        <ele>9</ele>
        <time>2013-12-07T09:55:51.1Z</time>
      </trkpt>
      <trkpt lat="48.4827" lon="-2.77134">
        <ele>9</ele>
        <time>2013-12-07T09:55:53.1Z</time>
      </trkpt>
      <trkpt lat="48.4827" lon="-2.77139">
        <ele>9</ele>
        <time>2013-12-07T09:55:56.1Z</time>
      </trkpt>
      <trkpt lat="48.48269" lon="-2.77142">
        <ele>9</ele>
        <time>2013-12-07T09:55:58.1Z</time>
      </trkpt>
      <trkpt lat="48.48269" lon="-2.77146">
        <ele>8</ele>
        <time>2013-12-07T09:56:00.1Z</time>
      </trkpt>
      <trkpt lat="48.48269" lon="-2.77151">
        <ele>9</ele>
        <time>2013-12-07T09:56:03.1Z</time>
      </trkpt>
      <trkpt lat="48.48268" lon="-2.77154">
        <ele>9</ele>
        <time>2013-12-07T09:56:05.1Z</time>
      </trkpt>
      <trkpt lat="48.48268" lon="-2.77159">
        <ele>9</ele>
        <time>2013-12-07T09:56:08.1Z</time>
      </trkpt>
      <trkpt lat="48.48267" lon="-2.77164">
        <ele>9</ele>
        <time>2013-12-07T09:56:11.1Z</time>
      </trkpt>
      <trkpt lat="48.48267" lon="-2.77167">
        <ele>9</ele>
        <time>2013-12-07T09:56:13.1Z</time>
      </trkpt>
      <trkpt lat="48.48267" lon="-2.7717">
        <ele>9</ele>
        <time>2013-12-07T09:56:15.1Z</time>
      </trkpt>
      <trkpt lat="48.48266" lon="-2.77174">
        <ele>8</ele>
        <time>2013-12-07T09:56:17.1Z</time>
      </trkpt>
      <trkpt lat="48.48264" lon="-2.77179">
        <ele>8</ele>
        <time>2013-12-07T09:56:20.1Z</time>
      </trkpt>
      <trkpt lat="48.48263" lon="-2.77184">
        <ele>8</ele>
        <time>2013-12-07T09:56:23.1Z</time>
      </trkpt>
      <trkpt lat="48.48262" lon="-2.77187">
        <ele>8</ele>
        <time>2013-12-07T09:56:25.1Z</time>
      </trkpt>
      <trkpt lat="48.48261" lon="-2.77193">
        <ele>9</ele>
        <time>2013-12-07T09:56:28.1Z</time>
      </trkpt>
      <trkpt lat="48.4826" lon="-2.77197">
        <ele>9</ele>
        <time>2013-12-07T09:56:30.1Z</time>
      </trkpt>
      <trkpt lat="48.48259" lon="-2.772">
        <ele>9</ele>
        <time>2013-12-07T09:56:32.1Z</time>
      </trkpt>
      <trkpt lat="48.48257" lon="-2.77205">
        <ele>9</ele>
        <time>2013-12-07T09:56:35.1Z</time>
      </trkpt>
      <trkpt lat="48.48255" lon="-2.7721">
        <ele>9</ele>
        <time>2013-12-07T09:56:38.1Z</time>
      </trkpt>
      <trkpt lat="48.48254" lon="-2.77215">
        <ele>8</ele>
        <time>2013-12-07T09:56:41.1Z</time>
      </trkpt>
      <trkpt lat="48.48252" lon="-2.77218">
        <ele>8</ele>
        <time>2013-12-07T09:56:43.1Z</time>
      </trkpt>
      <trkpt lat="48.4825" lon="-2.77221">
        <ele>8</ele>
        <time>2013-12-07T09:56:46.1Z</time>
      </trkpt>
      <trkpt lat="48.48249" lon="-2.77222">
        <ele>8</ele>
        <time>2013-12-07T09:56:48.1Z</time>
      </trkpt>
      <trkpt lat="48.48248" lon="-2.77224">
        <ele>8</ele>
        <time>2013-12-07T09:56:51.1Z</time>
      </trkpt>
      <trkpt lat="48.48247" lon="-2.77225">
        <ele>8</ele>
        <time>2013-12-07T09:56:53.1Z</time>
      </trkpt>
      <trkpt lat="48.48247" lon="-2.77225">
        <ele>8</ele>
        <time>2013-12-07T09:56:55.1Z</time>
      </trkpt>
      <trkpt lat="48.48246" lon="-2.77226">
        <ele>8</ele>
        <time>2013-12-07T09:56:58.1Z</time>
      </trkpt>
      <trkpt lat="48.48247" lon="-2.77226">
        <ele>8</ele>
        <time>2013-12-07T09:57:00.1Z</time>
      </trkpt>
      <trkpt lat="48.48246" lon="-2.77227">
        <ele>8</ele>
        <time>2013-12-07T09:57:02.1Z</time>
      </trkpt>
      <trkpt lat="48.48246" lon="-2.77228">
        <ele>8</ele>
        <time>2013-12-07T09:57:05.1Z</time>
      </trkpt>
      <trkpt lat="48.48245" lon="-2.7723">
        <ele>9</ele>
        <time>2013-12-07T09:57:07.1Z</time>
      </trkpt>
      <trkpt lat="48.48244" lon="-2.77231">
        <ele>9</ele>
        <time>2013-12-07T09:57:10.1Z</time>
      </trkpt>
      <trkpt lat="48.48244" lon="-2.7723">
        <ele>9</ele>
        <time>2013-12-07T09:57:13.1Z</time>
      </trkpt>
      <trkpt lat="48.48241" lon="-2.77232">
        <ele>9</ele>
        <time>2013-12-07T09:57:16.1Z</time>
      </trkpt>
      <trkpt lat="48.4824" lon="-2.77234">
        <ele>9</ele>
        <time>2013-12-07T09:57:18.1Z</time>
      </trkpt>
      <trkpt lat="48.48237" lon="-2.77236">
        <ele>9</ele>
        <time>2013-12-07T09:57:21.1Z</time>
      </trkpt>
      <trkpt lat="48.48235" lon="-2.77236">
        <ele>9</ele>
        <time>2013-12-07T09:57:24.1Z</time>
      </trkpt>
      <trkpt lat="48.48232" lon="-2.77236">
        <ele>9</ele>
        <time>2013-12-07T09:57:27.1Z</time>
      </trkpt>
      <trkpt lat="48.48229" lon="-2.77237">
        <ele>10</ele>
        <time>2013-12-07T09:57:30.1Z</time>
      </trkpt>
      <trkpt lat="48.48228" lon="-2.77238">
        <ele>10</ele>
        <time>2013-12-07T09:57:32.1Z</time>
      </trkpt>
      <trkpt lat="48.48225" lon="-2.77239">
        <ele>11</ele>
        <time>2013-12-07T09:57:35.1Z</time>
      </trkpt>
      <trkpt lat="48.48222" lon="-2.77241">
        <ele>11</ele>
        <time>2013-12-07T09:57:38.1Z</time>
      </trkpt>
      <trkpt lat="48.4822" lon="-2.77242">
        <ele>11</ele>
        <time>2013-12-07T09:57:40.1Z</time>
      </trkpt>
      <trkpt lat="48.48217" lon="-2.77243">
        <ele>10</ele>
        <time>2013-12-07T09:57:43.1Z</time>
      </trkpt>
      <trkpt lat="48.48215" lon="-2.77245">
        <ele>11</ele>
        <time>2013-12-07T09:57:45.1Z</time>
      </trkpt>
      <trkpt lat="48.48213" lon="-2.77247">
        <ele>11</ele>
        <time>2013-12-07T09:57:48.1Z</time>
      </trkpt>
      <trkpt lat="48.48211" lon="-2.77249">
        <ele>11</ele>
        <time>2013-12-07T09:57:50.1Z</time>
      </trkpt>
      <trkpt lat="48.48209" lon="-2.7725">
        <ele>11</ele>
        <time>2013-12-07T09:57:52.1Z</time>
      </trkpt>
      <trkpt lat="48.48207" lon="-2.77252">
        <ele>11</ele>
        <time>2013-12-07T09:57:54.1Z</time>
      </trkpt>
      <trkpt lat="48.48204" lon="-2.77254">
        <ele>10</ele>
        <time>2013-12-07T09:57:57.1Z</time>
      </trkpt>
      <trkpt lat="48.48203" lon="-2.77256">
        <ele>10</ele>
        <time>2013-12-07T09:57:59.1Z</time>
      </trkpt>
      <trkpt lat="48.48201" lon="-2.77257">
        <ele>9</ele>
        <time>2013-12-07T09:58:01.1Z</time>
      </trkpt>
      <trkpt lat="48.48198" lon="-2.77259">
        <ele>9</ele>
        <time>2013-12-07T09:58:04.1Z</time>
      </trkpt>
      <trkpt lat="48.48196" lon="-2.7726">
        <ele>9</ele>
        <time>2013-12-07T09:58:06.1Z</time>
      </trkpt>
      <trkpt lat="48.48193" lon="-2.77262">
        <ele>9</ele>
        <time>2013-12-07T09:58:09.1Z</time>
      </trkpt>
      <trkpt lat="48.48191" lon="-2.77263">
        <ele>9</ele>
        <time>2013-12-07T09:58:11.1Z</time>
      </trkpt>
      <trkpt lat="48.48189" lon="-2.77264">
        <ele>9</ele>
        <time>2013-12-07T09:58:13.1Z</time>
      </trkpt>
      <trkpt lat="48.48186" lon="-2.77266">
        <ele>9</ele>
        <time>2013-12-07T09:58:16.1Z</time>
      </trkpt>
      <trkpt lat="48.48183" lon="-2.77267">
        <ele>9</ele>
        <time>2013-12-07T09:58:19.1Z</time>
      </trkpt>
      <trkpt lat="48.4818" lon="-2.77269">
        <ele>9</ele>
        <time>2013-12-07T09:58:22.1Z</time>
      </trkpt>
      <trkpt lat="48.48177" lon="-2.77271">
        <ele>9</ele>
        <time>2013-12-07T09:58:25.1Z</time>
      </trkpt>
      <trkpt lat="48.48173" lon="-2.77272">
        <ele>10</ele>
        <time>2013-12-07T09:58:28.1Z</time>
      </trkpt>
      <trkpt lat="48.4817" lon="-2.77273">
        <ele>9</ele>
        <time>2013-12-07T09:58:31.1Z</time>
      </trkpt>
      <trkpt lat="48.48167" lon="-2.77274">
        <ele>9</ele>
        <time>2013-12-07T09:58:34.1Z</time>
      </trkpt>
      <trkpt lat="48.48164" lon="-2.77275">
        <ele>8</ele>
        <time>2013-12-07T09:58:36.1Z</time>
      </trkpt>
      <trkpt lat="48.48163" lon="-2.77276">
        <ele>8</ele>
        <time>2013-12-07T09:58:38.1Z</time>
      </trkpt>
      <trkpt lat="48.48161" lon="-2.77277">
        <ele>8</ele>
        <time>2013-12-07T09:58:40.1Z</time>
      </trkpt>
      <trkpt lat="48.48158" lon="-2.77277">
        <ele>7</ele>
        <time>2013-12-07T09:58:43.1Z</time>
      </trkpt>
      <trkpt lat="48.48156" lon="-2.77278">
        <ele>8</ele>
        <time>2013-12-07T09:58:45.1Z</time>
      </trkpt>
      <trkpt lat="48.48153" lon="-2.7728">
        <ele>8</ele>
        <time>2013-12-07T09:58:48.1Z</time>
      </trkpt>
      <trkpt lat="48.4815" lon="-2.77281">
        <ele>8</ele>
        <time>2013-12-07T09:58:51.1Z</time>
      </trkpt>
      <trkpt lat="48.48146" lon="-2.77282">
        <ele>8</ele>
        <time>2013-12-07T09:58:54.1Z</time>
      </trkpt>
      <trkpt lat="48.48144" lon="-2.77284">
        <ele>8</ele>
        <time>2013-12-07T09:58:57.1Z</time>
      </trkpt>
      <trkpt lat="48.48142" lon="-2.77284">
        <ele>8</ele>
        <time>2013-12-07T09:58:59.1Z</time>
      </trkpt>
      <trkpt lat="48.4814" lon="-2.77284">
        <ele>8</ele>
        <time>2013-12-07T09:59:01.1Z</time>
      </trkpt>
      <trkpt lat="48.48137" lon="-2.77285">
        <ele>8</ele>
        <time>2013-12-07T09:59:03.1Z</time>
      </trkpt>
      <trkpt lat="48.48135" lon="-2.77285">
        <ele>8</ele>
        <time>2013-12-07T09:59:05.1Z</time>
      </trkpt>
      <trkpt lat="48.48133" lon="-2.77286">
        <ele>8</ele>
        <time>2013-12-07T09:59:07.1Z</time>
      </trkpt>
      <trkpt lat="48.4813" lon="-2.77286">
        <ele>8</ele>
        <time>2013-12-07T09:59:09.1Z</time>
      </trkpt>
      <trkpt lat="48.48129" lon="-2.77286">
        <ele>8</ele>
        <time>2013-12-07T09:59:11.1Z</time>
      </trkpt>
      <trkpt lat="48.48125" lon="-2.77286">
        <ele>7</ele>
        <time>2013-12-07T09:59:14.1Z</time>
      </trkpt>
      <trkpt lat="48.48123" lon="-2.77286">
        <ele>8</ele>
        <time>2013-12-07T09:59:16.1Z</time>
      </trkpt>
      <trkpt lat="48.48122" lon="-2.77286">
        <ele>8</ele>
        <time>2013-12-07T09:59:18.1Z</time>
      </trkpt>
      <trkpt lat="48.48119" lon="-2.77287">
        <ele>8</ele>
        <time>2013-12-07T09:59:21.1Z</time>
      </trkpt>
      <trkpt lat="48.48116" lon="-2.77287">
        <ele>8</ele>
        <time>2013-12-07T09:59:23.1Z</time>
      </trkpt>
      <trkpt lat="48.48114" lon="-2.77288">
        <ele>8</ele>
        <time>2013-12-07T09:59:25.1Z</time>
      </trkpt>
      <trkpt lat="48.48112" lon="-2.77288">
        <ele>8</ele>
        <time>2013-12-07T09:59:27.1Z</time>
      </trkpt>
      <trkpt lat="48.48109" lon="-2.77289">
        <ele>8</ele>
        <time>2013-12-07T09:59:29.1Z</time>
      </trkpt>
      <trkpt lat="48.48107" lon="-2.77289">
        <ele>8</ele>
        <time>2013-12-07T09:59:31.1Z</time>
      </trkpt>
      <trkpt lat="48.48104" lon="-2.77289">
        <ele>8</ele>
        <time>2013-12-07T09:59:34.1Z</time>
      </trkpt>
      <trkpt lat="48.48102" lon="-2.7729">
        <ele>8</ele>
        <time>2013-12-07T09:59:37.1Z</time>
      </trkpt>
      <trkpt lat="48.48099" lon="-2.77291">
        <ele>8</ele>
        <time>2013-12-07T09:59:40.1Z</time>
      </trkpt>
      <trkpt lat="48.48097" lon="-2.77291">
        <ele>8</ele>
        <time>2013-12-07T09:59:42.1Z</time>
      </trkpt>
      <trkpt lat="48.48094" lon="-2.77291">
        <ele>8</ele>
        <time>2013-12-07T09:59:45.1Z</time>
      </trkpt>
      <trkpt lat="48.48092" lon="-2.77291">
        <ele>8</ele>
        <time>2013-12-07T09:59:47.1Z</time>
      </trkpt>
      <trkpt lat="48.48088" lon="-2.77289">
        <ele>8</ele>
        <time>2013-12-07T09:59:50.1Z</time>
      </trkpt>
      <trkpt lat="48.48085" lon="-2.77288">
        <ele>9</ele>
        <time>2013-12-07T09:59:53.1Z</time>
      </trkpt>
      <trkpt lat="48.48082" lon="-2.77286">
        <ele>8</ele>
        <time>2013-12-07T09:59:55.1Z</time>
      </trkpt>
      <trkpt lat="48.4808" lon="-2.77286">
        <ele>9</ele>
        <time>2013-12-07T09:59:57.1Z</time>
      </trkpt>
      <trkpt lat="48.48077" lon="-2.77284">
        <ele>8</ele>
        <time>2013-12-07T10:00:00.1Z</time>
      </trkpt>
      <trkpt lat="48.48074" lon="-2.77281">
        <ele>9</ele>
        <time>2013-12-07T10:00:03.1Z</time>
      </trkpt>
      <trkpt lat="48.48072" lon="-2.77279">
        <ele>8</ele>
        <time>2013-12-07T10:00:06.1Z</time>
      </trkpt>
      <trkpt lat="48.48069" lon="-2.77276">
        <ele>8</ele>
        <time>2013-12-07T10:00:09.1Z</time>
      </trkpt>
      <trkpt lat="48.48066" lon="-2.77274">
        <ele>9</ele>
        <time>2013-12-07T10:00:12.1Z</time>
      </trkpt>
      <trkpt lat="48.48064" lon="-2.77272">
        <ele>9</ele>
        <time>2013-12-07T10:00:14.1Z</time>
      </trkpt>
      <trkpt lat="48.48061" lon="-2.77269">
        <ele>9</ele>
        <time>2013-12-07T10:00:17.1Z</time>
      </trkpt>
      <trkpt lat="48.48059" lon="-2.77267">
        <ele>9</ele>
        <time>2013-12-07T10:00:20.1Z</time>
      </trkpt>
      <trkpt lat="48.48056" lon="-2.77265">
        <ele>10</ele>
        <time>2013-12-07T10:00:22.1Z</time>
      </trkpt>
      <trkpt lat="48.48054" lon="-2.77262">
        <ele>10</ele>
        <time>2013-12-07T10:00:25.1Z</time>
      </trkpt>
      <trkpt lat="48.48051" lon="-2.77259">
        <ele>9</ele>
        <time>2013-12-07T10:00:28.1Z</time>
      </trkpt>
      <trkpt lat="48.48049" lon="-2.77258">
        <ele>9</ele>
        <time>2013-12-07T10:00:30.1Z</time>
      </trkpt>
      <trkpt lat="48.48047" lon="-2.77255">
        <ele>10</ele>
        <time>2013-12-07T10:00:33.1Z</time>
      </trkpt>
      <trkpt lat="48.48045" lon="-2.77253">
        <ele>10</ele>
        <time>2013-12-07T10:00:35.1Z</time>
      </trkpt>
      <trkpt lat="48.48042" lon="-2.7725">
        <ele>10</ele>
        <time>2013-12-07T10:00:38.1Z</time>
      </trkpt>
      <trkpt lat="48.4804" lon="-2.77248">
        <ele>10</ele>
        <time>2013-12-07T10:00:40.1Z</time>
      </trkpt>
      <trkpt lat="48.48038" lon="-2.77245">
        <ele>10</ele>
        <time>2013-12-07T10:00:43.1Z</time>
      </trkpt>
      <trkpt lat="48.48037" lon="-2.77242">
        <ele>11</ele>
        <time>2013-12-07T10:00:45.1Z</time>
      </trkpt>
      <trkpt lat="48.48034" lon="-2.77239">
        <ele>11</ele>
        <time>2013-12-07T10:00:48.1Z</time>
      </trkpt>
      <trkpt lat="48.48032" lon="-2.77236">
        <ele>11</ele>
        <time>2013-12-07T10:00:51.1Z</time>
      </trkpt>
      <trkpt lat="48.48031" lon="-2.77234">
        <ele>11</ele>
        <time>2013-12-07T10:00:53.1Z</time>
      </trkpt>
      <trkpt lat="48.48029" lon="-2.7723">
        <ele>11</ele>
        <time>2013-12-07T10:00:56.1Z</time>
      </trkpt>
      <trkpt lat="48.48027" lon="-2.77228">
        <ele>12</ele>
        <time>2013-12-07T10:00:58.1Z</time>
      </trkpt>
      <trkpt lat="48.48024" lon="-2.77224">
        <ele>12</ele>
        <time>2013-12-07T10:01:01.1Z</time>
      </trkpt>
      <trkpt lat="48.48022" lon="-2.77222">
        <ele>12</ele>
        <time>2013-12-07T10:01:04.1Z</time>
      </trkpt>
      <trkpt lat="48.48019" lon="-2.77219">
        <ele>12</ele>
        <time>2013-12-07T10:01:07.1Z</time>
      </trkpt>
      <trkpt lat="48.48017" lon="-2.77217">
        <ele>13</ele>
        <time>2013-12-07T10:01:10.1Z</time>
      </trkpt>
      <trkpt lat="48.48014" lon="-2.77214">
        <ele>13</ele>
        <time>2013-12-07T10:01:13.1Z</time>
      </trkpt>
      <trkpt lat="48.48013" lon="-2.77211">
        <ele>13</ele>
        <time>2013-12-07T10:01:15.1Z</time>
      </trkpt>
      <trkpt lat="48.4801" lon="-2.77207">
        <ele>13</ele>
        <time>2013-12-07T10:01:18.1Z</time>
      </trkpt>
      <trkpt lat="48.48007" lon="-2.77203">
        <ele>13</ele>
        <time>2013-12-07T10:01:21.1Z</time>
      </trkpt>
      <trkpt lat="48.48005" lon="-2.772">
        <ele>13</ele>
        <time>2013-12-07T10:01:23.1Z</time>
      </trkpt>
      <trkpt lat="48.48003" lon="-2.77196">
        <ele>13</ele>
        <time>2013-12-07T10:01:26.1Z</time>
      </trkpt>
      <trkpt lat="48.48001" lon="-2.77193">
        <ele>13</ele>
        <time>2013-12-07T10:01:28.1Z</time>
      </trkpt>
      <trkpt lat="48.47998" lon="-2.7719">
        <ele>13</ele>
        <time>2013-12-07T10:01:31.1Z</time>
      </trkpt>
      <trkpt lat="48.47996" lon="-2.77186">
        <ele>13</ele>
        <time>2013-12-07T10:01:34.1Z</time>
      </trkpt>
      <trkpt lat="48.47994" lon="-2.77184">
        <ele>13</ele>
        <time>2013-12-07T10:01:36.1Z</time>
      </trkpt>
      <trkpt lat="48.47992" lon="-2.7718">
        <ele>14</ele>
        <time>2013-12-07T10:01:39.1Z</time>
      </trkpt>
      <trkpt lat="48.4799" lon="-2.77175">
        <ele>14</ele>
        <time>2013-12-07T10:01:42.1Z</time>
      </trkpt>
      <trkpt lat="48.47987" lon="-2.77172">
        <ele>14</ele>
        <time>2013-12-07T10:01:45.1Z</time>
      </trkpt>
      <trkpt lat="48.47985" lon="-2.77169">
        <ele>14</ele>
        <time>2013-12-07T10:01:47.1Z</time>
      </trkpt>
      <trkpt lat="48.47983" lon="-2.77166">
        <ele>14</ele>
        <time>2013-12-07T10:01:50.1Z</time>
      </trkpt>
      <trkpt lat="48.47981" lon="-2.77164">
        <ele>15</ele>
        <time>2013-12-07T10:01:52.1Z</time>
      </trkpt>
      <trkpt lat="48.47978" lon="-2.7716">
        <ele>15</ele>
        <time>2013-12-07T10:01:55.1Z</time>
      </trkpt>
      <trkpt lat="48.47977" lon="-2.77158">
        <ele>15</ele>
        <time>2013-12-07T10:01:57.1Z</time>
      </trkpt>
      <trkpt lat="48.47974" lon="-2.77155">
        <ele>15</ele>
        <time>2013-12-07T10:02:00.1Z</time>
      </trkpt>
      <trkpt lat="48.47971" lon="-2.77151">
        <ele>15</ele>
        <time>2013-12-07T10:02:03.1Z</time>
      </trkpt>
      <trkpt lat="48.47969" lon="-2.77148">
        <ele>15</ele>
        <time>2013-12-07T10:02:06.1Z</time>
      </trkpt>
      <trkpt lat="48.47966" lon="-2.77145">
        <ele>15</ele>
        <time>2013-12-07T10:02:09.1Z</time>
      </trkpt>
      <trkpt lat="48.47963" lon="-2.77143">
        <ele>14</ele>
        <time>2013-12-07T10:02:12.1Z</time>
      </trkpt>
      <trkpt lat="48.47961" lon="-2.77141">
        <ele>15</ele>
        <time>2013-12-07T10:02:14.1Z</time>
      </trkpt>
      <trkpt lat="48.47959" lon="-2.77139">
        <ele>14</ele>
        <time>2013-12-07T10:02:16.1Z</time>
      </trkpt>
      <trkpt lat="48.47956" lon="-2.77136">
        <ele>14</ele>
        <time>2013-12-07T10:02:19.1Z</time>
      </trkpt>
      <trkpt lat="48.47953" lon="-2.77134">
        <ele>15</ele>
        <time>2013-12-07T10:02:22.1Z</time>
      </trkpt>
      <trkpt lat="48.4795" lon="-2.77131">
        <ele>15</ele>
        <time>2013-12-07T10:02:25.1Z</time>
      </trkpt>
      <trkpt lat="48.47948" lon="-2.7713">
        <ele>15</ele>
        <time>2013-12-07T10:02:27.1Z</time>
      </trkpt>
      <trkpt lat="48.47944" lon="-2.77127">
        <ele>15</ele>
        <time>2013-12-07T10:02:30.1Z</time>
      </trkpt>
      <trkpt lat="48.47942" lon="-2.77126">
        <ele>15</ele>
        <time>2013-12-07T10:02:33.1Z</time>
      </trkpt>
      <trkpt lat="48.47941" lon="-2.77123">
        <ele>14</ele>
        <time>2013-12-07T10:02:35.1Z</time>
      </trkpt>
      <trkpt lat="48.47938" lon="-2.77119">
        <ele>14</ele>
        <time>2013-12-07T10:02:38.1Z</time>
      </trkpt>
      <trkpt lat="48.47937" lon="-2.77117">
        <ele>14</ele>
        <time>2013-12-07T10:02:40.1Z</time>
      </trkpt>
      <trkpt lat="48.47934" lon="-2.77113">
        <ele>14</ele>
        <time>2013-12-07T10:02:43.1Z</time>
      </trkpt>
      <trkpt lat="48.4793" lon="-2.7711">
        <ele>14</ele>
        <time>2013-12-07T10:02:46.1Z</time>
      </trkpt>
      <trkpt lat="48.47927" lon="-2.77108">
        <ele>14</ele>
        <time>2013-12-07T10:02:49.1Z</time>
      </trkpt>
      <trkpt lat="48.47924" lon="-2.77105">
        <ele>14</ele>
        <time>2013-12-07T10:02:52.1Z</time>
      </trkpt>
      <trkpt lat="48.47921" lon="-2.77102">
        <ele>15</ele>
        <time>2013-12-07T10:02:55.1Z</time>
      </trkpt>
      <trkpt lat="48.4792" lon="-2.77099">
        <ele>14</ele>
        <time>2013-12-07T10:02:57.1Z</time>
      </trkpt>
      <trkpt lat="48.47918" lon="-2.77096">
        <ele>15</ele>
        <time>2013-12-07T10:03:00.1Z</time>
      </trkpt>
      <trkpt lat="48.47917" lon="-2.77092">
        <ele>14</ele>
        <time>2013-12-07T10:03:02.1Z</time>
      </trkpt>
      <trkpt lat="48.47917" lon="-2.77089">
        <ele>14</ele>
        <time>2013-12-07T10:03:04.1Z</time>
      </trkpt>
      <trkpt lat="48.47917" lon="-2.77086">
        <ele>14</ele>
        <time>2013-12-07T10:03:06.1Z</time>
      </trkpt>
      <trkpt lat="48.47917" lon="-2.77082">
        <ele>14</ele>
        <time>2013-12-07T10:03:08.1Z</time>
      </trkpt>
      <trkpt lat="48.47918" lon="-2.77079">
        <ele>14</ele>
        <time>2013-12-07T10:03:10.1Z</time>
      </trkpt>
      <trkpt lat="48.47918" lon="-2.77075">
        <ele>14</ele>
        <time>2013-12-07T10:03:12.1Z</time>
      </trkpt>
      <trkpt lat="48.47918" lon="-2.77069">
        <ele>15</ele>
        <time>2013-12-07T10:03:15.1Z</time>
      </trkpt>
      <trkpt lat="48.47917" lon="-2.77066">
        <ele>15</ele>
        <time>2013-12-07T10:03:17.1Z</time>
      </trkpt>
      <trkpt lat="48.47918" lon="-2.77062">
        <ele>15</ele>
        <time>2013-12-07T10:03:20.1Z</time>
      </trkpt>
      <trkpt lat="48.47919" lon="-2.77057">
        <ele>15</ele>
        <time>2013-12-07T10:03:23.1Z</time>
      </trkpt>
      <trkpt lat="48.47921" lon="-2.77053">
        <ele>15</ele>
        <time>2013-12-07T10:03:26.1Z</time>
      </trkpt>
      <trkpt lat="48.47922" lon="-2.7705">
        <ele>15</ele>
        <time>2013-12-07T10:03:28.1Z</time>
      </trkpt>
      <trkpt lat="48.47922" lon="-2.77048">
        <ele>15</ele>
        <time>2013-12-07T10:03:30.1Z</time>
      </trkpt>
      <trkpt lat="48.47924" lon="-2.77045">
        <ele>15</ele>
        <time>2013-12-07T10:03:33.1Z</time>
      </trkpt>
      <trkpt lat="48.47926" lon="-2.77043">
        <ele>15</ele>
        <time>2013-12-07T10:03:35.1Z</time>
      </trkpt>
      <trkpt lat="48.47927" lon="-2.7704">
        <ele>15</ele>
        <time>2013-12-07T10:03:37.1Z</time>
      </trkpt>
      <trkpt lat="48.47929" lon="-2.77035">
        <ele>15</ele>
        <time>2013-12-07T10:03:40.1Z</time>
      </trkpt>
      <trkpt lat="48.47931" lon="-2.77031">
        <ele>15</ele>
        <time>2013-12-07T10:03:43.1Z</time>
      </trkpt>
      <trkpt lat="48.47933" lon="-2.77028">
        <ele>15</ele>
        <time>2013-12-07T10:03:45.1Z</time>
      </trkpt>
      <trkpt lat="48.47935" lon="-2.77024">
        <ele>16</ele>
        <time>2013-12-07T10:03:48.1Z</time>
      </trkpt>
      <trkpt lat="48.47936" lon="-2.77021">
        <ele>16</ele>
        <time>2013-12-07T10:03:50.1Z</time>
      </trkpt>
      <trkpt lat="48.47938" lon="-2.77017">
        <ele>16</ele>
        <time>2013-12-07T10:03:53.1Z</time>
      </trkpt>
      <trkpt lat="48.4794" lon="-2.77013">
        <ele>16</ele>
        <time>2013-12-07T10:03:56.1Z</time>
      </trkpt>
      <trkpt lat="48.47942" lon="-2.77009">
        <ele>16</ele>
        <time>2013-12-07T10:03:59.1Z</time>
      </trkpt>
      <trkpt lat="48.47944" lon="-2.77006">
        <ele>16</ele>
        <time>2013-12-07T10:04:01.1Z</time>
      </trkpt>
      <trkpt lat="48.47946" lon="-2.77001">
        <ele>16</ele>
        <time>2013-12-07T10:04:04.1Z</time>
      </trkpt>
      <trkpt lat="48.47948" lon="-2.76997">
        <ele>16</ele>
        <time>2013-12-07T10:04:07.1Z</time>
      </trkpt>
      <trkpt lat="48.4795" lon="-2.76992">
        <ele>17</ele>
        <time>2013-12-07T10:04:10.1Z</time>
      </trkpt>
      <trkpt lat="48.47951" lon="-2.7699">
        <ele>17</ele>
        <time>2013-12-07T10:04:12.1Z</time>
      </trkpt>
      <trkpt lat="48.47953" lon="-2.76985">
        <ele>17</ele>
        <time>2013-12-07T10:04:15.1Z</time>
      </trkpt>
      <trkpt lat="48.47955" lon="-2.76982">
        <ele>17</ele>
        <time>2013-12-07T10:04:17.1Z</time>
      </trkpt>
      <trkpt lat="48.47956" lon="-2.7698">
        <ele>17</ele>
        <time>2013-12-07T10:04:19.1Z</time>
      </trkpt>
      <trkpt lat="48.47958" lon="-2.76975">
        <ele>17</ele>
        <time>2013-12-07T10:04:22.1Z</time>
      </trkpt>
      <trkpt lat="48.4796" lon="-2.76971">
        <ele>17</ele>
        <time>2013-12-07T10:04:25.1Z</time>
      </trkpt>
      <trkpt lat="48.47961" lon="-2.76968">
        <ele>17</ele>
        <time>2013-12-07T10:04:27.1Z</time>
      </trkpt>
      <trkpt lat="48.47963" lon="-2.76964">
        <ele>17</ele>
        <time>2013-12-07T10:04:30.1Z</time>
      </trkpt>
      <trkpt lat="48.47964" lon="-2.7696">
        <ele>17</ele>
        <time>2013-12-07T10:04:32.1Z</time>
      </trkpt>
      <trkpt lat="48.47966" lon="-2.76956">
        <ele>17</ele>
        <time>2013-12-07T10:04:35.1Z</time>
      </trkpt>
      <trkpt lat="48.47968" lon="-2.76953">
        <ele>17</ele>
        <time>2013-12-07T10:04:37.1Z</time>
      </trkpt>
      <trkpt lat="48.47969" lon="-2.76949">
        <ele>17</ele>
        <time>2013-12-07T10:04:40.1Z</time>
      </trkpt>
      <trkpt lat="48.47971" lon="-2.76946">
        <ele>17</ele>
        <time>2013-12-07T10:04:42.1Z</time>
      </trkpt>
      <trkpt lat="48.47973" lon="-2.76942">
        <ele>18</ele>
        <time>2013-12-07T10:04:45.1Z</time>
      </trkpt>
      <trkpt lat="48.47974" lon="-2.76939">
        <ele>18</ele>
        <time>2013-12-07T10:04:47.1Z</time>
      </trkpt>
      <trkpt lat="48.47976" lon="-2.76935">
        <ele>18</ele>
        <time>2013-12-07T10:04:50.1Z</time>
      </trkpt>
      <trkpt lat="48.47978" lon="-2.7693">
        <ele>18</ele>
        <time>2013-12-07T10:04:53.1Z</time>
      </trkpt>
      <trkpt lat="48.47979" lon="-2.76927">
        <ele>18</ele>
        <time>2013-12-07T10:04:55.1Z</time>
      </trkpt>
      <trkpt lat="48.4798" lon="-2.76924">
        <ele>17</ele>
        <time>2013-12-07T10:04:57.1Z</time>
      </trkpt>
      <trkpt lat="48.47982" lon="-2.7692">
        <ele>18</ele>
        <time>2013-12-07T10:05:00.1Z</time>
      </trkpt>
      <trkpt lat="48.47984" lon="-2.76917">
        <ele>18</ele>
        <time>2013-12-07T10:05:02.1Z</time>
      </trkpt>
      <trkpt lat="48.47985" lon="-2.76913">
        <ele>18</ele>
        <time>2013-12-07T10:05:05.1Z</time>
      </trkpt>
      <trkpt lat="48.47987" lon="-2.76909">
        <ele>18</ele>
        <time>2013-12-07T10:05:08.1Z</time>
      </trkpt>
      <trkpt lat="48.47988" lon="-2.76906">
        <ele>18</ele>
        <time>2013-12-07T10:05:10.1Z</time>
      </trkpt>
      <trkpt lat="48.4799" lon="-2.76902">
        <ele>18</ele>
        <time>2013-12-07T10:05:13.1Z</time>
      </trkpt>
      <trkpt lat="48.47991" lon="-2.76899">
        <ele>18</ele>
        <time>2013-12-07T10:05:15.1Z</time>
      </trkpt>
      <trkpt lat="48.47993" lon="-2.76895">
        <ele>18</ele>
        <time>2013-12-07T10:05:18.1Z</time>
      </trkpt>
      <trkpt lat="48.47995" lon="-2.7689">
        <ele>19</ele>
        <time>2013-12-07T10:05:21.1Z</time>
      </trkpt>
      <trkpt lat="48.47996" lon="-2.76888">
        <ele>19</ele>
        <time>2013-12-07T10:05:23.1Z</time>
      </trkpt>
      <trkpt lat="48.47998" lon="-2.76883">
        <ele>19</ele>
        <time>2013-12-07T10:05:26.1Z</time>
      </trkpt>
      <trkpt lat="48.47999" lon="-2.76879">
        <ele>19</ele>
        <time>2013-12-07T10:05:29.1Z</time>
      </trkpt>
      <trkpt lat="48.48" lon="-2.76876">
        <ele>19</ele>
        <time>2013-12-07T10:05:31.1Z</time>
      </trkpt>
      <trkpt lat="48.48002" lon="-2.76872">
        <ele>19</ele>
        <time>2013-12-07T10:05:34.1Z</time>
      </trkpt>
      <trkpt lat="48.48003" lon="-2.76869">
        <ele>19</ele>
        <time>2013-12-07T10:05:36.1Z</time>
      </trkpt>
      <trkpt lat="48.48005" lon="-2.76864">
        <ele>19</ele>
        <time>2013-12-07T10:05:39.1Z</time>
      </trkpt>
      <trkpt lat="48.48006" lon="-2.7686">
        <ele>19</ele>
        <time>2013-12-07T10:05:42.1Z</time>
      </trkpt>
      <trkpt lat="48.48008" lon="-2.76856">
        <ele>20</ele>
        <time>2013-12-07T10:05:44.1Z</time>
      </trkpt>
      <trkpt lat="48.48009" lon="-2.76852">
        <ele>20</ele>
        <time>2013-12-07T10:05:47.1Z</time>
      </trkpt>
      <trkpt lat="48.48011" lon="-2.76847">
        <ele>20</ele>
        <time>2013-12-07T10:05:50.1Z</time>
      </trkpt>
      <trkpt lat="48.48012" lon="-2.76842">
        <ele>20</ele>
        <time>2013-12-07T10:05:53.1Z</time>
      </trkpt>
      <trkpt lat="48.48013" lon="-2.76839">
        <ele>20</ele>
        <time>2013-12-07T10:05:55.1Z</time>
      </trkpt>
      <trkpt lat="48.48014" lon="-2.76835">
        <ele>20</ele>
        <time>2013-12-07T10:05:57.1Z</time>
      </trkpt>
      <trkpt lat="48.48016" lon="-2.7683">
        <ele>20</ele>
        <time>2013-12-07T10:06:00.1Z</time>
      </trkpt>
      <trkpt lat="48.48016" lon="-2.76825">
        <ele>20</ele>
        <time>2013-12-07T10:06:03.1Z</time>
      </trkpt>
      <trkpt lat="48.48017" lon="-2.76819">
        <ele>20</ele>
        <time>2013-12-07T10:06:06.1Z</time>
      </trkpt>
      <trkpt lat="48.48018" lon="-2.76815">
        <ele>20</ele>
        <time>2013-12-07T10:06:08.1Z</time>
      </trkpt>
      <trkpt lat="48.48018" lon="-2.7681">
        <ele>21</ele>
        <time>2013-12-07T10:06:11.1Z</time>
      </trkpt>
      <trkpt lat="48.48018" lon="-2.76806">
        <ele>21</ele>
        <time>2013-12-07T10:06:13.1Z</time>
      </trkpt>
      <trkpt lat="48.48018" lon="-2.76802">
        <ele>21</ele>
        <time>2013-12-07T10:06:15.1Z</time>
      </trkpt>
      <trkpt lat="48.48019" lon="-2.76799">
        <ele>21</ele>
        <time>2013-12-07T10:06:17.1Z</time>
      </trkpt>
      <trkpt lat="48.48018" lon="-2.76793">
        <ele>21</ele>
        <time>2013-12-07T10:06:20.1Z</time>
      </trkpt>
      <trkpt lat="48.48018" lon="-2.76789">
        <ele>21</ele>
        <time>2013-12-07T10:06:22.1Z</time>
      </trkpt>
      <trkpt lat="48.48018" lon="-2.76785">
        <ele>21</ele>
        <time>2013-12-07T10:06:24.1Z</time>
      </trkpt>
      <trkpt lat="48.48018" lon="-2.76782">
        <ele>21</ele>
        <time>2013-12-07T10:06:26.1Z</time>
      </trkpt>
      <trkpt lat="48.48018" lon="-2.76778">
        <ele>21</ele>
        <time>2013-12-07T10:06:28.1Z</time>
      </trkpt>
      <trkpt lat="48.48017" lon="-2.76775">
        <ele>21</ele>
        <time>2013-12-07T10:06:30.1Z</time>
      </trkpt>
      <trkpt lat="48.48017" lon="-2.7677">
        <ele>21</ele>
        <time>2013-12-07T10:06:33.1Z</time>
      </trkpt>
      <trkpt lat="48.48016" lon="-2.76766">
        <ele>21</ele>
        <time>2013-12-07T10:06:35.1Z</time>
      </trkpt>
      <trkpt lat="48.48016" lon="-2.76763">
        <ele>21</ele>
        <time>2013-12-07T10:06:37.1Z</time>
      </trkpt>
      <trkpt lat="48.48015" lon="-2.76758">
        <ele>21</ele>
        <time>2013-12-07T10:06:40.1Z</time>
      </trkpt>
      <trkpt lat="48.48015" lon="-2.76754">
        <ele>22</ele>
        <time>2013-12-07T10:06:42.1Z</time>
      </trkpt>
      <trkpt lat="48.48014" lon="-2.76751">
        <ele>22</ele>
        <time>2013-12-07T10:06:44.1Z</time>
      </trkpt>
      <trkpt lat="48.48014" lon="-2.76748">
        <ele>22</ele>
        <time>2013-12-07T10:06:46.1Z</time>
      </trkpt>
      <trkpt lat="48.48013" lon="-2.76743">
        <ele>21</ele>
        <time>2013-12-07T10:06:49.1Z</time>
      </trkpt>
      <trkpt lat="48.48012" lon="-2.76738">
        <ele>21</ele>
        <time>2013-12-07T10:06:52.1Z</time>
      </trkpt>
      <trkpt lat="48.48011" lon="-2.76734">
        <ele>21</ele>
        <time>2013-12-07T10:06:54.1Z</time>
      </trkpt>
      <trkpt lat="48.48011" lon="-2.76731">
        <ele>21</ele>
        <time>2013-12-07T10:06:56.1Z</time>
      </trkpt>
      <trkpt lat="48.4801" lon="-2.76728">
        <ele>22</ele>
        <time>2013-12-07T10:06:58.1Z</time>
      </trkpt>
      <trkpt lat="48.48009" lon="-2.76725">
        <ele>22</ele>
        <time>2013-12-07T10:07:00.1Z</time>
      </trkpt>
      <trkpt lat="48.48008" lon="-2.76722">
        <ele>22</ele>
        <time>2013-12-07T10:07:02.1Z</time>
      </trkpt>
      <trkpt lat="48.48008" lon="-2.76718">
        <ele>22</ele>
        <time>2013-12-07T10:07:04.1Z</time>
      </trkpt>
      <trkpt lat="48.48007" lon="-2.76713">
        <ele>23</ele>
        <time>2013-12-07T10:07:07.1Z</time>
      </trkpt>
      <trkpt lat="48.48006" lon="-2.7671">
        <ele>22</ele>
        <time>2013-12-07T10:07:09.1Z</time>
      </trkpt>
      <trkpt lat="48.48005" lon="-2.76706">
        <ele>22</ele>
        <time>2013-12-07T10:07:11.1Z</time>
      </trkpt>
      <trkpt lat="48.48004" lon="-2.76704">
        <ele>23</ele>
        <time>2013-12-07T10:07:13.1Z</time>
      </trkpt>
      <trkpt lat="48.48003" lon="-2.767">
        <ele>23</ele>
        <time>2013-12-07T10:07:15.1Z</time>
      </trkpt>
      <trkpt lat="48.48003" lon="-2.76697">
        <ele>22</ele>
        <time>2013-12-07T10:07:17.1Z</time>
      </trkpt>
      <trkpt lat="48.48002" lon="-2.76694">
        <ele>23</ele>
        <time>2013-12-07T10:07:19.1Z</time>
      </trkpt>
      <trkpt lat="48.48001" lon="-2.76691">
        <ele>23</ele>
        <time>2013-12-07T10:07:21.1Z</time>
      </trkpt>
      <trkpt lat="48.48" lon="-2.76688">
        <ele>23</ele>
        <time>2013-12-07T10:07:23.1Z</time>
      </trkpt>
      <trkpt lat="48.48" lon="-2.76682">
        <ele>23</ele>
        <time>2013-12-07T10:07:26.1Z</time>
      </trkpt>
      <trkpt lat="48.47999" lon="-2.76677">
        <ele>22</ele>
        <time>2013-12-07T10:07:29.1Z</time>
      </trkpt>
      <trkpt lat="48.47998" lon="-2.76672">
        <ele>22</ele>
        <time>2013-12-07T10:07:32.1Z</time>
      </trkpt>
      <trkpt lat="48.47997" lon="-2.76667">
        <ele>22</ele>
        <time>2013-12-07T10:07:35.1Z</time>
      </trkpt>
      <trkpt lat="48.47996" lon="-2.76662">
        <ele>23</ele>
        <time>2013-12-07T10:07:38.1Z</time>
      </trkpt>
      <trkpt lat="48.47996" lon="-2.76658">
        <ele>23</ele>
        <time>2013-12-07T10:07:40.1Z</time>
      </trkpt>
      <trkpt lat="48.47995" lon="-2.76655">
        <ele>23</ele>
        <time>2013-12-07T10:07:42.1Z</time>
      </trkpt>
      <trkpt lat="48.47994" lon="-2.76649">
        <ele>22</ele>
        <time>2013-12-07T10:07:45.1Z</time>
      </trkpt>
      <trkpt lat="48.47994" lon="-2.76645">
        <ele>22</ele>
        <time>2013-12-07T10:07:47.1Z</time>
      </trkpt>
      <trkpt lat="48.47992" lon="-2.7664">
        <ele>22</ele>
        <time>2013-12-07T10:07:50.1Z</time>
      </trkpt>
      <trkpt lat="48.47991" lon="-2.76635">
        <ele>22</ele>
        <time>2013-12-07T10:07:53.1Z</time>
      </trkpt>
      <trkpt lat="48.4799" lon="-2.76631">
        <ele>22</ele>
        <time>2013-12-07T10:07:55.1Z</time>
      </trkpt>
      <trkpt lat="48.4799" lon="-2.76628">
        <ele>22</ele>
        <time>2013-12-07T10:07:57.1Z</time>
      </trkpt>
      <trkpt lat="48.47988" lon="-2.76623">
        <ele>23</ele>
        <time>2013-12-07T10:08:00.1Z</time>
      </trkpt>
      <trkpt lat="48.47987" lon="-2.76619">
        <ele>23</ele>
        <time>2013-12-07T10:08:02.1Z</time>
      </trkpt>
      <trkpt lat="48.47986" lon="-2.76614">
        <ele>23</ele>
        <time>2013-12-07T10:08:05.1Z</time>
      </trkpt>
      <trkpt lat="48.47984" lon="-2.7661">
        <ele>22</ele>
        <time>2013-12-07T10:08:08.1Z</time>
      </trkpt>
      <trkpt lat="48.47983" lon="-2.76605">
        <ele>22</ele>
        <time>2013-12-07T10:08:11.1Z</time>
      </trkpt>
      <trkpt lat="48.47981" lon="-2.766">
        <ele>23</ele>
        <time>2013-12-07T10:08:14.1Z</time>
      </trkpt>
      <trkpt lat="48.47979" lon="-2.76597">
        <ele>23</ele>
        <time>2013-12-07T10:08:16.1Z</time>
      </trkpt>
      <trkpt lat="48.47977" lon="-2.76593">
        <ele>23</ele>
        <time>2013-12-07T10:08:19.1Z</time>
      </trkpt>
      <trkpt lat="48.47976" lon="-2.7659">
        <ele>23</ele>
        <time>2013-12-07T10:08:21.1Z</time>
      </trkpt>
      <trkpt lat="48.47974" lon="-2.76585">
        <ele>23</ele>
        <time>2013-12-07T10:08:24.1Z</time>
      </trkpt>
      <trkpt lat="48.47972" lon="-2.76582">
        <ele>23</ele>
        <time>2013-12-07T10:08:26.1Z</time>
      </trkpt>
      <trkpt lat="48.4797" lon="-2.76578">
        <ele>23</ele>
        <time>2013-12-07T10:08:29.1Z</time>
      </trkpt>
      <trkpt lat="48.47968" lon="-2.76576">
        <ele>23</ele>
        <time>2013-12-07T10:08:31.1Z</time>
      </trkpt>
      <trkpt lat="48.47966" lon="-2.76572">
        <ele>23</ele>
        <time>2013-12-07T10:08:34.1Z</time>
      </trkpt>
      <trkpt lat="48.47963" lon="-2.76569">
        <ele>23</ele>
        <time>2013-12-07T10:08:37.1Z</time>
      </trkpt>
      <trkpt lat="48.4796" lon="-2.76565">
        <ele>23</ele>
        <time>2013-12-07T10:08:40.1Z</time>
      </trkpt>
      <trkpt lat="48.47958" lon="-2.76563">
        <ele>23</ele>
        <time>2013-12-07T10:08:42.1Z</time>
      </trkpt>
      <trkpt lat="48.47956" lon="-2.76561">
        <ele>23</ele>
        <time>2013-12-07T10:08:44.1Z</time>
      </trkpt>
      <trkpt lat="48.47953" lon="-2.76558">
        <ele>23</ele>
        <time>2013-12-07T10:08:47.1Z</time>
      </trkpt>
      <trkpt lat="48.4795" lon="-2.76555">
        <ele>24</ele>
        <time>2013-12-07T10:08:50.1Z</time>
      </trkpt>
      <trkpt lat="48.47948" lon="-2.76553">
        <ele>24</ele>
        <time>2013-12-07T10:08:52.1Z</time>
      </trkpt>
      <trkpt lat="48.47945" lon="-2.76551">
        <ele>23</ele>
        <time>2013-12-07T10:08:55.1Z</time>
      </trkpt>
      <trkpt lat="48.47943" lon="-2.76549">
        <ele>23</ele>
        <time>2013-12-07T10:08:57.1Z</time>
      </trkpt>
      <trkpt lat="48.4794" lon="-2.76546">
        <ele>23</ele>
        <time>2013-12-07T10:09:00.1Z</time>
      </trkpt>
      <trkpt lat="48.47937" lon="-2.76542">
        <ele>24</ele>
        <time>2013-12-07T10:09:03.1Z</time>
      </trkpt>
      <trkpt lat="48.47934" lon="-2.7654">
        <ele>24</ele>
        <time>2013-12-07T10:09:06.1Z</time>
      </trkpt>
      <trkpt lat="48.47931" lon="-2.76537">
        <ele>24</ele>
        <time>2013-12-07T10:09:09.1Z</time>
      </trkpt>
      <trkpt lat="48.47929" lon="-2.76535">
        <ele>24</ele>
        <time>2013-12-07T10:09:11.1Z</time>
      </trkpt>
      <trkpt lat="48.47925" lon="-2.76533">
        <ele>25</ele>
        <time>2013-12-07T10:09:14.1Z</time>
      </trkpt>
      <trkpt lat="48.47923" lon="-2.7653">
        <ele>24</ele>
        <time>2013-12-07T10:09:16.1Z</time>
      </trkpt>
      <trkpt lat="48.47921" lon="-2.76527">
        <ele>24</ele>
        <time>2013-12-07T10:09:19.1Z</time>
      </trkpt>
      <trkpt lat="48.47919" lon="-2.76526">
        <ele>24</ele>
        <time>2013-12-07T10:09:21.1Z</time>
      </trkpt>
      <trkpt lat="48.47916" lon="-2.76522">
        <ele>24</ele>
        <time>2013-12-07T10:09:24.1Z</time>
      </trkpt>
      <trkpt lat="48.47914" lon="-2.7652">
        <ele>24</ele>
        <time>2013-12-07T10:09:26.1Z</time>
      </trkpt>
      <trkpt lat="48.47911" lon="-2.76517">
        <ele>24</ele>
        <time>2013-12-07T10:09:29.1Z</time>
      </trkpt>
      <trkpt lat="48.47909" lon="-2.76513">
        <ele>24</ele>
        <time>2013-12-07T10:09:32.1Z</time>
      </trkpt>
      <trkpt lat="48.47906" lon="-2.76509">
        <ele>24</ele>
        <time>2013-12-07T10:09:35.1Z</time>
      </trkpt>
      <trkpt lat="48.47905" lon="-2.76507">
        <ele>24</ele>
        <time>2013-12-07T10:09:37.1Z</time>
      </trkpt>
      <trkpt lat="48.47902" lon="-2.76503">
        <ele>24</ele>
        <time>2013-12-07T10:09:40.1Z</time>
      </trkpt>
      <trkpt lat="48.479" lon="-2.76499">
        <ele>24</ele>
        <time>2013-12-07T10:09:43.1Z</time>
      </trkpt>
      <trkpt lat="48.47898" lon="-2.76496">
        <ele>24</ele>
        <time>2013-12-07T10:09:45.1Z</time>
      </trkpt>
      <trkpt lat="48.47897" lon="-2.76492">
        <ele>24</ele>
        <time>2013-12-07T10:09:48.1Z</time>
      </trkpt>
      <trkpt lat="48.47894" lon="-2.76485">
        <ele>24</ele>
        <time>2013-12-07T10:09:52.1Z</time>
      </trkpt>
      <trkpt lat="48.47893" lon="-2.76482">
        <ele>24</ele>
        <time>2013-12-07T10:09:55.1Z</time>
      </trkpt>
      <trkpt lat="48.47892" lon="-2.76477">
        <ele>24</ele>
        <time>2013-12-07T10:09:58.1Z</time>
      </trkpt>
      <trkpt lat="48.47891" lon="-2.76473">
        <ele>24</ele>
        <time>2013-12-07T10:10:00.1Z</time>
      </trkpt>
      <trkpt lat="48.4789" lon="-2.76468">
        <ele>24</ele>
        <time>2013-12-07T10:10:03.1Z</time>
      </trkpt>
      <trkpt lat="48.47889" lon="-2.76463">
        <ele>24</ele>
        <time>2013-12-07T10:10:06.1Z</time>
      </trkpt>
      <trkpt lat="48.47888" lon="-2.7646">
        <ele>24</ele>
        <time>2013-12-07T10:10:08.1Z</time>
      </trkpt>
      <trkpt lat="48.47887" lon="-2.76454">
        <ele>24</ele>
        <time>2013-12-07T10:10:11.1Z</time>
      </trkpt>
      <trkpt lat="48.47887" lon="-2.76449">
        <ele>24</ele>
        <time>2013-12-07T10:10:14.1Z</time>
      </trkpt>
      <trkpt lat="48.47887" lon="-2.76446">
        <ele>25</ele>
        <time>2013-12-07T10:10:16.1Z</time>
      </trkpt>
      <trkpt lat="48.47886" lon="-2.76443">
        <ele>25</ele>
        <time>2013-12-07T10:10:18.1Z</time>
      </trkpt>
      <trkpt lat="48.47885" lon="-2.7644">
        <ele>25</ele>
        <time>2013-12-07T10:10:20.1Z</time>
      </trkpt>
      <trkpt lat="48.47884" lon="-2.76435">
        <ele>25</ele>
        <time>2013-12-07T10:10:23.1Z</time>
      </trkpt>
      <trkpt lat="48.47884" lon="-2.7643">
        <ele>24</ele>
        <time>2013-12-07T10:10:26.1Z</time>
      </trkpt>
      <trkpt lat="48.47883" lon="-2.76427">
        <ele>24</ele>
        <time>2013-12-07T10:10:28.1Z</time>
      </trkpt>
      <trkpt lat="48.47882" lon="-2.76423">
        <ele>24</ele>
        <time>2013-12-07T10:10:31.1Z</time>
      </trkpt>
      <trkpt lat="48.47881" lon="-2.76418">
        <ele>24</ele>
        <time>2013-12-07T10:10:34.1Z</time>
      </trkpt>
      <trkpt lat="48.47881" lon="-2.76414">
        <ele>24</ele>
        <time>2013-12-07T10:10:36.1Z</time>
      </trkpt>
      <trkpt lat="48.47881" lon="-2.76411">
        <ele>25</ele>
        <time>2013-12-07T10:10:39.1Z</time>
      </trkpt>
      <trkpt lat="48.4788" lon="-2.76407">
        <ele>25</ele>
        <time>2013-12-07T10:10:41.1Z</time>
      </trkpt>
      <trkpt lat="48.47878" lon="-2.76403">
        <ele>25</ele>
        <time>2013-12-07T10:10:44.1Z</time>
      </trkpt>
      <trkpt lat="48.47877" lon="-2.764">
        <ele>25</ele>
        <time>2013-12-07T10:10:46.1Z</time>
      </trkpt>
      <trkpt lat="48.47874" lon="-2.76396">
        <ele>26</ele>
        <time>2013-12-07T10:10:49.1Z</time>
      </trkpt>
      <trkpt lat="48.47873" lon="-2.76394">
        <ele>27</ele>
        <time>2013-12-07T10:10:51.1Z</time>
      </trkpt>
      <trkpt lat="48.47871" lon="-2.76392">
        <ele>27</ele>
        <time>2013-12-07T10:10:54.1Z</time>
      </trkpt>
      <trkpt lat="48.47868" lon="-2.76389">
        <ele>26</ele>
        <time>2013-12-07T10:10:57.1Z</time>
      </trkpt>
      <trkpt lat="48.47866" lon="-2.76386">
        <ele>25</ele>
        <time>2013-12-07T10:11:00.1Z</time>
      </trkpt>
      <trkpt lat="48.47862" lon="-2.76385">
        <ele>26</ele>
        <time>2013-12-07T10:11:03.1Z</time>
      </trkpt>
      <trkpt lat="48.4786" lon="-2.76383">
        <ele>25</ele>
        <time>2013-12-07T10:11:05.1Z</time>
      </trkpt>
      <trkpt lat="48.47858" lon="-2.76381">
        <ele>26</ele>
        <time>2013-12-07T10:11:08.1Z</time>
      </trkpt>
      <trkpt lat="48.47856" lon="-2.76379">
        <ele>26</ele>
        <time>2013-12-07T10:11:10.1Z</time>
      </trkpt>
      <trkpt lat="48.47853" lon="-2.76377">
        <ele>26</ele>
        <time>2013-12-07T10:11:13.1Z</time>
      </trkpt>
      <trkpt lat="48.47851" lon="-2.76375">
        <ele>26</ele>
        <time>2013-12-07T10:11:15.1Z</time>
      </trkpt>
      <trkpt lat="48.47849" lon="-2.76374">
        <ele>25</ele>
        <time>2013-12-07T10:11:17.1Z</time>
      </trkpt>
      <trkpt lat="48.47846" lon="-2.76372">
        <ele>25</ele>
        <time>2013-12-07T10:11:20.1Z</time>
      </trkpt>
      <trkpt lat="48.47842" lon="-2.76369">
        <ele>25</ele>
        <time>2013-12-07T10:11:23.1Z</time>
      </trkpt>
      <trkpt lat="48.4784" lon="-2.76368">
        <ele>26</ele>
        <time>2013-12-07T10:11:25.1Z</time>
      </trkpt>
      <trkpt lat="48.47837" lon="-2.76365">
        <ele>25</ele>
        <time>2013-12-07T10:11:28.1Z</time>
      </trkpt>
      <trkpt lat="48.47834" lon="-2.76362">
        <ele>26</ele>
        <time>2013-12-07T10:11:31.1Z</time>
      </trkpt>
      <trkpt lat="48.47832" lon="-2.7636">
        <ele>26</ele>
        <time>2013-12-07T10:11:33.1Z</time>
      </trkpt>
      <trkpt lat="48.4783" lon="-2.76358">
        <ele>26</ele>
        <time>2013-12-07T10:11:35.1Z</time>
      </trkpt>
      <trkpt lat="48.47828" lon="-2.76355">
        <ele>26</ele>
        <time>2013-12-07T10:11:38.1Z</time>
      </trkpt>
      <trkpt lat="48.47826" lon="-2.76352">
        <ele>26</ele>
        <time>2013-12-07T10:11:41.1Z</time>
      </trkpt>
      <trkpt lat="48.47823" lon="-2.76348">
        <ele>26</ele>
        <time>2013-12-07T10:11:44.1Z</time>
      </trkpt>
      <trkpt lat="48.47821" lon="-2.76345">
        <ele>26</ele>
        <time>2013-12-07T10:11:46.1Z</time>
      </trkpt>
      <trkpt lat="48.47819" lon="-2.76342">
        <ele>26</ele>
        <time>2013-12-07T10:11:49.1Z</time>
      </trkpt>
      <trkpt lat="48.47817" lon="-2.76338">
        <ele>25</ele>
        <time>2013-12-07T10:11:52.1Z</time>
      </trkpt>
      <trkpt lat="48.47816" lon="-2.76335">
        <ele>25</ele>
        <time>2013-12-07T10:11:54.1Z</time>
      </trkpt>
      <trkpt lat="48.47814" lon="-2.7633">
        <ele>25</ele>
        <time>2013-12-07T10:11:57.1Z</time>
      </trkpt>
      <trkpt lat="48.47812" lon="-2.76326">
        <ele>25</ele>
        <time>2013-12-07T10:12:00.1Z</time>
      </trkpt>
      <trkpt lat="48.4781" lon="-2.76322">
        <ele>26</ele>
        <time>2013-12-07T10:12:03.1Z</time>
      </trkpt>
      <trkpt lat="48.47809" lon="-2.76319">
        <ele>26</ele>
        <time>2013-12-07T10:12:05.1Z</time>
      </trkpt>
      <trkpt lat="48.47807" lon="-2.76314">
        <ele>26</ele>
        <time>2013-12-07T10:12:08.1Z</time>
      </trkpt>
      <trkpt lat="48.47806" lon="-2.76309">
        <ele>26</ele>
        <time>2013-12-07T10:12:11.1Z</time>
      </trkpt>
      <trkpt lat="48.47805" lon="-2.76303">
        <ele>25</ele>
        <time>2013-12-07T10:12:14.1Z</time>
      </trkpt>
      <trkpt lat="48.47805" lon="-2.763">
        <ele>26</ele>
        <time>2013-12-07T10:12:16.1Z</time>
      </trkpt>
      <trkpt lat="48.47804" lon="-2.76297">
        <ele>26</ele>
        <time>2013-12-07T10:12:18.1Z</time>
      </trkpt>
      <trkpt lat="48.47803" lon="-2.76292">
        <ele>26</ele>
        <time>2013-12-07T10:12:20.1Z</time>
      </trkpt>
      <trkpt lat="48.47804" lon="-2.76289">
        <ele>26</ele>
        <time>2013-12-07T10:12:22.1Z</time>
      </trkpt>
      <trkpt lat="48.47804" lon="-2.76284">
        <ele>26</ele>
        <time>2013-12-07T10:12:25.1Z</time>
      </trkpt>
      <trkpt lat="48.47803" lon="-2.76281">
        <ele>25</ele>
        <time>2013-12-07T10:12:27.1Z</time>
      </trkpt>
      <trkpt lat="48.47803" lon="-2.76277">
        <ele>25</ele>
        <time>2013-12-07T10:12:29.1Z</time>
      </trkpt>
      <trkpt lat="48.47803" lon="-2.76273">
        <ele>25</ele>
        <time>2013-12-07T10:12:32.1Z</time>
      </trkpt>
      <trkpt lat="48.47803" lon="-2.76269">
        <ele>25</ele>
        <time>2013-12-07T10:12:34.1Z</time>
      </trkpt>
      <trkpt lat="48.47802" lon="-2.76265">
        <ele>25</ele>
        <time>2013-12-07T10:12:37.1Z</time>
      </trkpt>
      <trkpt lat="48.47802" lon="-2.76261">
        <ele>25</ele>
        <time>2013-12-07T10:12:39.1Z</time>
      </trkpt>
      <trkpt lat="48.47801" lon="-2.76257">
        <ele>26</ele>
        <time>2013-12-07T10:12:42.1Z</time>
      </trkpt>
      <trkpt lat="48.478" lon="-2.76254">
        <ele>25</ele>
        <time>2013-12-07T10:12:44.1Z</time>
      </trkpt>
      <trkpt lat="48.478" lon="-2.76251">
        <ele>25</ele>
        <time>2013-12-07T10:12:46.1Z</time>
      </trkpt>
      <trkpt lat="48.47799" lon="-2.76246">
        <ele>25</ele>
        <time>2013-12-07T10:12:49.1Z</time>
      </trkpt>
      <trkpt lat="48.47799" lon="-2.76243">
        <ele>25</ele>
        <time>2013-12-07T10:12:51.1Z</time>
      </trkpt>
      <trkpt lat="48.47797" lon="-2.76238">
        <ele>25</ele>
        <time>2013-12-07T10:12:54.1Z</time>
      </trkpt>
      <trkpt lat="48.47797" lon="-2.76235">
        <ele>25</ele>
        <time>2013-12-07T10:12:56.1Z</time>
      </trkpt>
      <trkpt lat="48.47797" lon="-2.7623">
        <ele>25</ele>
        <time>2013-12-07T10:12:59.1Z</time>
      </trkpt>
      <trkpt lat="48.47796" lon="-2.76227">
        <ele>25</ele>
        <time>2013-12-07T10:13:01.1Z</time>
      </trkpt>
      <trkpt lat="48.47794" lon="-2.76222">
        <ele>25</ele>
        <time>2013-12-07T10:13:04.1Z</time>
      </trkpt>
      <trkpt lat="48.47794" lon="-2.76219">
        <ele>25</ele>
        <time>2013-12-07T10:13:06.1Z</time>
      </trkpt>
      <trkpt lat="48.47794" lon="-2.76214">
        <ele>25</ele>
        <time>2013-12-07T10:13:09.1Z</time>
      </trkpt>
      <trkpt lat="48.47794" lon="-2.76211">
        <ele>25</ele>
        <time>2013-12-07T10:13:11.1Z</time>
      </trkpt>
      <trkpt lat="48.47793" lon="-2.76206">
        <ele>25</ele>
        <time>2013-12-07T10:13:14.1Z</time>
      </trkpt>
      <trkpt lat="48.47793" lon="-2.76202">
        <ele>25</ele>
        <time>2013-12-07T10:13:17.1Z</time>
      </trkpt>
      <trkpt lat="48.47792" lon="-2.76198">
        <ele>25</ele>
        <time>2013-12-07T10:13:19.1Z</time>
      </trkpt>
      <trkpt lat="48.47792" lon="-2.76193">
        <ele>24</ele>
        <time>2013-12-07T10:13:22.1Z</time>
      </trkpt>
      <trkpt lat="48.47791" lon="-2.76188">
        <ele>24</ele>
        <time>2013-12-07T10:13:25.1Z</time>
      </trkpt>
      <trkpt lat="48.47791" lon="-2.76185">
        <ele>24</ele>
        <time>2013-12-07T10:13:27.1Z</time>
      </trkpt>
      <trkpt lat="48.4779" lon="-2.7618">
        <ele>24</ele>
        <time>2013-12-07T10:13:30.1Z</time>
      </trkpt>
      <trkpt lat="48.47789" lon="-2.76175">
        <ele>24</ele>
        <time>2013-12-07T10:13:33.1Z</time>
      </trkpt>
      <trkpt lat="48.47789" lon="-2.76172">
        <ele>24</ele>
        <time>2013-12-07T10:13:35.1Z</time>
      </trkpt>
      <trkpt lat="48.47789" lon="-2.76167">
        <ele>24</ele>
        <time>2013-12-07T10:13:38.1Z</time>
      </trkpt>
      <trkpt lat="48.47788" lon="-2.76162">
        <ele>24</ele>
        <time>2013-12-07T10:13:41.1Z</time>
      </trkpt>
      <trkpt lat="48.47787" lon="-2.76157">
        <ele>23</ele>
        <time>2013-12-07T10:13:44.1Z</time>
      </trkpt>
      <trkpt lat="48.47787" lon="-2.76152">
        <ele>23</ele>
        <time>2013-12-07T10:13:47.1Z</time>
      </trkpt>
      <trkpt lat="48.47786" lon="-2.76149">
        <ele>23</ele>
        <time>2013-12-07T10:13:49.1Z</time>
      </trkpt>
      <trkpt lat="48.47786" lon="-2.76145">
        <ele>23</ele>
        <time>2013-12-07T10:13:51.1Z</time>
      </trkpt>
      <trkpt lat="48.47786" lon="-2.7614">
        <ele>23</ele>
        <time>2013-12-07T10:13:54.1Z</time>
      </trkpt>
      <trkpt lat="48.47786" lon="-2.76136">
        <ele>23</ele>
        <time>2013-12-07T10:13:56.1Z</time>
      </trkpt>
      <trkpt lat="48.47785" lon="-2.76132">
        <ele>23</ele>
        <time>2013-12-07T10:13:59.1Z</time>
      </trkpt>
      <trkpt lat="48.47785" lon="-2.76128">
        <ele>23</ele>
        <time>2013-12-07T10:14:01.1Z</time>
      </trkpt>
      <trkpt lat="48.47784" lon="-2.76125">
        <ele>23</ele>
        <time>2013-12-07T10:14:03.1Z</time>
      </trkpt>
      <trkpt lat="48.47784" lon="-2.76119">
        <ele>23</ele>
        <time>2013-12-07T10:14:06.1Z</time>
      </trkpt>
      <trkpt lat="48.47783" lon="-2.76115">
        <ele>23</ele>
        <time>2013-12-07T10:14:09.1Z</time>
      </trkpt>
      <trkpt lat="48.47783" lon="-2.76112">
        <ele>23</ele>
        <time>2013-12-07T10:14:11.1Z</time>
      </trkpt>
      <trkpt lat="48.47783" lon="-2.76106">
        <ele>22</ele>
        <time>2013-12-07T10:14:14.1Z</time>
      </trkpt>
      <trkpt lat="48.47783" lon="-2.76103">
        <ele>22</ele>
        <time>2013-12-07T10:14:16.1Z</time>
      </trkpt>
      <trkpt lat="48.47782" lon="-2.76097">
        <ele>23</ele>
        <time>2013-12-07T10:14:19.1Z</time>
      </trkpt>
      <trkpt lat="48.47782" lon="-2.76095">
        <ele>22</ele>
        <time>2013-12-07T10:14:21.1Z</time>
      </trkpt>
      <trkpt lat="48.47781" lon="-2.76091">
        <ele>22</ele>
        <time>2013-12-07T10:14:23.1Z</time>
      </trkpt>
      <trkpt lat="48.47781" lon="-2.76086">
        <ele>22</ele>
        <time>2013-12-07T10:14:26.1Z</time>
      </trkpt>
      <trkpt lat="48.4778" lon="-2.76081">
        <ele>22</ele>
        <time>2013-12-07T10:14:29.1Z</time>
      </trkpt>
      <trkpt lat="48.4778" lon="-2.76078">
        <ele>22</ele>
        <time>2013-12-07T10:14:31.1Z</time>
      </trkpt>
      <trkpt lat="48.47779" lon="-2.76072">
        <ele>22</ele>
        <time>2013-12-07T10:14:34.1Z</time>
      </trkpt>
      <trkpt lat="48.47779" lon="-2.76069">
        <ele>22</ele>
        <time>2013-12-07T10:14:36.1Z</time>
      </trkpt>
      <trkpt lat="48.47778" lon="-2.76064">
        <ele>22</ele>
        <time>2013-12-07T10:14:39.1Z</time>
      </trkpt>
      <trkpt lat="48.47778" lon="-2.76059">
        <ele>22</ele>
        <time>2013-12-07T10:14:42.1Z</time>
      </trkpt>
      <trkpt lat="48.47778" lon="-2.76056">
        <ele>21</ele>
        <time>2013-12-07T10:14:44.1Z</time>
      </trkpt>
      <trkpt lat="48.47778" lon="-2.76053">
        <ele>21</ele>
        <time>2013-12-07T10:14:46.1Z</time>
      </trkpt>
      <trkpt lat="48.47778" lon="-2.76048">
        <ele>21</ele>
        <time>2013-12-07T10:14:49.1Z</time>
      </trkpt>
      <trkpt lat="48.47778" lon="-2.76045">
        <ele>21</ele>
        <time>2013-12-07T10:14:51.1Z</time>
      </trkpt>
      <trkpt lat="48.47778" lon="-2.76042">
        <ele>21</ele>
        <time>2013-12-07T10:14:53.1Z</time>
      </trkpt>
      <trkpt lat="48.47778" lon="-2.76037">
        <ele>21</ele>
        <time>2013-12-07T10:14:56.1Z</time>
      </trkpt>
      <trkpt lat="48.47778" lon="-2.76032">
        <ele>21</ele>
        <time>2013-12-07T10:14:59.1Z</time>
      </trkpt>
      <trkpt lat="48.47778" lon="-2.76027">
        <ele>22</ele>
        <time>2013-12-07T10:15:02.1Z</time>
      </trkpt>
      <trkpt lat="48.47778" lon="-2.76023">
        <ele>21</ele>
        <time>2013-12-07T10:15:04.1Z</time>
      </trkpt>
      <trkpt lat="48.47778" lon="-2.76018">
        <ele>21</ele>
        <time>2013-12-07T10:15:07.1Z</time>
      </trkpt>
      <trkpt lat="48.47778" lon="-2.76015">
        <ele>21</ele>
        <time>2013-12-07T10:15:09.1Z</time>
      </trkpt>
      <trkpt lat="48.47778" lon="-2.7601">
        <ele>21</ele>
        <time>2013-12-07T10:15:12.1Z</time>
      </trkpt>
      <trkpt lat="48.47778" lon="-2.76005">
        <ele>21</ele>
        <time>2013-12-07T10:15:15.1Z</time>
      </trkpt>
      <trkpt lat="48.47778" lon="-2.76001">
        <ele>21</ele>
        <time>2013-12-07T10:15:17.1Z</time>
      </trkpt>
      <trkpt lat="48.47778" lon="-2.75998">
        <ele>21</ele>
        <time>2013-12-07T10:15:20.1Z</time>
      </trkpt>
      <trkpt lat="48.47778" lon="-2.75997">
        <ele>21</ele>
        <time>2013-12-07T10:15:22.1Z</time>
      </trkpt>
      <trkpt lat="48.47777" lon="-2.75992">
        <ele>22</ele>
        <time>2013-12-07T10:15:25.1Z</time>
      </trkpt>
      <trkpt lat="48.47777" lon="-2.75989">
        <ele>21</ele>
        <time>2013-12-07T10:15:27.1Z</time>
      </trkpt>
      <trkpt lat="48.47777" lon="-2.75984">
        <ele>21</ele>
        <time>2013-12-07T10:15:30.1Z</time>
      </trkpt>
      <trkpt lat="48.47775" lon="-2.75979">
        <ele>21</ele>
        <time>2013-12-07T10:15:33.1Z</time>
      </trkpt>
      <trkpt lat="48.47775" lon="-2.75976">
        <ele>21</ele>
        <time>2013-12-07T10:15:35.1Z</time>
      </trkpt>
      <trkpt lat="48.47773" lon="-2.75972">
        <ele>20</ele>
        <time>2013-12-07T10:15:38.1Z</time>
      </trkpt>
      <trkpt lat="48.47773" lon="-2.75969">
        <ele>20</ele>
        <time>2013-12-07T10:15:40.1Z</time>
      </trkpt>
      <trkpt lat="48.47772" lon="-2.75966">
        <ele>20</ele>
        <time>2013-12-07T10:15:42.1Z</time>
      </trkpt>
      <trkpt lat="48.47771" lon="-2.7596">
        <ele>20</ele>
        <time>2013-12-07T10:15:45.1Z</time>
      </trkpt>
      <trkpt lat="48.4777" lon="-2.75958">
        <ele>20</ele>
        <time>2013-12-07T10:15:47.1Z</time>
      </trkpt>
      <trkpt lat="48.47769" lon="-2.75954">
        <ele>20</ele>
        <time>2013-12-07T10:15:49.1Z</time>
      </trkpt>
      <trkpt lat="48.47767" lon="-2.75949">
        <ele>19</ele>
        <time>2013-12-07T10:15:52.1Z</time>
      </trkpt>
      <trkpt lat="48.47766" lon="-2.75944">
        <ele>19</ele>
        <time>2013-12-07T10:15:55.1Z</time>
      </trkpt>
      <trkpt lat="48.47764" lon="-2.75939">
        <ele>19</ele>
        <time>2013-12-07T10:15:58.1Z</time>
      </trkpt>
      <trkpt lat="48.47763" lon="-2.75936">
        <ele>19</ele>
        <time>2013-12-07T10:16:00.1Z</time>
      </trkpt>
      <trkpt lat="48.47761" lon="-2.75931">
        <ele>19</ele>
        <time>2013-12-07T10:16:03.1Z</time>
      </trkpt>
      <trkpt lat="48.4776" lon="-2.75926">
        <ele>19</ele>
        <time>2013-12-07T10:16:06.1Z</time>
      </trkpt>
      <trkpt lat="48.47759" lon="-2.75922">
        <ele>19</ele>
        <time>2013-12-07T10:16:08.1Z</time>
      </trkpt>
      <trkpt lat="48.47758" lon="-2.75918">
        <ele>18</ele>
        <time>2013-12-07T10:16:11.1Z</time>
      </trkpt>
      <trkpt lat="48.47757" lon="-2.75915">
        <ele>18</ele>
        <time>2013-12-07T10:16:13.1Z</time>
      </trkpt>
      <trkpt lat="48.47756" lon="-2.7591">
        <ele>18</ele>
        <time>2013-12-07T10:16:16.1Z</time>
      </trkpt>
      <trkpt lat="48.47756" lon="-2.75906">
        <ele>18</ele>
        <time>2013-12-07T10:16:18.1Z</time>
      </trkpt>
      <trkpt lat="48.47755" lon="-2.75902">
        <ele>18</ele>
        <time>2013-12-07T10:16:21.1Z</time>
      </trkpt>
      <trkpt lat="48.47755" lon="-2.75897">
        <ele>18</ele>
        <time>2013-12-07T10:16:24.1Z</time>
      </trkpt>
      <trkpt lat="48.47754" lon="-2.75894">
        <ele>18</ele>
        <time>2013-12-07T10:16:26.1Z</time>
      </trkpt>
      <trkpt lat="48.47753" lon="-2.75889">
        <ele>18</ele>
        <time>2013-12-07T10:16:29.1Z</time>
      </trkpt>
      <trkpt lat="48.47753" lon="-2.75884">
        <ele>18</ele>
        <time>2013-12-07T10:16:32.1Z</time>
      </trkpt>
      <trkpt lat="48.47752" lon="-2.75881">
        <ele>17</ele>
        <time>2013-12-07T10:16:34.1Z</time>
      </trkpt>
      <trkpt lat="48.47752" lon="-2.75876">
        <ele>17</ele>
        <time>2013-12-07T10:16:37.1Z</time>
      </trkpt>
      <trkpt lat="48.47751" lon="-2.75873">
        <ele>18</ele>
        <time>2013-12-07T10:16:39.1Z</time>
      </trkpt>
      <trkpt lat="48.4775" lon="-2.75869">
        <ele>17</ele>
        <time>2013-12-07T10:16:42.1Z</time>
      </trkpt>
      <trkpt lat="48.4775" lon="-2.75866">
        <ele>17</ele>
        <time>2013-12-07T10:16:44.1Z</time>
      </trkpt>
      <trkpt lat="48.47749" lon="-2.75861">
        <ele>17</ele>
        <time>2013-12-07T10:16:47.1Z</time>
      </trkpt>
      <trkpt lat="48.47749" lon="-2.75858">
        <ele>17</ele>
        <time>2013-12-07T10:16:49.1Z</time>
      </trkpt>
      <trkpt lat="48.47749" lon="-2.75852">
        <ele>17</ele>
        <time>2013-12-07T10:16:52.1Z</time>
      </trkpt>
      <trkpt lat="48.47748" lon="-2.75847">
        <ele>17</ele>
        <time>2013-12-07T10:16:55.1Z</time>
      </trkpt>
      <trkpt lat="48.47748" lon="-2.75842">
        <ele>17</ele>
        <time>2013-12-07T10:16:58.1Z</time>
      </trkpt>
      <trkpt lat="48.47749" lon="-2.75837">
        <ele>16</ele>
        <time>2013-12-07T10:17:01.1Z</time>
      </trkpt>
      <trkpt lat="48.4775" lon="-2.75834">
        <ele>16</ele>
        <time>2013-12-07T10:17:03.1Z</time>
      </trkpt>
      <trkpt lat="48.47749" lon="-2.75834">
        <ele>16</ele>
        <time>2013-12-07T10:17:06.1Z</time>
      </trkpt>
      <trkpt lat="48.47749" lon="-2.75834">
        <ele>16</ele>
        <time>2013-12-07T10:17:08.1Z</time>
      </trkpt>
      <trkpt lat="48.47748" lon="-2.75832">
        <ele>17</ele>
        <time>2013-12-07T10:17:11.1Z</time>
      </trkpt>
      <trkpt lat="48.47747" lon="-2.75827">
        <ele>17</ele>
        <time>2013-12-07T10:17:14.1Z</time>
      </trkpt>
      <trkpt lat="48.47747" lon="-2.75822">
        <ele>16</ele>
        <time>2013-12-07T10:17:17.1Z</time>
      </trkpt>
      <trkpt lat="48.47747" lon="-2.75816">
        <ele>16</ele>
        <time>2013-12-07T10:17:20.1Z</time>
      </trkpt>
      <trkpt lat="48.47748" lon="-2.75811">
        <ele>16</ele>
        <time>2013-12-07T10:17:23.1Z</time>
      </trkpt>
      <trkpt lat="48.47749" lon="-2.75805">
        <ele>16</ele>
        <time>2013-12-07T10:17:26.1Z</time>
      </trkpt>
      <trkpt lat="48.47749" lon="-2.758">
        <ele>16</ele>
        <time>2013-12-07T10:17:29.1Z</time>
      </trkpt>
      <trkpt lat="48.4775" lon="-2.75795">
        <ele>16</ele>
        <time>2013-12-07T10:17:32.1Z</time>
      </trkpt>
      <trkpt lat="48.47751" lon="-2.75793">
        <ele>17</ele>
        <time>2013-12-07T10:17:34.1Z</time>
      </trkpt>
      <trkpt lat="48.47752" lon="-2.75789">
        <ele>16</ele>
        <time>2013-12-07T10:17:37.1Z</time>
      </trkpt>
      <trkpt lat="48.47754" lon="-2.75787">
        <ele>16</ele>
        <time>2013-12-07T10:17:39.1Z</time>
      </trkpt>
      <trkpt lat="48.47756" lon="-2.75785">
        <ele>17</ele>
        <time>2013-12-07T10:17:41.1Z</time>
      </trkpt>
      <trkpt lat="48.47757" lon="-2.75783">
        <ele>17</ele>
        <time>2013-12-07T10:17:43.1Z</time>
      </trkpt>
      <trkpt lat="48.47759" lon="-2.75782">
        <ele>17</ele>
        <time>2013-12-07T10:17:45.1Z</time>
      </trkpt>
      <trkpt lat="48.47761" lon="-2.7578">
        <ele>17</ele>
        <time>2013-12-07T10:17:47.1Z</time>
      </trkpt>
      <trkpt lat="48.47763" lon="-2.75779">
        <ele>17</ele>
        <time>2013-12-07T10:17:49.1Z</time>
      </trkpt>
      <trkpt lat="48.47765" lon="-2.75777">
        <ele>17</ele>
        <time>2013-12-07T10:17:51.1Z</time>
      </trkpt>
      <trkpt lat="48.47768" lon="-2.75775">
        <ele>17</ele>
        <time>2013-12-07T10:17:54.1Z</time>
      </trkpt>
      <trkpt lat="48.47769" lon="-2.75774">
        <ele>17</ele>
        <time>2013-12-07T10:17:56.1Z</time>
      </trkpt>
      <trkpt lat="48.47771" lon="-2.75772">
        <ele>17</ele>
        <time>2013-12-07T10:17:58.1Z</time>
      </trkpt>
      <trkpt lat="48.47773" lon="-2.7577">
        <ele>17</ele>
        <time>2013-12-07T10:18:00.1Z</time>
      </trkpt>
      <trkpt lat="48.47775" lon="-2.75768">
        <ele>17</ele>
        <time>2013-12-07T10:18:02.1Z</time>
      </trkpt>
      <trkpt lat="48.47777" lon="-2.75767">
        <ele>17</ele>
        <time>2013-12-07T10:18:04.1Z</time>
      </trkpt>
      <trkpt lat="48.4778" lon="-2.75764">
        <ele>17</ele>
        <time>2013-12-07T10:18:07.1Z</time>
      </trkpt>
      <trkpt lat="48.47782" lon="-2.75763">
        <ele>17</ele>
        <time>2013-12-07T10:18:09.1Z</time>
      </trkpt>
      <trkpt lat="48.47785" lon="-2.75761">
        <ele>17</ele>
        <time>2013-12-07T10:18:12.1Z</time>
      </trkpt>
      <trkpt lat="48.47789" lon="-2.75759">
        <ele>17</ele>
        <time>2013-12-07T10:18:15.1Z</time>
      </trkpt>
      <trkpt lat="48.47792" lon="-2.75757">
        <ele>18</ele>
        <time>2013-12-07T10:18:18.1Z</time>
      </trkpt>
      <trkpt lat="48.47794" lon="-2.75755">
        <ele>18</ele>
        <time>2013-12-07T10:18:20.1Z</time>
      </trkpt>
      <trkpt lat="48.47796" lon="-2.75753">
        <ele>18</ele>
        <time>2013-12-07T10:18:22.1Z</time>
      </trkpt>
      <trkpt lat="48.47799" lon="-2.75751">
        <ele>18</ele>
        <time>2013-12-07T10:18:25.1Z</time>
      </trkpt>
      <trkpt lat="48.47801" lon="-2.75749">
        <ele>18</ele>
        <time>2013-12-07T10:18:27.1Z</time>
      </trkpt>
      <trkpt lat="48.47803" lon="-2.75747">
        <ele>18</ele>
        <time>2013-12-07T10:18:29.1Z</time>
      </trkpt>
      <trkpt lat="48.47806" lon="-2.75745">
        <ele>18</ele>
        <time>2013-12-07T10:18:32.1Z</time>
      </trkpt>
      <trkpt lat="48.47808" lon="-2.75742">
        <ele>18</ele>
        <time>2013-12-07T10:18:35.1Z</time>
      </trkpt>
      <trkpt lat="48.4781" lon="-2.75738">
        <ele>18</ele>
        <time>2013-12-07T10:18:38.1Z</time>
      </trkpt>
      <trkpt lat="48.47812" lon="-2.75736">
        <ele>18</ele>
        <time>2013-12-07T10:18:40.1Z</time>
      </trkpt>
      <trkpt lat="48.47814" lon="-2.75733">
        <ele>18</ele>
        <time>2013-12-07T10:18:43.1Z</time>
      </trkpt>
      <trkpt lat="48.47816" lon="-2.75729">
        <ele>18</ele>
        <time>2013-12-07T10:18:46.1Z</time>
      </trkpt>
      <trkpt lat="48.47818" lon="-2.75726">
        <ele>18</ele>
        <time>2013-12-07T10:18:49.1Z</time>
      </trkpt>
      <trkpt lat="48.47821" lon="-2.75722">
        <ele>18</ele>
        <time>2013-12-07T10:18:52.1Z</time>
      </trkpt>
      <trkpt lat="48.47822" lon="-2.75719">
        <ele>18</ele>
        <time>2013-12-07T10:18:54.1Z</time>
      </trkpt>
      <trkpt lat="48.47824" lon="-2.75716">
        <ele>18</ele>
        <time>2013-12-07T10:18:57.1Z</time>
      </trkpt>
      <trkpt lat="48.47826" lon="-2.75714">
        <ele>18</ele>
        <time>2013-12-07T10:18:59.1Z</time>
      </trkpt>
      <trkpt lat="48.47828" lon="-2.7571">
        <ele>18</ele>
        <time>2013-12-07T10:19:02.1Z</time>
      </trkpt>
      <trkpt lat="48.4783" lon="-2.75705">
        <ele>18</ele>
        <time>2013-12-07T10:19:05.1Z</time>
      </trkpt>
      <trkpt lat="48.47831" lon="-2.75701">
        <ele>18</ele>
        <time>2013-12-07T10:19:07.1Z</time>
      </trkpt>
      <trkpt lat="48.47831" lon="-2.75697">
        <ele>18</ele>
        <time>2013-12-07T10:19:10.1Z</time>
      </trkpt>
      <trkpt lat="48.47833" lon="-2.75693">
        <ele>18</ele>
        <time>2013-12-07T10:19:13.1Z</time>
      </trkpt>
      <trkpt lat="48.47835" lon="-2.7569">
        <ele>19</ele>
        <time>2013-12-07T10:19:16.1Z</time>
      </trkpt>
      <trkpt lat="48.47836" lon="-2.75687">
        <ele>18</ele>
        <time>2013-12-07T10:19:18.1Z</time>
      </trkpt>
      <trkpt lat="48.47838" lon="-2.75683">
        <ele>18</ele>
        <time>2013-12-07T10:19:21.1Z</time>
      </trkpt>
      <trkpt lat="48.47839" lon="-2.7568">
        <ele>18</ele>
        <time>2013-12-07T10:19:23.1Z</time>
      </trkpt>
      <trkpt lat="48.47841" lon="-2.75675">
        <ele>18</ele>
        <time>2013-12-07T10:19:26.1Z</time>
      </trkpt>
      <trkpt lat="48.47842" lon="-2.75671">
        <ele>19</ele>
        <time>2013-12-07T10:19:29.1Z</time>
      </trkpt>
      <trkpt lat="48.47845" lon="-2.75667">
        <ele>19</ele>
        <time>2013-12-07T10:19:32.1Z</time>
      </trkpt>
      <trkpt lat="48.47847" lon="-2.75662">
        <ele>19</ele>
        <time>2013-12-07T10:19:35.1Z</time>
      </trkpt>
      <trkpt lat="48.47848" lon="-2.75659">
        <ele>19</ele>
        <time>2013-12-07T10:19:37.1Z</time>
      </trkpt>
      <trkpt lat="48.4785" lon="-2.75656">
        <ele>19</ele>
        <time>2013-12-07T10:19:40.1Z</time>
      </trkpt>
      <trkpt lat="48.47851" lon="-2.75651">
        <ele>19</ele>
        <time>2013-12-07T10:19:43.1Z</time>
      </trkpt>
      <trkpt lat="48.47853" lon="-2.75647">
        <ele>20</ele>
        <time>2013-12-07T10:19:46.1Z</time>
      </trkpt>
      <trkpt lat="48.47854" lon="-2.75645">
        <ele>20</ele>
        <time>2013-12-07T10:19:48.1Z</time>
      </trkpt>
      <trkpt lat="48.47855" lon="-2.75641">
        <ele>20</ele>
        <time>2013-12-07T10:19:51.1Z</time>
      </trkpt>
      <trkpt lat="48.47857" lon="-2.75638">
        <ele>20</ele>
        <time>2013-12-07T10:19:53.1Z</time>
      </trkpt>
      <trkpt lat="48.47858" lon="-2.75633">
        <ele>21</ele>
        <time>2013-12-07T10:19:56.1Z</time>
      </trkpt>
      <trkpt lat="48.47859" lon="-2.75629">
        <ele>21</ele>
        <time>2013-12-07T10:19:59.1Z</time>
      </trkpt>
      <trkpt lat="48.4786" lon="-2.75625">
        <ele>21</ele>
        <time>2013-12-07T10:20:02.1Z</time>
      </trkpt>
      <trkpt lat="48.47862" lon="-2.75622">
        <ele>21</ele>
        <time>2013-12-07T10:20:04.1Z</time>
      </trkpt>
      <trkpt lat="48.47863" lon="-2.75617">
        <ele>21</ele>
        <time>2013-12-07T10:20:07.1Z</time>
      </trkpt>
      <trkpt lat="48.47864" lon="-2.75614">
        <ele>21</ele>
        <time>2013-12-07T10:20:09.1Z</time>
      </trkpt>
      <trkpt lat="48.47865" lon="-2.75609">
        <ele>21</ele>
        <time>2013-12-07T10:20:12.1Z</time>
      </trkpt>
      <trkpt lat="48.47866" lon="-2.75606">
        <ele>21</ele>
        <time>2013-12-07T10:20:14.1Z</time>
      </trkpt>
      <trkpt lat="48.47867" lon="-2.75602">
        <ele>21</ele>
        <time>2013-12-07T10:20:16.1Z</time>
      </trkpt>
      <trkpt lat="48.47868" lon="-2.75599">
        <ele>21</ele>
        <time>2013-12-07T10:20:18.1Z</time>
      </trkpt>
      <trkpt lat="48.4787" lon="-2.75594">
        <ele>21</ele>
        <time>2013-12-07T10:20:21.1Z</time>
      </trkpt>
      <trkpt lat="48.47871" lon="-2.75589">
        <ele>21</ele>
        <time>2013-12-07T10:20:24.1Z</time>
      </trkpt>
      <trkpt lat="48.47872" lon="-2.75584">
        <ele>21</ele>
        <time>2013-12-07T10:20:27.1Z</time>
      </trkpt>
      <trkpt lat="48.47873" lon="-2.75581">
        <ele>21</ele>
        <time>2013-12-07T10:20:29.1Z</time>
      </trkpt>
      <trkpt lat="48.47874" lon="-2.75575">
        <ele>21</ele>
        <time>2013-12-07T10:20:32.1Z</time>
      </trkpt>
      <trkpt lat="48.47874" lon="-2.75572">
        <ele>21</ele>
        <time>2013-12-07T10:20:34.1Z</time>
      </trkpt>
      <trkpt lat="48.47875" lon="-2.75569">
        <ele>21</ele>
        <time>2013-12-07T10:20:36.1Z</time>
      </trkpt>
      <trkpt lat="48.47877" lon="-2.75565">
        <ele>21</ele>
        <time>2013-12-07T10:20:39.1Z</time>
      </trkpt>
      <trkpt lat="48.47878" lon="-2.75559">
        <ele>21</ele>
        <time>2013-12-07T10:20:42.1Z</time>
      </trkpt>
      <trkpt lat="48.47879" lon="-2.75555">
        <ele>21</ele>
        <time>2013-12-07T10:20:45.1Z</time>
      </trkpt>
      <trkpt lat="48.47879" lon="-2.7555">
        <ele>21</ele>
        <time>2013-12-07T10:20:48.1Z</time>
      </trkpt>
      <trkpt lat="48.47881" lon="-2.75545">
        <ele>21</ele>
        <time>2013-12-07T10:20:51.1Z</time>
      </trkpt>
      <trkpt lat="48.47881" lon="-2.75542">
        <ele>21</ele>
        <time>2013-12-07T10:20:53.1Z</time>
      </trkpt>
      <trkpt lat="48.47882" lon="-2.75537">
        <ele>21</ele>
        <time>2013-12-07T10:20:56.1Z</time>
      </trkpt>
      <trkpt lat="48.47883" lon="-2.75533">
        <ele>21</ele>
        <time>2013-12-07T10:20:59.1Z</time>
      </trkpt>
      <trkpt lat="48.47884" lon="-2.75528">
        <ele>21</ele>
        <time>2013-12-07T10:21:02.1Z</time>
      </trkpt>
      <trkpt lat="48.47884" lon="-2.75524">
        <ele>21</ele>
        <time>2013-12-07T10:21:04.1Z</time>
      </trkpt>
      <trkpt lat="48.47886" lon="-2.75519">
        <ele>21</ele>
        <time>2013-12-07T10:21:07.1Z</time>
      </trkpt>
      <trkpt lat="48.47887" lon="-2.75514">
        <ele>21</ele>
        <time>2013-12-07T10:21:10.1Z</time>
      </trkpt>
      <trkpt lat="48.47888" lon="-2.75511">
        <ele>21</ele>
        <time>2013-12-07T10:21:12.1Z</time>
      </trkpt>
      <trkpt lat="48.47889" lon="-2.75506">
        <ele>21</ele>
        <time>2013-12-07T10:21:15.1Z</time>
      </trkpt>
      <trkpt lat="48.4789" lon="-2.75503">
        <ele>21</ele>
        <time>2013-12-07T10:21:17.1Z</time>
      </trkpt>
      <trkpt lat="48.47892" lon="-2.75498">
        <ele>21</ele>
        <time>2013-12-07T10:21:20.1Z</time>
      </trkpt>
      <trkpt lat="48.47892" lon="-2.75495">
        <ele>21</ele>
        <time>2013-12-07T10:21:22.1Z</time>
      </trkpt>
      <trkpt lat="48.47893" lon="-2.75492">
        <ele>21</ele>
        <time>2013-12-07T10:21:24.1Z</time>
      </trkpt>
      <trkpt lat="48.47894" lon="-2.75487">
        <ele>21</ele>
        <time>2013-12-07T10:21:27.1Z</time>
      </trkpt>
      <trkpt lat="48.47894" lon="-2.75482">
        <ele>21</ele>
        <time>2013-12-07T10:21:30.1Z</time>
      </trkpt>
      <trkpt lat="48.47895" lon="-2.75477">
        <ele>21</ele>
        <time>2013-12-07T10:21:33.1Z</time>
      </trkpt>
      <trkpt lat="48.47896" lon="-2.75472">
        <ele>21</ele>
        <time>2013-12-07T10:21:36.1Z</time>
      </trkpt>
      <trkpt lat="48.47897" lon="-2.75469">
        <ele>21</ele>
        <time>2013-12-07T10:21:38.1Z</time>
      </trkpt>
      <trkpt lat="48.47898" lon="-2.75465">
        <ele>21</ele>
        <time>2013-12-07T10:21:41.1Z</time>
      </trkpt>
      <trkpt lat="48.479" lon="-2.75459">
        <ele>21</ele>
        <time>2013-12-07T10:21:44.1Z</time>
      </trkpt>
      <trkpt lat="48.47901" lon="-2.75454">
        <ele>21</ele>
        <time>2013-12-07T10:21:47.1Z</time>
      </trkpt>
      <trkpt lat="48.47902" lon="-2.75449">
        <ele>20</ele>
        <time>2013-12-07T10:21:50.1Z</time>
      </trkpt>
      <trkpt lat="48.47904" lon="-2.75444">
        <ele>21</ele>
        <time>2013-12-07T10:21:53.1Z</time>
      </trkpt>
      <trkpt lat="48.47905" lon="-2.7544">
        <ele>20</ele>
        <time>2013-12-07T10:21:55.1Z</time>
      </trkpt>
      <trkpt lat="48.47906" lon="-2.75437">
        <ele>21</ele>
        <time>2013-12-07T10:21:57.1Z</time>
      </trkpt>
      <trkpt lat="48.47907" lon="-2.75432">
        <ele>21</ele>
        <time>2013-12-07T10:22:00.1Z</time>
      </trkpt>
      <trkpt lat="48.47908" lon="-2.75427">
        <ele>21</ele>
        <time>2013-12-07T10:22:03.1Z</time>
      </trkpt>
      <trkpt lat="48.4791" lon="-2.75422">
        <ele>21</ele>
        <time>2013-12-07T10:22:06.1Z</time>
      </trkpt>
      <trkpt lat="48.47911" lon="-2.75418">
        <ele>21</ele>
        <time>2013-12-07T10:22:09.1Z</time>
      </trkpt>
      <trkpt lat="48.47911" lon="-2.75415">
        <ele>21</ele>
        <time>2013-12-07T10:22:11.1Z</time>
      </trkpt>
      <trkpt lat="48.47912" lon="-2.75412">
        <ele>21</ele>
        <time>2013-12-07T10:22:13.1Z</time>
      </trkpt>
      <trkpt lat="48.47913" lon="-2.75407">
        <ele>21</ele>
        <time>2013-12-07T10:22:16.1Z</time>
      </trkpt>
      <trkpt lat="48.47914" lon="-2.75404">
        <ele>21</ele>
        <time>2013-12-07T10:22:18.1Z</time>
      </trkpt>
      <trkpt lat="48.47916" lon="-2.754">
        <ele>21</ele>
        <time>2013-12-07T10:22:21.1Z</time>
      </trkpt>
      <trkpt lat="48.47918" lon="-2.75396">
        <ele>22</ele>
        <time>2013-12-07T10:22:24.1Z</time>
      </trkpt>
      <trkpt lat="48.47918" lon="-2.75393">
        <ele>22</ele>
        <time>2013-12-07T10:22:26.1Z</time>
      </trkpt>
      <trkpt lat="48.4792" lon="-2.75388">
        <ele>22</ele>
        <time>2013-12-07T10:22:29.1Z</time>
      </trkpt>
      <trkpt lat="48.47921" lon="-2.75383">
        <ele>22</ele>
        <time>2013-12-07T10:22:32.1Z</time>
      </trkpt>
      <trkpt lat="48.47923" lon="-2.75378">
        <ele>22</ele>
        <time>2013-12-07T10:22:35.1Z</time>
      </trkpt>
      <trkpt lat="48.47924" lon="-2.75375">
        <ele>22</ele>
        <time>2013-12-07T10:22:37.1Z</time>
      </trkpt>
      <trkpt lat="48.47925" lon="-2.7537">
        <ele>22</ele>
        <time>2013-12-07T10:22:40.1Z</time>
      </trkpt>
      <trkpt lat="48.47926" lon="-2.75367">
        <ele>22</ele>
        <time>2013-12-07T10:22:42.1Z</time>
      </trkpt>
      <trkpt lat="48.47928" lon="-2.75363">
        <ele>22</ele>
        <time>2013-12-07T10:22:45.1Z</time>
      </trkpt>
      <trkpt lat="48.47929" lon="-2.7536">
        <ele>22</ele>
        <time>2013-12-07T10:22:47.1Z</time>
      </trkpt>
      <trkpt lat="48.4793" lon="-2.75356">
        <ele>22</ele>
        <time>2013-12-07T10:22:50.1Z</time>
      </trkpt>
      <trkpt lat="48.47932" lon="-2.75353">
        <ele>22</ele>
        <time>2013-12-07T10:22:52.1Z</time>
      </trkpt>
      <trkpt lat="48.47933" lon="-2.75348">
        <ele>22</ele>
        <time>2013-12-07T10:22:55.1Z</time>
      </trkpt>
      <trkpt lat="48.47934" lon="-2.75345">
        <ele>22</ele>
        <time>2013-12-07T10:22:57.1Z</time>
      </trkpt>
      <trkpt lat="48.47935" lon="-2.75341">
        <ele>22</ele>
        <time>2013-12-07T10:23:00.1Z</time>
      </trkpt>
      <trkpt lat="48.47936" lon="-2.75338">
        <ele>22</ele>
        <time>2013-12-07T10:23:02.1Z</time>
      </trkpt>
      <trkpt lat="48.47938" lon="-2.75333">
        <ele>22</ele>
        <time>2013-12-07T10:23:05.1Z</time>
      </trkpt>
      <trkpt lat="48.47938" lon="-2.7533">
        <ele>22</ele>
        <time>2013-12-07T10:23:07.1Z</time>
      </trkpt>
      <trkpt lat="48.47939" lon="-2.75326">
        <ele>22</ele>
        <time>2013-12-07T10:23:09.1Z</time>
      </trkpt>
      <trkpt lat="48.4794" lon="-2.75323">
        <ele>22</ele>
        <time>2013-12-07T10:23:11.1Z</time>
      </trkpt>
      <trkpt lat="48.4794" lon="-2.7532">
        <ele>22</ele>
        <time>2013-12-07T10:23:14.1Z</time>
      </trkpt>
      <trkpt lat="48.47941" lon="-2.75315">
        <ele>22</ele>
        <time>2013-12-07T10:23:17.1Z</time>
      </trkpt>
      <trkpt lat="48.47942" lon="-2.75311">
        <ele>22</ele>
        <time>2013-12-07T10:23:19.1Z</time>
      </trkpt>
      <trkpt lat="48.47942" lon="-2.75308">
        <ele>22</ele>
        <time>2013-12-07T10:23:21.1Z</time>
      </trkpt>
      <trkpt lat="48.47942" lon="-2.75302">
        <ele>23</ele>
        <time>2013-12-07T10:23:24.1Z</time>
      </trkpt>
      <trkpt lat="48.47942" lon="-2.75299">
        <ele>23</ele>
        <time>2013-12-07T10:23:26.1Z</time>
      </trkpt>
      <trkpt lat="48.47942" lon="-2.75293">
        <ele>23</ele>
        <time>2013-12-07T10:23:29.1Z</time>
      </trkpt>
      <trkpt lat="48.47941" lon="-2.7529">
        <ele>23</ele>
        <time>2013-12-07T10:23:31.1Z</time>
      </trkpt>
      <trkpt lat="48.47942" lon="-2.75285">
        <ele>23</ele>
        <time>2013-12-07T10:23:34.1Z</time>
      </trkpt>
      <trkpt lat="48.47942" lon="-2.75282">
        <ele>23</ele>
        <time>2013-12-07T10:23:36.1Z</time>
      </trkpt>
      <trkpt lat="48.47942" lon="-2.75276">
        <ele>23</ele>
        <time>2013-12-07T10:23:39.1Z</time>
      </trkpt>
      <trkpt lat="48.47942" lon="-2.75272">
        <ele>23</ele>
        <time>2013-12-07T10:23:42.1Z</time>
      </trkpt>
      <trkpt lat="48.47943" lon="-2.75267">
        <ele>23</ele>
        <time>2013-12-07T10:23:45.1Z</time>
      </trkpt>
      <trkpt lat="48.47943" lon="-2.75264">
        <ele>23</ele>
        <time>2013-12-07T10:23:47.1Z</time>
      </trkpt>
      <trkpt lat="48.47943" lon="-2.7526">
        <ele>23</ele>
        <time>2013-12-07T10:23:50.1Z</time>
      </trkpt>
      <trkpt lat="48.47943" lon="-2.75255">
        <ele>24</ele>
        <time>2013-12-07T10:23:53.1Z</time>
      </trkpt>
      <trkpt lat="48.47944" lon="-2.75249">
        <ele>24</ele>
        <time>2013-12-07T10:23:56.1Z</time>
      </trkpt>
      <trkpt lat="48.47944" lon="-2.75246">
        <ele>24</ele>
        <time>2013-12-07T10:23:58.1Z</time>
      </trkpt>
      <trkpt lat="48.47945" lon="-2.7524">
        <ele>24</ele>
        <time>2013-12-07T10:24:01.1Z</time>
      </trkpt>
      <trkpt lat="48.47946" lon="-2.75237">
        <ele>24</ele>
        <time>2013-12-07T10:24:03.1Z</time>
      </trkpt>
      <trkpt lat="48.47946" lon="-2.75232">
        <ele>24</ele>
        <time>2013-12-07T10:24:06.1Z</time>
      </trkpt>
      <trkpt lat="48.47946" lon="-2.75228">
        <ele>24</ele>
        <time>2013-12-07T10:24:08.1Z</time>
      </trkpt>
      <trkpt lat="48.47946" lon="-2.75223">
        <ele>25</ele>
        <time>2013-12-07T10:24:11.1Z</time>
      </trkpt>
      <trkpt lat="48.47946" lon="-2.75219">
        <ele>24</ele>
        <time>2013-12-07T10:24:14.1Z</time>
      </trkpt>
      <trkpt lat="48.47946" lon="-2.75214">
        <ele>25</ele>
        <time>2013-12-07T10:24:17.1Z</time>
      </trkpt>
      <trkpt lat="48.47946" lon="-2.7521">
        <ele>25</ele>
        <time>2013-12-07T10:24:19.1Z</time>
      </trkpt>
      <trkpt lat="48.47946" lon="-2.75207">
        <ele>25</ele>
        <time>2013-12-07T10:24:21.1Z</time>
      </trkpt>
      <trkpt lat="48.47946" lon="-2.75204">
        <ele>26</ele>
        <time>2013-12-07T10:24:23.1Z</time>
      </trkpt>
      <trkpt lat="48.47946" lon="-2.75198">
        <ele>26</ele>
        <time>2013-12-07T10:24:26.1Z</time>
      </trkpt>
      <trkpt lat="48.47946" lon="-2.75195">
        <ele>26</ele>
        <time>2013-12-07T10:24:28.1Z</time>
      </trkpt>
      <trkpt lat="48.47946" lon="-2.75191">
        <ele>26</ele>
        <time>2013-12-07T10:24:30.1Z</time>
      </trkpt>
      <trkpt lat="48.47947" lon="-2.75188">
        <ele>26</ele>
        <time>2013-12-07T10:24:32.1Z</time>
      </trkpt>
      <trkpt lat="48.47947" lon="-2.75183">
        <ele>26</ele>
        <time>2013-12-07T10:24:35.1Z</time>
      </trkpt>
      <trkpt lat="48.47948" lon="-2.75178">
        <ele>26</ele>
        <time>2013-12-07T10:24:38.1Z</time>
      </trkpt>
      <trkpt lat="48.47949" lon="-2.75175">
        <ele>26</ele>
        <time>2013-12-07T10:24:40.1Z</time>
      </trkpt>
      <trkpt lat="48.47949" lon="-2.75171">
        <ele>26</ele>
        <time>2013-12-07T10:24:42.1Z</time>
      </trkpt>
      <trkpt lat="48.4795" lon="-2.75167">
        <ele>26</ele>
        <time>2013-12-07T10:24:45.1Z</time>
      </trkpt>
      <trkpt lat="48.47951" lon="-2.75163">
        <ele>26</ele>
        <time>2013-12-07T10:24:47.1Z</time>
      </trkpt>
      <trkpt lat="48.47952" lon="-2.7516">
        <ele>26</ele>
        <time>2013-12-07T10:24:49.1Z</time>
      </trkpt>
      <trkpt lat="48.47953" lon="-2.75156">
        <ele>26</ele>
        <time>2013-12-07T10:24:52.1Z</time>
      </trkpt>
      <trkpt lat="48.47954" lon="-2.75153">
        <ele>26</ele>
        <time>2013-12-07T10:24:54.1Z</time>
      </trkpt>
      <trkpt lat="48.47956" lon="-2.75148">
        <ele>26</ele>
        <time>2013-12-07T10:24:57.1Z</time>
      </trkpt>
      <trkpt lat="48.47958" lon="-2.75146">
        <ele>26</ele>
        <time>2013-12-07T10:24:59.1Z</time>
      </trkpt>
      <trkpt lat="48.4796" lon="-2.75143">
        <ele>26</ele>
        <time>2013-12-07T10:25:02.1Z</time>
      </trkpt>
      <trkpt lat="48.47962" lon="-2.75141">
        <ele>26</ele>
        <time>2013-12-07T10:25:04.1Z</time>
      </trkpt>
      <trkpt lat="48.47964" lon="-2.75138">
        <ele>26</ele>
        <time>2013-12-07T10:25:06.1Z</time>
      </trkpt>
      <trkpt lat="48.47966" lon="-2.75134">
        <ele>26</ele>
        <time>2013-12-07T10:25:09.1Z</time>
      </trkpt>
      <trkpt lat="48.47969" lon="-2.75131">
        <ele>26</ele>
        <time>2013-12-07T10:25:12.1Z</time>
      </trkpt>
      <trkpt lat="48.47971" lon="-2.75126">
        <ele>26</ele>
        <time>2013-12-07T10:25:15.1Z</time>
      </trkpt>
      <trkpt lat="48.47974" lon="-2.75122">
        <ele>26</ele>
        <time>2013-12-07T10:25:18.1Z</time>
      </trkpt>
      <trkpt lat="48.47976" lon="-2.75119">
        <ele>26</ele>
        <time>2013-12-07T10:25:21.1Z</time>
      </trkpt>
      <trkpt lat="48.47977" lon="-2.75116">
        <ele>26</ele>
        <time>2013-12-07T10:25:23.1Z</time>
      </trkpt>
      <trkpt lat="48.47979" lon="-2.75114">
        <ele>26</ele>
        <time>2013-12-07T10:25:25.1Z</time>
      </trkpt>
      <trkpt lat="48.47981" lon="-2.7511">
        <ele>26</ele>
        <time>2013-12-07T10:25:28.1Z</time>
      </trkpt>
      <trkpt lat="48.47983" lon="-2.75108">
        <ele>26</ele>
        <time>2013-12-07T10:25:30.1Z</time>
      </trkpt>
      <trkpt lat="48.47985" lon="-2.75105">
        <ele>26</ele>
        <time>2013-12-07T10:25:33.1Z</time>
      </trkpt>
      <trkpt lat="48.47987" lon="-2.75104">
        <ele>26</ele>
        <time>2013-12-07T10:25:35.1Z</time>
      </trkpt>
      <trkpt lat="48.47989" lon="-2.75102">
        <ele>26</ele>
        <time>2013-12-07T10:25:37.1Z</time>
      </trkpt>
      <trkpt lat="48.47991" lon="-2.751">
        <ele>25</ele>
        <time>2013-12-07T10:25:39.1Z</time>
      </trkpt>
      <trkpt lat="48.47993" lon="-2.75097">
        <ele>25</ele>
        <time>2013-12-07T10:25:42.1Z</time>
      </trkpt>
      <trkpt lat="48.47995" lon="-2.75095">
        <ele>25</ele>
        <time>2013-12-07T10:25:44.1Z</time>
      </trkpt>
      <trkpt lat="48.47997" lon="-2.75094">
        <ele>25</ele>
        <time>2013-12-07T10:25:46.1Z</time>
      </trkpt>
      <trkpt lat="48.48" lon="-2.75091">
        <ele>25</ele>
        <time>2013-12-07T10:25:49.1Z</time>
      </trkpt>
      <trkpt lat="48.48001" lon="-2.75089">
        <ele>25</ele>
        <time>2013-12-07T10:25:51.1Z</time>
      </trkpt>
      <trkpt lat="48.48004" lon="-2.75086">
        <ele>25</ele>
        <time>2013-12-07T10:25:54.1Z</time>
      </trkpt>
      <trkpt lat="48.48006" lon="-2.75084">
        <ele>25</ele>
        <time>2013-12-07T10:25:56.1Z</time>
      </trkpt>
      <trkpt lat="48.48009" lon="-2.75081">
        <ele>25</ele>
        <time>2013-12-07T10:25:59.1Z</time>
      </trkpt>
      <trkpt lat="48.48011" lon="-2.75079">
        <ele>25</ele>
        <time>2013-12-07T10:26:01.1Z</time>
      </trkpt>
      <trkpt lat="48.48014" lon="-2.75076">
        <ele>25</ele>
        <time>2013-12-07T10:26:04.1Z</time>
      </trkpt>
      <trkpt lat="48.48016" lon="-2.75074">
        <ele>25</ele>
        <time>2013-12-07T10:26:06.1Z</time>
      </trkpt>
      <trkpt lat="48.48019" lon="-2.75071">
        <ele>25</ele>
        <time>2013-12-07T10:26:09.1Z</time>
      </trkpt>
      <trkpt lat="48.4802" lon="-2.75069">
        <ele>25</ele>
        <time>2013-12-07T10:26:11.1Z</time>
      </trkpt>
      <trkpt lat="48.48023" lon="-2.75066">
        <ele>25</ele>
        <time>2013-12-07T10:26:14.1Z</time>
      </trkpt>
      <trkpt lat="48.48025" lon="-2.75064">
        <ele>25</ele>
        <time>2013-12-07T10:26:16.1Z</time>
      </trkpt>
      <trkpt lat="48.48027" lon="-2.75061">
        <ele>24</ele>
        <time>2013-12-07T10:26:19.1Z</time>
      </trkpt>
      <trkpt lat="48.4803" lon="-2.75059">
        <ele>25</ele>
        <time>2013-12-07T10:26:22.1Z</time>
      </trkpt>
      <trkpt lat="48.48033" lon="-2.75056">
        <ele>24</ele>
        <time>2013-12-07T10:26:25.1Z</time>
      </trkpt>
      <trkpt lat="48.48035" lon="-2.75055">
        <ele>24</ele>
        <time>2013-12-07T10:26:27.1Z</time>
      </trkpt>
      <trkpt lat="48.48037" lon="-2.75053">
        <ele>24</ele>
        <time>2013-12-07T10:26:29.1Z</time>
      </trkpt>
      <trkpt lat="48.4804" lon="-2.7505">
        <ele>24</ele>
        <time>2013-12-07T10:26:32.1Z</time>
      </trkpt>
      <trkpt lat="48.48042" lon="-2.75048">
        <ele>24</ele>
        <time>2013-12-07T10:26:34.1Z</time>
      </trkpt>
      <trkpt lat="48.48045" lon="-2.75046">
        <ele>24</ele>
        <time>2013-12-07T10:26:37.1Z</time>
      </trkpt>
      <trkpt lat="48.48047" lon="-2.75044">
        <ele>24</ele>
        <time>2013-12-07T10:26:39.1Z</time>
      </trkpt>
      <trkpt lat="48.48048" lon="-2.75043">
        <ele>24</ele>
        <time>2013-12-07T10:26:41.1Z</time>
      </trkpt>
      <trkpt lat="48.48051" lon="-2.75042">
        <ele>24</ele>
        <time>2013-12-07T10:26:43.1Z</time>
      </trkpt>
      <trkpt lat="48.48053" lon="-2.75041">
        <ele>24</ele>
        <time>2013-12-07T10:26:45.1Z</time>
      </trkpt>
      <trkpt lat="48.48056" lon="-2.75039">
        <ele>24</ele>
        <time>2013-12-07T10:26:48.1Z</time>
      </trkpt>
      <trkpt lat="48.48058" lon="-2.75038">
        <ele>24</ele>
        <time>2013-12-07T10:26:50.1Z</time>
      </trkpt>
      <trkpt lat="48.4806" lon="-2.75037">
        <ele>24</ele>
        <time>2013-12-07T10:26:52.1Z</time>
      </trkpt>
      <trkpt lat="48.48062" lon="-2.75036">
        <ele>23</ele>
        <time>2013-12-07T10:26:54.1Z</time>
      </trkpt>
      <trkpt lat="48.48065" lon="-2.75034">
        <ele>24</ele>
        <time>2013-12-07T10:26:57.1Z</time>
      </trkpt>
      <trkpt lat="48.48068" lon="-2.75032">
        <ele>24</ele>
        <time>2013-12-07T10:27:00.1Z</time>
      </trkpt>
      <trkpt lat="48.4807" lon="-2.75031">
        <ele>24</ele>
        <time>2013-12-07T10:27:02.1Z</time>
      </trkpt>
      <trkpt lat="48.48072" lon="-2.7503">
        <ele>23</ele>
        <time>2013-12-07T10:27:04.1Z</time>
      </trkpt>
      <trkpt lat="48.48074" lon="-2.75029">
        <ele>23</ele>
        <time>2013-12-07T10:27:06.1Z</time>
      </trkpt>
      <trkpt lat="48.48077" lon="-2.75026">
        <ele>23</ele>
        <time>2013-12-07T10:27:09.1Z</time>
      </trkpt>
      <trkpt lat="48.48079" lon="-2.75025">
        <ele>23</ele>
        <time>2013-12-07T10:27:11.1Z</time>
      </trkpt>
      <trkpt lat="48.4808" lon="-2.75024">
        <ele>22</ele>
        <time>2013-12-07T10:27:13.1Z</time>
      </trkpt>
      <trkpt lat="48.48083" lon="-2.75022">
        <ele>23</ele>
        <time>2013-12-07T10:27:16.1Z</time>
      </trkpt>
      <trkpt lat="48.48086" lon="-2.7502">
        <ele>23</ele>
        <time>2013-12-07T10:27:19.1Z</time>
      </trkpt>
      <trkpt lat="48.48088" lon="-2.75018">
        <ele>22</ele>
        <time>2013-12-07T10:27:21.1Z</time>
      </trkpt>
      <trkpt lat="48.48091" lon="-2.75016">
        <ele>22</ele>
        <time>2013-12-07T10:27:24.1Z</time>
      </trkpt>
      <trkpt lat="48.48093" lon="-2.75014">
        <ele>22</ele>
        <time>2013-12-07T10:27:26.1Z</time>
      </trkpt>
      <trkpt lat="48.48095" lon="-2.75012">
        <ele>22</ele>
        <time>2013-12-07T10:27:28.1Z</time>
      </trkpt>
      <trkpt lat="48.48097" lon="-2.7501">
        <ele>22</ele>
        <time>2013-12-07T10:27:30.1Z</time>
      </trkpt>
      <trkpt lat="48.48099" lon="-2.75008">
        <ele>22</ele>
        <time>2013-12-07T10:27:32.1Z</time>
      </trkpt>
      <trkpt lat="48.48102" lon="-2.75005">
        <ele>22</ele>
        <time>2013-12-07T10:27:35.1Z</time>
      </trkpt>
      <trkpt lat="48.48104" lon="-2.75002">
        <ele>22</ele>
        <time>2013-12-07T10:27:38.1Z</time>
      </trkpt>
      <trkpt lat="48.48106" lon="-2.75">
        <ele>22</ele>
        <time>2013-12-07T10:27:40.1Z</time>
      </trkpt>
      <trkpt lat="48.48108" lon="-2.74998">
        <ele>22</ele>
        <time>2013-12-07T10:27:43.1Z</time>
      </trkpt>
      <trkpt lat="48.4811" lon="-2.74995">
        <ele>22</ele>
        <time>2013-12-07T10:27:46.1Z</time>
      </trkpt>
      <trkpt lat="48.48112" lon="-2.74991">
        <ele>22</ele>
        <time>2013-12-07T10:27:49.1Z</time>
      </trkpt>
      <trkpt lat="48.48114" lon="-2.74988">
        <ele>22</ele>
        <time>2013-12-07T10:27:52.1Z</time>
      </trkpt>
      <trkpt lat="48.48116" lon="-2.74985">
        <ele>22</ele>
        <time>2013-12-07T10:27:54.1Z</time>
      </trkpt>
      <trkpt lat="48.48118" lon="-2.74981">
        <ele>22</ele>
        <time>2013-12-07T10:27:57.1Z</time>
      </trkpt>
      <trkpt lat="48.48119" lon="-2.74977">
        <ele>22</ele>
        <time>2013-12-07T10:28:00.1Z</time>
      </trkpt>
      <trkpt lat="48.4812" lon="-2.74973">
        <ele>22</ele>
        <time>2013-12-07T10:28:03.1Z</time>
      </trkpt>
      <trkpt lat="48.48119" lon="-2.74968">
        <ele>22</ele>
        <time>2013-12-07T10:28:06.1Z</time>
      </trkpt>
      <trkpt lat="48.48119" lon="-2.74965">
        <ele>22</ele>
        <time>2013-12-07T10:28:08.1Z</time>
      </trkpt>
      <trkpt lat="48.48119" lon="-2.74961">
        <ele>22</ele>
        <time>2013-12-07T10:28:10.1Z</time>
      </trkpt>
      <trkpt lat="48.48117" lon="-2.74958">
        <ele>23</ele>
        <time>2013-12-07T10:28:12.1Z</time>
      </trkpt>
      <trkpt lat="48.48116" lon="-2.74953">
        <ele>23</ele>
        <time>2013-12-07T10:28:15.1Z</time>
      </trkpt>
      <trkpt lat="48.48114" lon="-2.74949">
        <ele>24</ele>
        <time>2013-12-07T10:28:18.1Z</time>
      </trkpt>
      <trkpt lat="48.48112" lon="-2.74946">
        <ele>24</ele>
        <time>2013-12-07T10:28:20.1Z</time>
      </trkpt>
      <trkpt lat="48.48111" lon="-2.74943">
        <ele>24</ele>
        <time>2013-12-07T10:28:22.1Z</time>
      </trkpt>
      <trkpt lat="48.4811" lon="-2.74939">
        <ele>24</ele>
        <time>2013-12-07T10:28:24.1Z</time>
      </trkpt>
      <trkpt lat="48.48108" lon="-2.74935">
        <ele>24</ele>
        <time>2013-12-07T10:28:27.1Z</time>
      </trkpt>
      <trkpt lat="48.48107" lon="-2.74932">
        <ele>24</ele>
        <time>2013-12-07T10:28:29.1Z</time>
      </trkpt>
      <trkpt lat="48.48106" lon="-2.74928">
        <ele>24</ele>
        <time>2013-12-07T10:28:31.1Z</time>
      </trkpt>
      <trkpt lat="48.48104" lon="-2.74926">
        <ele>25</ele>
        <time>2013-12-07T10:28:33.1Z</time>
      </trkpt>
      <trkpt lat="48.48102" lon="-2.74922">
        <ele>25</ele>
        <time>2013-12-07T10:28:36.1Z</time>
      </trkpt>
      <trkpt lat="48.48101" lon="-2.74919">
        <ele>25</ele>
        <time>2013-12-07T10:28:38.1Z</time>
      </trkpt>
      <trkpt lat="48.48099" lon="-2.74915">
        <ele>25</ele>
        <time>2013-12-07T10:28:41.1Z</time>
      </trkpt>
      <trkpt lat="48.48098" lon="-2.74913">
        <ele>25</ele>
        <time>2013-12-07T10:28:43.1Z</time>
      </trkpt>
      <trkpt lat="48.48096" lon="-2.7491">
        <ele>26</ele>
        <time>2013-12-07T10:28:46.1Z</time>
      </trkpt>
      <trkpt lat="48.48096" lon="-2.74909">
        <ele>26</ele>
        <time>2013-12-07T10:28:48.1Z</time>
      </trkpt>
      <trkpt lat="48.48095" lon="-2.74909">
        <ele>26</ele>
        <time>2013-12-07T10:28:51.1Z</time>
      </trkpt>
      <trkpt lat="48.48095" lon="-2.74909">
        <ele>26</ele>
        <time>2013-12-07T10:28:53.1Z</time>
      </trkpt>
      <trkpt lat="48.48095" lon="-2.74909">
        <ele>26</ele>
        <time>2013-12-07T10:28:56.1Z</time>
      </trkpt>
      <trkpt lat="48.48095" lon="-2.74908">
        <ele>26</ele>
        <time>2013-12-07T10:28:59.1Z</time>
      </trkpt>
      <trkpt lat="48.48095" lon="-2.74909">
        <ele>27</ele>
        <time>2013-12-07T10:29:02.1Z</time>
      </trkpt>
      <trkpt lat="48.48095" lon="-2.74909">
        <ele>27</ele>
        <time>2013-12-07T10:29:05.1Z</time>
      </trkpt>
      <trkpt lat="48.48095" lon="-2.74909">
        <ele>27</ele>
        <time>2013-12-07T10:29:08.1Z</time>
      </trkpt>
      <trkpt lat="48.48095" lon="-2.7491">
        <ele>27</ele>
        <time>2013-12-07T10:29:10.1Z</time>
      </trkpt>
      <trkpt lat="48.48095" lon="-2.7491">
        <ele>26</ele>
        <time>2013-12-07T10:29:13.1Z</time>
      </trkpt>
      <trkpt lat="48.48094" lon="-2.74905">
        <ele>26</ele>
        <time>2013-12-07T10:29:16.1Z</time>
      </trkpt>
      <trkpt lat="48.48093" lon="-2.74902">
        <ele>26</ele>
        <time>2013-12-07T10:29:18.1Z</time>
      </trkpt>
      <trkpt lat="48.48091" lon="-2.74897">
        <ele>26</ele>
        <time>2013-12-07T10:29:21.1Z</time>
      </trkpt>
      <trkpt lat="48.4809" lon="-2.74893">
        <ele>26</ele>
        <time>2013-12-07T10:29:24.1Z</time>
      </trkpt>
      <trkpt lat="48.48088" lon="-2.74889">
        <ele>26</ele>
        <time>2013-12-07T10:29:26.1Z</time>
      </trkpt>
      <trkpt lat="48.48087" lon="-2.74886">
        <ele>26</ele>
        <time>2013-12-07T10:29:28.1Z</time>
      </trkpt>
      <trkpt lat="48.48085" lon="-2.74881">
        <ele>27</ele>
        <time>2013-12-07T10:29:31.1Z</time>
      </trkpt>
      <trkpt lat="48.48084" lon="-2.74877">
        <ele>27</ele>
        <time>2013-12-07T10:29:34.1Z</time>
      </trkpt>
      <trkpt lat="48.48082" lon="-2.74875">
        <ele>27</ele>
        <time>2013-12-07T10:29:36.1Z</time>
      </trkpt>
      <trkpt lat="48.48082" lon="-2.74872">
        <ele>27</ele>
        <time>2013-12-07T10:29:38.1Z</time>
      </trkpt>
      <trkpt lat="48.48079" lon="-2.74869">
        <ele>27</ele>
        <time>2013-12-07T10:29:41.1Z</time>
      </trkpt>
      <trkpt lat="48.48077" lon="-2.74867">
        <ele>27</ele>
        <time>2013-12-07T10:29:43.1Z</time>
      </trkpt>
      <trkpt lat="48.48075" lon="-2.74864">
        <ele>27</ele>
        <time>2013-12-07T10:29:46.1Z</time>
      </trkpt>
      <trkpt lat="48.48073" lon="-2.74863">
        <ele>28</ele>
        <time>2013-12-07T10:29:48.1Z</time>
      </trkpt>
      <trkpt lat="48.48071" lon="-2.74862">
        <ele>28</ele>
        <time>2013-12-07T10:29:50.1Z</time>
      </trkpt>
      <trkpt lat="48.48069" lon="-2.74861">
        <ele>29</ele>
        <time>2013-12-07T10:29:52.1Z</time>
      </trkpt>
      <trkpt lat="48.48066" lon="-2.74859">
        <ele>29</ele>
        <time>2013-12-07T10:29:55.1Z</time>
      </trkpt>
      <trkpt lat="48.48064" lon="-2.74858">
        <ele>29</ele>
        <time>2013-12-07T10:29:57.1Z</time>
      </trkpt>
      <trkpt lat="48.4806" lon="-2.74857">
        <ele>29</ele>
        <time>2013-12-07T10:30:00.1Z</time>
      </trkpt>
      <trkpt lat="48.48058" lon="-2.74856">
        <ele>29</ele>
        <time>2013-12-07T10:30:02.1Z</time>
      </trkpt>
      <trkpt lat="48.48055" lon="-2.74855">
        <ele>30</ele>
        <time>2013-12-07T10:30:05.1Z</time>
      </trkpt>
      <trkpt lat="48.48053" lon="-2.74854">
        <ele>29</ele>
        <time>2013-12-07T10:30:07.1Z</time>
      </trkpt>
      <trkpt lat="48.48051" lon="-2.74853">
        <ele>29</ele>
        <time>2013-12-07T10:30:09.1Z</time>
      </trkpt>
      <trkpt lat="48.48047" lon="-2.74851">
        <ele>29</ele>
        <time>2013-12-07T10:30:12.1Z</time>
      </trkpt>
      <trkpt lat="48.48045" lon="-2.7485">
        <ele>29</ele>
        <time>2013-12-07T10:30:14.1Z</time>
      </trkpt>
      <trkpt lat="48.48042" lon="-2.74848">
        <ele>30</ele>
        <time>2013-12-07T10:30:17.1Z</time>
      </trkpt>
      <trkpt lat="48.48039" lon="-2.74847">
        <ele>30</ele>
        <time>2013-12-07T10:30:20.1Z</time>
      </trkpt>
      <trkpt lat="48.48037" lon="-2.74845">
        <ele>30</ele>
        <time>2013-12-07T10:30:22.1Z</time>
      </trkpt>
      <trkpt lat="48.48035" lon="-2.74841">
        <ele>30</ele>
        <time>2013-12-07T10:30:25.1Z</time>
      </trkpt>
      <trkpt lat="48.48034" lon="-2.74839">
        <ele>30</ele>
        <time>2013-12-07T10:30:27.1Z</time>
      </trkpt>
      <trkpt lat="48.48032" lon="-2.74835">
        <ele>30</ele>
        <time>2013-12-07T10:30:30.1Z</time>
      </trkpt>
      <trkpt lat="48.48031" lon="-2.74831">
        <ele>30</ele>
        <time>2013-12-07T10:30:33.1Z</time>
      </trkpt>
      <trkpt lat="48.4803" lon="-2.74827">
        <ele>30</ele>
        <time>2013-12-07T10:30:36.1Z</time>
      </trkpt>
      <trkpt lat="48.4803" lon="-2.74824">
        <ele>31</ele>
        <time>2013-12-07T10:30:38.1Z</time>
      </trkpt>
      <trkpt lat="48.4803" lon="-2.7482">
        <ele>31</ele>
        <time>2013-12-07T10:30:40.1Z</time>
      </trkpt>
      <trkpt lat="48.4803" lon="-2.74817">
        <ele>31</ele>
        <time>2013-12-07T10:30:42.1Z</time>
      </trkpt>
      <trkpt lat="48.4803" lon="-2.74813">
        <ele>31</ele>
        <time>2013-12-07T10:30:45.1Z</time>
      </trkpt>
      <trkpt lat="48.4803" lon="-2.74809">
        <ele>31</ele>
        <time>2013-12-07T10:30:47.1Z</time>
      </trkpt>
      <trkpt lat="48.48031" lon="-2.74804">
        <ele>31</ele>
        <time>2013-12-07T10:30:50.1Z</time>
      </trkpt>
      <trkpt lat="48.48031" lon="-2.74801">
        <ele>31</ele>
        <time>2013-12-07T10:30:52.1Z</time>
      </trkpt>
      <trkpt lat="48.48031" lon="-2.74798">
        <ele>31</ele>
        <time>2013-12-07T10:30:54.1Z</time>
      </trkpt>
      <trkpt lat="48.48031" lon="-2.74795">
        <ele>31</ele>
        <time>2013-12-07T10:30:56.1Z</time>
      </trkpt>
      <trkpt lat="48.4803" lon="-2.74792">
        <ele>32</ele>
        <time>2013-12-07T10:30:58.1Z</time>
      </trkpt>
      <trkpt lat="48.4803" lon="-2.74787">
        <ele>32</ele>
        <time>2013-12-07T10:31:01.1Z</time>
      </trkpt>
      <trkpt lat="48.4803" lon="-2.74785">
        <ele>32</ele>
        <time>2013-12-07T10:31:03.1Z</time>
      </trkpt>
      <trkpt lat="48.4803" lon="-2.74782">
        <ele>32</ele>
        <time>2013-12-07T10:31:05.1Z</time>
      </trkpt>
      <trkpt lat="48.4803" lon="-2.74778">
        <ele>32</ele>
        <time>2013-12-07T10:31:08.1Z</time>
      </trkpt>
      <trkpt lat="48.4803" lon="-2.74775">
        <ele>33</ele>
        <time>2013-12-07T10:31:10.1Z</time>
      </trkpt>
      <trkpt lat="48.4803" lon="-2.74772">
        <ele>33</ele>
        <time>2013-12-07T10:31:12.1Z</time>
      </trkpt>
      <trkpt lat="48.4803" lon="-2.74767">
        <ele>34</ele>
        <time>2013-12-07T10:31:15.1Z</time>
      </trkpt>
      <trkpt lat="48.4803" lon="-2.74764">
        <ele>34</ele>
        <time>2013-12-07T10:31:17.1Z</time>
      </trkpt>
      <trkpt lat="48.4803" lon="-2.74761">
        <ele>34</ele>
        <time>2013-12-07T10:31:19.1Z</time>
      </trkpt>
      <trkpt lat="48.48029" lon="-2.74758">
        <ele>34</ele>
        <time>2013-12-07T10:31:21.1Z</time>
      </trkpt>
      <trkpt lat="48.48029" lon="-2.74753">
        <ele>34</ele>
        <time>2013-12-07T10:31:24.1Z</time>
      </trkpt>
      <trkpt lat="48.48029" lon="-2.74749">
        <ele>34</ele>
        <time>2013-12-07T10:31:26.1Z</time>
      </trkpt>
      <trkpt lat="48.48029" lon="-2.74746">
        <ele>34</ele>
        <time>2013-12-07T10:31:28.1Z</time>
      </trkpt>
      <trkpt lat="48.48029" lon="-2.74742">
        <ele>35</ele>
        <time>2013-12-07T10:31:31.1Z</time>
      </trkpt>
      <trkpt lat="48.48029" lon="-2.74737">
        <ele>35</ele>
        <time>2013-12-07T10:31:34.1Z</time>
      </trkpt>
      <trkpt lat="48.48029" lon="-2.74734">
        <ele>35</ele>
        <time>2013-12-07T10:31:36.1Z</time>
      </trkpt>
      <trkpt lat="48.48029" lon="-2.74731">
        <ele>35</ele>
        <time>2013-12-07T10:31:38.1Z</time>
      </trkpt>
      <trkpt lat="48.48029" lon="-2.74726">
        <ele>35</ele>
        <time>2013-12-07T10:31:41.1Z</time>
      </trkpt>
      <trkpt lat="48.48029" lon="-2.74723">
        <ele>36</ele>
        <time>2013-12-07T10:31:43.1Z</time>
      </trkpt>
      <trkpt lat="48.48029" lon="-2.74719">
        <ele>36</ele>
        <time>2013-12-07T10:31:45.1Z</time>
      </trkpt>
      <trkpt lat="48.4803" lon="-2.74714">
        <ele>36</ele>
        <time>2013-12-07T10:31:48.1Z</time>
      </trkpt>
      <trkpt lat="48.48029" lon="-2.74712">
        <ele>36</ele>
        <time>2013-12-07T10:31:50.1Z</time>
      </trkpt>
      <trkpt lat="48.48029" lon="-2.74708">
        <ele>36</ele>
        <time>2013-12-07T10:31:52.1Z</time>
      </trkpt>
      <trkpt lat="48.48029" lon="-2.74703">
        <ele>36</ele>
        <time>2013-12-07T10:31:55.1Z</time>
      </trkpt>
      <trkpt lat="48.48029" lon="-2.74698">
        <ele>36</ele>
        <time>2013-12-07T10:31:58.1Z</time>
      </trkpt>
      <trkpt lat="48.48029" lon="-2.74694">
        <ele>36</ele>
        <time>2013-12-07T10:32:00.1Z</time>
      </trkpt>
      <trkpt lat="48.48029" lon="-2.74691">
        <ele>37</ele>
        <time>2013-12-07T10:32:02.1Z</time>
      </trkpt>
      <trkpt lat="48.48029" lon="-2.74686">
        <ele>37</ele>
        <time>2013-12-07T10:32:05.1Z</time>
      </trkpt>
      <trkpt lat="48.48028" lon="-2.74682">
        <ele>37</ele>
        <time>2013-12-07T10:32:07.1Z</time>
      </trkpt>
      <trkpt lat="48.48027" lon="-2.74677">
        <ele>37</ele>
        <time>2013-12-07T10:32:10.1Z</time>
      </trkpt>
      <trkpt lat="48.48027" lon="-2.74675">
        <ele>37</ele>
        <time>2013-12-07T10:32:12.1Z</time>
      </trkpt>
      <trkpt lat="48.48025" lon="-2.7467">
        <ele>37</ele>
        <time>2013-12-07T10:32:15.1Z</time>
      </trkpt>
      <trkpt lat="48.48024" lon="-2.74667">
        <ele>37</ele>
        <time>2013-12-07T10:32:17.1Z</time>
      </trkpt>
      <trkpt lat="48.48021" lon="-2.74664">
        <ele>37</ele>
        <time>2013-12-07T10:32:20.1Z</time>
      </trkpt>
      <trkpt lat="48.48019" lon="-2.74663">
        <ele>38</ele>
        <time>2013-12-07T10:32:22.1Z</time>
      </trkpt>
      <trkpt lat="48.48016" lon="-2.74663">
        <ele>38</ele>
        <time>2013-12-07T10:32:24.1Z</time>
      </trkpt>
      <trkpt lat="48.48014" lon="-2.74663">
        <ele>38</ele>
        <time>2013-12-07T10:32:26.1Z</time>
      </trkpt>
      <trkpt lat="48.48012" lon="-2.74662">
        <ele>38</ele>
        <time>2013-12-07T10:32:28.1Z</time>
      </trkpt>
      <trkpt lat="48.4801" lon="-2.74662">
        <ele>37</ele>
        <time>2013-12-07T10:32:30.1Z</time>
      </trkpt>
      <trkpt lat="48.48006" lon="-2.74662">
        <ele>37</ele>
        <time>2013-12-07T10:32:33.1Z</time>
      </trkpt>
      <trkpt lat="48.48003" lon="-2.74661">
        <ele>37</ele>
        <time>2013-12-07T10:32:35.1Z</time>
      </trkpt>
      <trkpt lat="48.48001" lon="-2.7466">
        <ele>37</ele>
        <time>2013-12-07T10:32:37.1Z</time>
      </trkpt>
      <trkpt lat="48.47998" lon="-2.74658">
        <ele>36</ele>
        <time>2013-12-07T10:32:40.1Z</time>
      </trkpt>
      <trkpt lat="48.47995" lon="-2.74657">
        <ele>36</ele>
        <time>2013-12-07T10:32:42.1Z</time>
      </trkpt>
      <trkpt lat="48.47992" lon="-2.74656">
        <ele>36</ele>
        <time>2013-12-07T10:32:44.1Z</time>
      </trkpt>
      <trkpt lat="48.47989" lon="-2.74654">
        <ele>36</ele>
        <time>2013-12-07T10:32:47.1Z</time>
      </trkpt>
      <trkpt lat="48.47986" lon="-2.74652">
        <ele>36</ele>
        <time>2013-12-07T10:32:50.1Z</time>
      </trkpt>
      <trkpt lat="48.47984" lon="-2.74651">
        <ele>36</ele>
        <time>2013-12-07T10:32:52.1Z</time>
      </trkpt>
      <trkpt lat="48.4798" lon="-2.74648">
        <ele>36</ele>
        <time>2013-12-07T10:32:55.1Z</time>
      </trkpt>
      <trkpt lat="48.47979" lon="-2.74647">
        <ele>36</ele>
        <time>2013-12-07T10:32:57.1Z</time>
      </trkpt>
      <trkpt lat="48.47977" lon="-2.74643">
        <ele>35</ele>
        <time>2013-12-07T10:33:00.1Z</time>
      </trkpt>
      <trkpt lat="48.47977" lon="-2.7464">
        <ele>35</ele>
        <time>2013-12-07T10:33:02.1Z</time>
      </trkpt>
      <trkpt lat="48.47977" lon="-2.74637">
        <ele>35</ele>
        <time>2013-12-07T10:33:04.1Z</time>
      </trkpt>
      <trkpt lat="48.47978" lon="-2.74634">
        <ele>35</ele>
        <time>2013-12-07T10:33:06.1Z</time>
      </trkpt>
      <trkpt lat="48.47979" lon="-2.74629">
        <ele>36</ele>
        <time>2013-12-07T10:33:09.1Z</time>
      </trkpt>
      <trkpt lat="48.4798" lon="-2.74626">
        <ele>35</ele>
        <time>2013-12-07T10:33:11.1Z</time>
      </trkpt>
      <trkpt lat="48.47982" lon="-2.74621">
        <ele>35</ele>
        <time>2013-12-07T10:33:14.1Z</time>
      </trkpt>
      <trkpt lat="48.47982" lon="-2.74618">
        <ele>35</ele>
        <time>2013-12-07T10:33:16.1Z</time>
      </trkpt>
      <trkpt lat="48.47984" lon="-2.74613">
        <ele>35</ele>
        <time>2013-12-07T10:33:19.1Z</time>
      </trkpt>
      <trkpt lat="48.47985" lon="-2.74609">
        <ele>35</ele>
        <time>2013-12-07T10:33:22.1Z</time>
      </trkpt>
      <trkpt lat="48.47987" lon="-2.74604">
        <ele>35</ele>
        <time>2013-12-07T10:33:25.1Z</time>
      </trkpt>
      <trkpt lat="48.47987" lon="-2.74601">
        <ele>35</ele>
        <time>2013-12-07T10:33:27.1Z</time>
      </trkpt>
      <trkpt lat="48.47988" lon="-2.74598">
        <ele>35</ele>
        <time>2013-12-07T10:33:29.1Z</time>
      </trkpt>
      <trkpt lat="48.4799" lon="-2.74593">
        <ele>35</ele>
        <time>2013-12-07T10:33:32.1Z</time>
      </trkpt>
      <trkpt lat="48.47991" lon="-2.7459">
        <ele>35</ele>
        <time>2013-12-07T10:33:34.1Z</time>
      </trkpt>
      <trkpt lat="48.47992" lon="-2.74587">
        <ele>35</ele>
        <time>2013-12-07T10:33:36.1Z</time>
      </trkpt>
      <trkpt lat="48.47994" lon="-2.74583">
        <ele>35</ele>
        <time>2013-12-07T10:33:39.1Z</time>
      </trkpt>
      <trkpt lat="48.47995" lon="-2.74579">
        <ele>36</ele>
        <time>2013-12-07T10:33:41.1Z</time>
      </trkpt>
      <trkpt lat="48.47996" lon="-2.74576">
        <ele>35</ele>
        <time>2013-12-07T10:33:43.1Z</time>
      </trkpt>
      <trkpt lat="48.47998" lon="-2.74572">
        <ele>35</ele>
        <time>2013-12-07T10:33:46.1Z</time>
      </trkpt>
      <trkpt lat="48.47999" lon="-2.74567">
        <ele>35</ele>
        <time>2013-12-07T10:33:49.1Z</time>
      </trkpt>
      <trkpt lat="48.48" lon="-2.74565">
        <ele>35</ele>
        <time>2013-12-07T10:33:51.1Z</time>
      </trkpt>
      <trkpt lat="48.48001" lon="-2.7456">
        <ele>35</ele>
        <time>2013-12-07T10:33:54.1Z</time>
      </trkpt>
      <trkpt lat="48.48002" lon="-2.74555">
        <ele>35</ele>
        <time>2013-12-07T10:33:57.1Z</time>
      </trkpt>
      <trkpt lat="48.48003" lon="-2.7455">
        <ele>34</ele>
        <time>2013-12-07T10:34:00.1Z</time>
      </trkpt>
      <trkpt lat="48.48004" lon="-2.74547">
        <ele>34</ele>
        <time>2013-12-07T10:34:02.1Z</time>
      </trkpt>
      <trkpt lat="48.48006" lon="-2.74543">
        <ele>34</ele>
        <time>2013-12-07T10:34:05.1Z</time>
      </trkpt>
      <trkpt lat="48.48007" lon="-2.74538">
        <ele>35</ele>
        <time>2013-12-07T10:34:08.1Z</time>
      </trkpt>
      <trkpt lat="48.48008" lon="-2.74535">
        <ele>35</ele>
        <time>2013-12-07T10:34:10.1Z</time>
      </trkpt>
      <trkpt lat="48.48008" lon="-2.74532">
        <ele>35</ele>
        <time>2013-12-07T10:34:12.1Z</time>
      </trkpt>
      <trkpt lat="48.48009" lon="-2.74527">
        <ele>35</ele>
        <time>2013-12-07T10:34:15.1Z</time>
      </trkpt>
      <trkpt lat="48.4801" lon="-2.74524">
        <ele>35</ele>
        <time>2013-12-07T10:34:17.1Z</time>
      </trkpt>
      <trkpt lat="48.48011" lon="-2.74519">
        <ele>35</ele>
        <time>2013-12-07T10:34:20.1Z</time>
      </trkpt>
      <trkpt lat="48.48011" lon="-2.74517">
        <ele>35</ele>
        <time>2013-12-07T10:34:22.1Z</time>
      </trkpt>
      <trkpt lat="48.48011" lon="-2.74514">
        <ele>35</ele>
        <time>2013-12-07T10:34:24.1Z</time>
      </trkpt>
      <trkpt lat="48.48012" lon="-2.74511">
        <ele>35</ele>
        <time>2013-12-07T10:34:26.1Z</time>
      </trkpt>
      <trkpt lat="48.48014" lon="-2.74505">
        <ele>35</ele>
        <time>2013-12-07T10:34:29.1Z</time>
      </trkpt>
      <trkpt lat="48.48014" lon="-2.74503">
        <ele>35</ele>
        <time>2013-12-07T10:34:31.1Z</time>
      </trkpt>
      <trkpt lat="48.48016" lon="-2.74498">
        <ele>36</ele>
        <time>2013-12-07T10:34:34.1Z</time>
      </trkpt>
      <trkpt lat="48.48017" lon="-2.74493">
        <ele>35</ele>
        <time>2013-12-07T10:34:37.1Z</time>
      </trkpt>
      <trkpt lat="48.48018" lon="-2.7449">
        <ele>35</ele>
        <time>2013-12-07T10:34:39.1Z</time>
      </trkpt>
      <trkpt lat="48.48019" lon="-2.74485">
        <ele>35</ele>
        <time>2013-12-07T10:34:42.1Z</time>
      </trkpt>
      <trkpt lat="48.4802" lon="-2.7448">
        <ele>35</ele>
        <time>2013-12-07T10:34:45.1Z</time>
      </trkpt>
      <trkpt lat="48.48021" lon="-2.74478">
        <ele>35</ele>
        <time>2013-12-07T10:34:47.1Z</time>
      </trkpt>
      <trkpt lat="48.48023" lon="-2.74473">
        <ele>35</ele>
        <time>2013-12-07T10:34:50.1Z</time>
      </trkpt>
      <trkpt lat="48.48024" lon="-2.7447">
        <ele>35</ele>
        <time>2013-12-07T10:34:52.1Z</time>
      </trkpt>
      <trkpt lat="48.48024" lon="-2.74467">
        <ele>35</ele>
        <time>2013-12-07T10:34:54.1Z</time>
      </trkpt>
      <trkpt lat="48.48026" lon="-2.74462">
        <ele>35</ele>
        <time>2013-12-07T10:34:57.1Z</time>
      </trkpt>
      <trkpt lat="48.48027" lon="-2.74457">
        <ele>35</ele>
        <time>2013-12-07T10:35:00.1Z</time>
      </trkpt>
      <trkpt lat="48.48028" lon="-2.74453">
        <ele>35</ele>
        <time>2013-12-07T10:35:02.1Z</time>
      </trkpt>
      <trkpt lat="48.48029" lon="-2.74448">
        <ele>35</ele>
        <time>2013-12-07T10:35:05.1Z</time>
      </trkpt>
      <trkpt lat="48.4803" lon="-2.74444">
        <ele>35</ele>
        <time>2013-12-07T10:35:07.1Z</time>
      </trkpt>
      <trkpt lat="48.48031" lon="-2.74439">
        <ele>35</ele>
        <time>2013-12-07T10:35:10.1Z</time>
      </trkpt>
      <trkpt lat="48.48032" lon="-2.74433">
        <ele>35</ele>
        <time>2013-12-07T10:35:13.1Z</time>
      </trkpt>
      <trkpt lat="48.48032" lon="-2.7443">
        <ele>35</ele>
        <time>2013-12-07T10:35:15.1Z</time>
      </trkpt>
      <trkpt lat="48.48033" lon="-2.74425">
        <ele>36</ele>
        <time>2013-12-07T10:35:18.1Z</time>
      </trkpt>
      <trkpt lat="48.48034" lon="-2.74422">
        <ele>36</ele>
        <time>2013-12-07T10:35:20.1Z</time>
      </trkpt>
      <trkpt lat="48.48035" lon="-2.74417">
        <ele>36</ele>
        <time>2013-12-07T10:35:23.1Z</time>
      </trkpt>
      <trkpt lat="48.48035" lon="-2.74412">
        <ele>36</ele>
        <time>2013-12-07T10:35:26.1Z</time>
      </trkpt>
      <trkpt lat="48.48036" lon="-2.74409">
        <ele>36</ele>
        <time>2013-12-07T10:35:28.1Z</time>
      </trkpt>
      <trkpt lat="48.48036" lon="-2.74407">
        <ele>36</ele>
        <time>2013-12-07T10:35:30.1Z</time>
      </trkpt>
      <trkpt lat="48.48037" lon="-2.74403">
        <ele>36</ele>
        <time>2013-12-07T10:35:33.1Z</time>
      </trkpt>
      <trkpt lat="48.48038" lon="-2.744">
        <ele>35</ele>
        <time>2013-12-07T10:35:35.1Z</time>
      </trkpt>
      <trkpt lat="48.48038" lon="-2.74397">
        <ele>36</ele>
        <time>2013-12-07T10:35:37.1Z</time>
      </trkpt>
      <trkpt lat="48.48039" lon="-2.74392">
        <ele>36</ele>
        <time>2013-12-07T10:35:40.1Z</time>
      </trkpt>
      <trkpt lat="48.4804" lon="-2.74387">
        <ele>36</ele>
        <time>2013-12-07T10:35:43.1Z</time>
      </trkpt>
      <trkpt lat="48.4804" lon="-2.74381">
        <ele>35</ele>
        <time>2013-12-07T10:35:46.1Z</time>
      </trkpt>
      <trkpt lat="48.48041" lon="-2.74378">
        <ele>35</ele>
        <time>2013-12-07T10:35:48.1Z</time>
      </trkpt>
      <trkpt lat="48.48042" lon="-2.74373">
        <ele>35</ele>
        <time>2013-12-07T10:35:51.1Z</time>
      </trkpt>
      <trkpt lat="48.48042" lon="-2.74369">
        <ele>35</ele>
        <time>2013-12-07T10:35:53.1Z</time>
      </trkpt>
      <trkpt lat="48.48044" lon="-2.74364">
        <ele>35</ele>
        <time>2013-12-07T10:35:56.1Z</time>
      </trkpt>
      <trkpt lat="48.48045" lon="-2.7436">
        <ele>35</ele>
        <time>2013-12-07T10:35:58.1Z</time>
      </trkpt>
      <trkpt lat="48.48046" lon="-2.74355">
        <ele>35</ele>
        <time>2013-12-07T10:36:01.1Z</time>
      </trkpt>
      <trkpt lat="48.48048" lon="-2.74351">
        <ele>35</ele>
        <time>2013-12-07T10:36:03.1Z</time>
      </trkpt>
      <trkpt lat="48.48049" lon="-2.74347">
        <ele>35</ele>
        <time>2013-12-07T10:36:06.1Z</time>
      </trkpt>
      <trkpt lat="48.4805" lon="-2.74343">
        <ele>35</ele>
        <time>2013-12-07T10:36:08.1Z</time>
      </trkpt>
      <trkpt lat="48.48051" lon="-2.7434">
        <ele>35</ele>
        <time>2013-12-07T10:36:11.1Z</time>
      </trkpt>
      <trkpt lat="48.48052" lon="-2.74337">
        <ele>35</ele>
        <time>2013-12-07T10:36:13.1Z</time>
      </trkpt>
      <trkpt lat="48.48053" lon="-2.74333">
        <ele>35</ele>
        <time>2013-12-07T10:36:16.1Z</time>
      </trkpt>
      <trkpt lat="48.48055" lon="-2.7433">
        <ele>35</ele>
        <time>2013-12-07T10:36:18.1Z</time>
      </trkpt>
      <trkpt lat="48.48057" lon="-2.74325">
        <ele>36</ele>
        <time>2013-12-07T10:36:21.1Z</time>
      </trkpt>
      <trkpt lat="48.48059" lon="-2.74322">
        <ele>36</ele>
        <time>2013-12-07T10:36:23.1Z</time>
      </trkpt>
      <trkpt lat="48.48061" lon="-2.74318">
        <ele>36</ele>
        <time>2013-12-07T10:36:26.1Z</time>
      </trkpt>
      <trkpt lat="48.48062" lon="-2.74316">
        <ele>36</ele>
        <time>2013-12-07T10:36:28.1Z</time>
      </trkpt>
      <trkpt lat="48.48063" lon="-2.74313">
        <ele>36</ele>
        <time>2013-12-07T10:36:30.1Z</time>
      </trkpt>
      <trkpt lat="48.48065" lon="-2.74309">
        <ele>36</ele>
        <time>2013-12-07T10:36:33.1Z</time>
      </trkpt>
      <trkpt lat="48.48066" lon="-2.74306">
        <ele>36</ele>
        <time>2013-12-07T10:36:35.1Z</time>
      </trkpt>
      <trkpt lat="48.48066" lon="-2.74303">
        <ele>36</ele>
        <time>2013-12-07T10:36:37.1Z</time>
      </trkpt>
      <trkpt lat="48.48067" lon="-2.74298">
        <ele>36</ele>
        <time>2013-12-07T10:36:40.1Z</time>
      </trkpt>
      <trkpt lat="48.48069" lon="-2.74293">
        <ele>36</ele>
        <time>2013-12-07T10:36:43.1Z</time>
      </trkpt>
      <trkpt lat="48.4807" lon="-2.74289">
        <ele>36</ele>
        <time>2013-12-07T10:36:45.1Z</time>
      </trkpt>
      <trkpt lat="48.48071" lon="-2.74284">
        <ele>36</ele>
        <time>2013-12-07T10:36:48.1Z</time>
      </trkpt>
      <trkpt lat="48.48072" lon="-2.7428">
        <ele>36</ele>
        <time>2013-12-07T10:36:50.1Z</time>
      </trkpt>
      <trkpt lat="48.48072" lon="-2.74277">
        <ele>36</ele>
        <time>2013-12-07T10:36:52.1Z</time>
      </trkpt>
      <trkpt lat="48.48073" lon="-2.74272">
        <ele>36</ele>
        <time>2013-12-07T10:36:55.1Z</time>
      </trkpt>
      <trkpt lat="48.48074" lon="-2.74269">
        <ele>36</ele>
        <time>2013-12-07T10:36:57.1Z</time>
      </trkpt>
      <trkpt lat="48.48075" lon="-2.74264">
        <ele>36</ele>
        <time>2013-12-07T10:37:00.1Z</time>
      </trkpt>
      <trkpt lat="48.48076" lon="-2.7426">
        <ele>36</ele>
        <time>2013-12-07T10:37:02.1Z</time>
      </trkpt>
      <trkpt lat="48.48077" lon="-2.74255">
        <ele>36</ele>
        <time>2013-12-07T10:37:05.1Z</time>
      </trkpt>
      <trkpt lat="48.48078" lon="-2.7425">
        <ele>36</ele>
        <time>2013-12-07T10:37:08.1Z</time>
      </trkpt>
      <trkpt lat="48.48079" lon="-2.74245">
        <ele>36</ele>
        <time>2013-12-07T10:37:11.1Z</time>
      </trkpt>
      <trkpt lat="48.4808" lon="-2.74239">
        <ele>37</ele>
        <time>2013-12-07T10:37:14.1Z</time>
      </trkpt>
      <trkpt lat="48.48081" lon="-2.74236">
        <ele>36</ele>
        <time>2013-12-07T10:37:16.1Z</time>
      </trkpt>
      <trkpt lat="48.48082" lon="-2.7423">
        <ele>37</ele>
        <time>2013-12-07T10:37:19.1Z</time>
      </trkpt>
      <trkpt lat="48.48083" lon="-2.74227">
        <ele>37</ele>
        <time>2013-12-07T10:37:21.1Z</time>
      </trkpt>
      <trkpt lat="48.48084" lon="-2.74223">
        <ele>37</ele>
        <time>2013-12-07T10:37:23.1Z</time>
      </trkpt>
      <trkpt lat="48.48084" lon="-2.74218">
        <ele>37</ele>
        <time>2013-12-07T10:37:26.1Z</time>
      </trkpt>
      <trkpt lat="48.48085" lon="-2.74214">
        <ele>37</ele>
        <time>2013-12-07T10:37:28.1Z</time>
      </trkpt>
      <trkpt lat="48.48085" lon="-2.74211">
        <ele>37</ele>
        <time>2013-12-07T10:37:30.1Z</time>
      </trkpt>
      <trkpt lat="48.48085" lon="-2.74205">
        <ele>37</ele>
        <time>2013-12-07T10:37:33.1Z</time>
      </trkpt>
      <trkpt lat="48.48086" lon="-2.742">
        <ele>36</ele>
        <time>2013-12-07T10:37:36.1Z</time>
      </trkpt>
      <trkpt lat="48.48086" lon="-2.74195">
        <ele>36</ele>
        <time>2013-12-07T10:37:39.1Z</time>
      </trkpt>
      <trkpt lat="48.48086" lon="-2.74191">
        <ele>37</ele>
        <time>2013-12-07T10:37:41.1Z</time>
      </trkpt>
      <trkpt lat="48.48086" lon="-2.74185">
        <ele>37</ele>
        <time>2013-12-07T10:37:44.1Z</time>
      </trkpt>
      <trkpt lat="48.48087" lon="-2.74181">
        <ele>37</ele>
        <time>2013-12-07T10:37:47.1Z</time>
      </trkpt>
      <trkpt lat="48.48088" lon="-2.74177">
        <ele>37</ele>
        <time>2013-12-07T10:37:49.1Z</time>
      </trkpt>
      <trkpt lat="48.48088" lon="-2.74173">
        <ele>37</ele>
        <time>2013-12-07T10:37:51.1Z</time>
      </trkpt>
      <trkpt lat="48.48089" lon="-2.74168">
        <ele>37</ele>
        <time>2013-12-07T10:37:54.1Z</time>
      </trkpt>
      <trkpt lat="48.4809" lon="-2.74163">
        <ele>37</ele>
        <time>2013-12-07T10:37:57.1Z</time>
      </trkpt>
      <trkpt lat="48.4809" lon="-2.74159">
        <ele>36</ele>
        <time>2013-12-07T10:37:59.1Z</time>
      </trkpt>
      <trkpt lat="48.48091" lon="-2.74153">
        <ele>36</ele>
        <time>2013-12-07T10:38:02.1Z</time>
      </trkpt>
      <trkpt lat="48.48092" lon="-2.74149">
        <ele>36</ele>
        <time>2013-12-07T10:38:05.1Z</time>
      </trkpt>
      <trkpt lat="48.48092" lon="-2.74145">
        <ele>36</ele>
        <time>2013-12-07T10:38:07.1Z</time>
      </trkpt>
      <trkpt lat="48.48092" lon="-2.74142">
        <ele>36</ele>
        <time>2013-12-07T10:38:09.1Z</time>
      </trkpt>
      <trkpt lat="48.48093" lon="-2.74137">
        <ele>36</ele>
        <time>2013-12-07T10:38:12.1Z</time>
      </trkpt>
      <trkpt lat="48.48094" lon="-2.74133">
        <ele>35</ele>
        <time>2013-12-07T10:38:15.1Z</time>
      </trkpt>
      <trkpt lat="48.48095" lon="-2.7413">
        <ele>35</ele>
        <time>2013-12-07T10:38:17.1Z</time>
      </trkpt>
      <trkpt lat="48.48096" lon="-2.74126">
        <ele>35</ele>
        <time>2013-12-07T10:38:20.1Z</time>
      </trkpt>
      <trkpt lat="48.48096" lon="-2.74123">
        <ele>35</ele>
        <time>2013-12-07T10:38:22.1Z</time>
      </trkpt>
      <trkpt lat="48.48097" lon="-2.74119">
        <ele>36</ele>
        <time>2013-12-07T10:38:25.1Z</time>
      </trkpt>
      <trkpt lat="48.48098" lon="-2.74117">
        <ele>35</ele>
        <time>2013-12-07T10:38:28.1Z</time>
      </trkpt>
      <trkpt lat="48.48101" lon="-2.74116">
        <ele>35</ele>
        <time>2013-12-07T10:38:30.1Z</time>
      </trkpt>
      <trkpt lat="48.48102" lon="-2.74114">
        <ele>35</ele>
        <time>2013-12-07T10:38:32.1Z</time>
      </trkpt>
      <trkpt lat="48.48104" lon="-2.74113">
        <ele>35</ele>
        <time>2013-12-07T10:38:34.1Z</time>
      </trkpt>
      <trkpt lat="48.48106" lon="-2.74112">
        <ele>35</ele>
        <time>2013-12-07T10:38:37.1Z</time>
      </trkpt>
      <trkpt lat="48.48109" lon="-2.7411">
        <ele>35</ele>
        <time>2013-12-07T10:38:40.1Z</time>
      </trkpt>
      <trkpt lat="48.48112" lon="-2.74108">
        <ele>35</ele>
        <time>2013-12-07T10:38:43.1Z</time>
      </trkpt>
      <trkpt lat="48.48114" lon="-2.74106">
        <ele>35</ele>
        <time>2013-12-07T10:38:45.1Z</time>
      </trkpt>
      <trkpt lat="48.48116" lon="-2.74105">
        <ele>35</ele>
        <time>2013-12-07T10:38:47.1Z</time>
      </trkpt>
      <trkpt lat="48.48119" lon="-2.74103">
        <ele>35</ele>
        <time>2013-12-07T10:38:50.1Z</time>
      </trkpt>
      <trkpt lat="48.48121" lon="-2.74102">
        <ele>35</ele>
        <time>2013-12-07T10:38:52.1Z</time>
      </trkpt>
      <trkpt lat="48.48123" lon="-2.74101">
        <ele>35</ele>
        <time>2013-12-07T10:38:54.1Z</time>
      </trkpt>
      <trkpt lat="48.48124" lon="-2.741">
        <ele>35</ele>
        <time>2013-12-07T10:38:56.1Z</time>
      </trkpt>
      <trkpt lat="48.48127" lon="-2.74099">
        <ele>35</ele>
        <time>2013-12-07T10:38:58.1Z</time>
      </trkpt>
      <trkpt lat="48.48129" lon="-2.74098">
        <ele>35</ele>
        <time>2013-12-07T10:39:00.1Z</time>
      </trkpt>
      <trkpt lat="48.4813" lon="-2.74097">
        <ele>35</ele>
        <time>2013-12-07T10:39:02.1Z</time>
      </trkpt>
      <trkpt lat="48.48132" lon="-2.74097">
        <ele>35</ele>
        <time>2013-12-07T10:39:04.1Z</time>
      </trkpt>
      <trkpt lat="48.48135" lon="-2.74096">
        <ele>35</ele>
        <time>2013-12-07T10:39:07.1Z</time>
      </trkpt>
      <trkpt lat="48.48137" lon="-2.74095">
        <ele>34</ele>
        <time>2013-12-07T10:39:09.1Z</time>
      </trkpt>
      <trkpt lat="48.48138" lon="-2.74095">
        <ele>34</ele>
        <time>2013-12-07T10:39:11.1Z</time>
      </trkpt>
      <trkpt lat="48.48141" lon="-2.74095">
        <ele>34</ele>
        <time>2013-12-07T10:39:14.1Z</time>
      </trkpt>
      <trkpt lat="48.48143" lon="-2.74094">
        <ele>34</ele>
        <time>2013-12-07T10:39:16.1Z</time>
      </trkpt>
      <trkpt lat="48.48146" lon="-2.74092">
        <ele>34</ele>
        <time>2013-12-07T10:39:19.1Z</time>
      </trkpt>
      <trkpt lat="48.48148" lon="-2.74092">
        <ele>34</ele>
        <time>2013-12-07T10:39:21.1Z</time>
      </trkpt>
      <trkpt lat="48.48151" lon="-2.74091">
        <ele>34</ele>
        <time>2013-12-07T10:39:23.1Z</time>
      </trkpt>
      <trkpt lat="48.48154" lon="-2.74089">
        <ele>34</ele>
        <time>2013-12-07T10:39:26.1Z</time>
      </trkpt>
      <trkpt lat="48.48156" lon="-2.74088">
        <ele>34</ele>
        <time>2013-12-07T10:39:28.1Z</time>
      </trkpt>
      <trkpt lat="48.4816" lon="-2.74087">
        <ele>34</ele>
        <time>2013-12-07T10:39:31.1Z</time>
      </trkpt>
      <trkpt lat="48.48164" lon="-2.74085">
        <ele>33</ele>
        <time>2013-12-07T10:39:34.1Z</time>
      </trkpt>
      <trkpt lat="48.48167" lon="-2.74084">
        <ele>34</ele>
        <time>2013-12-07T10:39:36.1Z</time>
      </trkpt>
      <trkpt lat="48.48171" lon="-2.74083">
        <ele>34</ele>
        <time>2013-12-07T10:39:39.1Z</time>
      </trkpt>
      <trkpt lat="48.48174" lon="-2.74082">
        <ele>34</ele>
        <time>2013-12-07T10:39:41.1Z</time>
      </trkpt>
      <trkpt lat="48.48176" lon="-2.74081">
        <ele>34</ele>
        <time>2013-12-07T10:39:43.1Z</time>
      </trkpt>
      <trkpt lat="48.4818" lon="-2.7408">
        <ele>33</ele>
        <time>2013-12-07T10:39:46.1Z</time>
      </trkpt>
      <trkpt lat="48.48182" lon="-2.74079">
        <ele>33</ele>
        <time>2013-12-07T10:39:48.1Z</time>
      </trkpt>
      <trkpt lat="48.48186" lon="-2.74078">
        <ele>33</ele>
        <time>2013-12-07T10:39:51.1Z</time>
      </trkpt>
      <trkpt lat="48.48189" lon="-2.74077">
        <ele>33</ele>
        <time>2013-12-07T10:39:54.1Z</time>
      </trkpt>
      <trkpt lat="48.48192" lon="-2.74077">
        <ele>33</ele>
        <time>2013-12-07T10:39:56.1Z</time>
      </trkpt>
      <trkpt lat="48.48196" lon="-2.74075">
        <ele>33</ele>
        <time>2013-12-07T10:39:59.1Z</time>
      </trkpt>
      <trkpt lat="48.48198" lon="-2.74074">
        <ele>33</ele>
        <time>2013-12-07T10:40:01.1Z</time>
      </trkpt>
      <trkpt lat="48.48202" lon="-2.74073">
        <ele>33</ele>
        <time>2013-12-07T10:40:04.1Z</time>
      </trkpt>
      <trkpt lat="48.48205" lon="-2.74073">
        <ele>33</ele>
        <time>2013-12-07T10:40:06.1Z</time>
      </trkpt>
      <trkpt lat="48.48207" lon="-2.74073">
        <ele>33</ele>
        <time>2013-12-07T10:40:08.1Z</time>
      </trkpt>
      <trkpt lat="48.48209" lon="-2.74073">
        <ele>33</ele>
        <time>2013-12-07T10:40:10.1Z</time>
      </trkpt>
      <trkpt lat="48.48212" lon="-2.74073">
        <ele>33</ele>
        <time>2013-12-07T10:40:13.1Z</time>
      </trkpt>
      <trkpt lat="48.48216" lon="-2.74072">
        <ele>33</ele>
        <time>2013-12-07T10:40:16.1Z</time>
      </trkpt>
      <trkpt lat="48.48218" lon="-2.74074">
        <ele>33</ele>
        <time>2013-12-07T10:40:19.1Z</time>
      </trkpt>
      <trkpt lat="48.48221" lon="-2.74075">
        <ele>33</ele>
        <time>2013-12-07T10:40:22.1Z</time>
      </trkpt>
      <trkpt lat="48.48225" lon="-2.74075">
        <ele>33</ele>
        <time>2013-12-07T10:40:25.1Z</time>
      </trkpt>
      <trkpt lat="48.48227" lon="-2.74076">
        <ele>33</ele>
        <time>2013-12-07T10:40:27.1Z</time>
      </trkpt>
      <trkpt lat="48.48229" lon="-2.74077">
        <ele>33</ele>
        <time>2013-12-07T10:40:29.1Z</time>
      </trkpt>
      <trkpt lat="48.48231" lon="-2.74078">
        <ele>33</ele>
        <time>2013-12-07T10:40:31.1Z</time>
      </trkpt>
      <trkpt lat="48.48234" lon="-2.74079">
        <ele>33</ele>
        <time>2013-12-07T10:40:34.1Z</time>
      </trkpt>
      <trkpt lat="48.48235" lon="-2.7408">
        <ele>33</ele>
        <time>2013-12-07T10:40:36.1Z</time>
      </trkpt>
      <trkpt lat="48.48237" lon="-2.74081">
        <ele>33</ele>
        <time>2013-12-07T10:40:38.1Z</time>
      </trkpt>
      <trkpt lat="48.4824" lon="-2.74081">
        <ele>33</ele>
        <time>2013-12-07T10:40:41.1Z</time>
      </trkpt>
      <trkpt lat="48.48243" lon="-2.74081">
        <ele>33</ele>
        <time>2013-12-07T10:40:44.1Z</time>
      </trkpt>
      <trkpt lat="48.48246" lon="-2.74082">
        <ele>32</ele>
        <time>2013-12-07T10:40:47.1Z</time>
      </trkpt>
      <trkpt lat="48.48249" lon="-2.74083">
        <ele>33</ele>
        <time>2013-12-07T10:40:50.1Z</time>
      </trkpt>
      <trkpt lat="48.48251" lon="-2.74084">
        <ele>32</ele>
        <time>2013-12-07T10:40:53.1Z</time>
      </trkpt>
      <trkpt lat="48.48253" lon="-2.74085">
        <ele>33</ele>
        <time>2013-12-07T10:40:55.1Z</time>
      </trkpt>
      <trkpt lat="48.48256" lon="-2.74087">
        <ele>32</ele>
        <time>2013-12-07T10:40:58.1Z</time>
      </trkpt>
      <trkpt lat="48.48258" lon="-2.74088">
        <ele>32</ele>
        <time>2013-12-07T10:41:00.1Z</time>
      </trkpt>
      <trkpt lat="48.4826" lon="-2.74089">
        <ele>32</ele>
        <time>2013-12-07T10:41:02.1Z</time>
      </trkpt>
      <trkpt lat="48.48262" lon="-2.74089">
        <ele>32</ele>
        <time>2013-12-07T10:41:04.1Z</time>
      </trkpt>
      <trkpt lat="48.48265" lon="-2.7409">
        <ele>32</ele>
        <time>2013-12-07T10:41:07.1Z</time>
      </trkpt>
      <trkpt lat="48.48269" lon="-2.74091">
        <ele>32</ele>
        <time>2013-12-07T10:41:10.1Z</time>
      </trkpt>
      <trkpt lat="48.48271" lon="-2.74092">
        <ele>32</ele>
        <time>2013-12-07T10:41:13.1Z</time>
      </trkpt>
      <trkpt lat="48.48273" lon="-2.74093">
        <ele>33</ele>
        <time>2013-12-07T10:41:15.1Z</time>
      </trkpt>
      <trkpt lat="48.48276" lon="-2.74094">
        <ele>33</ele>
        <time>2013-12-07T10:41:18.1Z</time>
      </trkpt>
      <trkpt lat="48.48278" lon="-2.74095">
        <ele>33</ele>
        <time>2013-12-07T10:41:20.1Z</time>
      </trkpt>
      <trkpt lat="48.48282" lon="-2.74096">
        <ele>32</ele>
        <time>2013-12-07T10:41:23.1Z</time>
      </trkpt>
      <trkpt lat="48.48284" lon="-2.74096">
        <ele>32</ele>
        <time>2013-12-07T10:41:25.1Z</time>
      </trkpt>
      <trkpt lat="48.48286" lon="-2.74097">
        <ele>32</ele>
        <time>2013-12-07T10:41:28.1Z</time>
      </trkpt>
      <trkpt lat="48.48289" lon="-2.74097">
        <ele>32</ele>
        <time>2013-12-07T10:41:30.1Z</time>
      </trkpt>
      <trkpt lat="48.48291" lon="-2.74098">
        <ele>32</ele>
        <time>2013-12-07T10:41:32.1Z</time>
      </trkpt>
      <trkpt lat="48.48294" lon="-2.74098">
        <ele>32</ele>
        <time>2013-12-07T10:41:35.1Z</time>
      </trkpt>
      <trkpt lat="48.48296" lon="-2.74099">
        <ele>32</ele>
        <time>2013-12-07T10:41:37.1Z</time>
      </trkpt>
      <trkpt lat="48.48299" lon="-2.74099">
        <ele>31</ele>
        <time>2013-12-07T10:41:39.1Z</time>
      </trkpt>
      <trkpt lat="48.48302" lon="-2.741">
        <ele>31</ele>
        <time>2013-12-07T10:41:42.1Z</time>
      </trkpt>
      <trkpt lat="48.48305" lon="-2.741">
        <ele>31</ele>
        <time>2013-12-07T10:41:44.1Z</time>
      </trkpt>
      <trkpt lat="48.48308" lon="-2.74102">
        <ele>31</ele>
        <time>2013-12-07T10:41:47.1Z</time>
      </trkpt>
      <trkpt lat="48.48311" lon="-2.74104">
        <ele>31</ele>
        <time>2013-12-07T10:41:50.1Z</time>
      </trkpt>
      <trkpt lat="48.48314" lon="-2.74106">
        <ele>31</ele>
        <time>2013-12-07T10:41:53.1Z</time>
      </trkpt>
      <trkpt lat="48.48317" lon="-2.74106">
        <ele>31</ele>
        <time>2013-12-07T10:41:56.1Z</time>
      </trkpt>
      <trkpt lat="48.4832" lon="-2.74107">
        <ele>31</ele>
        <time>2013-12-07T10:41:59.1Z</time>
      </trkpt>
      <trkpt lat="48.48323" lon="-2.74108">
        <ele>31</ele>
        <time>2013-12-07T10:42:02.1Z</time>
      </trkpt>
      <trkpt lat="48.48327" lon="-2.74109">
        <ele>31</ele>
        <time>2013-12-07T10:42:05.1Z</time>
      </trkpt>
      <trkpt lat="48.48329" lon="-2.7411">
        <ele>30</ele>
        <time>2013-12-07T10:42:07.1Z</time>
      </trkpt>
      <trkpt lat="48.48331" lon="-2.74111">
        <ele>30</ele>
        <time>2013-12-07T10:42:09.1Z</time>
      </trkpt>
      <trkpt lat="48.48333" lon="-2.74112">
        <ele>30</ele>
        <time>2013-12-07T10:42:12.1Z</time>
      </trkpt>
      <trkpt lat="48.48335" lon="-2.74113">
        <ele>29</ele>
        <time>2013-12-07T10:42:14.1Z</time>
      </trkpt>
      <trkpt lat="48.48338" lon="-2.74114">
        <ele>29</ele>
        <time>2013-12-07T10:42:17.1Z</time>
      </trkpt>
      <trkpt lat="48.48341" lon="-2.74114">
        <ele>29</ele>
        <time>2013-12-07T10:42:19.1Z</time>
      </trkpt>
      <trkpt lat="48.48343" lon="-2.74115">
        <ele>29</ele>
        <time>2013-12-07T10:42:22.1Z</time>
      </trkpt>
      <trkpt lat="48.48344" lon="-2.74115">
        <ele>29</ele>
        <time>2013-12-07T10:42:24.1Z</time>
      </trkpt>
      <trkpt lat="48.48345" lon="-2.74116">
        <ele>29</ele>
        <time>2013-12-07T10:42:26.1Z</time>
      </trkpt>
      <trkpt lat="48.48346" lon="-2.74116">
        <ele>28</ele>
        <time>2013-12-07T10:42:28.1Z</time>
      </trkpt>
      <trkpt lat="48.48349" lon="-2.74117">
        <ele>28</ele>
        <time>2013-12-07T10:42:31.1Z</time>
      </trkpt>
      <trkpt lat="48.4835" lon="-2.74118">
        <ele>28</ele>
        <time>2013-12-07T10:42:33.1Z</time>
      </trkpt>
      <trkpt lat="48.48351" lon="-2.74119">
        <ele>28</ele>
        <time>2013-12-07T10:42:35.1Z</time>
      </trkpt>
      <trkpt lat="48.48353" lon="-2.7412">
        <ele>28</ele>
        <time>2013-12-07T10:42:38.1Z</time>
      </trkpt>
      <trkpt lat="48.48354" lon="-2.7412">
        <ele>27</ele>
        <time>2013-12-07T10:42:40.1Z</time>
      </trkpt>
      <trkpt lat="48.48356" lon="-2.7412">
        <ele>27</ele>
        <time>2013-12-07T10:42:43.1Z</time>
      </trkpt>
      <trkpt lat="48.48358" lon="-2.7412">
        <ele>27</ele>
        <time>2013-12-07T10:42:46.1Z</time>
      </trkpt>
      <trkpt lat="48.48359" lon="-2.74121">
        <ele>27</ele>
        <time>2013-12-07T10:42:48.1Z</time>
      </trkpt>
      <trkpt lat="48.48361" lon="-2.74123">
        <ele>26</ele>
        <time>2013-12-07T10:42:51.1Z</time>
      </trkpt>
      <trkpt lat="48.48364" lon="-2.74124">
        <ele>26</ele>
        <time>2013-12-07T10:42:54.1Z</time>
      </trkpt>
      <trkpt lat="48.48366" lon="-2.74125">
        <ele>26</ele>
        <time>2013-12-07T10:42:56.1Z</time>
      </trkpt>
      <trkpt lat="48.4837" lon="-2.74126">
        <ele>26</ele>
        <time>2013-12-07T10:42:59.1Z</time>
      </trkpt>
      <trkpt lat="48.48373" lon="-2.74128">
        <ele>26</ele>
        <time>2013-12-07T10:43:02.1Z</time>
      </trkpt>
      <trkpt lat="48.48375" lon="-2.74128">
        <ele>26</ele>
        <time>2013-12-07T10:43:04.1Z</time>
      </trkpt>
      <trkpt lat="48.48378" lon="-2.7413">
        <ele>26</ele>
        <time>2013-12-07T10:43:07.1Z</time>
      </trkpt>
      <trkpt lat="48.48381" lon="-2.74132">
        <ele>25</ele>
        <time>2013-12-07T10:43:10.1Z</time>
      </trkpt>
      <trkpt lat="48.48383" lon="-2.74132">
        <ele>25</ele>
        <time>2013-12-07T10:43:12.1Z</time>
      </trkpt>
      <trkpt lat="48.48385" lon="-2.74133">
        <ele>25</ele>
        <time>2013-12-07T10:43:14.1Z</time>
      </trkpt>
      <trkpt lat="48.48388" lon="-2.74134">
        <ele>25</ele>
        <time>2013-12-07T10:43:17.1Z</time>
      </trkpt>
      <trkpt lat="48.4839" lon="-2.74135">
        <ele>25</ele>
        <time>2013-12-07T10:43:19.1Z</time>
      </trkpt>
      <trkpt lat="48.48392" lon="-2.74136">
        <ele>25</ele>
        <time>2013-12-07T10:43:21.1Z</time>
      </trkpt>
      <trkpt lat="48.48395" lon="-2.74137">
        <ele>25</ele>
        <time>2013-12-07T10:43:23.1Z</time>
      </trkpt>
      <trkpt lat="48.48397" lon="-2.74139">
        <ele>25</ele>
        <time>2013-12-07T10:43:25.1Z</time>
      </trkpt>
      <trkpt lat="48.484" lon="-2.7414">
        <ele>25</ele>
        <time>2013-12-07T10:43:27.1Z</time>
      </trkpt>
      <trkpt lat="48.48404" lon="-2.74142">
        <ele>25</ele>
        <time>2013-12-07T10:43:30.1Z</time>
      </trkpt>
      <trkpt lat="48.48405" lon="-2.74143">
        <ele>25</ele>
        <time>2013-12-07T10:43:32.1Z</time>
      </trkpt>
      <trkpt lat="48.48409" lon="-2.74144">
        <ele>25</ele>
        <time>2013-12-07T10:43:35.1Z</time>
      </trkpt>
      <trkpt lat="48.48411" lon="-2.74145">
        <ele>25</ele>
        <time>2013-12-07T10:43:37.1Z</time>
      </trkpt>
      <trkpt lat="48.48414" lon="-2.74146">
        <ele>24</ele>
        <time>2013-12-07T10:43:40.1Z</time>
      </trkpt>
      <trkpt lat="48.48416" lon="-2.74147">
        <ele>24</ele>
        <time>2013-12-07T10:43:42.1Z</time>
      </trkpt>
      <trkpt lat="48.48418" lon="-2.74149">
        <ele>24</ele>
        <time>2013-12-07T10:43:44.1Z</time>
      </trkpt>
      <trkpt lat="48.48421" lon="-2.7415">
        <ele>24</ele>
        <time>2013-12-07T10:43:46.1Z</time>
      </trkpt>
      <trkpt lat="48.48424" lon="-2.74151">
        <ele>24</ele>
        <time>2013-12-07T10:43:49.1Z</time>
      </trkpt>
      <trkpt lat="48.48426" lon="-2.74151">
        <ele>24</ele>
        <time>2013-12-07T10:43:51.1Z</time>
      </trkpt>
      <trkpt lat="48.48429" lon="-2.74153">
        <ele>24</ele>
        <time>2013-12-07T10:43:54.1Z</time>
      </trkpt>
      <trkpt lat="48.48431" lon="-2.74154">
        <ele>24</ele>
        <time>2013-12-07T10:43:56.1Z</time>
      </trkpt>
      <trkpt lat="48.48434" lon="-2.74155">
        <ele>24</ele>
        <time>2013-12-07T10:43:59.1Z</time>
      </trkpt>
      <trkpt lat="48.48438" lon="-2.74156">
        <ele>24</ele>
        <time>2013-12-07T10:44:02.1Z</time>
      </trkpt>
      <trkpt lat="48.48442" lon="-2.74157">
        <ele>24</ele>
        <time>2013-12-07T10:44:05.1Z</time>
      </trkpt>
      <trkpt lat="48.48445" lon="-2.74158">
        <ele>24</ele>
        <time>2013-12-07T10:44:08.1Z</time>
      </trkpt>
      <trkpt lat="48.48447" lon="-2.74157">
        <ele>24</ele>
        <time>2013-12-07T10:44:10.1Z</time>
      </trkpt>
      <trkpt lat="48.4845" lon="-2.74158">
        <ele>24</ele>
        <time>2013-12-07T10:44:13.1Z</time>
      </trkpt>
      <trkpt lat="48.48453" lon="-2.74159">
        <ele>24</ele>
        <time>2013-12-07T10:44:16.1Z</time>
      </trkpt>
      <trkpt lat="48.48455" lon="-2.7416">
        <ele>24</ele>
        <time>2013-12-07T10:44:18.1Z</time>
      </trkpt>
      <trkpt lat="48.4846" lon="-2.74161">
        <ele>24</ele>
        <time>2013-12-07T10:44:21.1Z</time>
      </trkpt>
      <trkpt lat="48.48462" lon="-2.74161">
        <ele>23</ele>
        <time>2013-12-07T10:44:23.1Z</time>
      </trkpt>
      <trkpt lat="48.48465" lon="-2.74162">
        <ele>23</ele>
        <time>2013-12-07T10:44:26.1Z</time>
      </trkpt>
      <trkpt lat="48.48468" lon="-2.74162">
        <ele>23</ele>
        <time>2013-12-07T10:44:28.1Z</time>
      </trkpt>
      <trkpt lat="48.4847" lon="-2.74162">
        <ele>23</ele>
        <time>2013-12-07T10:44:30.1Z</time>
      </trkpt>
      <trkpt lat="48.48472" lon="-2.74163">
        <ele>23</ele>
        <time>2013-12-07T10:44:32.1Z</time>
      </trkpt>
      <trkpt lat="48.48476" lon="-2.74164">
        <ele>23</ele>
        <time>2013-12-07T10:44:35.1Z</time>
      </trkpt>
      <trkpt lat="48.48479" lon="-2.74165">
        <ele>23</ele>
        <time>2013-12-07T10:44:38.1Z</time>
      </trkpt>
      <trkpt lat="48.48481" lon="-2.74166">
        <ele>23</ele>
        <time>2013-12-07T10:44:40.1Z</time>
      </trkpt>
      <trkpt lat="48.48483" lon="-2.74167">
        <ele>22</ele>
        <time>2013-12-07T10:44:42.1Z</time>
      </trkpt>
      <trkpt lat="48.48485" lon="-2.74169">
        <ele>22</ele>
        <time>2013-12-07T10:44:44.1Z</time>
      </trkpt>
      <trkpt lat="48.48489" lon="-2.74171">
        <ele>22</ele>
        <time>2013-12-07T10:44:47.1Z</time>
      </trkpt>
      <trkpt lat="48.48492" lon="-2.74172">
        <ele>22</ele>
        <time>2013-12-07T10:44:50.1Z</time>
      </trkpt>
      <trkpt lat="48.48494" lon="-2.74172">
        <ele>22</ele>
        <time>2013-12-07T10:44:52.1Z</time>
      </trkpt>
      <trkpt lat="48.48496" lon="-2.74173">
        <ele>22</ele>
        <time>2013-12-07T10:44:55.1Z</time>
      </trkpt>
      <trkpt lat="48.48499" lon="-2.74174">
        <ele>22</ele>
        <time>2013-12-07T10:44:58.1Z</time>
      </trkpt>
      <trkpt lat="48.48502" lon="-2.74175">
        <ele>21</ele>
        <time>2013-12-07T10:45:01.1Z</time>
      </trkpt>
      <trkpt lat="48.48504" lon="-2.74178">
        <ele>21</ele>
        <time>2013-12-07T10:45:04.1Z</time>
      </trkpt>
      <trkpt lat="48.48506" lon="-2.74179">
        <ele>21</ele>
        <time>2013-12-07T10:45:06.1Z</time>
      </trkpt>
      <trkpt lat="48.48508" lon="-2.7418">
        <ele>21</ele>
        <time>2013-12-07T10:45:09.1Z</time>
      </trkpt>
      <trkpt lat="48.48511" lon="-2.74182">
        <ele>21</ele>
        <time>2013-12-07T10:45:12.1Z</time>
      </trkpt>
      <trkpt lat="48.48513" lon="-2.74183">
        <ele>21</ele>
        <time>2013-12-07T10:45:14.1Z</time>
      </trkpt>
      <trkpt lat="48.48515" lon="-2.74184">
        <ele>21</ele>
        <time>2013-12-07T10:45:17.1Z</time>
      </trkpt>
      <trkpt lat="48.48518" lon="-2.74187">
        <ele>21</ele>
        <time>2013-12-07T10:45:20.1Z</time>
      </trkpt>
      <trkpt lat="48.48519" lon="-2.74189">
        <ele>21</ele>
        <time>2013-12-07T10:45:22.1Z</time>
      </trkpt>
      <trkpt lat="48.48522" lon="-2.74191">
        <ele>21</ele>
        <time>2013-12-07T10:45:25.1Z</time>
      </trkpt>
      <trkpt lat="48.48523" lon="-2.74193">
        <ele>21</ele>
        <time>2013-12-07T10:45:27.1Z</time>
      </trkpt>
      <trkpt lat="48.48525" lon="-2.74194">
        <ele>21</ele>
        <time>2013-12-07T10:45:29.1Z</time>
      </trkpt>
      <trkpt lat="48.48526" lon="-2.74195">
        <ele>21</ele>
        <time>2013-12-07T10:45:31.1Z</time>
      </trkpt>
      <trkpt lat="48.48528" lon="-2.74198">
        <ele>21</ele>
        <time>2013-12-07T10:45:34.1Z</time>
      </trkpt>
      <trkpt lat="48.48529" lon="-2.74201">
        <ele>21</ele>
        <time>2013-12-07T10:45:36.1Z</time>
      </trkpt>
      <trkpt lat="48.48531" lon="-2.74203">
        <ele>21</ele>
        <time>2013-12-07T10:45:38.1Z</time>
      </trkpt>
      <trkpt lat="48.48533" lon="-2.74207">
        <ele>21</ele>
        <time>2013-12-07T10:45:41.1Z</time>
      </trkpt>
      <trkpt lat="48.48534" lon="-2.74209">
        <ele>20</ele>
        <time>2013-12-07T10:45:43.1Z</time>
      </trkpt>
      <trkpt lat="48.48535" lon="-2.74211">
        <ele>20</ele>
        <time>2013-12-07T10:45:45.1Z</time>
      </trkpt>
      <trkpt lat="48.48536" lon="-2.74216">
        <ele>21</ele>
        <time>2013-12-07T10:45:48.1Z</time>
      </trkpt>
      <trkpt lat="48.48537" lon="-2.74219">
        <ele>21</ele>
        <time>2013-12-07T10:45:50.1Z</time>
      </trkpt>
      <trkpt lat="48.48538" lon="-2.74222">
        <ele>20</ele>
        <time>2013-12-07T10:45:52.1Z</time>
      </trkpt>
      <trkpt lat="48.48539" lon="-2.74226">
        <ele>20</ele>
        <time>2013-12-07T10:45:55.1Z</time>
      </trkpt>
      <trkpt lat="48.4854" lon="-2.74229">
        <ele>20</ele>
        <time>2013-12-07T10:45:57.1Z</time>
      </trkpt>
      <trkpt lat="48.48541" lon="-2.74232">
        <ele>20</ele>
        <time>2013-12-07T10:45:59.1Z</time>
      </trkpt>
      <trkpt lat="48.48543" lon="-2.74236">
        <ele>20</ele>
        <time>2013-12-07T10:46:02.1Z</time>
      </trkpt>
      <trkpt lat="48.48543" lon="-2.74239">
        <ele>20</ele>
        <time>2013-12-07T10:46:04.1Z</time>
      </trkpt>
      <trkpt lat="48.48544" lon="-2.74242">
        <ele>20</ele>
        <time>2013-12-07T10:46:06.1Z</time>
      </trkpt>
      <trkpt lat="48.48545" lon="-2.74244">
        <ele>20</ele>
        <time>2013-12-07T10:46:08.1Z</time>
      </trkpt>
      <trkpt lat="48.48546" lon="-2.74245">
        <ele>20</ele>
        <time>2013-12-07T10:46:10.1Z</time>
      </trkpt>
      <trkpt lat="48.48548" lon="-2.74246">
        <ele>20</ele>
        <time>2013-12-07T10:46:13.1Z</time>
      </trkpt>
      <trkpt lat="48.4855" lon="-2.74248">
        <ele>20</ele>
        <time>2013-12-07T10:46:15.1Z</time>
      </trkpt>
      <trkpt lat="48.48551" lon="-2.7425">
        <ele>20</ele>
        <time>2013-12-07T10:46:18.1Z</time>
      </trkpt>
      <trkpt lat="48.48551" lon="-2.74251">
        <ele>20</ele>
        <time>2013-12-07T10:46:21.1Z</time>
      </trkpt>
      <trkpt lat="48.48552" lon="-2.74252">
        <ele>20</ele>
        <time>2013-12-07T10:46:23.1Z</time>
      </trkpt>
      <trkpt lat="48.48552" lon="-2.74252">
        <ele>20</ele>
        <time>2013-12-07T10:46:25.1Z</time>
      </trkpt>
      <trkpt lat="48.48552" lon="-2.74253">
        <ele>20</ele>
        <time>2013-12-07T10:46:28.1Z</time>
      </trkpt>
      <trkpt lat="48.48552" lon="-2.74253">
        <ele>20</ele>
        <time>2013-12-07T10:46:31.1Z</time>
      </trkpt>
      <trkpt lat="48.48552" lon="-2.74253">
        <ele>20</ele>
        <time>2013-12-07T10:46:34.1Z</time>
      </trkpt>
      <trkpt lat="48.48552" lon="-2.74253">
        <ele>20</ele>
        <time>2013-12-07T10:46:37.1Z</time>
      </trkpt>
      <trkpt lat="48.48553" lon="-2.7425">
        <ele>20</ele>
        <time>2013-12-07T10:46:40.1Z</time>
      </trkpt>
      <trkpt lat="48.48554" lon="-2.74247">
        <ele>20</ele>
        <time>2013-12-07T10:46:42.1Z</time>
      </trkpt>
      <trkpt lat="48.48556" lon="-2.74245">
        <ele>20</ele>
        <time>2013-12-07T10:46:44.1Z</time>
      </trkpt>
      <trkpt lat="48.48558" lon="-2.74243">
        <ele>20</ele>
        <time>2013-12-07T10:46:46.1Z</time>
      </trkpt>
      <trkpt lat="48.48562" lon="-2.7424">
        <ele>19</ele>
        <time>2013-12-07T10:46:49.1Z</time>
      </trkpt>
      <trkpt lat="48.48564" lon="-2.7424">
        <ele>19</ele>
        <time>2013-12-07T10:46:51.1Z</time>
      </trkpt>
      <trkpt lat="48.48568" lon="-2.7424">
        <ele>19</ele>
        <time>2013-12-07T10:46:54.1Z</time>
      </trkpt>
      <trkpt lat="48.48571" lon="-2.74241">
        <ele>19</ele>
        <time>2013-12-07T10:46:56.1Z</time>
      </trkpt>
      <trkpt lat="48.48573" lon="-2.74241">
        <ele>19</ele>
        <time>2013-12-07T10:46:58.1Z</time>
      </trkpt>
      <trkpt lat="48.48576" lon="-2.74241">
        <ele>19</ele>
        <time>2013-12-07T10:47:00.1Z</time>
      </trkpt>
      <trkpt lat="48.48578" lon="-2.74241">
        <ele>19</ele>
        <time>2013-12-07T10:47:03.1Z</time>
      </trkpt>
      <trkpt lat="48.48582" lon="-2.7424">
        <ele>19</ele>
        <time>2013-12-07T10:47:06.1Z</time>
      </trkpt>
      <trkpt lat="48.48586" lon="-2.74238">
        <ele>19</ele>
        <time>2013-12-07T10:47:09.1Z</time>
      </trkpt>
      <trkpt lat="48.48587" lon="-2.74236">
        <ele>19</ele>
        <time>2013-12-07T10:47:11.1Z</time>
      </trkpt>
      <trkpt lat="48.48589" lon="-2.74234">
        <ele>18</ele>
        <time>2013-12-07T10:47:13.1Z</time>
      </trkpt>
      <trkpt lat="48.48591" lon="-2.74231">
        <ele>18</ele>
        <time>2013-12-07T10:47:15.1Z</time>
      </trkpt>
      <trkpt lat="48.48592" lon="-2.74229">
        <ele>18</ele>
        <time>2013-12-07T10:47:17.1Z</time>
      </trkpt>
      <trkpt lat="48.48595" lon="-2.74225">
        <ele>18</ele>
        <time>2013-12-07T10:47:20.1Z</time>
      </trkpt>
      <trkpt lat="48.48596" lon="-2.74223">
        <ele>18</ele>
        <time>2013-12-07T10:47:22.1Z</time>
      </trkpt>
      <trkpt lat="48.48598" lon="-2.7422">
        <ele>18</ele>
        <time>2013-12-07T10:47:24.1Z</time>
      </trkpt>
      <trkpt lat="48.486" lon="-2.74217">
        <ele>18</ele>
        <time>2013-12-07T10:47:26.1Z</time>
      </trkpt>
      <trkpt lat="48.48602" lon="-2.74215">
        <ele>18</ele>
        <time>2013-12-07T10:47:28.1Z</time>
      </trkpt>
      <trkpt lat="48.48603" lon="-2.74211">
        <ele>18</ele>
        <time>2013-12-07T10:47:30.1Z</time>
      </trkpt>
      <trkpt lat="48.48606" lon="-2.74208">
        <ele>18</ele>
        <time>2013-12-07T10:47:33.1Z</time>
      </trkpt>
      <trkpt lat="48.48608" lon="-2.74204">
        <ele>18</ele>
        <time>2013-12-07T10:47:36.1Z</time>
      </trkpt>
      <trkpt lat="48.4861" lon="-2.74201">
        <ele>18</ele>
        <time>2013-12-07T10:47:38.1Z</time>
      </trkpt>
      <trkpt lat="48.48611" lon="-2.74196">
        <ele>18</ele>
        <time>2013-12-07T10:47:41.1Z</time>
      </trkpt>
      <trkpt lat="48.48613" lon="-2.74194">
        <ele>18</ele>
        <time>2013-12-07T10:47:43.1Z</time>
      </trkpt>
      <trkpt lat="48.48615" lon="-2.74192">
        <ele>18</ele>
        <time>2013-12-07T10:47:45.1Z</time>
      </trkpt>
      <trkpt lat="48.48617" lon="-2.74187">
        <ele>18</ele>
        <time>2013-12-07T10:47:48.1Z</time>
      </trkpt>
      <trkpt lat="48.4862" lon="-2.74183">
        <ele>18</ele>
        <time>2013-12-07T10:47:50.1Z</time>
      </trkpt>
      <trkpt lat="48.48622" lon="-2.74181">
        <ele>17</ele>
        <time>2013-12-07T10:47:53.1Z</time>
      </trkpt>
      <trkpt lat="48.48624" lon="-2.74181">
        <ele>17</ele>
        <time>2013-12-07T10:47:55.1Z</time>
      </trkpt>
      <trkpt lat="48.48626" lon="-2.74179">
        <ele>17</ele>
        <time>2013-12-07T10:47:57.1Z</time>
      </trkpt>
      <trkpt lat="48.48629" lon="-2.74176">
        <ele>17</ele>
        <time>2013-12-07T10:48:01.1Z</time>
      </trkpt>
      <trkpt lat="48.48631" lon="-2.74174">
        <ele>17</ele>
        <time>2013-12-07T10:48:03.1Z</time>
      </trkpt>
      <trkpt lat="48.48634" lon="-2.74171">
        <ele>17</ele>
        <time>2013-12-07T10:48:06.1Z</time>
      </trkpt>
      <trkpt lat="48.48636" lon="-2.74167">
        <ele>17</ele>
        <time>2013-12-07T10:48:09.1Z</time>
      </trkpt>
      <trkpt lat="48.48639" lon="-2.74165">
        <ele>17</ele>
        <time>2013-12-07T10:48:12.1Z</time>
      </trkpt>
      <trkpt lat="48.48641" lon="-2.74163">
        <ele>17</ele>
        <time>2013-12-07T10:48:14.1Z</time>
      </trkpt>
      <trkpt lat="48.48643" lon="-2.7416">
        <ele>17</ele>
        <time>2013-12-07T10:48:17.1Z</time>
      </trkpt>
      <trkpt lat="48.48645" lon="-2.74158">
        <ele>17</ele>
        <time>2013-12-07T10:48:19.1Z</time>
      </trkpt>
      <trkpt lat="48.48648" lon="-2.74155">
        <ele>17</ele>
        <time>2013-12-07T10:48:22.1Z</time>
      </trkpt>
      <trkpt lat="48.4865" lon="-2.74152">
        <ele>16</ele>
        <time>2013-12-07T10:48:24.1Z</time>
      </trkpt>
      <trkpt lat="48.48652" lon="-2.74149">
        <ele>16</ele>
        <time>2013-12-07T10:48:27.1Z</time>
      </trkpt>
      <trkpt lat="48.48654" lon="-2.74148">
        <ele>16</ele>
        <time>2013-12-07T10:48:29.1Z</time>
      </trkpt>
      <trkpt lat="48.48656" lon="-2.74144">
        <ele>16</ele>
        <time>2013-12-07T10:48:31.1Z</time>
      </trkpt>
      <trkpt lat="48.48658" lon="-2.74142">
        <ele>16</ele>
        <time>2013-12-07T10:48:34.1Z</time>
      </trkpt>
      <trkpt lat="48.48661" lon="-2.74139">
        <ele>16</ele>
        <time>2013-12-07T10:48:37.1Z</time>
      </trkpt>
      <trkpt lat="48.48663" lon="-2.74138">
        <ele>16</ele>
        <time>2013-12-07T10:48:39.1Z</time>
      </trkpt>
      <trkpt lat="48.48666" lon="-2.74134">
        <ele>16</ele>
        <time>2013-12-07T10:48:42.1Z</time>
      </trkpt>
      <trkpt lat="48.48668" lon="-2.74131">
        <ele>16</ele>
        <time>2013-12-07T10:48:44.1Z</time>
      </trkpt>
      <trkpt lat="48.4867" lon="-2.7413">
        <ele>16</ele>
        <time>2013-12-07T10:48:47.1Z</time>
      </trkpt>
      <trkpt lat="48.48672" lon="-2.74126">
        <ele>16</ele>
        <time>2013-12-07T10:48:49.1Z</time>
      </trkpt>
      <trkpt lat="48.48673" lon="-2.74124">
        <ele>16</ele>
        <time>2013-12-07T10:48:52.1Z</time>
      </trkpt>
      <trkpt lat="48.48675" lon="-2.74119">
        <ele>16</ele>
        <time>2013-12-07T10:48:54.1Z</time>
      </trkpt>
      <trkpt lat="48.48677" lon="-2.74116">
        <ele>16</ele>
        <time>2013-12-07T10:48:58.1Z</time>
      </trkpt>
      <trkpt lat="48.48679" lon="-2.74114">
        <ele>16</ele>
        <time>2013-12-07T10:49:00.1Z</time>
      </trkpt>
      <trkpt lat="48.48682" lon="-2.74112">
        <ele>16</ele>
        <time>2013-12-07T10:49:03.1Z</time>
      </trkpt>
      <trkpt lat="48.48684" lon="-2.74109">
        <ele>16</ele>
        <time>2013-12-07T10:49:05.1Z</time>
      </trkpt>
      <trkpt lat="48.48686" lon="-2.74107">
        <ele>16</ele>
        <time>2013-12-07T10:49:08.1Z</time>
      </trkpt>
      <trkpt lat="48.48689" lon="-2.74105">
        <ele>16</ele>
        <time>2013-12-07T10:49:10.1Z</time>
      </trkpt>
      <trkpt lat="48.48691" lon="-2.74103">
        <ele>16</ele>
        <time>2013-12-07T10:49:13.1Z</time>
      </trkpt>
      <trkpt lat="48.48693" lon="-2.741">
        <ele>16</ele>
        <time>2013-12-07T10:49:15.1Z</time>
      </trkpt>
      <trkpt lat="48.48695" lon="-2.74098">
        <ele>15</ele>
        <time>2013-12-07T10:49:17.1Z</time>
      </trkpt>
      <trkpt lat="48.48697" lon="-2.74097">
        <ele>15</ele>
        <time>2013-12-07T10:49:19.1Z</time>
      </trkpt>
      <trkpt lat="48.487" lon="-2.74095">
        <ele>15</ele>
        <time>2013-12-07T10:49:22.1Z</time>
      </trkpt>
      <trkpt lat="48.48702" lon="-2.74093">
        <ele>15</ele>
        <time>2013-12-07T10:49:24.1Z</time>
      </trkpt>
      <trkpt lat="48.48704" lon="-2.74092">
        <ele>16</ele>
        <time>2013-12-07T10:49:27.1Z</time>
      </trkpt>
      <trkpt lat="48.48707" lon="-2.74089">
        <ele>16</ele>
        <time>2013-12-07T10:49:29.1Z</time>
      </trkpt>
      <trkpt lat="48.48708" lon="-2.74088">
        <ele>16</ele>
        <time>2013-12-07T10:49:31.1Z</time>
      </trkpt>
      <trkpt lat="48.48711" lon="-2.74086">
        <ele>16</ele>
        <time>2013-12-07T10:49:33.1Z</time>
      </trkpt>
      <trkpt lat="48.48712" lon="-2.74084">
        <ele>15</ele>
        <time>2013-12-07T10:49:35.1Z</time>
      </trkpt>
      <trkpt lat="48.48715" lon="-2.74082">
        <ele>15</ele>
        <time>2013-12-07T10:49:38.1Z</time>
      </trkpt>
      <trkpt lat="48.48717" lon="-2.7408">
        <ele>15</ele>
        <time>2013-12-07T10:49:41.1Z</time>
      </trkpt>
      <trkpt lat="48.4872" lon="-2.74078">
        <ele>15</ele>
        <time>2013-12-07T10:49:43.1Z</time>
      </trkpt>
      <trkpt lat="48.48723" lon="-2.74076">
        <ele>15</ele>
        <time>2013-12-07T10:49:46.1Z</time>
      </trkpt>
      <trkpt lat="48.48724" lon="-2.74074">
        <ele>15</ele>
        <time>2013-12-07T10:49:48.1Z</time>
      </trkpt>
      <trkpt lat="48.48727" lon="-2.74071">
        <ele>15</ele>
        <time>2013-12-07T10:49:51.1Z</time>
      </trkpt>
      <trkpt lat="48.48729" lon="-2.7407">
        <ele>15</ele>
        <time>2013-12-07T10:49:53.1Z</time>
      </trkpt>
      <trkpt lat="48.4873" lon="-2.7407">
        <ele>15</ele>
        <time>2013-12-07T10:49:56.1Z</time>
      </trkpt>
      <trkpt lat="48.48733" lon="-2.74068">
        <ele>15</ele>
        <time>2013-12-07T10:49:58.1Z</time>
      </trkpt>
      <trkpt lat="48.48735" lon="-2.74067">
        <ele>15</ele>
        <time>2013-12-07T10:50:01.1Z</time>
      </trkpt>
      <trkpt lat="48.48738" lon="-2.74065">
        <ele>15</ele>
        <time>2013-12-07T10:50:03.1Z</time>
      </trkpt>
      <trkpt lat="48.48741" lon="-2.74063">
        <ele>15</ele>
        <time>2013-12-07T10:50:06.1Z</time>
      </trkpt>
      <trkpt lat="48.48743" lon="-2.74062">
        <ele>15</ele>
        <time>2013-12-07T10:50:09.1Z</time>
      </trkpt>
      <trkpt lat="48.48746" lon="-2.74059">
        <ele>15</ele>
        <time>2013-12-07T10:50:11.1Z</time>
      </trkpt>
      <trkpt lat="48.48749" lon="-2.74057">
        <ele>15</ele>
        <time>2013-12-07T10:50:15.1Z</time>
      </trkpt>
      <trkpt lat="48.48752" lon="-2.74054">
        <ele>15</ele>
        <time>2013-12-07T10:50:17.1Z</time>
      </trkpt>
      <trkpt lat="48.48754" lon="-2.74052">
        <ele>15</ele>
        <time>2013-12-07T10:50:19.1Z</time>
      </trkpt>
      <trkpt lat="48.48757" lon="-2.7405">
        <ele>14</ele>
        <time>2013-12-07T10:50:23.1Z</time>
      </trkpt>
      <trkpt lat="48.4876" lon="-2.74047">
        <ele>14</ele>
        <time>2013-12-07T10:50:26.1Z</time>
      </trkpt>
      <trkpt lat="48.48763" lon="-2.74045">
        <ele>15</ele>
        <time>2013-12-07T10:50:28.1Z</time>
      </trkpt>
      <trkpt lat="48.48766" lon="-2.74042">
        <ele>15</ele>
        <time>2013-12-07T10:50:31.1Z</time>
      </trkpt>
      <trkpt lat="48.48768" lon="-2.74041">
        <ele>15</ele>
        <time>2013-12-07T10:50:33.1Z</time>
      </trkpt>
      <trkpt lat="48.48771" lon="-2.74038">
        <ele>15</ele>
        <time>2013-12-07T10:50:37.1Z</time>
      </trkpt>
      <trkpt lat="48.48771" lon="-2.74034">
        <ele>15</ele>
        <time>2013-12-07T10:50:39.1Z</time>
      </trkpt>
      <trkpt lat="48.48771" lon="-2.74032">
        <ele>14</ele>
        <time>2013-12-07T10:50:41.1Z</time>
      </trkpt>
      <trkpt lat="48.48771" lon="-2.74029">
        <ele>15</ele>
        <time>2013-12-07T10:50:43.1Z</time>
      </trkpt>
      <trkpt lat="48.4877" lon="-2.74026">
        <ele>15</ele>
        <time>2013-12-07T10:50:46.1Z</time>
      </trkpt>
      <trkpt lat="48.48769" lon="-2.74023">
        <ele>15</ele>
        <time>2013-12-07T10:50:49.1Z</time>
      </trkpt>
      <trkpt lat="48.48769" lon="-2.74022">
        <ele>15</ele>
        <time>2013-12-07T10:50:50.1Z</time>
      </trkpt>
    </trkseg>
  </trk>
</gpx>